<?xml version="1.0" encoding="UTF-8" standalone="no" ?>
<gpx xmlns="http://www.topografix.com/GPX/1/1" xmlns:xsi="http://www.w3.org/2001/XMLSchema-instance" xsi:schemaLocation="http://www.topografix.com/GPX/1/1 http://www.topografix.com/GPX/1/1/gpx.xsd" version="1.1" creator="VisuGPX - https://www.visugpx.com">
  <metadata>
    <name>Marche du 14/02/17 ACC - ST Joseph de Porterie</name>
    <desc><![CDATA[Marche organisée par l'ACC Marche de la Chapelle sur Erdre.
Groupe de 29 marcheurs
Belle marche sous un ciel nuageux, mais sans pluie
Départ du Château de l'Hopitau à Gesvrine, la Jonelière puis traversée de l'Erdre
Jardin de la Beaujoire, St Joseph de Porterie et retour.]]></desc>
  </metadata>
  <trk>
    <name><![CDATA[Marche du 14/02/17 ACC - ST Joseph de Porterie_1]]></name>
    <trkseg>
      <trkpt lat="47.26975" lon="-1.55204">
        <ele>28.533630371094</ele>
        <time>2017-02-14T07:41:51.000Z</time>
      </trkpt>
      <trkpt lat="47.26974" lon="-1.55205">
        <ele>28.528442382812</ele>
        <time>2017-02-14T07:41:53.000Z</time>
      </trkpt>
      <trkpt lat="47.26972" lon="-1.55206">
        <ele>28.506927490234</ele>
        <time>2017-02-14T07:41:56.000Z</time>
      </trkpt>
      <trkpt lat="47.26968" lon="-1.55207">
        <ele>28.468132019043</ele>
        <time>2017-02-14T07:41:59.000Z</time>
      </trkpt>
      <trkpt lat="47.26965" lon="-1.55205">
        <ele>28.415100097656</ele>
        <time>2017-02-14T07:42:02.000Z</time>
      </trkpt>
      <trkpt lat="47.26962" lon="-1.55202">
        <ele>28.320526123047</ele>
        <time>2017-02-14T07:42:05.000Z</time>
      </trkpt>
      <trkpt lat="47.26961" lon="-1.55198">
        <ele>28.208862304688</ele>
        <time>2017-02-14T07:42:08.000Z</time>
      </trkpt>
      <trkpt lat="47.26961" lon="-1.55195">
        <ele>28.102447509766</ele>
        <time>2017-02-14T07:42:10.000Z</time>
      </trkpt>
      <trkpt lat="47.26961" lon="-1.55189">
        <ele>28.007415771484</ele>
        <time>2017-02-14T07:42:13.000Z</time>
      </trkpt>
      <trkpt lat="47.2696" lon="-1.55184">
        <ele>27.923706054688</ele>
        <time>2017-02-14T07:42:16.000Z</time>
      </trkpt>
      <trkpt lat="47.26959" lon="-1.55181">
        <ele>27.851226806641</ele>
        <time>2017-02-14T07:42:18.000Z</time>
      </trkpt>
      <trkpt lat="47.26957" lon="-1.55174">
        <ele>27.765228271484</ele>
        <time>2017-02-14T07:42:21.000Z</time>
      </trkpt>
      <trkpt lat="47.26956" lon="-1.55171">
        <ele>27.672027587891</ele>
        <time>2017-02-14T07:42:23.000Z</time>
      </trkpt>
      <trkpt lat="47.26955" lon="-1.55168">
        <ele>27.573638916016</ele>
        <time>2017-02-14T07:42:25.000Z</time>
      </trkpt>
      <trkpt lat="47.26954" lon="-1.55165">
        <ele>27.483469009399</ele>
        <time>2017-02-14T07:42:27.000Z</time>
      </trkpt>
      <trkpt lat="47.26953" lon="-1.5516">
        <ele>27.384134292603</ele>
        <time>2017-02-14T07:42:30.000Z</time>
      </trkpt>
      <trkpt lat="47.26952" lon="-1.55156">
        <ele>27.293157577515</ele>
        <time>2017-02-14T07:42:33.000Z</time>
      </trkpt>
      <trkpt lat="47.26951" lon="-1.55154">
        <ele>27.203247070312</ele>
        <time>2017-02-14T07:42:35.000Z</time>
      </trkpt>
      <trkpt lat="47.2695" lon="-1.55151">
        <ele>27.115026473999</ele>
        <time>2017-02-14T07:42:37.000Z</time>
      </trkpt>
      <trkpt lat="47.2695" lon="-1.55146">
        <ele>27.01703453064</ele>
        <time>2017-02-14T07:42:40.000Z</time>
      </trkpt>
      <trkpt lat="47.26949" lon="-1.55142">
        <ele>26.926488876343</ele>
        <time>2017-02-14T07:42:42.000Z</time>
      </trkpt>
      <trkpt lat="47.26948" lon="-1.55137">
        <ele>26.840143203735</ele>
        <time>2017-02-14T07:42:45.000Z</time>
      </trkpt>
      <trkpt lat="47.26948" lon="-1.55134">
        <ele>26.756917953491</ele>
        <time>2017-02-14T07:42:47.000Z</time>
      </trkpt>
      <trkpt lat="47.26949" lon="-1.5513">
        <ele>26.678630828857</ele>
        <time>2017-02-14T07:42:50.000Z</time>
      </trkpt>
      <trkpt lat="47.26949" lon="-1.55125">
        <ele>26.600986480713</ele>
        <time>2017-02-14T07:42:53.000Z</time>
      </trkpt>
      <trkpt lat="47.26948" lon="-1.55121">
        <ele>26.527460098267</ele>
        <time>2017-02-14T07:42:55.000Z</time>
      </trkpt>
      <trkpt lat="47.26947" lon="-1.55117">
        <ele>26.456731796265</ele>
        <time>2017-02-14T07:42:57.000Z</time>
      </trkpt>
      <trkpt lat="47.26946" lon="-1.55114">
        <ele>26.376895904541</ele>
        <time>2017-02-14T07:42:59.000Z</time>
      </trkpt>
      <trkpt lat="47.26945" lon="-1.55109">
        <ele>26.281911849976</ele>
        <time>2017-02-14T07:43:02.000Z</time>
      </trkpt>
      <trkpt lat="47.26943" lon="-1.55106">
        <ele>26.189407348633</ele>
        <time>2017-02-14T07:43:04.000Z</time>
      </trkpt>
      <trkpt lat="47.26942" lon="-1.55101">
        <ele>26.09273147583</ele>
        <time>2017-02-14T07:43:07.000Z</time>
      </trkpt>
      <trkpt lat="47.26941" lon="-1.55097">
        <ele>25.993572235107</ele>
        <time>2017-02-14T07:43:09.000Z</time>
      </trkpt>
      <trkpt lat="47.2694" lon="-1.55094">
        <ele>25.898273468018</ele>
        <time>2017-02-14T07:43:11.000Z</time>
      </trkpt>
      <trkpt lat="47.26938" lon="-1.55089">
        <ele>25.802845001221</ele>
        <time>2017-02-14T07:43:14.000Z</time>
      </trkpt>
      <trkpt lat="47.26937" lon="-1.55086">
        <ele>25.707794189453</ele>
        <time>2017-02-14T07:43:17.000Z</time>
      </trkpt>
      <trkpt lat="47.26936" lon="-1.55082">
        <ele>25.615695953369</ele>
        <time>2017-02-14T07:43:19.000Z</time>
      </trkpt>
      <trkpt lat="47.26936" lon="-1.55078">
        <ele>25.533908843994</ele>
        <time>2017-02-14T07:43:21.000Z</time>
      </trkpt>
      <trkpt lat="47.26936" lon="-1.55072">
        <ele>25.452854156494</ele>
        <time>2017-02-14T07:43:24.000Z</time>
      </trkpt>
      <trkpt lat="47.26935" lon="-1.55067">
        <ele>25.381546020508</ele>
        <time>2017-02-14T07:43:27.000Z</time>
      </trkpt>
      <trkpt lat="47.26934" lon="-1.55063">
        <ele>25.311767578125</ele>
        <time>2017-02-14T07:43:30.000Z</time>
      </trkpt>
      <trkpt lat="47.26934" lon="-1.55057">
        <ele>25.243988037109</ele>
        <time>2017-02-14T07:43:33.000Z</time>
      </trkpt>
      <trkpt lat="47.26934" lon="-1.55051">
        <ele>25.172271728516</ele>
        <time>2017-02-14T07:43:36.000Z</time>
      </trkpt>
      <trkpt lat="47.26933" lon="-1.55045">
        <ele>25.093902587891</ele>
        <time>2017-02-14T07:43:39.000Z</time>
      </trkpt>
      <trkpt lat="47.26933" lon="-1.55038">
        <ele>25.016754150391</ele>
        <time>2017-02-14T07:43:42.000Z</time>
      </trkpt>
      <trkpt lat="47.26933" lon="-1.55033">
        <ele>24.939147949219</ele>
        <time>2017-02-14T07:43:45.000Z</time>
      </trkpt>
      <trkpt lat="47.26931" lon="-1.55027">
        <ele>24.855743408203</ele>
        <time>2017-02-14T07:43:48.000Z</time>
      </trkpt>
      <trkpt lat="47.2693" lon="-1.55022">
        <ele>24.76904296875</ele>
        <time>2017-02-14T07:43:50.000Z</time>
      </trkpt>
      <trkpt lat="47.26929" lon="-1.55018">
        <ele>24.689453125</ele>
        <time>2017-02-14T07:43:52.000Z</time>
      </trkpt>
      <trkpt lat="47.26928" lon="-1.55013">
        <ele>24.602447509766</ele>
        <time>2017-02-14T07:43:55.000Z</time>
      </trkpt>
      <trkpt lat="47.26926" lon="-1.55008">
        <ele>24.512390136719</ele>
        <time>2017-02-14T07:43:57.000Z</time>
      </trkpt>
      <trkpt lat="47.26925" lon="-1.55002">
        <ele>24.41943359375</ele>
        <time>2017-02-14T07:44:00.000Z</time>
      </trkpt>
      <trkpt lat="47.26921" lon="-1.54996">
        <ele>24.341485977173</ele>
        <time>2017-02-14T07:44:03.000Z</time>
      </trkpt>
      <trkpt lat="47.2692" lon="-1.54989">
        <ele>24.300411224365</ele>
        <time>2017-02-14T07:44:06.000Z</time>
      </trkpt>
      <trkpt lat="47.26919" lon="-1.54985">
        <ele>24.296634674072</ele>
        <time>2017-02-14T07:44:08.000Z</time>
      </trkpt>
      <trkpt lat="47.26918" lon="-1.54979">
        <ele>24.337665557861</ele>
        <time>2017-02-14T07:44:11.000Z</time>
      </trkpt>
      <trkpt lat="47.26919" lon="-1.54975">
        <ele>24.426891326904</ele>
        <time>2017-02-14T07:44:13.000Z</time>
      </trkpt>
      <trkpt lat="47.2692" lon="-1.54969">
        <ele>24.547643661499</ele>
        <time>2017-02-14T07:44:16.000Z</time>
      </trkpt>
      <trkpt lat="47.26921" lon="-1.54964">
        <ele>24.668483734131</ele>
        <time>2017-02-14T07:44:18.000Z</time>
      </trkpt>
      <trkpt lat="47.26922" lon="-1.54959">
        <ele>24.804584503174</ele>
        <time>2017-02-14T07:44:21.000Z</time>
      </trkpt>
      <trkpt lat="47.26923" lon="-1.54953">
        <ele>24.942235946655</ele>
        <time>2017-02-14T07:44:24.000Z</time>
      </trkpt>
      <trkpt lat="47.26924" lon="-1.5495">
        <ele>25.073017120361</ele>
        <time>2017-02-14T07:44:26.000Z</time>
      </trkpt>
      <trkpt lat="47.26925" lon="-1.54947">
        <ele>25.19246673584</ele>
        <time>2017-02-14T07:44:28.000Z</time>
      </trkpt>
      <trkpt lat="47.26927" lon="-1.54942">
        <ele>25.319465637207</ele>
        <time>2017-02-14T07:44:31.000Z</time>
      </trkpt>
      <trkpt lat="47.26928" lon="-1.54938">
        <ele>25.434825897217</ele>
        <time>2017-02-14T07:44:33.000Z</time>
      </trkpt>
      <trkpt lat="47.26929" lon="-1.54934">
        <ele>25.544563293457</ele>
        <time>2017-02-14T07:44:36.000Z</time>
      </trkpt>
      <trkpt lat="47.26931" lon="-1.54931">
        <ele>25.652383804321</ele>
        <time>2017-02-14T07:44:38.000Z</time>
      </trkpt>
      <trkpt lat="47.26932" lon="-1.54927">
        <ele>25.761722564697</ele>
        <time>2017-02-14T07:44:40.000Z</time>
      </trkpt>
      <trkpt lat="47.26932" lon="-1.54922">
        <ele>25.863153457642</ele>
        <time>2017-02-14T07:44:43.000Z</time>
      </trkpt>
      <trkpt lat="47.2693" lon="-1.54916">
        <ele>25.964935302734</ele>
        <time>2017-02-14T07:44:46.000Z</time>
      </trkpt>
      <trkpt lat="47.2693" lon="-1.54913">
        <ele>26.051158905029</ele>
        <time>2017-02-14T07:44:48.000Z</time>
      </trkpt>
      <trkpt lat="47.26929" lon="-1.5491">
        <ele>26.124652862549</ele>
        <time>2017-02-14T07:44:50.000Z</time>
      </trkpt>
      <trkpt lat="47.26927" lon="-1.54905">
        <ele>26.185955047607</ele>
        <time>2017-02-14T07:44:53.000Z</time>
      </trkpt>
      <trkpt lat="47.26928" lon="-1.54902">
        <ele>26.234924316406</ele>
        <time>2017-02-14T07:44:55.000Z</time>
      </trkpt>
      <trkpt lat="47.26929" lon="-1.54897">
        <ele>26.279815673828</ele>
        <time>2017-02-14T07:44:58.000Z</time>
      </trkpt>
      <trkpt lat="47.26929" lon="-1.54891">
        <ele>26.330444335938</ele>
        <time>2017-02-14T07:45:01.000Z</time>
      </trkpt>
      <trkpt lat="47.26928" lon="-1.54888">
        <ele>26.383331298828</ele>
        <time>2017-02-14T07:45:04.000Z</time>
      </trkpt>
      <trkpt lat="47.26927" lon="-1.54883">
        <ele>26.437408447266</ele>
        <time>2017-02-14T07:45:07.000Z</time>
      </trkpt>
      <trkpt lat="47.26925" lon="-1.54879">
        <ele>26.485626220703</ele>
        <time>2017-02-14T07:45:09.000Z</time>
      </trkpt>
      <trkpt lat="47.26923" lon="-1.54874">
        <ele>26.524505615234</ele>
        <time>2017-02-14T07:45:12.000Z</time>
      </trkpt>
      <trkpt lat="47.2692" lon="-1.54869">
        <ele>26.556243896484</ele>
        <time>2017-02-14T07:45:15.000Z</time>
      </trkpt>
      <trkpt lat="47.26918" lon="-1.54864">
        <ele>26.588592529297</ele>
        <time>2017-02-14T07:45:17.000Z</time>
      </trkpt>
      <trkpt lat="47.26918" lon="-1.54857">
        <ele>26.628875732422</ele>
        <time>2017-02-14T07:45:20.000Z</time>
      </trkpt>
      <trkpt lat="47.26916" lon="-1.54853">
        <ele>26.668674468994</ele>
        <time>2017-02-14T07:45:22.000Z</time>
      </trkpt>
      <trkpt lat="47.26914" lon="-1.5485">
        <ele>26.708013534546</ele>
        <time>2017-02-14T07:45:24.000Z</time>
      </trkpt>
      <trkpt lat="47.26913" lon="-1.54847">
        <ele>26.749744415283</ele>
        <time>2017-02-14T07:45:26.000Z</time>
      </trkpt>
      <trkpt lat="47.26912" lon="-1.54843">
        <ele>26.793615341187</ele>
        <time>2017-02-14T07:45:28.000Z</time>
      </trkpt>
      <trkpt lat="47.2691" lon="-1.54838">
        <ele>26.83310508728</ele>
        <time>2017-02-14T07:45:31.000Z</time>
      </trkpt>
      <trkpt lat="47.26909" lon="-1.54835">
        <ele>26.877508163452</ele>
        <time>2017-02-14T07:45:33.000Z</time>
      </trkpt>
      <trkpt lat="47.26907" lon="-1.54829">
        <ele>26.948236465454</ele>
        <time>2017-02-14T07:45:36.000Z</time>
      </trkpt>
      <trkpt lat="47.26907" lon="-1.54825">
        <ele>27.044143676758</ele>
        <time>2017-02-14T07:45:39.000Z</time>
      </trkpt>
      <trkpt lat="47.26906" lon="-1.54821">
        <ele>27.156396865845</ele>
        <time>2017-02-14T07:45:41.000Z</time>
      </trkpt>
      <trkpt lat="47.26905" lon="-1.54817">
        <ele>27.282175064087</ele>
        <time>2017-02-14T07:45:43.000Z</time>
      </trkpt>
      <trkpt lat="47.26904" lon="-1.54811">
        <ele>27.436298370361</ele>
        <time>2017-02-14T07:45:46.000Z</time>
      </trkpt>
      <trkpt lat="47.26904" lon="-1.54808">
        <ele>27.58212852478</ele>
        <time>2017-02-14T07:45:48.000Z</time>
      </trkpt>
      <trkpt lat="47.26902" lon="-1.54802">
        <ele>27.730224609375</ele>
        <time>2017-02-14T07:45:51.000Z</time>
      </trkpt>
      <trkpt lat="47.269" lon="-1.54797">
        <ele>27.888809204102</ele>
        <time>2017-02-14T07:45:54.000Z</time>
      </trkpt>
      <trkpt lat="47.26899" lon="-1.54793">
        <ele>28.044368743896</ele>
        <time>2017-02-14T07:45:56.000Z</time>
      </trkpt>
      <trkpt lat="47.26899" lon="-1.54788">
        <ele>28.195957183838</ele>
        <time>2017-02-14T07:45:59.000Z</time>
      </trkpt>
      <trkpt lat="47.26897" lon="-1.54783">
        <ele>28.35471534729</ele>
        <time>2017-02-14T07:46:02.000Z</time>
      </trkpt>
      <trkpt lat="47.26895" lon="-1.54778">
        <ele>28.508819580078</ele>
        <time>2017-02-14T07:46:05.000Z</time>
      </trkpt>
      <trkpt lat="47.26893" lon="-1.54773">
        <ele>28.657403945923</ele>
        <time>2017-02-14T07:46:08.000Z</time>
      </trkpt>
      <trkpt lat="47.26892" lon="-1.5477">
        <ele>28.801906585693</ele>
        <time>2017-02-14T07:46:10.000Z</time>
      </trkpt>
      <trkpt lat="47.26891" lon="-1.54766">
        <ele>28.931976318359</ele>
        <time>2017-02-14T07:46:12.000Z</time>
      </trkpt>
      <trkpt lat="47.2689" lon="-1.54763">
        <ele>29.048877716064</ele>
        <time>2017-02-14T07:46:14.000Z</time>
      </trkpt>
      <trkpt lat="47.26888" lon="-1.54757">
        <ele>29.171817779541</ele>
        <time>2017-02-14T07:46:17.000Z</time>
      </trkpt>
      <trkpt lat="47.26888" lon="-1.54754">
        <ele>29.285573959351</ele>
        <time>2017-02-14T07:46:19.000Z</time>
      </trkpt>
      <trkpt lat="47.26887" lon="-1.54748">
        <ele>29.412540435791</ele>
        <time>2017-02-14T07:46:22.000Z</time>
      </trkpt>
      <trkpt lat="47.26886" lon="-1.54744">
        <ele>29.534637451172</ele>
        <time>2017-02-14T07:46:24.000Z</time>
      </trkpt>
      <trkpt lat="47.26885" lon="-1.54738">
        <ele>29.66415977478</ele>
        <time>2017-02-14T07:46:27.000Z</time>
      </trkpt>
      <trkpt lat="47.26884" lon="-1.54733">
        <ele>29.773025512695</ele>
        <time>2017-02-14T07:46:29.000Z</time>
      </trkpt>
      <trkpt lat="47.26883" lon="-1.54728">
        <ele>29.879734039307</ele>
        <time>2017-02-14T07:46:32.000Z</time>
      </trkpt>
      <trkpt lat="47.26882" lon="-1.54722">
        <ele>29.972927093506</ele>
        <time>2017-02-14T07:46:35.000Z</time>
      </trkpt>
      <trkpt lat="47.26881" lon="-1.54717">
        <ele>30.066432952881</ele>
        <time>2017-02-14T07:46:38.000Z</time>
      </trkpt>
      <trkpt lat="47.2688" lon="-1.54713">
        <ele>30.151575088501</ele>
        <time>2017-02-14T07:46:41.000Z</time>
      </trkpt>
      <trkpt lat="47.2688" lon="-1.54708">
        <ele>30.234523773193</ele>
        <time>2017-02-14T07:46:44.000Z</time>
      </trkpt>
      <trkpt lat="47.26879" lon="-1.54705">
        <ele>30.309375762939</ele>
        <time>2017-02-14T07:46:46.000Z</time>
      </trkpt>
      <trkpt lat="47.26878" lon="-1.54701">
        <ele>30.372905731201</ele>
        <time>2017-02-14T07:46:48.000Z</time>
      </trkpt>
      <trkpt lat="47.26878" lon="-1.54695">
        <ele>30.440021514893</ele>
        <time>2017-02-14T07:46:51.000Z</time>
      </trkpt>
      <trkpt lat="47.26877" lon="-1.54691">
        <ele>30.503290176392</ele>
        <time>2017-02-14T07:46:53.000Z</time>
      </trkpt>
      <trkpt lat="47.26875" lon="-1.54685">
        <ele>30.562973022461</ele>
        <time>2017-02-14T07:46:56.000Z</time>
      </trkpt>
      <trkpt lat="47.26874" lon="-1.5468">
        <ele>30.617542266846</ele>
        <time>2017-02-14T07:46:58.000Z</time>
      </trkpt>
      <trkpt lat="47.26873" lon="-1.54675">
        <ele>30.668960571289</ele>
        <time>2017-02-14T07:47:00.000Z</time>
      </trkpt>
      <trkpt lat="47.26871" lon="-1.54671">
        <ele>30.701351165771</ele>
        <time>2017-02-14T07:47:02.000Z</time>
      </trkpt>
      <trkpt lat="47.2687" lon="-1.54665">
        <ele>30.721893310547</ele>
        <time>2017-02-14T07:47:05.000Z</time>
      </trkpt>
      <trkpt lat="47.26868" lon="-1.54662">
        <ele>30.717651367188</ele>
        <time>2017-02-14T07:47:07.000Z</time>
      </trkpt>
      <trkpt lat="47.26867" lon="-1.54658">
        <ele>30.683832168579</ele>
        <time>2017-02-14T07:47:10.000Z</time>
      </trkpt>
      <trkpt lat="47.26865" lon="-1.54651">
        <ele>30.621280670166</ele>
        <time>2017-02-14T07:47:13.000Z</time>
      </trkpt>
      <trkpt lat="47.26864" lon="-1.54646">
        <ele>30.551250457764</ele>
        <time>2017-02-14T07:47:16.000Z</time>
      </trkpt>
      <trkpt lat="47.26864" lon="-1.54642">
        <ele>30.479564666748</ele>
        <time>2017-02-14T07:47:18.000Z</time>
      </trkpt>
      <trkpt lat="47.26865" lon="-1.54637">
        <ele>30.421499252319</ele>
        <time>2017-02-14T07:47:21.000Z</time>
      </trkpt>
      <trkpt lat="47.26866" lon="-1.54633">
        <ele>30.394481658936</ele>
        <time>2017-02-14T07:47:23.000Z</time>
      </trkpt>
      <trkpt lat="47.26867" lon="-1.54629">
        <ele>30.392217636108</ele>
        <time>2017-02-14T07:47:25.000Z</time>
      </trkpt>
      <trkpt lat="47.26868" lon="-1.54626">
        <ele>30.404937744141</ele>
        <time>2017-02-14T07:47:28.000Z</time>
      </trkpt>
      <trkpt lat="47.2687" lon="-1.54621">
        <ele>30.429824829102</ele>
        <time>2017-02-14T07:47:31.000Z</time>
      </trkpt>
      <trkpt lat="47.26871" lon="-1.54616">
        <ele>30.464151382446</ele>
        <time>2017-02-14T07:47:34.000Z</time>
      </trkpt>
      <trkpt lat="47.26873" lon="-1.54613">
        <ele>30.500793457031</ele>
        <time>2017-02-14T07:47:36.000Z</time>
      </trkpt>
      <trkpt lat="47.26875" lon="-1.54608">
        <ele>30.544872283936</ele>
        <time>2017-02-14T07:47:39.000Z</time>
      </trkpt>
      <trkpt lat="47.26876" lon="-1.54607">
        <ele>30.590091705322</ele>
        <time>2017-02-14T07:47:41.000Z</time>
      </trkpt>
      <trkpt lat="47.26876" lon="-1.54605">
        <ele>30.628244400024</ele>
        <time>2017-02-14T07:47:44.000Z</time>
      </trkpt>
      <trkpt lat="47.26876" lon="-1.54604">
        <ele>30.652994155884</ele>
        <time>2017-02-14T07:47:47.000Z</time>
      </trkpt>
      <trkpt lat="47.26877" lon="-1.54601">
        <ele>30.667287826538</ele>
        <time>2017-02-14T07:47:50.000Z</time>
      </trkpt>
      <trkpt lat="47.26877" lon="-1.54597">
        <ele>30.672542572021</ele>
        <time>2017-02-14T07:47:52.000Z</time>
      </trkpt>
      <trkpt lat="47.26877" lon="-1.54592">
        <ele>30.663793563843</ele>
        <time>2017-02-14T07:47:55.000Z</time>
      </trkpt>
      <trkpt lat="47.26877" lon="-1.54586">
        <ele>30.639898300171</ele>
        <time>2017-02-14T07:47:58.000Z</time>
      </trkpt>
      <trkpt lat="47.26876" lon="-1.54583">
        <ele>30.614435195923</ele>
        <time>2017-02-14T07:48:00.000Z</time>
      </trkpt>
      <trkpt lat="47.26876" lon="-1.54577">
        <ele>30.552612304688</ele>
        <time>2017-02-14T07:48:03.000Z</time>
      </trkpt>
      <trkpt lat="47.26875" lon="-1.54573">
        <ele>30.462421417236</ele>
        <time>2017-02-14T07:48:05.000Z</time>
      </trkpt>
      <trkpt lat="47.26874" lon="-1.54571">
        <ele>30.353555679321</ele>
        <time>2017-02-14T07:48:07.000Z</time>
      </trkpt>
      <trkpt lat="47.2687" lon="-1.54568">
        <ele>30.218139648438</ele>
        <time>2017-02-14T07:48:10.000Z</time>
      </trkpt>
      <trkpt lat="47.26867" lon="-1.54567">
        <ele>30.068307876587</ele>
        <time>2017-02-14T07:48:12.000Z</time>
      </trkpt>
      <trkpt lat="47.26865" lon="-1.54567">
        <ele>29.937887191772</ele>
        <time>2017-02-14T07:48:14.000Z</time>
      </trkpt>
      <trkpt lat="47.26863" lon="-1.54566">
        <ele>29.821477890015</ele>
        <time>2017-02-14T07:48:16.000Z</time>
      </trkpt>
      <trkpt lat="47.26859" lon="-1.54565">
        <ele>29.703893661499</ele>
        <time>2017-02-14T07:48:19.000Z</time>
      </trkpt>
      <trkpt lat="47.26856" lon="-1.54565">
        <ele>29.60862159729</ele>
        <time>2017-02-14T07:48:21.000Z</time>
      </trkpt>
      <trkpt lat="47.26852" lon="-1.54565">
        <ele>29.512622833252</ele>
        <time>2017-02-14T07:48:24.000Z</time>
      </trkpt>
      <trkpt lat="47.2685" lon="-1.54565">
        <ele>29.421115875244</ele>
        <time>2017-02-14T07:48:26.000Z</time>
      </trkpt>
      <trkpt lat="47.26846" lon="-1.54565">
        <ele>29.321102142334</ele>
        <time>2017-02-14T07:48:29.000Z</time>
      </trkpt>
      <trkpt lat="47.26843" lon="-1.54564">
        <ele>29.232065200806</ele>
        <time>2017-02-14T07:48:31.000Z</time>
      </trkpt>
      <trkpt lat="47.26839" lon="-1.54563">
        <ele>29.130681991577</ele>
        <time>2017-02-14T07:48:34.000Z</time>
      </trkpt>
      <trkpt lat="47.26837" lon="-1.54562">
        <ele>29.03408241272</ele>
        <time>2017-02-14T07:48:36.000Z</time>
      </trkpt>
      <trkpt lat="47.26833" lon="-1.54559">
        <ele>28.924722671509</ele>
        <time>2017-02-14T07:48:39.000Z</time>
      </trkpt>
      <trkpt lat="47.26829" lon="-1.54558">
        <ele>28.823696136475</ele>
        <time>2017-02-14T07:48:42.000Z</time>
      </trkpt>
      <trkpt lat="47.26826" lon="-1.54556">
        <ele>28.726724624634</ele>
        <time>2017-02-14T07:48:44.000Z</time>
      </trkpt>
      <trkpt lat="47.26822" lon="-1.54553">
        <ele>28.636333465576</ele>
        <time>2017-02-14T07:48:47.000Z</time>
      </trkpt>
      <trkpt lat="47.26819" lon="-1.54551">
        <ele>28.551330566406</ele>
        <time>2017-02-14T07:48:49.000Z</time>
      </trkpt>
      <trkpt lat="47.26817" lon="-1.54549">
        <ele>28.482732772827</ele>
        <time>2017-02-14T07:48:51.000Z</time>
      </trkpt>
      <trkpt lat="47.26814" lon="-1.54547">
        <ele>28.420352935791</ele>
        <time>2017-02-14T07:48:53.000Z</time>
      </trkpt>
      <trkpt lat="47.26812" lon="-1.54545">
        <ele>28.360071182251</ele>
        <time>2017-02-14T07:48:55.000Z</time>
      </trkpt>
      <trkpt lat="47.26808" lon="-1.54541">
        <ele>28.306865692139</ele>
        <time>2017-02-14T07:48:58.000Z</time>
      </trkpt>
      <trkpt lat="47.26806" lon="-1.54539">
        <ele>28.257152557373</ele>
        <time>2017-02-14T07:49:00.000Z</time>
      </trkpt>
      <trkpt lat="47.26804" lon="-1.54536">
        <ele>28.209741592407</ele>
        <time>2017-02-14T07:49:02.000Z</time>
      </trkpt>
      <trkpt lat="47.26801" lon="-1.54532">
        <ele>28.164310455322</ele>
        <time>2017-02-14T07:49:05.000Z</time>
      </trkpt>
      <trkpt lat="47.26798" lon="-1.5453">
        <ele>28.122564315796</ele>
        <time>2017-02-14T07:49:07.000Z</time>
      </trkpt>
      <trkpt lat="47.26795" lon="-1.54526">
        <ele>28.088342666626</ele>
        <time>2017-02-14T07:49:10.000Z</time>
      </trkpt>
      <trkpt lat="47.26793" lon="-1.54524">
        <ele>28.058391571045</ele>
        <time>2017-02-14T07:49:12.000Z</time>
      </trkpt>
      <trkpt lat="47.2679" lon="-1.54522">
        <ele>28.032205581665</ele>
        <time>2017-02-14T07:49:15.000Z</time>
      </trkpt>
      <trkpt lat="47.26786" lon="-1.54518">
        <ele>28.00972366333</ele>
        <time>2017-02-14T07:49:18.000Z</time>
      </trkpt>
      <trkpt lat="47.26783" lon="-1.54514">
        <ele>27.991561889648</ele>
        <time>2017-02-14T07:49:21.000Z</time>
      </trkpt>
      <trkpt lat="47.2678" lon="-1.54511">
        <ele>27.978633880615</ele>
        <time>2017-02-14T07:49:24.000Z</time>
      </trkpt>
      <trkpt lat="47.26778" lon="-1.54509">
        <ele>27.969980239868</ele>
        <time>2017-02-14T07:49:26.000Z</time>
      </trkpt>
      <trkpt lat="47.26774" lon="-1.54506">
        <ele>27.965686798096</ele>
        <time>2017-02-14T07:49:29.000Z</time>
      </trkpt>
      <trkpt lat="47.26772" lon="-1.54505">
        <ele>27.966318130493</ele>
        <time>2017-02-14T07:49:31.000Z</time>
      </trkpt>
      <trkpt lat="47.26769" lon="-1.54504">
        <ele>27.968769073486</ele>
        <time>2017-02-14T07:49:33.000Z</time>
      </trkpt>
      <trkpt lat="47.26764" lon="-1.54502">
        <ele>27.973773956299</ele>
        <time>2017-02-14T07:49:36.000Z</time>
      </trkpt>
      <trkpt lat="47.26762" lon="-1.54501">
        <ele>27.978963851929</ele>
        <time>2017-02-14T07:49:38.000Z</time>
      </trkpt>
      <trkpt lat="47.2676" lon="-1.545">
        <ele>27.98518371582</ele>
        <time>2017-02-14T07:49:40.000Z</time>
      </trkpt>
      <trkpt lat="47.26757" lon="-1.54497">
        <ele>27.977993011475</ele>
        <time>2017-02-14T07:49:43.000Z</time>
      </trkpt>
      <trkpt lat="47.26757" lon="-1.54494">
        <ele>27.957056045532</ele>
        <time>2017-02-14T07:49:45.000Z</time>
      </trkpt>
      <trkpt lat="47.26755" lon="-1.54491">
        <ele>27.916286468506</ele>
        <time>2017-02-14T07:49:48.000Z</time>
      </trkpt>
      <trkpt lat="47.26754" lon="-1.54489">
        <ele>27.864933013916</ele>
        <time>2017-02-14T07:49:50.000Z</time>
      </trkpt>
      <trkpt lat="47.26752" lon="-1.54486">
        <ele>27.798807144165</ele>
        <time>2017-02-14T07:49:52.000Z</time>
      </trkpt>
      <trkpt lat="47.26749" lon="-1.54481">
        <ele>27.713232040405</ele>
        <time>2017-02-14T07:49:55.000Z</time>
      </trkpt>
      <trkpt lat="47.26746" lon="-1.54478">
        <ele>27.607110977173</ele>
        <time>2017-02-14T07:49:58.000Z</time>
      </trkpt>
      <trkpt lat="47.26743" lon="-1.54475">
        <ele>27.476596832275</ele>
        <time>2017-02-14T07:50:01.000Z</time>
      </trkpt>
      <trkpt lat="47.26739" lon="-1.54473">
        <ele>27.317144393921</ele>
        <time>2017-02-14T07:50:04.000Z</time>
      </trkpt>
      <trkpt lat="47.26734" lon="-1.54471">
        <ele>27.128784179688</ele>
        <time>2017-02-14T07:50:07.000Z</time>
      </trkpt>
      <trkpt lat="47.26732" lon="-1.5447">
        <ele>26.953979492188</ele>
        <time>2017-02-14T07:50:09.000Z</time>
      </trkpt>
      <trkpt lat="47.2673" lon="-1.54469">
        <ele>26.794921875</ele>
        <time>2017-02-14T07:50:11.000Z</time>
      </trkpt>
      <trkpt lat="47.26726" lon="-1.54467">
        <ele>26.639404296875</ele>
        <time>2017-02-14T07:50:14.000Z</time>
      </trkpt>
      <trkpt lat="47.26723" lon="-1.54466">
        <ele>26.494506835938</ele>
        <time>2017-02-14T07:50:17.000Z</time>
      </trkpt>
      <trkpt lat="47.26722" lon="-1.54465">
        <ele>26.377990722656</ele>
        <time>2017-02-14T07:50:19.000Z</time>
      </trkpt>
      <trkpt lat="47.26719" lon="-1.54465">
        <ele>26.257568359375</ele>
        <time>2017-02-14T07:50:21.000Z</time>
      </trkpt>
      <trkpt lat="47.26717" lon="-1.54464">
        <ele>26.136291503906</ele>
        <time>2017-02-14T07:50:23.000Z</time>
      </trkpt>
      <trkpt lat="47.26715" lon="-1.54463">
        <ele>26.035400390625</ele>
        <time>2017-02-14T07:50:25.000Z</time>
      </trkpt>
      <trkpt lat="47.26711" lon="-1.54462">
        <ele>25.932556152344</ele>
        <time>2017-02-14T07:50:28.000Z</time>
      </trkpt>
      <trkpt lat="47.26709" lon="-1.54461">
        <ele>25.823059082031</ele>
        <time>2017-02-14T07:50:30.000Z</time>
      </trkpt>
      <trkpt lat="47.26706" lon="-1.5446">
        <ele>25.706176757812</ele>
        <time>2017-02-14T07:50:33.000Z</time>
      </trkpt>
      <trkpt lat="47.26702" lon="-1.54459">
        <ele>25.577514648438</ele>
        <time>2017-02-14T07:50:35.000Z</time>
      </trkpt>
      <trkpt lat="47.26699" lon="-1.54459">
        <ele>25.442993164062</ele>
        <time>2017-02-14T07:50:37.000Z</time>
      </trkpt>
      <trkpt lat="47.26696" lon="-1.54458">
        <ele>25.315185546875</ele>
        <time>2017-02-14T07:50:39.000Z</time>
      </trkpt>
      <trkpt lat="47.26692" lon="-1.54458">
        <ele>25.17626953125</ele>
        <time>2017-02-14T07:50:42.000Z</time>
      </trkpt>
      <trkpt lat="47.26688" lon="-1.54458">
        <ele>25.03564453125</ele>
        <time>2017-02-14T07:50:45.000Z</time>
      </trkpt>
      <trkpt lat="47.26684" lon="-1.54457">
        <ele>24.896362304688</ele>
        <time>2017-02-14T07:50:48.000Z</time>
      </trkpt>
      <trkpt lat="47.26681" lon="-1.54457">
        <ele>24.760070800781</ele>
        <time>2017-02-14T07:50:50.000Z</time>
      </trkpt>
      <trkpt lat="47.26676" lon="-1.54457">
        <ele>24.607788085938</ele>
        <time>2017-02-14T07:50:53.000Z</time>
      </trkpt>
      <trkpt lat="47.26672" lon="-1.54456">
        <ele>24.452819824219</ele>
        <time>2017-02-14T07:50:56.000Z</time>
      </trkpt>
      <trkpt lat="47.26668" lon="-1.54456">
        <ele>24.302429199219</ele>
        <time>2017-02-14T07:50:58.000Z</time>
      </trkpt>
      <trkpt lat="47.26665" lon="-1.54456">
        <ele>24.165283203125</ele>
        <time>2017-02-14T07:51:00.000Z</time>
      </trkpt>
      <trkpt lat="47.26662" lon="-1.54457">
        <ele>24.042154312134</ele>
        <time>2017-02-14T07:51:02.000Z</time>
      </trkpt>
      <trkpt lat="47.26658" lon="-1.54457">
        <ele>23.944936752319</ele>
        <time>2017-02-14T07:51:05.000Z</time>
      </trkpt>
      <trkpt lat="47.26655" lon="-1.54457">
        <ele>23.873922348022</ele>
        <time>2017-02-14T07:51:07.000Z</time>
      </trkpt>
      <trkpt lat="47.26651" lon="-1.54458">
        <ele>23.816591262817</ele>
        <time>2017-02-14T07:51:10.000Z</time>
      </trkpt>
      <trkpt lat="47.26648" lon="-1.54458">
        <ele>23.764739990234</ele>
        <time>2017-02-14T07:51:12.000Z</time>
      </trkpt>
      <trkpt lat="47.26643" lon="-1.5446">
        <ele>23.707569122314</ele>
        <time>2017-02-14T07:51:15.000Z</time>
      </trkpt>
      <trkpt lat="47.26639" lon="-1.54461">
        <ele>23.656925201416</ele>
        <time>2017-02-14T07:51:18.000Z</time>
      </trkpt>
      <trkpt lat="47.26636" lon="-1.54462">
        <ele>23.605480194092</ele>
        <time>2017-02-14T07:51:20.000Z</time>
      </trkpt>
      <trkpt lat="47.26632" lon="-1.54463">
        <ele>23.556507110596</ele>
        <time>2017-02-14T07:51:23.000Z</time>
      </trkpt>
      <trkpt lat="47.26629" lon="-1.54464">
        <ele>23.509813308716</ele>
        <time>2017-02-14T07:51:25.000Z</time>
      </trkpt>
      <trkpt lat="47.26625" lon="-1.54465">
        <ele>23.466396331787</ele>
        <time>2017-02-14T07:51:28.000Z</time>
      </trkpt>
      <trkpt lat="47.26623" lon="-1.54466">
        <ele>23.422216415405</ele>
        <time>2017-02-14T07:51:30.000Z</time>
      </trkpt>
      <trkpt lat="47.26619" lon="-1.54466">
        <ele>23.37553024292</ele>
        <time>2017-02-14T07:51:33.000Z</time>
      </trkpt>
      <trkpt lat="47.26616" lon="-1.54467">
        <ele>23.327861785889</ele>
        <time>2017-02-14T07:51:35.000Z</time>
      </trkpt>
      <trkpt lat="47.26613" lon="-1.54467">
        <ele>23.280115127563</ele>
        <time>2017-02-14T07:51:37.000Z</time>
      </trkpt>
      <trkpt lat="47.26609" lon="-1.54467">
        <ele>23.225601196289</ele>
        <time>2017-02-14T07:51:40.000Z</time>
      </trkpt>
      <trkpt lat="47.26604" lon="-1.54464">
        <ele>23.152378082275</ele>
        <time>2017-02-14T07:51:43.000Z</time>
      </trkpt>
      <trkpt lat="47.266" lon="-1.5446">
        <ele>23.061923980713</ele>
        <time>2017-02-14T07:51:46.000Z</time>
      </trkpt>
      <trkpt lat="47.26598" lon="-1.54457">
        <ele>22.96587562561</ele>
        <time>2017-02-14T07:51:48.000Z</time>
      </trkpt>
      <trkpt lat="47.26593" lon="-1.54452">
        <ele>22.847635269165</ele>
        <time>2017-02-14T07:51:51.000Z</time>
      </trkpt>
      <trkpt lat="47.26591" lon="-1.54447">
        <ele>22.725299835205</ele>
        <time>2017-02-14T07:51:54.000Z</time>
      </trkpt>
      <trkpt lat="47.2659" lon="-1.54443">
        <ele>22.614503860474</ele>
        <time>2017-02-14T07:51:56.000Z</time>
      </trkpt>
      <trkpt lat="47.26587" lon="-1.54437">
        <ele>22.509716033936</ele>
        <time>2017-02-14T07:51:59.000Z</time>
      </trkpt>
      <trkpt lat="47.26587" lon="-1.54432">
        <ele>22.407325744629</ele>
        <time>2017-02-14T07:52:02.000Z</time>
      </trkpt>
      <trkpt lat="47.26586" lon="-1.54429">
        <ele>22.325063705444</ele>
        <time>2017-02-14T07:52:04.000Z</time>
      </trkpt>
      <trkpt lat="47.26585" lon="-1.54425">
        <ele>22.250995635986</ele>
        <time>2017-02-14T07:52:06.000Z</time>
      </trkpt>
      <trkpt lat="47.26585" lon="-1.54423">
        <ele>22.18631362915</ele>
        <time>2017-02-14T07:52:08.000Z</time>
      </trkpt>
      <trkpt lat="47.26584" lon="-1.54417">
        <ele>22.128618240356</ele>
        <time>2017-02-14T07:52:11.000Z</time>
      </trkpt>
      <trkpt lat="47.26583" lon="-1.54413">
        <ele>22.074586868286</ele>
        <time>2017-02-14T07:52:13.000Z</time>
      </trkpt>
      <trkpt lat="47.26582" lon="-1.54407">
        <ele>22.015949249268</ele>
        <time>2017-02-14T07:52:16.000Z</time>
      </trkpt>
      <trkpt lat="47.26582" lon="-1.54405">
        <ele>21.962198257446</ele>
        <time>2017-02-14T07:52:18.000Z</time>
      </trkpt>
      <trkpt lat="47.26582" lon="-1.54402">
        <ele>21.906932830811</ele>
        <time>2017-02-14T07:52:20.000Z</time>
      </trkpt>
      <trkpt lat="47.26583" lon="-1.54396">
        <ele>21.85467338562</ele>
        <time>2017-02-14T07:52:23.000Z</time>
      </trkpt>
      <trkpt lat="47.26585" lon="-1.54393">
        <ele>21.806676864624</ele>
        <time>2017-02-14T07:52:26.000Z</time>
      </trkpt>
      <trkpt lat="47.26587" lon="-1.54391">
        <ele>21.771755218506</ele>
        <time>2017-02-14T07:52:28.000Z</time>
      </trkpt>
      <trkpt lat="47.2659" lon="-1.54387">
        <ele>21.741775512695</ele>
        <time>2017-02-14T07:52:31.000Z</time>
      </trkpt>
      <trkpt lat="47.26593" lon="-1.54386">
        <ele>21.719976425171</ele>
        <time>2017-02-14T07:52:33.000Z</time>
      </trkpt>
      <trkpt lat="47.26596" lon="-1.54385">
        <ele>21.711048126221</ele>
        <time>2017-02-14T07:52:36.000Z</time>
      </trkpt>
      <trkpt lat="47.26599" lon="-1.54384">
        <ele>21.711315155029</ele>
        <time>2017-02-14T07:52:38.000Z</time>
      </trkpt>
      <trkpt lat="47.26602" lon="-1.54384">
        <ele>21.716276168823</ele>
        <time>2017-02-14T07:52:41.000Z</time>
      </trkpt>
      <trkpt lat="47.26603" lon="-1.54384">
        <ele>21.725280761719</ele>
        <time>2017-02-14T07:52:45.000Z</time>
      </trkpt>
      <trkpt lat="47.26606" lon="-1.54383">
        <ele>21.736141204834</ele>
        <time>2017-02-14T07:52:48.000Z</time>
      </trkpt>
      <trkpt lat="47.26611" lon="-1.54383">
        <ele>21.753870010376</ele>
        <time>2017-02-14T07:52:51.000Z</time>
      </trkpt>
      <trkpt lat="47.26615" lon="-1.54382">
        <ele>21.769685745239</ele>
        <time>2017-02-14T07:52:54.000Z</time>
      </trkpt>
      <trkpt lat="47.26619" lon="-1.54379">
        <ele>21.779598236084</ele>
        <time>2017-02-14T07:52:57.000Z</time>
      </trkpt>
      <trkpt lat="47.26622" lon="-1.54376">
        <ele>21.780660629272</ele>
        <time>2017-02-14T07:53:00.000Z</time>
      </trkpt>
      <trkpt lat="47.26624" lon="-1.54373">
        <ele>21.769329071045</ele>
        <time>2017-02-14T07:53:02.000Z</time>
      </trkpt>
      <trkpt lat="47.26624" lon="-1.54369">
        <ele>21.736042022705</ele>
        <time>2017-02-14T07:53:04.000Z</time>
      </trkpt>
      <trkpt lat="47.26624" lon="-1.54361">
        <ele>21.676258087158</ele>
        <time>2017-02-14T07:53:07.000Z</time>
      </trkpt>
      <trkpt lat="47.26621" lon="-1.54356">
        <ele>21.597808837891</ele>
        <time>2017-02-14T07:53:10.000Z</time>
      </trkpt>
      <trkpt lat="47.2662" lon="-1.54353">
        <ele>21.513645172119</ele>
        <time>2017-02-14T07:53:12.000Z</time>
      </trkpt>
      <trkpt lat="47.26619" lon="-1.54348">
        <ele>21.423933029175</ele>
        <time>2017-02-14T07:53:14.000Z</time>
      </trkpt>
      <trkpt lat="47.2662" lon="-1.54342">
        <ele>21.326320648193</ele>
        <time>2017-02-14T07:53:17.000Z</time>
      </trkpt>
      <trkpt lat="47.2662" lon="-1.54337">
        <ele>21.238647460938</ele>
        <time>2017-02-14T07:53:19.000Z</time>
      </trkpt>
      <trkpt lat="47.26622" lon="-1.54331">
        <ele>21.148305892944</ele>
        <time>2017-02-14T07:53:22.000Z</time>
      </trkpt>
      <trkpt lat="47.26622" lon="-1.54326">
        <ele>21.044082641602</ele>
        <time>2017-02-14T07:53:24.000Z</time>
      </trkpt>
      <trkpt lat="47.26622" lon="-1.54321">
        <ele>20.925960540771</ele>
        <time>2017-02-14T07:53:27.000Z</time>
      </trkpt>
      <trkpt lat="47.26621" lon="-1.54314">
        <ele>20.794328689575</ele>
        <time>2017-02-14T07:53:30.000Z</time>
      </trkpt>
      <trkpt lat="47.2662" lon="-1.5431">
        <ele>20.65620803833</ele>
        <time>2017-02-14T07:53:32.000Z</time>
      </trkpt>
      <trkpt lat="47.26619" lon="-1.54306">
        <ele>20.519344329834</ele>
        <time>2017-02-14T07:53:34.000Z</time>
      </trkpt>
      <trkpt lat="47.26618" lon="-1.54301">
        <ele>20.378170013428</ele>
        <time>2017-02-14T07:53:37.000Z</time>
      </trkpt>
      <trkpt lat="47.26617" lon="-1.54297">
        <ele>20.237691879272</ele>
        <time>2017-02-14T07:53:39.000Z</time>
      </trkpt>
      <trkpt lat="47.26616" lon="-1.54293">
        <ele>20.105823516846</ele>
        <time>2017-02-14T07:53:41.000Z</time>
      </trkpt>
      <trkpt lat="47.26614" lon="-1.54289">
        <ele>19.962869644165</ele>
        <time>2017-02-14T07:53:44.000Z</time>
      </trkpt>
      <trkpt lat="47.26613" lon="-1.54284">
        <ele>19.807201385498</ele>
        <time>2017-02-14T07:53:46.000Z</time>
      </trkpt>
      <trkpt lat="47.26612" lon="-1.54278">
        <ele>19.641284942627</ele>
        <time>2017-02-14T07:53:49.000Z</time>
      </trkpt>
      <trkpt lat="47.26611" lon="-1.54275">
        <ele>19.479305267334</ele>
        <time>2017-02-14T07:53:51.000Z</time>
      </trkpt>
      <trkpt lat="47.2661" lon="-1.54272">
        <ele>19.308603286743</ele>
        <time>2017-02-14T07:53:54.000Z</time>
      </trkpt>
      <trkpt lat="47.26609" lon="-1.54268">
        <ele>19.140193939209</ele>
        <time>2017-02-14T07:53:56.000Z</time>
      </trkpt>
      <trkpt lat="47.26606" lon="-1.54264">
        <ele>18.962690353394</ele>
        <time>2017-02-14T07:53:59.000Z</time>
      </trkpt>
      <trkpt lat="47.26604" lon="-1.54259">
        <ele>18.769866943359</ele>
        <time>2017-02-14T07:54:02.000Z</time>
      </trkpt>
      <trkpt lat="47.26603" lon="-1.54255">
        <ele>18.557409286499</ele>
        <time>2017-02-14T07:54:04.000Z</time>
      </trkpt>
      <trkpt lat="47.26601" lon="-1.54252">
        <ele>18.345672607422</ele>
        <time>2017-02-14T07:54:06.000Z</time>
      </trkpt>
      <trkpt lat="47.266" lon="-1.54248">
        <ele>18.140850067139</ele>
        <time>2017-02-14T07:54:09.000Z</time>
      </trkpt>
      <trkpt lat="47.26598" lon="-1.54242">
        <ele>17.961017608643</ele>
        <time>2017-02-14T07:54:12.000Z</time>
      </trkpt>
      <trkpt lat="47.26596" lon="-1.54239">
        <ele>17.812587738037</ele>
        <time>2017-02-14T07:54:14.000Z</time>
      </trkpt>
      <trkpt lat="47.26594" lon="-1.54234">
        <ele>17.676109313965</ele>
        <time>2017-02-14T07:54:17.000Z</time>
      </trkpt>
      <trkpt lat="47.26593" lon="-1.54231">
        <ele>17.557006835938</ele>
        <time>2017-02-14T07:54:19.000Z</time>
      </trkpt>
      <trkpt lat="47.26591" lon="-1.54227">
        <ele>17.432489395142</ele>
        <time>2017-02-14T07:54:22.000Z</time>
      </trkpt>
      <trkpt lat="47.26589" lon="-1.54224">
        <ele>17.302345275879</ele>
        <time>2017-02-14T07:54:24.000Z</time>
      </trkpt>
      <trkpt lat="47.26587" lon="-1.54219">
        <ele>17.16047668457</ele>
        <time>2017-02-14T07:54:27.000Z</time>
      </trkpt>
      <trkpt lat="47.26587" lon="-1.54216">
        <ele>17.038829803467</ele>
        <time>2017-02-14T07:54:29.000Z</time>
      </trkpt>
      <trkpt lat="47.26586" lon="-1.54212">
        <ele>16.922475814819</ele>
        <time>2017-02-14T07:54:31.000Z</time>
      </trkpt>
      <trkpt lat="47.26583" lon="-1.54206">
        <ele>16.781917572021</ele>
        <time>2017-02-14T07:54:34.000Z</time>
      </trkpt>
      <trkpt lat="47.2658" lon="-1.54201">
        <ele>16.649364471436</ele>
        <time>2017-02-14T07:54:37.000Z</time>
      </trkpt>
      <trkpt lat="47.26579" lon="-1.54197">
        <ele>16.542230606079</ele>
        <time>2017-02-14T07:54:39.000Z</time>
      </trkpt>
      <trkpt lat="47.26579" lon="-1.54191">
        <ele>16.427791595459</ele>
        <time>2017-02-14T07:54:42.000Z</time>
      </trkpt>
      <trkpt lat="47.26577" lon="-1.54186">
        <ele>16.307289123535</ele>
        <time>2017-02-14T07:54:44.000Z</time>
      </trkpt>
      <trkpt lat="47.26574" lon="-1.54181">
        <ele>16.214664459229</ele>
        <time>2017-02-14T07:54:47.000Z</time>
      </trkpt>
      <trkpt lat="47.26571" lon="-1.54173">
        <ele>16.10375213623</ele>
        <time>2017-02-14T07:54:50.000Z</time>
      </trkpt>
      <trkpt lat="47.26569" lon="-1.54169">
        <ele>15.980087280273</ele>
        <time>2017-02-14T07:54:52.000Z</time>
      </trkpt>
      <trkpt lat="47.26567" lon="-1.54163">
        <ele>15.842206954956</ele>
        <time>2017-02-14T07:54:55.000Z</time>
      </trkpt>
      <trkpt lat="47.26566" lon="-1.54159">
        <ele>15.704118728638</ele>
        <time>2017-02-14T07:54:57.000Z</time>
      </trkpt>
      <trkpt lat="47.26564" lon="-1.54156">
        <ele>15.570556640625</ele>
        <time>2017-02-14T07:54:59.000Z</time>
      </trkpt>
      <trkpt lat="47.26563" lon="-1.54153">
        <ele>15.446217536926</ele>
        <time>2017-02-14T07:55:01.000Z</time>
      </trkpt>
      <trkpt lat="47.2656" lon="-1.54147">
        <ele>15.306027412415</ele>
        <time>2017-02-14T07:55:04.000Z</time>
      </trkpt>
      <trkpt lat="47.26558" lon="-1.54144">
        <ele>15.172605514526</ele>
        <time>2017-02-14T07:55:06.000Z</time>
      </trkpt>
      <trkpt lat="47.26556" lon="-1.5414">
        <ele>15.024561882019</ele>
        <time>2017-02-14T07:55:08.000Z</time>
      </trkpt>
      <trkpt lat="47.26553" lon="-1.54135">
        <ele>14.856692314148</ele>
        <time>2017-02-14T07:55:11.000Z</time>
      </trkpt>
      <trkpt lat="47.26552" lon="-1.54131">
        <ele>14.682786941528</ele>
        <time>2017-02-14T07:55:13.000Z</time>
      </trkpt>
      <trkpt lat="47.26549" lon="-1.54125">
        <ele>14.493156433105</ele>
        <time>2017-02-14T07:55:16.000Z</time>
      </trkpt>
      <trkpt lat="47.26547" lon="-1.5412">
        <ele>14.283337593079</ele>
        <time>2017-02-14T07:55:19.000Z</time>
      </trkpt>
      <trkpt lat="47.26545" lon="-1.54116">
        <ele>14.06992816925</ele>
        <time>2017-02-14T07:55:21.000Z</time>
      </trkpt>
      <trkpt lat="47.26542" lon="-1.54111">
        <ele>13.841310501099</ele>
        <time>2017-02-14T07:55:24.000Z</time>
      </trkpt>
      <trkpt lat="47.2654" lon="-1.54106">
        <ele>13.59192943573</ele>
        <time>2017-02-14T07:55:27.000Z</time>
      </trkpt>
      <trkpt lat="47.26537" lon="-1.54099">
        <ele>13.322595596313</ele>
        <time>2017-02-14T07:55:30.000Z</time>
      </trkpt>
      <trkpt lat="47.26534" lon="-1.54093">
        <ele>13.028762817383</ele>
        <time>2017-02-14T07:55:33.000Z</time>
      </trkpt>
      <trkpt lat="47.2653" lon="-1.54086">
        <ele>12.686386108398</ele>
        <time>2017-02-14T07:55:36.000Z</time>
      </trkpt>
      <trkpt lat="47.26529" lon="-1.5408">
        <ele>12.338709831238</ele>
        <time>2017-02-14T07:55:39.000Z</time>
      </trkpt>
      <trkpt lat="47.26527" lon="-1.54074">
        <ele>11.970173835754</ele>
        <time>2017-02-14T07:55:42.000Z</time>
      </trkpt>
      <trkpt lat="47.26525" lon="-1.54069">
        <ele>11.61362361908</ele>
        <time>2017-02-14T07:55:45.000Z</time>
      </trkpt>
      <trkpt lat="47.26525" lon="-1.54065">
        <ele>11.290439605713</ele>
        <time>2017-02-14T07:55:47.000Z</time>
      </trkpt>
      <trkpt lat="47.26522" lon="-1.54062">
        <ele>10.997264862061</ele>
        <time>2017-02-14T07:55:49.000Z</time>
      </trkpt>
      <trkpt lat="47.2652" lon="-1.54058">
        <ele>10.700902938843</ele>
        <time>2017-02-14T07:55:51.000Z</time>
      </trkpt>
      <trkpt lat="47.26517" lon="-1.54055">
        <ele>10.40766620636</ele>
        <time>2017-02-14T07:55:53.000Z</time>
      </trkpt>
      <trkpt lat="47.26513" lon="-1.54049">
        <ele>10.079907417297</ele>
        <time>2017-02-14T07:55:56.000Z</time>
      </trkpt>
      <trkpt lat="47.26511" lon="-1.54044">
        <ele>9.7149858474731</ele>
        <time>2017-02-14T07:55:59.000Z</time>
      </trkpt>
      <trkpt lat="47.26509" lon="-1.54039">
        <ele>9.3284473419189</ele>
        <time>2017-02-14T07:56:02.000Z</time>
      </trkpt>
      <trkpt lat="47.26507" lon="-1.54036">
        <ele>8.9542026519775</ele>
        <time>2017-02-14T07:56:04.000Z</time>
      </trkpt>
      <trkpt lat="47.26506" lon="-1.54033">
        <ele>8.5986156463623</ele>
        <time>2017-02-14T07:56:07.000Z</time>
      </trkpt>
      <trkpt lat="47.26503" lon="-1.54028">
        <ele>8.2604389190674</ele>
        <time>2017-02-14T07:56:10.000Z</time>
      </trkpt>
      <trkpt lat="47.265" lon="-1.54024">
        <ele>7.9119920730591</ele>
        <time>2017-02-14T07:56:13.000Z</time>
      </trkpt>
      <trkpt lat="47.26499" lon="-1.54021">
        <ele>7.6098227500916</ele>
        <time>2017-02-14T07:56:15.000Z</time>
      </trkpt>
      <trkpt lat="47.26498" lon="-1.54019">
        <ele>7.3345308303833</ele>
        <time>2017-02-14T07:56:18.000Z</time>
      </trkpt>
      <trkpt lat="47.26496" lon="-1.54016">
        <ele>7.0836868286133</ele>
        <time>2017-02-14T07:56:20.000Z</time>
      </trkpt>
      <trkpt lat="47.26493" lon="-1.54012">
        <ele>6.8702988624573</ele>
        <time>2017-02-14T07:56:23.000Z</time>
      </trkpt>
      <trkpt lat="47.26491" lon="-1.54006">
        <ele>6.6907553672791</ele>
        <time>2017-02-14T07:56:26.000Z</time>
      </trkpt>
      <trkpt lat="47.26489" lon="-1.54001">
        <ele>6.4980926513672</ele>
        <time>2017-02-14T07:56:29.000Z</time>
      </trkpt>
      <trkpt lat="47.26487" lon="-1.53998">
        <ele>6.3094277381897</ele>
        <time>2017-02-14T07:56:31.000Z</time>
      </trkpt>
      <trkpt lat="47.26485" lon="-1.53993">
        <ele>6.1233263015747</ele>
        <time>2017-02-14T07:56:34.000Z</time>
      </trkpt>
      <trkpt lat="47.26482" lon="-1.5399">
        <ele>5.9662561416626</ele>
        <time>2017-02-14T07:56:37.000Z</time>
      </trkpt>
      <trkpt lat="47.26478" lon="-1.53991">
        <ele>5.8635540008545</ele>
        <time>2017-02-14T07:56:40.000Z</time>
      </trkpt>
      <trkpt lat="47.26476" lon="-1.53993">
        <ele>5.8119287490845</ele>
        <time>2017-02-14T07:56:42.000Z</time>
      </trkpt>
      <trkpt lat="47.26474" lon="-1.53994">
        <ele>5.7907271385193</ele>
        <time>2017-02-14T07:56:44.000Z</time>
      </trkpt>
      <trkpt lat="47.2647" lon="-1.53996">
        <ele>5.8049669265747</ele>
        <time>2017-02-14T07:56:47.000Z</time>
      </trkpt>
      <trkpt lat="47.26466" lon="-1.53998">
        <ele>5.8463606834412</ele>
        <time>2017-02-14T07:56:50.000Z</time>
      </trkpt>
      <trkpt lat="47.26464" lon="-1.54">
        <ele>5.8929834365845</ele>
        <time>2017-02-14T07:56:52.000Z</time>
      </trkpt>
      <trkpt lat="47.26461" lon="-1.54002">
        <ele>5.9454355239868</ele>
        <time>2017-02-14T07:56:55.000Z</time>
      </trkpt>
      <trkpt lat="47.26457" lon="-1.54003">
        <ele>5.9985399246216</ele>
        <time>2017-02-14T07:56:58.000Z</time>
      </trkpt>
      <trkpt lat="47.26455" lon="-1.54004">
        <ele>6.0470514297485</ele>
        <time>2017-02-14T07:57:00.000Z</time>
      </trkpt>
      <trkpt lat="47.2645" lon="-1.54005">
        <ele>6.0865998268127</ele>
        <time>2017-02-14T07:57:03.000Z</time>
      </trkpt>
      <trkpt lat="47.26445" lon="-1.54004">
        <ele>6.1147451400757</ele>
        <time>2017-02-14T07:57:06.000Z</time>
      </trkpt>
      <trkpt lat="47.26441" lon="-1.54003">
        <ele>6.1248950958252</ele>
        <time>2017-02-14T07:57:09.000Z</time>
      </trkpt>
      <trkpt lat="47.26438" lon="-1.54002">
        <ele>6.1190781593323</ele>
        <time>2017-02-14T07:57:11.000Z</time>
      </trkpt>
      <trkpt lat="47.26434" lon="-1.54">
        <ele>6.0949010848999</ele>
        <time>2017-02-14T07:57:14.000Z</time>
      </trkpt>
      <trkpt lat="47.26431" lon="-1.53999">
        <ele>6.0581693649292</ele>
        <time>2017-02-14T07:57:16.000Z</time>
      </trkpt>
      <trkpt lat="47.26428" lon="-1.53998">
        <ele>6.0167894363403</ele>
        <time>2017-02-14T07:57:18.000Z</time>
      </trkpt>
      <trkpt lat="47.26426" lon="-1.53997">
        <ele>5.9730730056763</ele>
        <time>2017-02-14T07:57:20.000Z</time>
      </trkpt>
      <trkpt lat="47.26423" lon="-1.53995">
        <ele>5.9262161254883</ele>
        <time>2017-02-14T07:57:23.000Z</time>
      </trkpt>
      <trkpt lat="47.26421" lon="-1.53995">
        <ele>5.8907809257507</ele>
        <time>2017-02-14T07:57:25.000Z</time>
      </trkpt>
      <trkpt lat="47.2642" lon="-1.53996">
        <ele>5.8677577972412</ele>
        <time>2017-02-14T07:57:27.000Z</time>
      </trkpt>
      <trkpt lat="47.26417" lon="-1.53997">
        <ele>5.8574991226196</ele>
        <time>2017-02-14T07:57:30.000Z</time>
      </trkpt>
      <trkpt lat="47.26416" lon="-1.53996">
        <ele>5.8608002662659</ele>
        <time>2017-02-14T07:57:32.000Z</time>
      </trkpt>
      <trkpt lat="47.26414" lon="-1.53997">
        <ele>5.8890662193298</ele>
        <time>2017-02-14T07:57:35.000Z</time>
      </trkpt>
      <trkpt lat="47.26412" lon="-1.53996">
        <ele>5.9302520751953</ele>
        <time>2017-02-14T07:57:37.000Z</time>
      </trkpt>
      <trkpt lat="47.26407" lon="-1.53994">
        <ele>5.9892349243164</ele>
        <time>2017-02-14T07:57:40.000Z</time>
      </trkpt>
      <trkpt lat="47.26403" lon="-1.53994">
        <ele>6.0661926269531</ele>
        <time>2017-02-14T07:57:43.000Z</time>
      </trkpt>
      <trkpt lat="47.26401" lon="-1.53994">
        <ele>6.1559143066406</ele>
        <time>2017-02-14T07:57:45.000Z</time>
      </trkpt>
      <trkpt lat="47.26398" lon="-1.53993">
        <ele>6.2456359863281</ele>
        <time>2017-02-14T07:57:47.000Z</time>
      </trkpt>
      <trkpt lat="47.26393" lon="-1.53991">
        <ele>6.3456115722656</ele>
        <time>2017-02-14T07:57:50.000Z</time>
      </trkpt>
      <trkpt lat="47.2639" lon="-1.5399">
        <ele>6.4385375976562</ele>
        <time>2017-02-14T07:57:52.000Z</time>
      </trkpt>
      <trkpt lat="47.26387" lon="-1.5399">
        <ele>6.5234985351562</ele>
        <time>2017-02-14T07:57:54.000Z</time>
      </trkpt>
      <trkpt lat="47.26383" lon="-1.53989">
        <ele>6.6150512695312</ele>
        <time>2017-02-14T07:57:57.000Z</time>
      </trkpt>
      <trkpt lat="47.26381" lon="-1.53989">
        <ele>6.7118225097656</ele>
        <time>2017-02-14T07:58:00.000Z</time>
      </trkpt>
      <trkpt lat="47.26378" lon="-1.5399">
        <ele>6.8101501464844</ele>
        <time>2017-02-14T07:58:03.000Z</time>
      </trkpt>
      <trkpt lat="47.26376" lon="-1.5399">
        <ele>6.9064636230469</ele>
        <time>2017-02-14T07:58:05.000Z</time>
      </trkpt>
      <trkpt lat="47.26373" lon="-1.53989">
        <ele>7.0046081542969</ele>
        <time>2017-02-14T07:58:08.000Z</time>
      </trkpt>
      <trkpt lat="47.26369" lon="-1.53987">
        <ele>7.0932312011719</ele>
        <time>2017-02-14T07:58:11.000Z</time>
      </trkpt>
      <trkpt lat="47.26365" lon="-1.53985">
        <ele>7.1786499023438</ele>
        <time>2017-02-14T07:58:14.000Z</time>
      </trkpt>
      <trkpt lat="47.26361" lon="-1.53984">
        <ele>7.2514343261719</ele>
        <time>2017-02-14T07:58:17.000Z</time>
      </trkpt>
      <trkpt lat="47.26358" lon="-1.53983">
        <ele>7.3326416015625</ele>
        <time>2017-02-14T07:58:20.000Z</time>
      </trkpt>
      <trkpt lat="47.26356" lon="-1.53982">
        <ele>7.4085388183594</ele>
        <time>2017-02-14T07:58:23.000Z</time>
      </trkpt>
      <trkpt lat="47.26354" lon="-1.53983">
        <ele>7.4849853515625</ele>
        <time>2017-02-14T07:58:26.000Z</time>
      </trkpt>
      <trkpt lat="47.26352" lon="-1.53982">
        <ele>7.5554809570312</ele>
        <time>2017-02-14T07:58:29.000Z</time>
      </trkpt>
      <trkpt lat="47.2635" lon="-1.53981">
        <ele>7.6213073730469</ele>
        <time>2017-02-14T07:58:32.000Z</time>
      </trkpt>
      <trkpt lat="47.26346" lon="-1.53979">
        <ele>7.6780700683594</ele>
        <time>2017-02-14T07:58:35.000Z</time>
      </trkpt>
      <trkpt lat="47.26341" lon="-1.53975">
        <ele>7.7322692871094</ele>
        <time>2017-02-14T07:58:38.000Z</time>
      </trkpt>
      <trkpt lat="47.26339" lon="-1.53973">
        <ele>7.774658203125</ele>
        <time>2017-02-14T07:58:40.000Z</time>
      </trkpt>
      <trkpt lat="47.26336" lon="-1.53971">
        <ele>7.812744140625</ele>
        <time>2017-02-14T07:58:42.000Z</time>
      </trkpt>
      <trkpt lat="47.26333" lon="-1.5397">
        <ele>7.8561615943909</ele>
        <time>2017-02-14T07:58:45.000Z</time>
      </trkpt>
      <trkpt lat="47.26329" lon="-1.53967">
        <ele>7.9279189109802</ele>
        <time>2017-02-14T07:58:48.000Z</time>
      </trkpt>
      <trkpt lat="47.26324" lon="-1.53963">
        <ele>8.0311717987061</ele>
        <time>2017-02-14T07:58:51.000Z</time>
      </trkpt>
      <trkpt lat="47.2632" lon="-1.53959">
        <ele>8.1635456085205</ele>
        <time>2017-02-14T07:58:54.000Z</time>
      </trkpt>
      <trkpt lat="47.26316" lon="-1.53955">
        <ele>8.3208408355713</ele>
        <time>2017-02-14T07:58:57.000Z</time>
      </trkpt>
      <trkpt lat="47.26313" lon="-1.53952">
        <ele>8.4947233200073</ele>
        <time>2017-02-14T07:58:59.000Z</time>
      </trkpt>
      <trkpt lat="47.26308" lon="-1.5395">
        <ele>8.6722974777222</ele>
        <time>2017-02-14T07:59:02.000Z</time>
      </trkpt>
      <trkpt lat="47.26304" lon="-1.53946">
        <ele>8.8617248535156</ele>
        <time>2017-02-14T07:59:05.000Z</time>
      </trkpt>
      <trkpt lat="47.26299" lon="-1.53942">
        <ele>9.0672330856323</ele>
        <time>2017-02-14T07:59:08.000Z</time>
      </trkpt>
      <trkpt lat="47.26296" lon="-1.5394">
        <ele>9.2734375</ele>
        <time>2017-02-14T07:59:10.000Z</time>
      </trkpt>
      <trkpt lat="47.26292" lon="-1.53938">
        <ele>9.5088443756104</ele>
        <time>2017-02-14T07:59:13.000Z</time>
      </trkpt>
      <trkpt lat="47.26288" lon="-1.53934">
        <ele>9.7423238754272</ele>
        <time>2017-02-14T07:59:16.000Z</time>
      </trkpt>
      <trkpt lat="47.26284" lon="-1.53931">
        <ele>9.965482711792</ele>
        <time>2017-02-14T07:59:19.000Z</time>
      </trkpt>
      <trkpt lat="47.2628" lon="-1.53928">
        <ele>10.199555397034</ele>
        <time>2017-02-14T07:59:22.000Z</time>
      </trkpt>
      <trkpt lat="47.26275" lon="-1.53925">
        <ele>10.469522476196</ele>
        <time>2017-02-14T07:59:25.000Z</time>
      </trkpt>
      <trkpt lat="47.26272" lon="-1.53923">
        <ele>10.720481872559</ele>
        <time>2017-02-14T07:59:27.000Z</time>
      </trkpt>
      <trkpt lat="47.26268" lon="-1.5392">
        <ele>10.998700141907</ele>
        <time>2017-02-14T07:59:30.000Z</time>
      </trkpt>
      <trkpt lat="47.26264" lon="-1.53918">
        <ele>11.283781051636</ele>
        <time>2017-02-14T07:59:32.000Z</time>
      </trkpt>
      <trkpt lat="47.2626" lon="-1.53916">
        <ele>11.564659118652</ele>
        <time>2017-02-14T07:59:35.000Z</time>
      </trkpt>
      <trkpt lat="47.26256" lon="-1.53912">
        <ele>11.78299331665</ele>
        <time>2017-02-14T07:59:38.000Z</time>
      </trkpt>
      <trkpt lat="47.26251" lon="-1.53907">
        <ele>11.967234611511</ele>
        <time>2017-02-14T07:59:41.000Z</time>
      </trkpt>
      <trkpt lat="47.26247" lon="-1.53904">
        <ele>12.085696220398</ele>
        <time>2017-02-14T07:59:44.000Z</time>
      </trkpt>
      <trkpt lat="47.26243" lon="-1.53901">
        <ele>12.157203674316</ele>
        <time>2017-02-14T07:59:47.000Z</time>
      </trkpt>
      <trkpt lat="47.26241" lon="-1.53899">
        <ele>12.168148040771</ele>
        <time>2017-02-14T07:59:49.000Z</time>
      </trkpt>
      <trkpt lat="47.26237" lon="-1.53896">
        <ele>12.190251350403</ele>
        <time>2017-02-14T07:59:52.000Z</time>
      </trkpt>
      <trkpt lat="47.26234" lon="-1.53894">
        <ele>12.195475578308</ele>
        <time>2017-02-14T07:59:54.000Z</time>
      </trkpt>
      <trkpt lat="47.26231" lon="-1.53889">
        <ele>12.155126571655</ele>
        <time>2017-02-14T07:59:57.000Z</time>
      </trkpt>
      <trkpt lat="47.26228" lon="-1.53886">
        <ele>12.088804244995</ele>
        <time>2017-02-14T08:00:00.000Z</time>
      </trkpt>
      <trkpt lat="47.26225" lon="-1.53881">
        <ele>11.97968006134</ele>
        <time>2017-02-14T08:00:03.000Z</time>
      </trkpt>
      <trkpt lat="47.26223" lon="-1.53878">
        <ele>11.802032470703</ele>
        <time>2017-02-14T08:00:06.000Z</time>
      </trkpt>
      <trkpt lat="47.26221" lon="-1.53874">
        <ele>11.604448318481</ele>
        <time>2017-02-14T08:00:08.000Z</time>
      </trkpt>
      <trkpt lat="47.26216" lon="-1.5387">
        <ele>11.412115097046</ele>
        <time>2017-02-14T08:00:11.000Z</time>
      </trkpt>
      <trkpt lat="47.26212" lon="-1.53867">
        <ele>11.229852676392</ele>
        <time>2017-02-14T08:00:14.000Z</time>
      </trkpt>
      <trkpt lat="47.26207" lon="-1.53864">
        <ele>11.076677322388</ele>
        <time>2017-02-14T08:00:17.000Z</time>
      </trkpt>
      <trkpt lat="47.26204" lon="-1.53862">
        <ele>10.959087371826</ele>
        <time>2017-02-14T08:00:19.000Z</time>
      </trkpt>
      <trkpt lat="47.262" lon="-1.53859">
        <ele>10.858266830444</ele>
        <time>2017-02-14T08:00:22.000Z</time>
      </trkpt>
      <trkpt lat="47.26195" lon="-1.53856">
        <ele>10.764315605164</ele>
        <time>2017-02-14T08:00:25.000Z</time>
      </trkpt>
      <trkpt lat="47.26191" lon="-1.53854">
        <ele>10.674373626709</ele>
        <time>2017-02-14T08:00:28.000Z</time>
      </trkpt>
      <trkpt lat="47.26188" lon="-1.53852">
        <ele>10.602927207947</ele>
        <time>2017-02-14T08:00:30.000Z</time>
      </trkpt>
      <trkpt lat="47.26185" lon="-1.53851">
        <ele>10.548293113708</ele>
        <time>2017-02-14T08:00:33.000Z</time>
      </trkpt>
      <trkpt lat="47.26183" lon="-1.53851">
        <ele>10.520429611206</ele>
        <time>2017-02-14T08:00:35.000Z</time>
      </trkpt>
      <trkpt lat="47.2618" lon="-1.53849">
        <ele>10.5118227005</ele>
        <time>2017-02-14T08:00:37.000Z</time>
      </trkpt>
      <trkpt lat="47.26175" lon="-1.53847">
        <ele>10.495030403137</ele>
        <time>2017-02-14T08:00:40.000Z</time>
      </trkpt>
      <trkpt lat="47.26172" lon="-1.53845">
        <ele>10.466539382935</ele>
        <time>2017-02-14T08:00:42.000Z</time>
      </trkpt>
      <trkpt lat="47.26169" lon="-1.53844">
        <ele>10.419674873352</ele>
        <time>2017-02-14T08:00:45.000Z</time>
      </trkpt>
      <trkpt lat="47.26167" lon="-1.53843">
        <ele>10.362338066101</ele>
        <time>2017-02-14T08:00:47.000Z</time>
      </trkpt>
      <trkpt lat="47.26163" lon="-1.53842">
        <ele>10.24848651886</ele>
        <time>2017-02-14T08:00:50.000Z</time>
      </trkpt>
      <trkpt lat="47.26159" lon="-1.5384">
        <ele>10.052112579346</ele>
        <time>2017-02-14T08:00:53.000Z</time>
      </trkpt>
      <trkpt lat="47.26154" lon="-1.53838">
        <ele>9.7745532989502</ele>
        <time>2017-02-14T08:00:56.000Z</time>
      </trkpt>
      <trkpt lat="47.2615" lon="-1.53837">
        <ele>9.4580707550049</ele>
        <time>2017-02-14T08:00:59.000Z</time>
      </trkpt>
      <trkpt lat="47.26147" lon="-1.53837">
        <ele>9.1020050048828</ele>
        <time>2017-02-14T08:01:01.000Z</time>
      </trkpt>
      <trkpt lat="47.26143" lon="-1.53837">
        <ele>8.7744388580322</ele>
        <time>2017-02-14T08:01:04.000Z</time>
      </trkpt>
      <trkpt lat="47.26141" lon="-1.53837">
        <ele>8.5284786224365</ele>
        <time>2017-02-14T08:01:06.000Z</time>
      </trkpt>
      <trkpt lat="47.26139" lon="-1.53838">
        <ele>8.3891696929932</ele>
        <time>2017-02-14T08:01:09.000Z</time>
      </trkpt>
      <trkpt lat="47.26135" lon="-1.53838">
        <ele>8.2615985870361</ele>
        <time>2017-02-14T08:01:11.000Z</time>
      </trkpt>
      <trkpt lat="47.26131" lon="-1.53837">
        <ele>8.1193008422852</ele>
        <time>2017-02-14T08:01:14.000Z</time>
      </trkpt>
      <trkpt lat="47.26129" lon="-1.53838">
        <ele>8.0080757141113</ele>
        <time>2017-02-14T08:01:16.000Z</time>
      </trkpt>
      <trkpt lat="47.26125" lon="-1.53838">
        <ele>7.8914856910706</ele>
        <time>2017-02-14T08:01:19.000Z</time>
      </trkpt>
      <trkpt lat="47.2612" lon="-1.53839">
        <ele>7.7117891311646</ele>
        <time>2017-02-14T08:01:22.000Z</time>
      </trkpt>
      <trkpt lat="47.26117" lon="-1.53839">
        <ele>7.5656089782715</ele>
        <time>2017-02-14T08:01:24.000Z</time>
      </trkpt>
      <trkpt lat="47.26112" lon="-1.5384">
        <ele>7.4517936706543</ele>
        <time>2017-02-14T08:01:27.000Z</time>
      </trkpt>
      <trkpt lat="47.26109" lon="-1.53841">
        <ele>7.3363060951233</ele>
        <time>2017-02-14T08:01:29.000Z</time>
      </trkpt>
      <trkpt lat="47.26106" lon="-1.53843">
        <ele>7.2455115318298</ele>
        <time>2017-02-14T08:01:31.000Z</time>
      </trkpt>
      <trkpt lat="47.26101" lon="-1.53844">
        <ele>7.1783676147461</ele>
        <time>2017-02-14T08:01:34.000Z</time>
      </trkpt>
      <trkpt lat="47.26096" lon="-1.53844">
        <ele>7.0624513626099</ele>
        <time>2017-02-14T08:01:37.000Z</time>
      </trkpt>
      <trkpt lat="47.26091" lon="-1.53843">
        <ele>6.9121198654175</ele>
        <time>2017-02-14T08:01:40.000Z</time>
      </trkpt>
      <trkpt lat="47.26088" lon="-1.53844">
        <ele>6.7521185874939</ele>
        <time>2017-02-14T08:01:42.000Z</time>
      </trkpt>
      <trkpt lat="47.26083" lon="-1.53845">
        <ele>6.5747361183167</ele>
        <time>2017-02-14T08:01:45.000Z</time>
      </trkpt>
      <trkpt lat="47.2608" lon="-1.53846">
        <ele>6.433000087738</ele>
        <time>2017-02-14T08:01:48.000Z</time>
      </trkpt>
      <trkpt lat="47.26077" lon="-1.53847">
        <ele>6.3666906356812</ele>
        <time>2017-02-14T08:01:51.000Z</time>
      </trkpt>
      <trkpt lat="47.26071" lon="-1.53846">
        <ele>6.3500399589539</ele>
        <time>2017-02-14T08:01:54.000Z</time>
      </trkpt>
      <trkpt lat="47.26066" lon="-1.53846">
        <ele>6.3360991477966</ele>
        <time>2017-02-14T08:01:57.000Z</time>
      </trkpt>
      <trkpt lat="47.26063" lon="-1.53845">
        <ele>6.3209371566772</ele>
        <time>2017-02-14T08:01:59.000Z</time>
      </trkpt>
      <trkpt lat="47.26059" lon="-1.53844">
        <ele>6.2780733108521</ele>
        <time>2017-02-14T08:02:01.000Z</time>
      </trkpt>
      <trkpt lat="47.26053" lon="-1.53842">
        <ele>6.1785025596619</ele>
        <time>2017-02-14T08:02:04.000Z</time>
      </trkpt>
      <trkpt lat="47.26051" lon="-1.53842">
        <ele>6.080819606781</ele>
        <time>2017-02-14T08:02:06.000Z</time>
      </trkpt>
      <trkpt lat="47.26046" lon="-1.53842">
        <ele>6.0003066062927</ele>
        <time>2017-02-14T08:02:09.000Z</time>
      </trkpt>
      <trkpt lat="47.26043" lon="-1.53842">
        <ele>5.9269623756409</ele>
        <time>2017-02-14T08:02:11.000Z</time>
      </trkpt>
      <trkpt lat="47.2604" lon="-1.53842">
        <ele>5.8634886741638</ele>
        <time>2017-02-14T08:02:13.000Z</time>
      </trkpt>
      <trkpt lat="47.26038" lon="-1.53841">
        <ele>5.8307433128357</ele>
        <time>2017-02-14T08:02:15.000Z</time>
      </trkpt>
      <trkpt lat="47.26033" lon="-1.53841">
        <ele>5.7991323471069</ele>
        <time>2017-02-14T08:02:18.000Z</time>
      </trkpt>
      <trkpt lat="47.26031" lon="-1.53841">
        <ele>5.7631478309631</ele>
        <time>2017-02-14T08:02:20.000Z</time>
      </trkpt>
      <trkpt lat="47.26026" lon="-1.53841">
        <ele>5.7343764305115</ele>
        <time>2017-02-14T08:02:23.000Z</time>
      </trkpt>
      <trkpt lat="47.26023" lon="-1.53841">
        <ele>5.7089691162109</ele>
        <time>2017-02-14T08:02:25.000Z</time>
      </trkpt>
      <trkpt lat="47.26018" lon="-1.53842">
        <ele>5.7076234817505</ele>
        <time>2017-02-14T08:02:28.000Z</time>
      </trkpt>
      <trkpt lat="47.26013" lon="-1.53843">
        <ele>5.7274985313416</ele>
        <time>2017-02-14T08:02:31.000Z</time>
      </trkpt>
      <trkpt lat="47.2601" lon="-1.53843">
        <ele>5.758544921875</ele>
        <time>2017-02-14T08:02:33.000Z</time>
      </trkpt>
      <trkpt lat="47.26006" lon="-1.53844">
        <ele>5.7991690635681</ele>
        <time>2017-02-14T08:02:35.000Z</time>
      </trkpt>
      <trkpt lat="47.26001" lon="-1.53844">
        <ele>5.8497548103333</ele>
        <time>2017-02-14T08:02:38.000Z</time>
      </trkpt>
      <trkpt lat="47.25998" lon="-1.53845">
        <ele>5.8923773765564</ele>
        <time>2017-02-14T08:02:40.000Z</time>
      </trkpt>
      <trkpt lat="47.25994" lon="-1.53846">
        <ele>5.9177808761597</ele>
        <time>2017-02-14T08:02:42.000Z</time>
      </trkpt>
      <trkpt lat="47.2599" lon="-1.53847">
        <ele>5.953414440155</ele>
        <time>2017-02-14T08:02:45.000Z</time>
      </trkpt>
      <trkpt lat="47.25987" lon="-1.53849">
        <ele>5.9988312721252</ele>
        <time>2017-02-14T08:02:48.000Z</time>
      </trkpt>
      <trkpt lat="47.25983" lon="-1.5385">
        <ele>6.0500769615173</ele>
        <time>2017-02-14T08:02:51.000Z</time>
      </trkpt>
      <trkpt lat="47.25981" lon="-1.53851">
        <ele>6.1049203872681</ele>
        <time>2017-02-14T08:02:53.000Z</time>
      </trkpt>
      <trkpt lat="47.25977" lon="-1.53853">
        <ele>6.1696357727051</ele>
        <time>2017-02-14T08:02:56.000Z</time>
      </trkpt>
      <trkpt lat="47.25974" lon="-1.53854">
        <ele>6.2265634536743</ele>
        <time>2017-02-14T08:02:58.000Z</time>
      </trkpt>
      <trkpt lat="47.2597" lon="-1.53856">
        <ele>6.2992062568665</ele>
        <time>2017-02-14T08:03:01.000Z</time>
      </trkpt>
      <trkpt lat="47.25966" lon="-1.53859">
        <ele>6.3934144973755</ele>
        <time>2017-02-14T08:03:04.000Z</time>
      </trkpt>
      <trkpt lat="47.25964" lon="-1.53861">
        <ele>6.4955720901489</ele>
        <time>2017-02-14T08:03:06.000Z</time>
      </trkpt>
      <trkpt lat="47.25961" lon="-1.53863">
        <ele>6.6066217422485</ele>
        <time>2017-02-14T08:03:08.000Z</time>
      </trkpt>
      <trkpt lat="47.25957" lon="-1.53866">
        <ele>6.7389945983887</ele>
        <time>2017-02-14T08:03:11.000Z</time>
      </trkpt>
      <trkpt lat="47.25953" lon="-1.53869">
        <ele>6.8796510696411</ele>
        <time>2017-02-14T08:03:14.000Z</time>
      </trkpt>
      <trkpt lat="47.25951" lon="-1.53871">
        <ele>7.0107369422913</ele>
        <time>2017-02-14T08:03:16.000Z</time>
      </trkpt>
      <trkpt lat="47.25948" lon="-1.53873">
        <ele>7.1455154418945</ele>
        <time>2017-02-14T08:03:18.000Z</time>
      </trkpt>
      <trkpt lat="47.25945" lon="-1.53875">
        <ele>7.2878637313843</ele>
        <time>2017-02-14T08:03:21.000Z</time>
      </trkpt>
      <trkpt lat="47.25942" lon="-1.53877">
        <ele>7.4189338684082</ele>
        <time>2017-02-14T08:03:23.000Z</time>
      </trkpt>
      <trkpt lat="47.25939" lon="-1.5388">
        <ele>7.5391435623169</ele>
        <time>2017-02-14T08:03:26.000Z</time>
      </trkpt>
      <trkpt lat="47.25937" lon="-1.53882">
        <ele>7.6590623855591</ele>
        <time>2017-02-14T08:03:28.000Z</time>
      </trkpt>
      <trkpt lat="47.25934" lon="-1.53884">
        <ele>7.7729454040527</ele>
        <time>2017-02-14T08:03:31.000Z</time>
      </trkpt>
      <trkpt lat="47.2593" lon="-1.53885">
        <ele>7.8562669754028</ele>
        <time>2017-02-14T08:03:34.000Z</time>
      </trkpt>
      <trkpt lat="47.25926" lon="-1.53888">
        <ele>7.9504499435425</ele>
        <time>2017-02-14T08:03:37.000Z</time>
      </trkpt>
      <trkpt lat="47.25924" lon="-1.5389">
        <ele>8.0395574569702</ele>
        <time>2017-02-14T08:03:39.000Z</time>
      </trkpt>
      <trkpt lat="47.25921" lon="-1.53892">
        <ele>8.1221799850464</ele>
        <time>2017-02-14T08:03:41.000Z</time>
      </trkpt>
      <trkpt lat="47.25916" lon="-1.53894">
        <ele>8.1959047317505</ele>
        <time>2017-02-14T08:03:44.000Z</time>
      </trkpt>
      <trkpt lat="47.25913" lon="-1.53895">
        <ele>8.26930809021</ele>
        <time>2017-02-14T08:03:46.000Z</time>
      </trkpt>
      <trkpt lat="47.25909" lon="-1.53897">
        <ele>8.3140087127686</ele>
        <time>2017-02-14T08:03:49.000Z</time>
      </trkpt>
      <trkpt lat="47.25906" lon="-1.53898">
        <ele>8.3372249603271</ele>
        <time>2017-02-14T08:03:51.000Z</time>
      </trkpt>
      <trkpt lat="47.25903" lon="-1.539">
        <ele>8.3476810455322</ele>
        <time>2017-02-14T08:03:53.000Z</time>
      </trkpt>
      <trkpt lat="47.25899" lon="-1.53902">
        <ele>8.3588418960571</ele>
        <time>2017-02-14T08:03:56.000Z</time>
      </trkpt>
      <trkpt lat="47.25896" lon="-1.53904">
        <ele>8.3784160614014</ele>
        <time>2017-02-14T08:03:58.000Z</time>
      </trkpt>
      <trkpt lat="47.25893" lon="-1.53907">
        <ele>8.412992477417</ele>
        <time>2017-02-14T08:04:01.000Z</time>
      </trkpt>
      <trkpt lat="47.25891" lon="-1.53909">
        <ele>8.4554328918457</ele>
        <time>2017-02-14T08:04:03.000Z</time>
      </trkpt>
      <trkpt lat="47.25887" lon="-1.53911">
        <ele>8.5013980865479</ele>
        <time>2017-02-14T08:04:06.000Z</time>
      </trkpt>
      <trkpt lat="47.25884" lon="-1.53914">
        <ele>8.554669380188</ele>
        <time>2017-02-14T08:04:09.000Z</time>
      </trkpt>
      <trkpt lat="47.2588" lon="-1.53917">
        <ele>8.612832069397</ele>
        <time>2017-02-14T08:04:12.000Z</time>
      </trkpt>
      <trkpt lat="47.25877" lon="-1.53919">
        <ele>8.6598110198975</ele>
        <time>2017-02-14T08:04:15.000Z</time>
      </trkpt>
      <trkpt lat="47.25875" lon="-1.53921">
        <ele>8.7066106796265</ele>
        <time>2017-02-14T08:04:17.000Z</time>
      </trkpt>
      <trkpt lat="47.25872" lon="-1.53923">
        <ele>8.7410974502563</ele>
        <time>2017-02-14T08:04:20.000Z</time>
      </trkpt>
      <trkpt lat="47.2587" lon="-1.53924">
        <ele>8.7669630050659</ele>
        <time>2017-02-14T08:04:22.000Z</time>
      </trkpt>
      <trkpt lat="47.25867" lon="-1.53925">
        <ele>8.7867527008057</ele>
        <time>2017-02-14T08:04:24.000Z</time>
      </trkpt>
      <trkpt lat="47.25864" lon="-1.53928">
        <ele>8.8085422515869</ele>
        <time>2017-02-14T08:04:27.000Z</time>
      </trkpt>
      <trkpt lat="47.25861" lon="-1.53929">
        <ele>8.8174409866333</ele>
        <time>2017-02-14T08:04:30.000Z</time>
      </trkpt>
      <trkpt lat="47.25857" lon="-1.53932">
        <ele>8.846212387085</ele>
        <time>2017-02-14T08:04:33.000Z</time>
      </trkpt>
      <trkpt lat="47.25854" lon="-1.53935">
        <ele>8.8803043365479</ele>
        <time>2017-02-14T08:04:35.000Z</time>
      </trkpt>
      <trkpt lat="47.25851" lon="-1.53937">
        <ele>8.9345731735229</ele>
        <time>2017-02-14T08:04:37.000Z</time>
      </trkpt>
      <trkpt lat="47.25846" lon="-1.53942">
        <ele>9.01207447052</ele>
        <time>2017-02-14T08:04:40.000Z</time>
      </trkpt>
      <trkpt lat="47.25843" lon="-1.53944">
        <ele>9.1079845428467</ele>
        <time>2017-02-14T08:04:42.000Z</time>
      </trkpt>
      <trkpt lat="47.2584" lon="-1.53947">
        <ele>9.1989421844482</ele>
        <time>2017-02-14T08:04:45.000Z</time>
      </trkpt>
      <trkpt lat="47.25836" lon="-1.53948">
        <ele>9.2729644775391</ele>
        <time>2017-02-14T08:04:48.000Z</time>
      </trkpt>
      <trkpt lat="47.25832" lon="-1.53948">
        <ele>9.3093032836914</ele>
        <time>2017-02-14T08:04:51.000Z</time>
      </trkpt>
      <trkpt lat="47.25828" lon="-1.53949">
        <ele>9.3222398757935</ele>
        <time>2017-02-14T08:04:54.000Z</time>
      </trkpt>
      <trkpt lat="47.25825" lon="-1.5395">
        <ele>9.3269939422607</ele>
        <time>2017-02-14T08:04:56.000Z</time>
      </trkpt>
      <trkpt lat="47.25823" lon="-1.5395">
        <ele>9.3291521072388</ele>
        <time>2017-02-14T08:04:58.000Z</time>
      </trkpt>
      <trkpt lat="47.25819" lon="-1.53951">
        <ele>9.3430042266846</ele>
        <time>2017-02-14T08:05:01.000Z</time>
      </trkpt>
      <trkpt lat="47.25814" lon="-1.53951">
        <ele>9.3697376251221</ele>
        <time>2017-02-14T08:05:04.000Z</time>
      </trkpt>
      <trkpt lat="47.25811" lon="-1.53952">
        <ele>9.394118309021</ele>
        <time>2017-02-14T08:05:07.000Z</time>
      </trkpt>
      <trkpt lat="47.25808" lon="-1.53953">
        <ele>9.4210443496704</ele>
        <time>2017-02-14T08:05:09.000Z</time>
      </trkpt>
      <trkpt lat="47.25805" lon="-1.53955">
        <ele>9.467321395874</ele>
        <time>2017-02-14T08:05:12.000Z</time>
      </trkpt>
      <trkpt lat="47.25801" lon="-1.53958">
        <ele>9.5445003509521</ele>
        <time>2017-02-14T08:05:15.000Z</time>
      </trkpt>
      <trkpt lat="47.25799" lon="-1.5396">
        <ele>9.6457490921021</ele>
        <time>2017-02-14T08:05:17.000Z</time>
      </trkpt>
      <trkpt lat="47.25797" lon="-1.53961">
        <ele>9.7536602020264</ele>
        <time>2017-02-14T08:05:19.000Z</time>
      </trkpt>
      <trkpt lat="47.25794" lon="-1.53962">
        <ele>9.857931137085</ele>
        <time>2017-02-14T08:05:21.000Z</time>
      </trkpt>
      <trkpt lat="47.25789" lon="-1.53964">
        <ele>9.9509601593018</ele>
        <time>2017-02-14T08:05:24.000Z</time>
      </trkpt>
      <trkpt lat="47.25785" lon="-1.53965">
        <ele>10.020250320435</ele>
        <time>2017-02-14T08:05:26.000Z</time>
      </trkpt>
      <trkpt lat="47.2578" lon="-1.53966">
        <ele>10.076944351196</ele>
        <time>2017-02-14T08:05:29.000Z</time>
      </trkpt>
      <trkpt lat="47.25776" lon="-1.53967">
        <ele>10.121815681458</ele>
        <time>2017-02-14T08:05:32.000Z</time>
      </trkpt>
      <trkpt lat="47.25773" lon="-1.53968">
        <ele>10.165849685669</ele>
        <time>2017-02-14T08:05:34.000Z</time>
      </trkpt>
      <trkpt lat="47.25769" lon="-1.53968">
        <ele>10.1881980896</ele>
        <time>2017-02-14T08:05:37.000Z</time>
      </trkpt>
      <trkpt lat="47.25767" lon="-1.53967">
        <ele>10.192484855652</ele>
        <time>2017-02-14T08:05:39.000Z</time>
      </trkpt>
      <trkpt lat="47.25762" lon="-1.53966">
        <ele>10.160583496094</ele>
        <time>2017-02-14T08:05:42.000Z</time>
      </trkpt>
      <trkpt lat="47.25758" lon="-1.53963">
        <ele>10.086049079895</ele>
        <time>2017-02-14T08:05:45.000Z</time>
      </trkpt>
      <trkpt lat="47.25755" lon="-1.53959">
        <ele>9.9494199752808</ele>
        <time>2017-02-14T08:05:48.000Z</time>
      </trkpt>
      <trkpt lat="47.25752" lon="-1.53954">
        <ele>9.76233959198</ele>
        <time>2017-02-14T08:05:51.000Z</time>
      </trkpt>
      <trkpt lat="47.25748" lon="-1.53951">
        <ele>9.5382919311523</ele>
        <time>2017-02-14T08:05:54.000Z</time>
      </trkpt>
      <trkpt lat="47.25744" lon="-1.53946">
        <ele>9.2921009063721</ele>
        <time>2017-02-14T08:05:57.000Z</time>
      </trkpt>
      <trkpt lat="47.25741" lon="-1.53941">
        <ele>9.0318059921265</ele>
        <time>2017-02-14T08:06:00.000Z</time>
      </trkpt>
      <trkpt lat="47.25738" lon="-1.53937">
        <ele>8.7702655792236</ele>
        <time>2017-02-14T08:06:03.000Z</time>
      </trkpt>
      <trkpt lat="47.25735" lon="-1.53932">
        <ele>8.5049028396606</ele>
        <time>2017-02-14T08:06:06.000Z</time>
      </trkpt>
      <trkpt lat="47.25731" lon="-1.53926">
        <ele>8.2191371917725</ele>
        <time>2017-02-14T08:06:09.000Z</time>
      </trkpt>
      <trkpt lat="47.25727" lon="-1.53921">
        <ele>7.9159188270569</ele>
        <time>2017-02-14T08:06:12.000Z</time>
      </trkpt>
      <trkpt lat="47.25725" lon="-1.53918">
        <ele>7.6232514381409</ele>
        <time>2017-02-14T08:06:14.000Z</time>
      </trkpt>
      <trkpt lat="47.25723" lon="-1.53915">
        <ele>7.3586578369141</ele>
        <time>2017-02-14T08:06:16.000Z</time>
      </trkpt>
      <trkpt lat="47.25719" lon="-1.53911">
        <ele>7.1230211257935</ele>
        <time>2017-02-14T08:06:19.000Z</time>
      </trkpt>
      <trkpt lat="47.25715" lon="-1.53909">
        <ele>6.9298005104065</ele>
        <time>2017-02-14T08:06:22.000Z</time>
      </trkpt>
      <trkpt lat="47.25711" lon="-1.5391">
        <ele>6.8104629516602</ele>
        <time>2017-02-14T08:06:25.000Z</time>
      </trkpt>
      <trkpt lat="47.25708" lon="-1.53912">
        <ele>6.750732421875</ele>
        <time>2017-02-14T08:06:27.000Z</time>
      </trkpt>
      <trkpt lat="47.25705" lon="-1.53914">
        <ele>6.74609375</ele>
        <time>2017-02-14T08:06:30.000Z</time>
      </trkpt>
      <trkpt lat="47.25702" lon="-1.53915">
        <ele>6.783447265625</ele>
        <time>2017-02-14T08:06:32.000Z</time>
      </trkpt>
      <trkpt lat="47.25698" lon="-1.53917">
        <ele>6.8598709106445</ele>
        <time>2017-02-14T08:06:35.000Z</time>
      </trkpt>
      <trkpt lat="47.25695" lon="-1.53918">
        <ele>6.9376626014709</ele>
        <time>2017-02-14T08:06:38.000Z</time>
      </trkpt>
      <trkpt lat="47.25692" lon="-1.53918">
        <ele>7.0039796829224</ele>
        <time>2017-02-14T08:06:40.000Z</time>
      </trkpt>
      <trkpt lat="47.25689" lon="-1.53921">
        <ele>7.0805191993713</ele>
        <time>2017-02-14T08:06:43.000Z</time>
      </trkpt>
      <trkpt lat="47.25686" lon="-1.53922">
        <ele>7.1702179908752</ele>
        <time>2017-02-14T08:06:45.000Z</time>
      </trkpt>
      <trkpt lat="47.25684" lon="-1.53922">
        <ele>7.2378640174866</ele>
        <time>2017-02-14T08:06:48.000Z</time>
      </trkpt>
      <trkpt lat="47.25682" lon="-1.53923">
        <ele>7.3040366172791</ele>
        <time>2017-02-14T08:06:51.000Z</time>
      </trkpt>
      <trkpt lat="47.25678" lon="-1.53923">
        <ele>7.3761205673218</ele>
        <time>2017-02-14T08:06:54.000Z</time>
      </trkpt>
      <trkpt lat="47.25675" lon="-1.53925">
        <ele>7.436399936676</ele>
        <time>2017-02-14T08:06:57.000Z</time>
      </trkpt>
      <trkpt lat="47.25672" lon="-1.53926">
        <ele>7.4967522621155</ele>
        <time>2017-02-14T08:06:59.000Z</time>
      </trkpt>
      <trkpt lat="47.25667" lon="-1.53929">
        <ele>7.6039605140686</ele>
        <time>2017-02-14T08:07:02.000Z</time>
      </trkpt>
      <trkpt lat="47.25664" lon="-1.53931">
        <ele>7.725462436676</ele>
        <time>2017-02-14T08:07:04.000Z</time>
      </trkpt>
      <trkpt lat="47.2566" lon="-1.53933">
        <ele>7.8510637283325</ele>
        <time>2017-02-14T08:07:07.000Z</time>
      </trkpt>
      <trkpt lat="47.25655" lon="-1.53935">
        <ele>7.9666481018066</ele>
        <time>2017-02-14T08:07:10.000Z</time>
      </trkpt>
      <trkpt lat="47.25652" lon="-1.53935">
        <ele>8.0624713897705</ele>
        <time>2017-02-14T08:07:12.000Z</time>
      </trkpt>
      <trkpt lat="47.2565" lon="-1.53937">
        <ele>8.137451171875</ele>
        <time>2017-02-14T08:07:14.000Z</time>
      </trkpt>
      <trkpt lat="47.25647" lon="-1.53939">
        <ele>8.2064819335938</ele>
        <time>2017-02-14T08:07:17.000Z</time>
      </trkpt>
      <trkpt lat="47.25643" lon="-1.5394">
        <ele>8.2761840820312</ele>
        <time>2017-02-14T08:07:20.000Z</time>
      </trkpt>
      <trkpt lat="47.25642" lon="-1.53942">
        <ele>8.3467407226562</ele>
        <time>2017-02-14T08:07:22.000Z</time>
      </trkpt>
      <trkpt lat="47.2564" lon="-1.53941">
        <ele>8.39892578125</ele>
        <time>2017-02-14T08:07:26.000Z</time>
      </trkpt>
      <trkpt lat="47.25639" lon="-1.53939">
        <ele>8.4036865234375</ele>
        <time>2017-02-14T08:07:28.000Z</time>
      </trkpt>
      <trkpt lat="47.25637" lon="-1.5394">
        <ele>8.39599609375</ele>
        <time>2017-02-14T08:07:30.000Z</time>
      </trkpt>
      <trkpt lat="47.25632" lon="-1.53945">
        <ele>8.4352416992188</ele>
        <time>2017-02-14T08:07:33.000Z</time>
      </trkpt>
      <trkpt lat="47.25627" lon="-1.5395">
        <ele>8.5202026367188</ele>
        <time>2017-02-14T08:07:35.000Z</time>
      </trkpt>
      <trkpt lat="47.25623" lon="-1.53955">
        <ele>8.677490234375</ele>
        <time>2017-02-14T08:07:37.000Z</time>
      </trkpt>
      <trkpt lat="47.25621" lon="-1.53958">
        <ele>8.903564453125</ele>
        <time>2017-02-14T08:07:40.000Z</time>
      </trkpt>
      <trkpt lat="47.25622" lon="-1.53961">
        <ele>9.17138671875</ele>
        <time>2017-02-14T08:07:42.000Z</time>
      </trkpt>
      <trkpt lat="47.25623" lon="-1.53966">
        <ele>9.4562377929688</ele>
        <time>2017-02-14T08:07:44.000Z</time>
      </trkpt>
      <trkpt lat="47.25621" lon="-1.53974">
        <ele>9.7902221679688</ele>
        <time>2017-02-14T08:07:47.000Z</time>
      </trkpt>
      <trkpt lat="47.25618" lon="-1.53979">
        <ele>10.132019042969</ele>
        <time>2017-02-14T08:07:50.000Z</time>
      </trkpt>
      <trkpt lat="47.25615" lon="-1.53983">
        <ele>10.474182128906</ele>
        <time>2017-02-14T08:07:52.000Z</time>
      </trkpt>
      <trkpt lat="47.25613" lon="-1.53985">
        <ele>10.803161621094</ele>
        <time>2017-02-14T08:07:54.000Z</time>
      </trkpt>
      <trkpt lat="47.2561" lon="-1.53987">
        <ele>11.070190429688</ele>
        <time>2017-02-14T08:07:57.000Z</time>
      </trkpt>
      <trkpt lat="47.25605" lon="-1.53989">
        <ele>11.239196777344</ele>
        <time>2017-02-14T08:08:00.000Z</time>
      </trkpt>
      <trkpt lat="47.25602" lon="-1.5399">
        <ele>11.352111816406</ele>
        <time>2017-02-14T08:08:02.000Z</time>
      </trkpt>
      <trkpt lat="47.25599" lon="-1.53992">
        <ele>11.450134277344</ele>
        <time>2017-02-14T08:08:05.000Z</time>
      </trkpt>
      <trkpt lat="47.25597" lon="-1.53994">
        <ele>11.539794921875</ele>
        <time>2017-02-14T08:08:08.000Z</time>
      </trkpt>
      <trkpt lat="47.25594" lon="-1.53995">
        <ele>11.611083984375</ele>
        <time>2017-02-14T08:08:11.000Z</time>
      </trkpt>
      <trkpt lat="47.25592" lon="-1.53996">
        <ele>11.690368652344</ele>
        <time>2017-02-14T08:08:13.000Z</time>
      </trkpt>
      <trkpt lat="47.2559" lon="-1.53997">
        <ele>11.771301269531</ele>
        <time>2017-02-14T08:08:15.000Z</time>
      </trkpt>
      <trkpt lat="47.25588" lon="-1.53999">
        <ele>11.835021972656</ele>
        <time>2017-02-14T08:08:17.000Z</time>
      </trkpt>
      <trkpt lat="47.25587" lon="-1.54001">
        <ele>11.912134170532</ele>
        <time>2017-02-14T08:08:20.000Z</time>
      </trkpt>
      <trkpt lat="47.25585" lon="-1.54003">
        <ele>12.015234947205</ele>
        <time>2017-02-14T08:08:22.000Z</time>
      </trkpt>
      <trkpt lat="47.25583" lon="-1.54004">
        <ele>12.119901657104</ele>
        <time>2017-02-14T08:08:24.000Z</time>
      </trkpt>
      <trkpt lat="47.25579" lon="-1.54007">
        <ele>12.222230911255</ele>
        <time>2017-02-14T08:08:27.000Z</time>
      </trkpt>
      <trkpt lat="47.25576" lon="-1.54007">
        <ele>12.310609817505</ele>
        <time>2017-02-14T08:08:29.000Z</time>
      </trkpt>
      <trkpt lat="47.25574" lon="-1.54009">
        <ele>12.365930557251</ele>
        <time>2017-02-14T08:08:31.000Z</time>
      </trkpt>
      <trkpt lat="47.25573" lon="-1.54012">
        <ele>12.431691169739</ele>
        <time>2017-02-14T08:08:33.000Z</time>
      </trkpt>
      <trkpt lat="47.25572" lon="-1.54015">
        <ele>12.519377708435</ele>
        <time>2017-02-14T08:08:36.000Z</time>
      </trkpt>
      <trkpt lat="47.25573" lon="-1.54017">
        <ele>12.634454727173</ele>
        <time>2017-02-14T08:08:38.000Z</time>
      </trkpt>
      <trkpt lat="47.25574" lon="-1.54019">
        <ele>12.796396255493</ele>
        <time>2017-02-14T08:08:41.000Z</time>
      </trkpt>
      <trkpt lat="47.25576" lon="-1.54018">
        <ele>12.954617500305</ele>
        <time>2017-02-14T08:08:45.000Z</time>
      </trkpt>
      <trkpt lat="47.25577" lon="-1.54018">
        <ele>13.082040786743</ele>
        <time>2017-02-14T08:08:47.000Z</time>
      </trkpt>
      <trkpt lat="47.25578" lon="-1.54018">
        <ele>13.178129196167</ele>
        <time>2017-02-14T08:08:51.000Z</time>
      </trkpt>
      <trkpt lat="47.2558" lon="-1.54016">
        <ele>13.221110343933</ele>
        <time>2017-02-14T08:08:54.000Z</time>
      </trkpt>
      <trkpt lat="47.25582" lon="-1.54015">
        <ele>13.220083236694</ele>
        <time>2017-02-14T08:08:57.000Z</time>
      </trkpt>
      <trkpt lat="47.25583" lon="-1.54014">
        <ele>13.208841323853</ele>
        <time>2017-02-14T08:08:59.000Z</time>
      </trkpt>
      <trkpt lat="47.25585" lon="-1.54013">
        <ele>13.176816940308</ele>
        <time>2017-02-14T08:09:01.000Z</time>
      </trkpt>
      <trkpt lat="47.25588" lon="-1.54011">
        <ele>13.116185188293</ele>
        <time>2017-02-14T08:09:04.000Z</time>
      </trkpt>
      <trkpt lat="47.25591" lon="-1.5401">
        <ele>13.051653862</ele>
        <time>2017-02-14T08:09:06.000Z</time>
      </trkpt>
      <trkpt lat="47.25592" lon="-1.5401">
        <ele>12.988418579102</ele>
        <time>2017-02-14T08:09:09.000Z</time>
      </trkpt>
      <trkpt lat="47.25595" lon="-1.5401">
        <ele>12.933366775513</ele>
        <time>2017-02-14T08:09:11.000Z</time>
      </trkpt>
      <trkpt lat="47.25599" lon="-1.54011">
        <ele>12.908839225769</ele>
        <time>2017-02-14T08:09:14.000Z</time>
      </trkpt>
      <trkpt lat="47.25601" lon="-1.54012">
        <ele>12.923543930054</ele>
        <time>2017-02-14T08:09:16.000Z</time>
      </trkpt>
      <trkpt lat="47.25603" lon="-1.54015">
        <ele>12.991569519043</ele>
        <time>2017-02-14T08:09:18.000Z</time>
      </trkpt>
      <trkpt lat="47.25606" lon="-1.54018">
        <ele>13.097744941711</ele>
        <time>2017-02-14T08:09:21.000Z</time>
      </trkpt>
      <trkpt lat="47.25608" lon="-1.5402">
        <ele>13.228734970093</ele>
        <time>2017-02-14T08:09:23.000Z</time>
      </trkpt>
      <trkpt lat="47.2561" lon="-1.54025">
        <ele>13.410840034485</ele>
        <time>2017-02-14T08:09:26.000Z</time>
      </trkpt>
      <trkpt lat="47.25612" lon="-1.54028">
        <ele>13.606266975403</ele>
        <time>2017-02-14T08:09:28.000Z</time>
      </trkpt>
      <trkpt lat="47.25613" lon="-1.54031">
        <ele>13.799531936646</ele>
        <time>2017-02-14T08:09:30.000Z</time>
      </trkpt>
      <trkpt lat="47.25615" lon="-1.54036">
        <ele>13.997266769409</ele>
        <time>2017-02-14T08:09:33.000Z</time>
      </trkpt>
      <trkpt lat="47.25615" lon="-1.5404">
        <ele>14.215616226196</ele>
        <time>2017-02-14T08:09:36.000Z</time>
      </trkpt>
      <trkpt lat="47.25615" lon="-1.54042">
        <ele>14.397298812866</ele>
        <time>2017-02-14T08:09:38.000Z</time>
      </trkpt>
      <trkpt lat="47.25616" lon="-1.54046">
        <ele>14.581413269043</ele>
        <time>2017-02-14T08:09:41.000Z</time>
      </trkpt>
      <trkpt lat="47.25616" lon="-1.54047">
        <ele>14.755932807922</ele>
        <time>2017-02-14T08:09:43.000Z</time>
      </trkpt>
      <trkpt lat="47.25615" lon="-1.54045">
        <ele>14.860852241516</ele>
        <time>2017-02-14T08:09:46.000Z</time>
      </trkpt>
      <trkpt lat="47.25615" lon="-1.5404">
        <ele>14.864044189453</ele>
        <time>2017-02-14T08:09:49.000Z</time>
      </trkpt>
      <trkpt lat="47.25614" lon="-1.54036">
        <ele>14.800186157227</ele>
        <time>2017-02-14T08:09:51.000Z</time>
      </trkpt>
      <trkpt lat="47.25613" lon="-1.54031">
        <ele>14.644841194153</ele>
        <time>2017-02-14T08:09:54.000Z</time>
      </trkpt>
      <trkpt lat="47.25613" lon="-1.54028">
        <ele>14.431045532227</ele>
        <time>2017-02-14T08:09:56.000Z</time>
      </trkpt>
      <trkpt lat="47.25612" lon="-1.54022">
        <ele>14.174807548523</ele>
        <time>2017-02-14T08:09:59.000Z</time>
      </trkpt>
      <trkpt lat="47.25611" lon="-1.54019">
        <ele>13.938911437988</ele>
        <time>2017-02-14T08:10:01.000Z</time>
      </trkpt>
      <trkpt lat="47.25611" lon="-1.54016">
        <ele>13.705760002136</ele>
        <time>2017-02-14T08:10:03.000Z</time>
      </trkpt>
      <trkpt lat="47.2561" lon="-1.54011">
        <ele>13.465414047241</ele>
        <time>2017-02-14T08:10:06.000Z</time>
      </trkpt>
      <trkpt lat="47.25608" lon="-1.54005">
        <ele>13.197308540344</ele>
        <time>2017-02-14T08:10:09.000Z</time>
      </trkpt>
      <trkpt lat="47.25607" lon="-1.54">
        <ele>12.924641609192</ele>
        <time>2017-02-14T08:10:12.000Z</time>
      </trkpt>
      <trkpt lat="47.25606" lon="-1.53996">
        <ele>12.633146286011</ele>
        <time>2017-02-14T08:10:14.000Z</time>
      </trkpt>
      <trkpt lat="47.25604" lon="-1.53992">
        <ele>12.313688278198</ele>
        <time>2017-02-14T08:10:17.000Z</time>
      </trkpt>
      <trkpt lat="47.25603" lon="-1.53988">
        <ele>11.994859695435</ele>
        <time>2017-02-14T08:10:19.000Z</time>
      </trkpt>
      <trkpt lat="47.25601" lon="-1.53983">
        <ele>11.658630371094</ele>
        <time>2017-02-14T08:10:22.000Z</time>
      </trkpt>
      <trkpt lat="47.256" lon="-1.53979">
        <ele>11.342102050781</ele>
        <time>2017-02-14T08:10:24.000Z</time>
      </trkpt>
      <trkpt lat="47.25599" lon="-1.53975">
        <ele>11.024841308594</ele>
        <time>2017-02-14T08:10:26.000Z</time>
      </trkpt>
      <trkpt lat="47.25597" lon="-1.5397">
        <ele>10.684326171875</ele>
        <time>2017-02-14T08:10:29.000Z</time>
      </trkpt>
      <trkpt lat="47.25597" lon="-1.53966">
        <ele>10.351257324219</ele>
        <time>2017-02-14T08:10:31.000Z</time>
      </trkpt>
      <trkpt lat="47.25595" lon="-1.5396">
        <ele>10.012817382812</ele>
        <time>2017-02-14T08:10:34.000Z</time>
      </trkpt>
      <trkpt lat="47.25593" lon="-1.53954">
        <ele>9.6350708007812</ele>
        <time>2017-02-14T08:10:37.000Z</time>
      </trkpt>
      <trkpt lat="47.25592" lon="-1.5395">
        <ele>9.2531127929688</ele>
        <time>2017-02-14T08:10:39.000Z</time>
      </trkpt>
      <trkpt lat="47.25591" lon="-1.53946">
        <ele>8.9014282226562</ele>
        <time>2017-02-14T08:10:41.000Z</time>
      </trkpt>
      <trkpt lat="47.25588" lon="-1.53941">
        <ele>8.5169677734375</ele>
        <time>2017-02-14T08:10:44.000Z</time>
      </trkpt>
      <trkpt lat="47.25587" lon="-1.53935">
        <ele>8.130859375</ele>
        <time>2017-02-14T08:10:47.000Z</time>
      </trkpt>
      <trkpt lat="47.25586" lon="-1.53931">
        <ele>7.7747802734375</ele>
        <time>2017-02-14T08:10:49.000Z</time>
      </trkpt>
      <trkpt lat="47.25584" lon="-1.53925">
        <ele>7.3915405273438</ele>
        <time>2017-02-14T08:10:52.000Z</time>
      </trkpt>
      <trkpt lat="47.25583" lon="-1.53921">
        <ele>7.0073647499084</ele>
        <time>2017-02-14T08:10:54.000Z</time>
      </trkpt>
      <trkpt lat="47.25581" lon="-1.53915">
        <ele>6.6610383987427</ele>
        <time>2017-02-14T08:10:57.000Z</time>
      </trkpt>
      <trkpt lat="47.2558" lon="-1.53911">
        <ele>6.4333772659302</ele>
        <time>2017-02-14T08:10:59.000Z</time>
      </trkpt>
      <trkpt lat="47.25579" lon="-1.53908">
        <ele>6.2936339378357</ele>
        <time>2017-02-14T08:11:01.000Z</time>
      </trkpt>
      <trkpt lat="47.25578" lon="-1.53902">
        <ele>6.2865972518921</ele>
        <time>2017-02-14T08:11:04.000Z</time>
      </trkpt>
      <trkpt lat="47.25576" lon="-1.53898">
        <ele>6.3666219711304</ele>
        <time>2017-02-14T08:11:06.000Z</time>
      </trkpt>
      <trkpt lat="47.25575" lon="-1.53894">
        <ele>6.5261597633362</ele>
        <time>2017-02-14T08:11:08.000Z</time>
      </trkpt>
      <trkpt lat="47.25574" lon="-1.5389">
        <ele>6.6869688034058</ele>
        <time>2017-02-14T08:11:10.000Z</time>
      </trkpt>
      <trkpt lat="47.25572" lon="-1.53885">
        <ele>6.8600168228149</ele>
        <time>2017-02-14T08:11:13.000Z</time>
      </trkpt>
      <trkpt lat="47.2557" lon="-1.53879">
        <ele>7.0335922241211</ele>
        <time>2017-02-14T08:11:16.000Z</time>
      </trkpt>
      <trkpt lat="47.25568" lon="-1.53873">
        <ele>7.2279534339905</ele>
        <time>2017-02-14T08:11:19.000Z</time>
      </trkpt>
      <trkpt lat="47.25567" lon="-1.53869">
        <ele>7.425473690033</ele>
        <time>2017-02-14T08:11:21.000Z</time>
      </trkpt>
      <trkpt lat="47.25565" lon="-1.53863">
        <ele>7.6427488327026</ele>
        <time>2017-02-14T08:11:24.000Z</time>
      </trkpt>
      <trkpt lat="47.25563" lon="-1.53856">
        <ele>7.8740553855896</ele>
        <time>2017-02-14T08:11:27.000Z</time>
      </trkpt>
      <trkpt lat="47.25563" lon="-1.53852">
        <ele>8.0907182693481</ele>
        <time>2017-02-14T08:11:29.000Z</time>
      </trkpt>
      <trkpt lat="47.25561" lon="-1.53846">
        <ele>8.30934715271</ele>
        <time>2017-02-14T08:11:32.000Z</time>
      </trkpt>
      <trkpt lat="47.2556" lon="-1.53841">
        <ele>8.5397748947144</ele>
        <time>2017-02-14T08:11:35.000Z</time>
      </trkpt>
      <trkpt lat="47.25559" lon="-1.53837">
        <ele>8.7482500076294</ele>
        <time>2017-02-14T08:11:37.000Z</time>
      </trkpt>
      <trkpt lat="47.25558" lon="-1.53832">
        <ele>8.9468402862549</ele>
        <time>2017-02-14T08:11:40.000Z</time>
      </trkpt>
      <trkpt lat="47.25557" lon="-1.53828">
        <ele>9.1458683013916</ele>
        <time>2017-02-14T08:11:42.000Z</time>
      </trkpt>
      <trkpt lat="47.25556" lon="-1.53824">
        <ele>9.3278913497925</ele>
        <time>2017-02-14T08:11:44.000Z</time>
      </trkpt>
      <trkpt lat="47.25555" lon="-1.53819">
        <ele>9.5056228637695</ele>
        <time>2017-02-14T08:11:47.000Z</time>
      </trkpt>
      <trkpt lat="47.25554" lon="-1.53815">
        <ele>9.6915616989136</ele>
        <time>2017-02-14T08:11:49.000Z</time>
      </trkpt>
      <trkpt lat="47.25552" lon="-1.53809">
        <ele>9.892936706543</ele>
        <time>2017-02-14T08:11:52.000Z</time>
      </trkpt>
      <trkpt lat="47.2555" lon="-1.53803">
        <ele>10.117555618286</ele>
        <time>2017-02-14T08:11:55.000Z</time>
      </trkpt>
      <trkpt lat="47.25549" lon="-1.53798">
        <ele>10.359824180603</ele>
        <time>2017-02-14T08:11:58.000Z</time>
      </trkpt>
      <trkpt lat="47.25548" lon="-1.53795">
        <ele>10.592432975769</ele>
        <time>2017-02-14T08:12:00.000Z</time>
      </trkpt>
      <trkpt lat="47.25547" lon="-1.53792">
        <ele>10.831163406372</ele>
        <time>2017-02-14T08:12:02.000Z</time>
      </trkpt>
      <trkpt lat="47.25546" lon="-1.53787">
        <ele>11.057893753052</ele>
        <time>2017-02-14T08:12:05.000Z</time>
      </trkpt>
      <trkpt lat="47.25545" lon="-1.53783">
        <ele>11.274220466614</ele>
        <time>2017-02-14T08:12:07.000Z</time>
      </trkpt>
      <trkpt lat="47.25544" lon="-1.53778">
        <ele>11.51030921936</ele>
        <time>2017-02-14T08:12:10.000Z</time>
      </trkpt>
      <trkpt lat="47.25542" lon="-1.53772">
        <ele>11.787750244141</ele>
        <time>2017-02-14T08:12:13.000Z</time>
      </trkpt>
      <trkpt lat="47.25541" lon="-1.53768">
        <ele>12.075461387634</ele>
        <time>2017-02-14T08:12:15.000Z</time>
      </trkpt>
      <trkpt lat="47.2554" lon="-1.53764">
        <ele>12.367663383484</ele>
        <time>2017-02-14T08:12:17.000Z</time>
      </trkpt>
      <trkpt lat="47.25539" lon="-1.5376">
        <ele>12.671714782715</ele>
        <time>2017-02-14T08:12:19.000Z</time>
      </trkpt>
      <trkpt lat="47.25537" lon="-1.53755">
        <ele>12.978593826294</ele>
        <time>2017-02-14T08:12:22.000Z</time>
      </trkpt>
      <trkpt lat="47.25536" lon="-1.53751">
        <ele>13.272717475891</ele>
        <time>2017-02-14T08:12:24.000Z</time>
      </trkpt>
      <trkpt lat="47.25535" lon="-1.53745">
        <ele>13.563629150391</ele>
        <time>2017-02-14T08:12:27.000Z</time>
      </trkpt>
      <trkpt lat="47.25533" lon="-1.53741">
        <ele>13.83459186554</ele>
        <time>2017-02-14T08:12:29.000Z</time>
      </trkpt>
      <trkpt lat="47.25532" lon="-1.53736">
        <ele>14.080401420593</ele>
        <time>2017-02-14T08:12:31.000Z</time>
      </trkpt>
      <trkpt lat="47.25531" lon="-1.53733">
        <ele>14.289068222046</ele>
        <time>2017-02-14T08:12:33.000Z</time>
      </trkpt>
      <trkpt lat="47.25529" lon="-1.53727">
        <ele>14.483673095703</ele>
        <time>2017-02-14T08:12:36.000Z</time>
      </trkpt>
      <trkpt lat="47.25527" lon="-1.53722">
        <ele>14.6611328125</ele>
        <time>2017-02-14T08:12:39.000Z</time>
      </trkpt>
      <trkpt lat="47.25526" lon="-1.53717">
        <ele>14.840515136719</ele>
        <time>2017-02-14T08:12:42.000Z</time>
      </trkpt>
      <trkpt lat="47.25525" lon="-1.53713">
        <ele>15.0126953125</ele>
        <time>2017-02-14T08:12:44.000Z</time>
      </trkpt>
      <trkpt lat="47.25525" lon="-1.53709">
        <ele>15.172088623047</ele>
        <time>2017-02-14T08:12:46.000Z</time>
      </trkpt>
      <trkpt lat="47.25524" lon="-1.53703">
        <ele>15.312286376953</ele>
        <time>2017-02-14T08:12:49.000Z</time>
      </trkpt>
      <trkpt lat="47.25523" lon="-1.53699">
        <ele>15.443481445312</ele>
        <time>2017-02-14T08:12:51.000Z</time>
      </trkpt>
      <trkpt lat="47.25523" lon="-1.53693">
        <ele>15.56298828125</ele>
        <time>2017-02-14T08:12:54.000Z</time>
      </trkpt>
      <trkpt lat="47.25522" lon="-1.53687">
        <ele>15.688323974609</ele>
        <time>2017-02-14T08:12:57.000Z</time>
      </trkpt>
      <trkpt lat="47.25521" lon="-1.53682">
        <ele>15.800811767578</ele>
        <time>2017-02-14T08:12:59.000Z</time>
      </trkpt>
      <trkpt lat="47.25521" lon="-1.53675">
        <ele>15.908325195312</ele>
        <time>2017-02-14T08:13:02.000Z</time>
      </trkpt>
      <trkpt lat="47.25521" lon="-1.53671">
        <ele>16.002868652344</ele>
        <time>2017-02-14T08:13:04.000Z</time>
      </trkpt>
      <trkpt lat="47.25521" lon="-1.53664">
        <ele>16.090715408325</ele>
        <time>2017-02-14T08:13:07.000Z</time>
      </trkpt>
      <trkpt lat="47.25521" lon="-1.53658">
        <ele>16.154026031494</ele>
        <time>2017-02-14T08:13:10.000Z</time>
      </trkpt>
      <trkpt lat="47.25521" lon="-1.53654">
        <ele>16.213996887207</ele>
        <time>2017-02-14T08:13:12.000Z</time>
      </trkpt>
      <trkpt lat="47.25521" lon="-1.53648">
        <ele>16.263814926147</ele>
        <time>2017-02-14T08:13:15.000Z</time>
      </trkpt>
      <trkpt lat="47.25522" lon="-1.53641">
        <ele>16.315130233765</ele>
        <time>2017-02-14T08:13:18.000Z</time>
      </trkpt>
      <trkpt lat="47.25524" lon="-1.5364">
        <ele>16.32400894165</ele>
        <time>2017-02-14T08:13:20.000Z</time>
      </trkpt>
      <trkpt lat="47.25525" lon="-1.53645">
        <ele>16.301153182983</ele>
        <time>2017-02-14T08:13:23.000Z</time>
      </trkpt>
      <trkpt lat="47.25526" lon="-1.53649">
        <ele>16.242280960083</ele>
        <time>2017-02-14T08:13:26.000Z</time>
      </trkpt>
      <trkpt lat="47.25527" lon="-1.53652">
        <ele>16.144685745239</ele>
        <time>2017-02-14T08:13:29.000Z</time>
      </trkpt>
      <trkpt lat="47.25528" lon="-1.53655">
        <ele>16.01605796814</ele>
        <time>2017-02-14T08:13:31.000Z</time>
      </trkpt>
      <trkpt lat="47.25529" lon="-1.5366">
        <ele>15.883020401001</ele>
        <time>2017-02-14T08:13:34.000Z</time>
      </trkpt>
      <trkpt lat="47.25531" lon="-1.53665">
        <ele>15.743631362915</ele>
        <time>2017-02-14T08:13:37.000Z</time>
      </trkpt>
      <trkpt lat="47.25531" lon="-1.53669">
        <ele>15.610633850098</ele>
        <time>2017-02-14T08:13:39.000Z</time>
      </trkpt>
      <trkpt lat="47.25532" lon="-1.53672">
        <ele>15.481593132019</ele>
        <time>2017-02-14T08:13:41.000Z</time>
      </trkpt>
      <trkpt lat="47.25533" lon="-1.53677">
        <ele>15.339207649231</ele>
        <time>2017-02-14T08:13:44.000Z</time>
      </trkpt>
      <trkpt lat="47.25535" lon="-1.5368">
        <ele>15.200597763062</ele>
        <time>2017-02-14T08:13:46.000Z</time>
      </trkpt>
      <trkpt lat="47.25536" lon="-1.53685">
        <ele>15.057250976562</ele>
        <time>2017-02-14T08:13:48.000Z</time>
      </trkpt>
      <trkpt lat="47.25538" lon="-1.53691">
        <ele>14.887786865234</ele>
        <time>2017-02-14T08:13:51.000Z</time>
      </trkpt>
      <trkpt lat="47.2554" lon="-1.53697">
        <ele>14.699188232422</ele>
        <time>2017-02-14T08:13:54.000Z</time>
      </trkpt>
      <trkpt lat="47.25541" lon="-1.53701">
        <ele>14.519683837891</ele>
        <time>2017-02-14T08:13:56.000Z</time>
      </trkpt>
      <trkpt lat="47.25542" lon="-1.53704">
        <ele>14.339233398438</ele>
        <time>2017-02-14T08:13:58.000Z</time>
      </trkpt>
      <trkpt lat="47.25542" lon="-1.53709">
        <ele>14.178436279297</ele>
        <time>2017-02-14T08:14:01.000Z</time>
      </trkpt>
      <trkpt lat="47.25543" lon="-1.53713">
        <ele>14.051055908203</ele>
        <time>2017-02-14T08:14:03.000Z</time>
      </trkpt>
      <trkpt lat="47.25544" lon="-1.53717">
        <ele>13.934356689453</ele>
        <time>2017-02-14T08:14:06.000Z</time>
      </trkpt>
      <trkpt lat="47.25546" lon="-1.53721">
        <ele>13.797332763672</ele>
        <time>2017-02-14T08:14:09.000Z</time>
      </trkpt>
      <trkpt lat="47.25549" lon="-1.53726">
        <ele>13.628143310547</ele>
        <time>2017-02-14T08:14:12.000Z</time>
      </trkpt>
      <trkpt lat="47.25551" lon="-1.53733">
        <ele>13.426696777344</ele>
        <time>2017-02-14T08:14:15.000Z</time>
      </trkpt>
      <trkpt lat="47.25552" lon="-1.53738">
        <ele>13.208465576172</ele>
        <time>2017-02-14T08:14:17.000Z</time>
      </trkpt>
      <trkpt lat="47.25554" lon="-1.53744">
        <ele>12.973388671875</ele>
        <time>2017-02-14T08:14:20.000Z</time>
      </trkpt>
      <trkpt lat="47.25556" lon="-1.53747">
        <ele>12.745574951172</ele>
        <time>2017-02-14T08:14:22.000Z</time>
      </trkpt>
      <trkpt lat="47.25557" lon="-1.5375">
        <ele>12.549743652344</ele>
        <time>2017-02-14T08:14:24.000Z</time>
      </trkpt>
      <trkpt lat="47.25558" lon="-1.53754">
        <ele>12.35964679718</ele>
        <time>2017-02-14T08:14:27.000Z</time>
      </trkpt>
      <trkpt lat="47.25559" lon="-1.53757">
        <ele>12.165678024292</ele>
        <time>2017-02-14T08:14:30.000Z</time>
      </trkpt>
      <trkpt lat="47.25559" lon="-1.53763">
        <ele>11.984750747681</ele>
        <time>2017-02-14T08:14:32.000Z</time>
      </trkpt>
      <trkpt lat="47.25559" lon="-1.53766">
        <ele>11.814503669739</ele>
        <time>2017-02-14T08:14:34.000Z</time>
      </trkpt>
      <trkpt lat="47.25561" lon="-1.53773">
        <ele>11.605894088745</ele>
        <time>2017-02-14T08:14:37.000Z</time>
      </trkpt>
      <trkpt lat="47.25562" lon="-1.53778">
        <ele>11.40260887146</ele>
        <time>2017-02-14T08:14:39.000Z</time>
      </trkpt>
      <trkpt lat="47.25562" lon="-1.53783">
        <ele>11.200322151184</ele>
        <time>2017-02-14T08:14:41.000Z</time>
      </trkpt>
      <trkpt lat="47.25563" lon="-1.53789">
        <ele>10.98393535614</ele>
        <time>2017-02-14T08:14:44.000Z</time>
      </trkpt>
      <trkpt lat="47.25563" lon="-1.53798">
        <ele>10.742319107056</ele>
        <time>2017-02-14T08:14:47.000Z</time>
      </trkpt>
      <trkpt lat="47.25563" lon="-1.53806">
        <ele>10.521760940552</ele>
        <time>2017-02-14T08:14:50.000Z</time>
      </trkpt>
      <trkpt lat="47.25564" lon="-1.5381">
        <ele>10.308149337769</ele>
        <time>2017-02-14T08:14:52.000Z</time>
      </trkpt>
      <trkpt lat="47.25566" lon="-1.5381">
        <ele>10.116044044495</ele>
        <time>2017-02-14T08:14:55.000Z</time>
      </trkpt>
      <trkpt lat="47.25568" lon="-1.53807">
        <ele>9.9725933074951</ele>
        <time>2017-02-14T08:14:57.000Z</time>
      </trkpt>
      <trkpt lat="47.2557" lon="-1.53802">
        <ele>9.8925180435181</ele>
        <time>2017-02-14T08:15:00.000Z</time>
      </trkpt>
      <trkpt lat="47.25572" lon="-1.53798">
        <ele>9.8609371185303</ele>
        <time>2017-02-14T08:15:03.000Z</time>
      </trkpt>
      <trkpt lat="47.25574" lon="-1.53795">
        <ele>9.8560304641724</ele>
        <time>2017-02-14T08:15:06.000Z</time>
      </trkpt>
      <trkpt lat="47.25575" lon="-1.53792">
        <ele>9.8669233322144</ele>
        <time>2017-02-14T08:15:08.000Z</time>
      </trkpt>
      <trkpt lat="47.25577" lon="-1.53788">
        <ele>9.8752613067627</ele>
        <time>2017-02-14T08:15:11.000Z</time>
      </trkpt>
      <trkpt lat="47.25578" lon="-1.53786">
        <ele>9.8703346252441</ele>
        <time>2017-02-14T08:15:13.000Z</time>
      </trkpt>
      <trkpt lat="47.2558" lon="-1.53781">
        <ele>9.8517789840698</ele>
        <time>2017-02-14T08:15:16.000Z</time>
      </trkpt>
      <trkpt lat="47.25583" lon="-1.53779">
        <ele>9.8188371658325</ele>
        <time>2017-02-14T08:15:18.000Z</time>
      </trkpt>
      <trkpt lat="47.25584" lon="-1.53773">
        <ele>9.7750577926636</ele>
        <time>2017-02-14T08:15:21.000Z</time>
      </trkpt>
      <trkpt lat="47.25586" lon="-1.5377">
        <ele>9.7207050323486</ele>
        <time>2017-02-14T08:15:24.000Z</time>
      </trkpt>
      <trkpt lat="47.25587" lon="-1.53768">
        <ele>9.6575984954834</ele>
        <time>2017-02-14T08:15:26.000Z</time>
      </trkpt>
      <trkpt lat="47.25589" lon="-1.53765">
        <ele>9.5947866439819</ele>
        <time>2017-02-14T08:15:29.000Z</time>
      </trkpt>
      <trkpt lat="47.25589" lon="-1.53762">
        <ele>9.5547523498535</ele>
        <time>2017-02-14T08:15:31.000Z</time>
      </trkpt>
      <trkpt lat="47.2559" lon="-1.53757">
        <ele>9.5310125350952</ele>
        <time>2017-02-14T08:15:34.000Z</time>
      </trkpt>
      <trkpt lat="47.25592" lon="-1.53753">
        <ele>9.5042066574097</ele>
        <time>2017-02-14T08:15:36.000Z</time>
      </trkpt>
      <trkpt lat="47.25594" lon="-1.53747">
        <ele>9.4806280136108</ele>
        <time>2017-02-14T08:15:39.000Z</time>
      </trkpt>
      <trkpt lat="47.25595" lon="-1.5374">
        <ele>9.4753456115723</ele>
        <time>2017-02-14T08:15:42.000Z</time>
      </trkpt>
      <trkpt lat="47.25597" lon="-1.53736">
        <ele>9.4619932174683</ele>
        <time>2017-02-14T08:15:44.000Z</time>
      </trkpt>
      <trkpt lat="47.25599" lon="-1.53732">
        <ele>9.432201385498</ele>
        <time>2017-02-14T08:15:47.000Z</time>
      </trkpt>
      <trkpt lat="47.256" lon="-1.53729">
        <ele>9.4153079986572</ele>
        <time>2017-02-14T08:15:49.000Z</time>
      </trkpt>
      <trkpt lat="47.25602" lon="-1.53724">
        <ele>9.3981523513794</ele>
        <time>2017-02-14T08:15:52.000Z</time>
      </trkpt>
      <trkpt lat="47.25603" lon="-1.53721">
        <ele>9.36767578125</ele>
        <time>2017-02-14T08:15:54.000Z</time>
      </trkpt>
      <trkpt lat="47.25606" lon="-1.53717">
        <ele>9.3341312408447</ele>
        <time>2017-02-14T08:15:57.000Z</time>
      </trkpt>
      <trkpt lat="47.25607" lon="-1.53713">
        <ele>9.3091888427734</ele>
        <time>2017-02-14T08:15:59.000Z</time>
      </trkpt>
      <trkpt lat="47.2561" lon="-1.53709">
        <ele>9.2766590118408</ele>
        <time>2017-02-14T08:16:02.000Z</time>
      </trkpt>
      <trkpt lat="47.25611" lon="-1.53707">
        <ele>9.242377281189</ele>
        <time>2017-02-14T08:16:04.000Z</time>
      </trkpt>
      <trkpt lat="47.25615" lon="-1.53705">
        <ele>9.19309425354</ele>
        <time>2017-02-14T08:16:07.000Z</time>
      </trkpt>
      <trkpt lat="47.2562" lon="-1.53703">
        <ele>9.1148691177368</ele>
        <time>2017-02-14T08:16:10.000Z</time>
      </trkpt>
      <trkpt lat="47.25622" lon="-1.53698">
        <ele>9.0382814407349</ele>
        <time>2017-02-14T08:16:13.000Z</time>
      </trkpt>
      <trkpt lat="47.25622" lon="-1.53694">
        <ele>8.9882030487061</ele>
        <time>2017-02-14T08:16:15.000Z</time>
      </trkpt>
      <trkpt lat="47.25623" lon="-1.5369">
        <ele>8.9629249572754</ele>
        <time>2017-02-14T08:16:17.000Z</time>
      </trkpt>
      <trkpt lat="47.25624" lon="-1.53684">
        <ele>8.9746370315552</ele>
        <time>2017-02-14T08:16:20.000Z</time>
      </trkpt>
      <trkpt lat="47.25627" lon="-1.53678">
        <ele>9.0289964675903</ele>
        <time>2017-02-14T08:16:23.000Z</time>
      </trkpt>
      <trkpt lat="47.25632" lon="-1.53671">
        <ele>9.0811786651611</ele>
        <time>2017-02-14T08:16:26.000Z</time>
      </trkpt>
      <trkpt lat="47.25636" lon="-1.53667">
        <ele>9.1094522476196</ele>
        <time>2017-02-14T08:16:28.000Z</time>
      </trkpt>
      <trkpt lat="47.25642" lon="-1.53662">
        <ele>9.1047306060791</ele>
        <time>2017-02-14T08:16:31.000Z</time>
      </trkpt>
      <trkpt lat="47.25646" lon="-1.5366">
        <ele>9.0683403015137</ele>
        <time>2017-02-14T08:16:33.000Z</time>
      </trkpt>
      <trkpt lat="47.25649" lon="-1.53658">
        <ele>9.010778427124</ele>
        <time>2017-02-14T08:16:35.000Z</time>
      </trkpt>
      <trkpt lat="47.25654" lon="-1.53654">
        <ele>8.9374742507935</ele>
        <time>2017-02-14T08:16:38.000Z</time>
      </trkpt>
      <trkpt lat="47.25659" lon="-1.53652">
        <ele>8.8489580154419</ele>
        <time>2017-02-14T08:16:41.000Z</time>
      </trkpt>
      <trkpt lat="47.25662" lon="-1.5365">
        <ele>8.7556390762329</ele>
        <time>2017-02-14T08:16:43.000Z</time>
      </trkpt>
      <trkpt lat="47.25665" lon="-1.53649">
        <ele>8.6707630157471</ele>
        <time>2017-02-14T08:16:45.000Z</time>
      </trkpt>
      <trkpt lat="47.25667" lon="-1.53647">
        <ele>8.5894823074341</ele>
        <time>2017-02-14T08:16:47.000Z</time>
      </trkpt>
      <trkpt lat="47.2567" lon="-1.53645">
        <ele>8.4982805252075</ele>
        <time>2017-02-14T08:16:50.000Z</time>
      </trkpt>
      <trkpt lat="47.25673" lon="-1.53644">
        <ele>8.4072542190552</ele>
        <time>2017-02-14T08:16:52.000Z</time>
      </trkpt>
      <trkpt lat="47.25677" lon="-1.53641">
        <ele>8.3108787536621</ele>
        <time>2017-02-14T08:16:55.000Z</time>
      </trkpt>
      <trkpt lat="47.25679" lon="-1.53636">
        <ele>8.2080459594727</ele>
        <time>2017-02-14T08:16:58.000Z</time>
      </trkpt>
      <trkpt lat="47.25681" lon="-1.53633">
        <ele>8.1167392730713</ele>
        <time>2017-02-14T08:17:00.000Z</time>
      </trkpt>
      <trkpt lat="47.25683" lon="-1.53629">
        <ele>8.0385236740112</ele>
        <time>2017-02-14T08:17:02.000Z</time>
      </trkpt>
      <trkpt lat="47.25686" lon="-1.53624">
        <ele>7.9750356674194</ele>
        <time>2017-02-14T08:17:05.000Z</time>
      </trkpt>
      <trkpt lat="47.25687" lon="-1.5362">
        <ele>7.9316725730896</ele>
        <time>2017-02-14T08:17:07.000Z</time>
      </trkpt>
      <trkpt lat="47.25689" lon="-1.53616">
        <ele>7.9008536338806</ele>
        <time>2017-02-14T08:17:09.000Z</time>
      </trkpt>
      <trkpt lat="47.2569" lon="-1.53611">
        <ele>7.871199131012</ele>
        <time>2017-02-14T08:17:12.000Z</time>
      </trkpt>
      <trkpt lat="47.25691" lon="-1.53607">
        <ele>7.8554487228394</ele>
        <time>2017-02-14T08:17:14.000Z</time>
      </trkpt>
      <trkpt lat="47.25693" lon="-1.53602">
        <ele>7.8429641723633</ele>
        <time>2017-02-14T08:17:17.000Z</time>
      </trkpt>
      <trkpt lat="47.25694" lon="-1.53599">
        <ele>7.8265023231506</ele>
        <time>2017-02-14T08:17:19.000Z</time>
      </trkpt>
      <trkpt lat="47.25696" lon="-1.53595">
        <ele>7.8017120361328</ele>
        <time>2017-02-14T08:17:21.000Z</time>
      </trkpt>
      <trkpt lat="47.25698" lon="-1.5359">
        <ele>7.7528762817383</ele>
        <time>2017-02-14T08:17:24.000Z</time>
      </trkpt>
      <trkpt lat="47.257" lon="-1.53587">
        <ele>7.6894774436951</ele>
        <time>2017-02-14T08:17:26.000Z</time>
      </trkpt>
      <trkpt lat="47.25703" lon="-1.53583">
        <ele>7.600471496582</ele>
        <time>2017-02-14T08:17:28.000Z</time>
      </trkpt>
      <trkpt lat="47.25707" lon="-1.53579">
        <ele>7.5044813156128</ele>
        <time>2017-02-14T08:17:31.000Z</time>
      </trkpt>
      <trkpt lat="47.2571" lon="-1.53576">
        <ele>7.3996667861938</ele>
        <time>2017-02-14T08:17:33.000Z</time>
      </trkpt>
      <trkpt lat="47.25713" lon="-1.53572">
        <ele>7.3026757240295</ele>
        <time>2017-02-14T08:17:36.000Z</time>
      </trkpt>
      <trkpt lat="47.25715" lon="-1.5357">
        <ele>7.2131295204163</ele>
        <time>2017-02-14T08:17:38.000Z</time>
      </trkpt>
      <trkpt lat="47.25718" lon="-1.53565">
        <ele>7.1532735824585</ele>
        <time>2017-02-14T08:17:41.000Z</time>
      </trkpt>
      <trkpt lat="47.25721" lon="-1.53561">
        <ele>7.1172943115234</ele>
        <time>2017-02-14T08:17:44.000Z</time>
      </trkpt>
      <trkpt lat="47.25722" lon="-1.53558">
        <ele>7.1046662330627</ele>
        <time>2017-02-14T08:17:46.000Z</time>
      </trkpt>
      <trkpt lat="47.25724" lon="-1.53553">
        <ele>7.1227521896362</ele>
        <time>2017-02-14T08:17:49.000Z</time>
      </trkpt>
      <trkpt lat="47.25725" lon="-1.5355">
        <ele>7.162458896637</ele>
        <time>2017-02-14T08:17:51.000Z</time>
      </trkpt>
      <trkpt lat="47.25726" lon="-1.53547">
        <ele>7.2227792739868</ele>
        <time>2017-02-14T08:17:53.000Z</time>
      </trkpt>
      <trkpt lat="47.25728" lon="-1.53541">
        <ele>7.2942442893982</ele>
        <time>2017-02-14T08:17:56.000Z</time>
      </trkpt>
      <trkpt lat="47.2573" lon="-1.53536">
        <ele>7.3810744285583</ele>
        <time>2017-02-14T08:17:58.000Z</time>
      </trkpt>
      <trkpt lat="47.25734" lon="-1.53529">
        <ele>7.4586153030396</ele>
        <time>2017-02-14T08:18:01.000Z</time>
      </trkpt>
      <trkpt lat="47.25737" lon="-1.53524">
        <ele>7.5410451889038</ele>
        <time>2017-02-14T08:18:04.000Z</time>
      </trkpt>
      <trkpt lat="47.25738" lon="-1.53521">
        <ele>7.6151876449585</ele>
        <time>2017-02-14T08:18:06.000Z</time>
      </trkpt>
      <trkpt lat="47.2574" lon="-1.53518">
        <ele>7.6785383224487</ele>
        <time>2017-02-14T08:18:08.000Z</time>
      </trkpt>
      <trkpt lat="47.25742" lon="-1.53512">
        <ele>7.7473664283752</ele>
        <time>2017-02-14T08:18:11.000Z</time>
      </trkpt>
      <trkpt lat="47.25746" lon="-1.53508">
        <ele>7.8066940307617</ele>
        <time>2017-02-14T08:18:14.000Z</time>
      </trkpt>
      <trkpt lat="47.25748" lon="-1.53505">
        <ele>7.8456735610962</ele>
        <time>2017-02-14T08:18:16.000Z</time>
      </trkpt>
      <trkpt lat="47.2575" lon="-1.53502">
        <ele>7.873167514801</ele>
        <time>2017-02-14T08:18:18.000Z</time>
      </trkpt>
      <trkpt lat="47.25754" lon="-1.53499">
        <ele>7.9327759742737</ele>
        <time>2017-02-14T08:18:21.000Z</time>
      </trkpt>
      <trkpt lat="47.25756" lon="-1.53495">
        <ele>8.0266742706299</ele>
        <time>2017-02-14T08:18:24.000Z</time>
      </trkpt>
      <trkpt lat="47.25759" lon="-1.5349">
        <ele>8.208553314209</ele>
        <time>2017-02-14T08:18:27.000Z</time>
      </trkpt>
      <trkpt lat="47.25761" lon="-1.53488">
        <ele>8.4344968795776</ele>
        <time>2017-02-14T08:18:29.000Z</time>
      </trkpt>
      <trkpt lat="47.25761" lon="-1.53485">
        <ele>8.7109375</ele>
        <time>2017-02-14T08:18:31.000Z</time>
      </trkpt>
      <trkpt lat="47.25763" lon="-1.53483">
        <ele>8.9865112304688</ele>
        <time>2017-02-14T08:18:34.000Z</time>
      </trkpt>
      <trkpt lat="47.25764" lon="-1.5348">
        <ele>9.2428588867188</ele>
        <time>2017-02-14T08:18:36.000Z</time>
      </trkpt>
      <trkpt lat="47.25765" lon="-1.53477">
        <ele>9.4729309082031</ele>
        <time>2017-02-14T08:18:38.000Z</time>
      </trkpt>
      <trkpt lat="47.25768" lon="-1.53471">
        <ele>9.7529907226562</ele>
        <time>2017-02-14T08:18:41.000Z</time>
      </trkpt>
      <trkpt lat="47.25769" lon="-1.53468">
        <ele>10.031768798828</ele>
        <time>2017-02-14T08:18:43.000Z</time>
      </trkpt>
      <trkpt lat="47.2577" lon="-1.53464">
        <ele>10.351348876953</ele>
        <time>2017-02-14T08:18:46.000Z</time>
      </trkpt>
      <trkpt lat="47.25774" lon="-1.53461">
        <ele>10.677978515625</ele>
        <time>2017-02-14T08:18:49.000Z</time>
      </trkpt>
      <trkpt lat="47.25777" lon="-1.53456">
        <ele>11.023406982422</ele>
        <time>2017-02-14T08:18:52.000Z</time>
      </trkpt>
      <trkpt lat="47.25779" lon="-1.53452">
        <ele>11.348754882812</ele>
        <time>2017-02-14T08:18:54.000Z</time>
      </trkpt>
      <trkpt lat="47.25784" lon="-1.53446">
        <ele>11.717895507812</ele>
        <time>2017-02-14T08:18:57.000Z</time>
      </trkpt>
      <trkpt lat="47.25787" lon="-1.53443">
        <ele>12.056274414062</ele>
        <time>2017-02-14T08:18:59.000Z</time>
      </trkpt>
      <trkpt lat="47.2579" lon="-1.5344">
        <ele>12.412170410156</ele>
        <time>2017-02-14T08:19:02.000Z</time>
      </trkpt>
      <trkpt lat="47.25794" lon="-1.53437">
        <ele>12.728332519531</ele>
        <time>2017-02-14T08:19:04.000Z</time>
      </trkpt>
      <trkpt lat="47.25797" lon="-1.53435">
        <ele>13.003051757812</ele>
        <time>2017-02-14T08:19:06.000Z</time>
      </trkpt>
      <trkpt lat="47.258" lon="-1.53434">
        <ele>13.217956542969</ele>
        <time>2017-02-14T08:19:08.000Z</time>
      </trkpt>
      <trkpt lat="47.25803" lon="-1.53431">
        <ele>13.429870605469</ele>
        <time>2017-02-14T08:19:11.000Z</time>
      </trkpt>
      <trkpt lat="47.25806" lon="-1.53429">
        <ele>13.607177734375</ele>
        <time>2017-02-14T08:19:13.000Z</time>
      </trkpt>
      <trkpt lat="47.25809" lon="-1.53427">
        <ele>13.7763671875</ele>
        <time>2017-02-14T08:19:16.000Z</time>
      </trkpt>
      <trkpt lat="47.25814" lon="-1.53425">
        <ele>13.950256347656</ele>
        <time>2017-02-14T08:19:19.000Z</time>
      </trkpt>
      <trkpt lat="47.25817" lon="-1.53423">
        <ele>14.130126953125</ele>
        <time>2017-02-14T08:19:22.000Z</time>
      </trkpt>
      <trkpt lat="47.2582" lon="-1.53421">
        <ele>14.287353515625</ele>
        <time>2017-02-14T08:19:24.000Z</time>
      </trkpt>
      <trkpt lat="47.25823" lon="-1.5342">
        <ele>14.435607910156</ele>
        <time>2017-02-14T08:19:26.000Z</time>
      </trkpt>
      <trkpt lat="47.25827" lon="-1.53419">
        <ele>14.575744628906</ele>
        <time>2017-02-14T08:19:28.000Z</time>
      </trkpt>
      <trkpt lat="47.2583" lon="-1.53418">
        <ele>14.697723388672</ele>
        <time>2017-02-14T08:19:30.000Z</time>
      </trkpt>
      <trkpt lat="47.25836" lon="-1.53416">
        <ele>14.783182144165</ele>
        <time>2017-02-14T08:19:33.000Z</time>
      </trkpt>
      <trkpt lat="47.2584" lon="-1.53415">
        <ele>14.81939125061</ele>
        <time>2017-02-14T08:19:35.000Z</time>
      </trkpt>
      <trkpt lat="47.25843" lon="-1.53414">
        <ele>14.804735183716</ele>
        <time>2017-02-14T08:19:37.000Z</time>
      </trkpt>
      <trkpt lat="47.25848" lon="-1.53411">
        <ele>14.733410835266</ele>
        <time>2017-02-14T08:19:40.000Z</time>
      </trkpt>
      <trkpt lat="47.25851" lon="-1.5341">
        <ele>14.620852470398</ele>
        <time>2017-02-14T08:19:42.000Z</time>
      </trkpt>
      <trkpt lat="47.25856" lon="-1.53408">
        <ele>14.46876335144</ele>
        <time>2017-02-14T08:19:45.000Z</time>
      </trkpt>
      <trkpt lat="47.2586" lon="-1.53407">
        <ele>14.311935424805</ele>
        <time>2017-02-14T08:19:48.000Z</time>
      </trkpt>
      <trkpt lat="47.25864" lon="-1.53405">
        <ele>14.15638256073</ele>
        <time>2017-02-14T08:19:51.000Z</time>
      </trkpt>
      <trkpt lat="47.25868" lon="-1.53404">
        <ele>14.002786636353</ele>
        <time>2017-02-14T08:19:54.000Z</time>
      </trkpt>
      <trkpt lat="47.25872" lon="-1.53403">
        <ele>13.838617324829</ele>
        <time>2017-02-14T08:19:57.000Z</time>
      </trkpt>
      <trkpt lat="47.25877" lon="-1.53401">
        <ele>13.678804397583</ele>
        <time>2017-02-14T08:20:00.000Z</time>
      </trkpt>
      <trkpt lat="47.25879" lon="-1.53401">
        <ele>13.530599594116</ele>
        <time>2017-02-14T08:20:02.000Z</time>
      </trkpt>
      <trkpt lat="47.25882" lon="-1.534">
        <ele>13.38794708252</ele>
        <time>2017-02-14T08:20:04.000Z</time>
      </trkpt>
      <trkpt lat="47.25885" lon="-1.53398">
        <ele>13.252247810364</ele>
        <time>2017-02-14T08:20:07.000Z</time>
      </trkpt>
      <trkpt lat="47.25889" lon="-1.53395">
        <ele>13.113576889038</ele>
        <time>2017-02-14T08:20:10.000Z</time>
      </trkpt>
      <trkpt lat="47.25893" lon="-1.53394">
        <ele>12.969944953918</ele>
        <time>2017-02-14T08:20:13.000Z</time>
      </trkpt>
      <trkpt lat="47.25897" lon="-1.53392">
        <ele>12.814562797546</ele>
        <time>2017-02-14T08:20:16.000Z</time>
      </trkpt>
      <trkpt lat="47.259" lon="-1.53392">
        <ele>12.658564567566</ele>
        <time>2017-02-14T08:20:18.000Z</time>
      </trkpt>
      <trkpt lat="47.25903" lon="-1.53391">
        <ele>12.506828308105</ele>
        <time>2017-02-14T08:20:20.000Z</time>
      </trkpt>
      <trkpt lat="47.25907" lon="-1.5339">
        <ele>12.357927322388</ele>
        <time>2017-02-14T08:20:23.000Z</time>
      </trkpt>
      <trkpt lat="47.25911" lon="-1.53388">
        <ele>12.207230567932</ele>
        <time>2017-02-14T08:20:26.000Z</time>
      </trkpt>
      <trkpt lat="47.25916" lon="-1.53386">
        <ele>12.043774604797</ele>
        <time>2017-02-14T08:20:29.000Z</time>
      </trkpt>
      <trkpt lat="47.2592" lon="-1.53385">
        <ele>11.872241020203</ele>
        <time>2017-02-14T08:20:32.000Z</time>
      </trkpt>
      <trkpt lat="47.25922" lon="-1.53384">
        <ele>11.701268196106</ele>
        <time>2017-02-14T08:20:34.000Z</time>
      </trkpt>
      <trkpt lat="47.25927" lon="-1.53385">
        <ele>11.528994560242</ele>
        <time>2017-02-14T08:20:37.000Z</time>
      </trkpt>
      <trkpt lat="47.2593" lon="-1.53385">
        <ele>11.371870994568</ele>
        <time>2017-02-14T08:20:39.000Z</time>
      </trkpt>
      <trkpt lat="47.25935" lon="-1.53386">
        <ele>11.225385665894</ele>
        <time>2017-02-14T08:20:42.000Z</time>
      </trkpt>
      <trkpt lat="47.25938" lon="-1.53387">
        <ele>11.090055465698</ele>
        <time>2017-02-14T08:20:44.000Z</time>
      </trkpt>
      <trkpt lat="47.25942" lon="-1.5339">
        <ele>10.941398620605</ele>
        <time>2017-02-14T08:20:47.000Z</time>
      </trkpt>
      <trkpt lat="47.25946" lon="-1.53392">
        <ele>10.801881790161</ele>
        <time>2017-02-14T08:20:49.000Z</time>
      </trkpt>
      <trkpt lat="47.2595" lon="-1.53395">
        <ele>10.6513671875</ele>
        <time>2017-02-14T08:20:52.000Z</time>
      </trkpt>
      <trkpt lat="47.25954" lon="-1.53397">
        <ele>10.497721672058</ele>
        <time>2017-02-14T08:20:55.000Z</time>
      </trkpt>
      <trkpt lat="47.25957" lon="-1.53399">
        <ele>10.340615272522</ele>
        <time>2017-02-14T08:20:57.000Z</time>
      </trkpt>
      <trkpt lat="47.2596" lon="-1.53401">
        <ele>10.195004463196</ele>
        <time>2017-02-14T08:20:59.000Z</time>
      </trkpt>
      <trkpt lat="47.25964" lon="-1.53404">
        <ele>10.041247367859</ele>
        <time>2017-02-14T08:21:02.000Z</time>
      </trkpt>
      <trkpt lat="47.25966" lon="-1.53406">
        <ele>9.9002046585083</ele>
        <time>2017-02-14T08:21:04.000Z</time>
      </trkpt>
      <trkpt lat="47.2597" lon="-1.53409">
        <ele>9.7612648010254</ele>
        <time>2017-02-14T08:21:07.000Z</time>
      </trkpt>
      <trkpt lat="47.25973" lon="-1.5341">
        <ele>9.6153516769409</ele>
        <time>2017-02-14T08:21:09.000Z</time>
      </trkpt>
      <trkpt lat="47.25977" lon="-1.53413">
        <ele>9.4574031829834</ele>
        <time>2017-02-14T08:21:12.000Z</time>
      </trkpt>
      <trkpt lat="47.2598" lon="-1.53415">
        <ele>9.3033800125122</ele>
        <time>2017-02-14T08:21:14.000Z</time>
      </trkpt>
      <trkpt lat="47.25984" lon="-1.53417">
        <ele>9.1303882598877</ele>
        <time>2017-02-14T08:21:17.000Z</time>
      </trkpt>
      <trkpt lat="47.25988" lon="-1.5342">
        <ele>8.9401054382324</ele>
        <time>2017-02-14T08:21:20.000Z</time>
      </trkpt>
      <trkpt lat="47.25991" lon="-1.53421">
        <ele>8.740761756897</ele>
        <time>2017-02-14T08:21:22.000Z</time>
      </trkpt>
      <trkpt lat="47.25996" lon="-1.53424">
        <ele>8.5207567214966</ele>
        <time>2017-02-14T08:21:25.000Z</time>
      </trkpt>
      <trkpt lat="47.25998" lon="-1.53426">
        <ele>8.3003101348877</ele>
        <time>2017-02-14T08:21:27.000Z</time>
      </trkpt>
      <trkpt lat="47.26003" lon="-1.53429">
        <ele>8.0933208465576</ele>
        <time>2017-02-14T08:21:30.000Z</time>
      </trkpt>
      <trkpt lat="47.26007" lon="-1.5343">
        <ele>7.9442329406738</ele>
        <time>2017-02-14T08:21:33.000Z</time>
      </trkpt>
      <trkpt lat="47.2601" lon="-1.5343">
        <ele>7.841814994812</ele>
        <time>2017-02-14T08:21:36.000Z</time>
      </trkpt>
      <trkpt lat="47.26015" lon="-1.53432">
        <ele>7.7973313331604</ele>
        <time>2017-02-14T08:21:39.000Z</time>
      </trkpt>
      <trkpt lat="47.26017" lon="-1.53434">
        <ele>7.781005859375</ele>
        <time>2017-02-14T08:21:41.000Z</time>
      </trkpt>
      <trkpt lat="47.26021" lon="-1.53435">
        <ele>7.7946166992188</ele>
        <time>2017-02-14T08:21:44.000Z</time>
      </trkpt>
      <trkpt lat="47.26024" lon="-1.53437">
        <ele>7.8019409179688</ele>
        <time>2017-02-14T08:21:47.000Z</time>
      </trkpt>
      <trkpt lat="47.26025" lon="-1.53437">
        <ele>7.8027954101562</ele>
        <time>2017-02-14T08:21:49.000Z</time>
      </trkpt>
      <trkpt lat="47.26029" lon="-1.53437">
        <ele>7.8121337890625</ele>
        <time>2017-02-14T08:21:52.000Z</time>
      </trkpt>
      <trkpt lat="47.26032" lon="-1.53437">
        <ele>7.8328247070312</ele>
        <time>2017-02-14T08:21:54.000Z</time>
      </trkpt>
      <trkpt lat="47.26034" lon="-1.53436">
        <ele>7.861328125</ele>
        <time>2017-02-14T08:21:56.000Z</time>
      </trkpt>
      <trkpt lat="47.26037" lon="-1.53434">
        <ele>7.9061279296875</ele>
        <time>2017-02-14T08:21:58.000Z</time>
      </trkpt>
      <trkpt lat="47.2604" lon="-1.53431">
        <ele>7.9755249023438</ele>
        <time>2017-02-14T08:22:01.000Z</time>
      </trkpt>
      <trkpt lat="47.26042" lon="-1.53426">
        <ele>8.0603637695312</ele>
        <time>2017-02-14T08:22:04.000Z</time>
      </trkpt>
      <trkpt lat="47.26043" lon="-1.53423">
        <ele>8.1514892578125</ele>
        <time>2017-02-14T08:22:06.000Z</time>
      </trkpt>
      <trkpt lat="47.26045" lon="-1.5342">
        <ele>8.2536010742188</ele>
        <time>2017-02-14T08:22:09.000Z</time>
      </trkpt>
      <trkpt lat="47.26047" lon="-1.53421">
        <ele>8.3421020507812</ele>
        <time>2017-02-14T08:22:11.000Z</time>
      </trkpt>
      <trkpt lat="47.2605" lon="-1.53422">
        <ele>8.4087524414062</ele>
        <time>2017-02-14T08:22:13.000Z</time>
      </trkpt>
      <trkpt lat="47.26052" lon="-1.53422">
        <ele>8.4537353515625</ele>
        <time>2017-02-14T08:22:15.000Z</time>
      </trkpt>
      <trkpt lat="47.26056" lon="-1.53424">
        <ele>8.481689453125</ele>
        <time>2017-02-14T08:22:18.000Z</time>
      </trkpt>
      <trkpt lat="47.26059" lon="-1.53426">
        <ele>8.4857177734375</ele>
        <time>2017-02-14T08:22:20.000Z</time>
      </trkpt>
      <trkpt lat="47.26064" lon="-1.53428">
        <ele>8.4900512695312</ele>
        <time>2017-02-14T08:22:23.000Z</time>
      </trkpt>
      <trkpt lat="47.26067" lon="-1.53429">
        <ele>8.4963989257812</ele>
        <time>2017-02-14T08:22:25.000Z</time>
      </trkpt>
      <trkpt lat="47.2607" lon="-1.5343">
        <ele>8.5017700195312</ele>
        <time>2017-02-14T08:22:27.000Z</time>
      </trkpt>
      <trkpt lat="47.26075" lon="-1.53431">
        <ele>8.5155639648438</ele>
        <time>2017-02-14T08:22:30.000Z</time>
      </trkpt>
      <trkpt lat="47.26078" lon="-1.53431">
        <ele>8.5399169921875</ele>
        <time>2017-02-14T08:22:32.000Z</time>
      </trkpt>
      <trkpt lat="47.26083" lon="-1.5343">
        <ele>8.574462890625</ele>
        <time>2017-02-14T08:22:35.000Z</time>
      </trkpt>
      <trkpt lat="47.26086" lon="-1.5343">
        <ele>8.6113185882568</ele>
        <time>2017-02-14T08:22:37.000Z</time>
      </trkpt>
      <trkpt lat="47.26088" lon="-1.53431">
        <ele>8.6490211486816</ele>
        <time>2017-02-14T08:22:39.000Z</time>
      </trkpt>
      <trkpt lat="47.26091" lon="-1.53432">
        <ele>8.681770324707</ele>
        <time>2017-02-14T08:22:41.000Z</time>
      </trkpt>
      <trkpt lat="47.26095" lon="-1.53434">
        <ele>8.7122917175293</ele>
        <time>2017-02-14T08:22:44.000Z</time>
      </trkpt>
      <trkpt lat="47.26099" lon="-1.53437">
        <ele>8.7281875610352</ele>
        <time>2017-02-14T08:22:47.000Z</time>
      </trkpt>
      <trkpt lat="47.26103" lon="-1.53439">
        <ele>8.7403411865234</ele>
        <time>2017-02-14T08:22:50.000Z</time>
      </trkpt>
      <trkpt lat="47.26107" lon="-1.53442">
        <ele>8.7510099411011</ele>
        <time>2017-02-14T08:22:52.000Z</time>
      </trkpt>
      <trkpt lat="47.2611" lon="-1.53444">
        <ele>8.7597503662109</ele>
        <time>2017-02-14T08:22:55.000Z</time>
      </trkpt>
      <trkpt lat="47.26113" lon="-1.53446">
        <ele>8.7634868621826</ele>
        <time>2017-02-14T08:22:57.000Z</time>
      </trkpt>
      <trkpt lat="47.26115" lon="-1.53449">
        <ele>8.7670392990112</ele>
        <time>2017-02-14T08:22:59.000Z</time>
      </trkpt>
      <trkpt lat="47.26119" lon="-1.53452">
        <ele>8.7686243057251</ele>
        <time>2017-02-14T08:23:02.000Z</time>
      </trkpt>
      <trkpt lat="47.26123" lon="-1.53455">
        <ele>8.7707347869873</ele>
        <time>2017-02-14T08:23:05.000Z</time>
      </trkpt>
      <trkpt lat="47.26127" lon="-1.53458">
        <ele>8.7753305435181</ele>
        <time>2017-02-14T08:23:08.000Z</time>
      </trkpt>
      <trkpt lat="47.26129" lon="-1.53461">
        <ele>8.7765016555786</ele>
        <time>2017-02-14T08:23:10.000Z</time>
      </trkpt>
      <trkpt lat="47.26131" lon="-1.53465">
        <ele>8.7743883132935</ele>
        <time>2017-02-14T08:23:13.000Z</time>
      </trkpt>
      <trkpt lat="47.26134" lon="-1.5347">
        <ele>8.7647123336792</ele>
        <time>2017-02-14T08:23:16.000Z</time>
      </trkpt>
      <trkpt lat="47.26136" lon="-1.53474">
        <ele>8.7447195053101</ele>
        <time>2017-02-14T08:23:19.000Z</time>
      </trkpt>
      <trkpt lat="47.26139" lon="-1.53478">
        <ele>8.7213363647461</ele>
        <time>2017-02-14T08:23:22.000Z</time>
      </trkpt>
      <trkpt lat="47.26142" lon="-1.53484">
        <ele>8.6964883804321</ele>
        <time>2017-02-14T08:23:25.000Z</time>
      </trkpt>
      <trkpt lat="47.26144" lon="-1.53487">
        <ele>8.6757173538208</ele>
        <time>2017-02-14T08:23:27.000Z</time>
      </trkpt>
      <trkpt lat="47.26146" lon="-1.53492">
        <ele>8.6551895141602</ele>
        <time>2017-02-14T08:23:30.000Z</time>
      </trkpt>
      <trkpt lat="47.26148" lon="-1.53497">
        <ele>8.6398515701294</ele>
        <time>2017-02-14T08:23:33.000Z</time>
      </trkpt>
      <trkpt lat="47.2615" lon="-1.53501">
        <ele>8.6140699386597</ele>
        <time>2017-02-14T08:23:35.000Z</time>
      </trkpt>
      <trkpt lat="47.26151" lon="-1.53505">
        <ele>8.5506353378296</ele>
        <time>2017-02-14T08:23:37.000Z</time>
      </trkpt>
      <trkpt lat="47.26152" lon="-1.53511">
        <ele>8.4279346466064</ele>
        <time>2017-02-14T08:23:40.000Z</time>
      </trkpt>
      <trkpt lat="47.26153" lon="-1.53514">
        <ele>8.2761716842651</ele>
        <time>2017-02-14T08:23:42.000Z</time>
      </trkpt>
      <trkpt lat="47.26155" lon="-1.5352">
        <ele>8.0666255950928</ele>
        <time>2017-02-14T08:23:45.000Z</time>
      </trkpt>
      <trkpt lat="47.26155" lon="-1.53524">
        <ele>7.8237962722778</ele>
        <time>2017-02-14T08:23:48.000Z</time>
      </trkpt>
      <trkpt lat="47.26156" lon="-1.53527">
        <ele>7.5916695594788</ele>
        <time>2017-02-14T08:23:53.000Z</time>
      </trkpt>
      <trkpt lat="47.26157" lon="-1.53531">
        <ele>7.3810148239136</ele>
        <time>2017-02-14T08:23:55.000Z</time>
      </trkpt>
      <trkpt lat="47.26159" lon="-1.53534">
        <ele>7.1692771911621</ele>
        <time>2017-02-14T08:23:57.000Z</time>
      </trkpt>
      <trkpt lat="47.26159" lon="-1.53537">
        <ele>6.9852614402771</ele>
        <time>2017-02-14T08:23:59.000Z</time>
      </trkpt>
      <trkpt lat="47.26161" lon="-1.53543">
        <ele>6.7776222229004</ele>
        <time>2017-02-14T08:24:02.000Z</time>
      </trkpt>
      <trkpt lat="47.26163" lon="-1.53547">
        <ele>6.5627760887146</ele>
        <time>2017-02-14T08:24:04.000Z</time>
      </trkpt>
      <trkpt lat="47.26165" lon="-1.53552">
        <ele>6.3418664932251</ele>
        <time>2017-02-14T08:24:07.000Z</time>
      </trkpt>
      <trkpt lat="47.26168" lon="-1.53554">
        <ele>6.1465110778809</ele>
        <time>2017-02-14T08:24:09.000Z</time>
      </trkpt>
      <trkpt lat="47.26171" lon="-1.53555">
        <ele>6.0079717636108</ele>
        <time>2017-02-14T08:24:12.000Z</time>
      </trkpt>
      <trkpt lat="47.26174" lon="-1.53559">
        <ele>5.9366273880005</ele>
        <time>2017-02-14T08:24:15.000Z</time>
      </trkpt>
      <trkpt lat="47.26175" lon="-1.53562">
        <ele>5.8851408958435</ele>
        <time>2017-02-14T08:24:18.000Z</time>
      </trkpt>
      <trkpt lat="47.26176" lon="-1.53562">
        <ele>5.8828010559082</ele>
        <time>2017-02-14T08:24:21.000Z</time>
      </trkpt>
      <trkpt lat="47.26178" lon="-1.53564">
        <ele>5.8960165977478</ele>
        <time>2017-02-14T08:24:23.000Z</time>
      </trkpt>
      <trkpt lat="47.26182" lon="-1.53566">
        <ele>5.9118118286133</ele>
        <time>2017-02-14T08:24:26.000Z</time>
      </trkpt>
      <trkpt lat="47.26184" lon="-1.53567">
        <ele>5.9562654495239</ele>
        <time>2017-02-14T08:24:28.000Z</time>
      </trkpt>
      <trkpt lat="47.26187" lon="-1.53567">
        <ele>6.0559592247009</ele>
        <time>2017-02-14T08:24:31.000Z</time>
      </trkpt>
      <trkpt lat="47.2619" lon="-1.53568">
        <ele>6.1796655654907</ele>
        <time>2017-02-14T08:24:33.000Z</time>
      </trkpt>
      <trkpt lat="47.26192" lon="-1.53568">
        <ele>6.3342695236206</ele>
        <time>2017-02-14T08:24:35.000Z</time>
      </trkpt>
      <trkpt lat="47.26195" lon="-1.53569">
        <ele>6.4880614280701</ele>
        <time>2017-02-14T08:24:38.000Z</time>
      </trkpt>
      <trkpt lat="47.26198" lon="-1.5357">
        <ele>6.6461958885193</ele>
        <time>2017-02-14T08:24:40.000Z</time>
      </trkpt>
      <trkpt lat="47.26201" lon="-1.53571">
        <ele>6.7890272140503</ele>
        <time>2017-02-14T08:24:42.000Z</time>
      </trkpt>
      <trkpt lat="47.26205" lon="-1.53573">
        <ele>6.9493913650513</ele>
        <time>2017-02-14T08:24:45.000Z</time>
      </trkpt>
      <trkpt lat="47.2621" lon="-1.53577">
        <ele>7.1064481735229</ele>
        <time>2017-02-14T08:24:48.000Z</time>
      </trkpt>
      <trkpt lat="47.26215" lon="-1.53581">
        <ele>7.2681670188904</ele>
        <time>2017-02-14T08:24:51.000Z</time>
      </trkpt>
      <trkpt lat="47.26219" lon="-1.53584">
        <ele>7.4165964126587</ele>
        <time>2017-02-14T08:24:53.000Z</time>
      </trkpt>
      <trkpt lat="47.26221" lon="-1.53587">
        <ele>7.556866645813</ele>
        <time>2017-02-14T08:24:55.000Z</time>
      </trkpt>
      <trkpt lat="47.26226" lon="-1.53589">
        <ele>7.6870069503784</ele>
        <time>2017-02-14T08:24:58.000Z</time>
      </trkpt>
      <trkpt lat="47.26231" lon="-1.53591">
        <ele>7.8173761367798</ele>
        <time>2017-02-14T08:25:01.000Z</time>
      </trkpt>
      <trkpt lat="47.26234" lon="-1.5359">
        <ele>7.9801635742188</ele>
        <time>2017-02-14T08:25:04.000Z</time>
      </trkpt>
      <trkpt lat="47.26236" lon="-1.53589">
        <ele>8.1575260162354</ele>
        <time>2017-02-14T08:25:06.000Z</time>
      </trkpt>
      <trkpt lat="47.26239" lon="-1.53589">
        <ele>8.3733940124512</ele>
        <time>2017-02-14T08:25:09.000Z</time>
      </trkpt>
      <trkpt lat="47.26242" lon="-1.53587">
        <ele>8.6138019561768</ele>
        <time>2017-02-14T08:25:12.000Z</time>
      </trkpt>
      <trkpt lat="47.26244" lon="-1.53586">
        <ele>8.8744783401489</ele>
        <time>2017-02-14T08:25:14.000Z</time>
      </trkpt>
      <trkpt lat="47.26248" lon="-1.53583">
        <ele>9.1666479110718</ele>
        <time>2017-02-14T08:25:17.000Z</time>
      </trkpt>
      <trkpt lat="47.26251" lon="-1.53581">
        <ele>9.4610042572021</ele>
        <time>2017-02-14T08:25:19.000Z</time>
      </trkpt>
      <trkpt lat="47.26254" lon="-1.53579">
        <ele>9.7020378112793</ele>
        <time>2017-02-14T08:25:21.000Z</time>
      </trkpt>
      <trkpt lat="47.26256" lon="-1.53577">
        <ele>9.8808794021606</ele>
        <time>2017-02-14T08:25:23.000Z</time>
      </trkpt>
      <trkpt lat="47.26259" lon="-1.53576">
        <ele>9.9923305511475</ele>
        <time>2017-02-14T08:25:26.000Z</time>
      </trkpt>
      <trkpt lat="47.26262" lon="-1.53575">
        <ele>9.998722076416</ele>
        <time>2017-02-14T08:25:28.000Z</time>
      </trkpt>
      <trkpt lat="47.26265" lon="-1.53575">
        <ele>9.9526138305664</ele>
        <time>2017-02-14T08:25:30.000Z</time>
      </trkpt>
      <trkpt lat="47.2627" lon="-1.53573">
        <ele>9.8965873718262</ele>
        <time>2017-02-14T08:25:33.000Z</time>
      </trkpt>
      <trkpt lat="47.26271" lon="-1.53573">
        <ele>9.8354816436768</ele>
        <time>2017-02-14T08:25:35.000Z</time>
      </trkpt>
      <trkpt lat="47.26274" lon="-1.53572">
        <ele>9.7796630859375</ele>
        <time>2017-02-14T08:25:37.000Z</time>
      </trkpt>
      <trkpt lat="47.26279" lon="-1.53571">
        <ele>9.7175922393799</ele>
        <time>2017-02-14T08:25:40.000Z</time>
      </trkpt>
      <trkpt lat="47.26284" lon="-1.5357">
        <ele>9.6584377288818</ele>
        <time>2017-02-14T08:25:43.000Z</time>
      </trkpt>
      <trkpt lat="47.26287" lon="-1.53569">
        <ele>9.6066999435425</ele>
        <time>2017-02-14T08:25:45.000Z</time>
      </trkpt>
      <trkpt lat="47.26292" lon="-1.53567">
        <ele>9.5507841110229</ele>
        <time>2017-02-14T08:25:48.000Z</time>
      </trkpt>
      <trkpt lat="47.26295" lon="-1.53567">
        <ele>9.4944496154785</ele>
        <time>2017-02-14T08:25:50.000Z</time>
      </trkpt>
      <trkpt lat="47.263" lon="-1.53565">
        <ele>9.452995300293</ele>
        <time>2017-02-14T08:25:53.000Z</time>
      </trkpt>
      <trkpt lat="47.26305" lon="-1.53564">
        <ele>9.4133358001709</ele>
        <time>2017-02-14T08:25:56.000Z</time>
      </trkpt>
      <trkpt lat="47.26309" lon="-1.53563">
        <ele>9.3687610626221</ele>
        <time>2017-02-14T08:25:59.000Z</time>
      </trkpt>
      <trkpt lat="47.26313" lon="-1.53563">
        <ele>9.3271923065186</ele>
        <time>2017-02-14T08:26:02.000Z</time>
      </trkpt>
      <trkpt lat="47.26315" lon="-1.53563">
        <ele>9.2789516448975</ele>
        <time>2017-02-14T08:26:04.000Z</time>
      </trkpt>
      <trkpt lat="47.26318" lon="-1.53563">
        <ele>9.2159004211426</ele>
        <time>2017-02-14T08:26:06.000Z</time>
      </trkpt>
      <trkpt lat="47.26321" lon="-1.53563">
        <ele>9.1457271575928</ele>
        <time>2017-02-14T08:26:09.000Z</time>
      </trkpt>
      <trkpt lat="47.26326" lon="-1.53562">
        <ele>9.0765657424927</ele>
        <time>2017-02-14T08:26:12.000Z</time>
      </trkpt>
      <trkpt lat="47.26328" lon="-1.53562">
        <ele>9.006706237793</ele>
        <time>2017-02-14T08:26:14.000Z</time>
      </trkpt>
      <trkpt lat="47.26331" lon="-1.53562">
        <ele>8.942852973938</ele>
        <time>2017-02-14T08:26:16.000Z</time>
      </trkpt>
      <trkpt lat="47.26334" lon="-1.53562">
        <ele>8.8798236846924</ele>
        <time>2017-02-14T08:26:18.000Z</time>
      </trkpt>
      <trkpt lat="47.26339" lon="-1.53562">
        <ele>8.7969493865967</ele>
        <time>2017-02-14T08:26:21.000Z</time>
      </trkpt>
      <trkpt lat="47.26342" lon="-1.53562">
        <ele>8.6982383728027</ele>
        <time>2017-02-14T08:26:23.000Z</time>
      </trkpt>
      <trkpt lat="47.26344" lon="-1.53562">
        <ele>8.5924434661865</ele>
        <time>2017-02-14T08:26:25.000Z</time>
      </trkpt>
      <trkpt lat="47.26348" lon="-1.53562">
        <ele>8.4690780639648</ele>
        <time>2017-02-14T08:26:28.000Z</time>
      </trkpt>
      <trkpt lat="47.26353" lon="-1.53562">
        <ele>8.3242626190186</ele>
        <time>2017-02-14T08:26:31.000Z</time>
      </trkpt>
      <trkpt lat="47.26357" lon="-1.53562">
        <ele>8.1959533691406</ele>
        <time>2017-02-14T08:26:33.000Z</time>
      </trkpt>
      <trkpt lat="47.26361" lon="-1.53561">
        <ele>8.0657062530518</ele>
        <time>2017-02-14T08:26:36.000Z</time>
      </trkpt>
      <trkpt lat="47.26366" lon="-1.53561">
        <ele>7.9142823219299</ele>
        <time>2017-02-14T08:26:39.000Z</time>
      </trkpt>
      <trkpt lat="47.2637" lon="-1.53561">
        <ele>7.7471513748169</ele>
        <time>2017-02-14T08:26:42.000Z</time>
      </trkpt>
      <trkpt lat="47.26374" lon="-1.53561">
        <ele>7.596860408783</ele>
        <time>2017-02-14T08:26:45.000Z</time>
      </trkpt>
      <trkpt lat="47.26377" lon="-1.53561">
        <ele>7.4464468955994</ele>
        <time>2017-02-14T08:26:47.000Z</time>
      </trkpt>
      <trkpt lat="47.26381" lon="-1.53562">
        <ele>7.2810273170471</ele>
        <time>2017-02-14T08:26:49.000Z</time>
      </trkpt>
      <trkpt lat="47.26384" lon="-1.53563">
        <ele>7.1142640113831</ele>
        <time>2017-02-14T08:26:52.000Z</time>
      </trkpt>
      <trkpt lat="47.26387" lon="-1.53564">
        <ele>6.9502663612366</ele>
        <time>2017-02-14T08:26:55.000Z</time>
      </trkpt>
      <trkpt lat="47.2639" lon="-1.53563">
        <ele>6.7963514328003</ele>
        <time>2017-02-14T08:26:57.000Z</time>
      </trkpt>
      <trkpt lat="47.26394" lon="-1.53563">
        <ele>6.632453918457</ele>
        <time>2017-02-14T08:27:00.000Z</time>
      </trkpt>
      <trkpt lat="47.26397" lon="-1.53563">
        <ele>6.4774789810181</ele>
        <time>2017-02-14T08:27:02.000Z</time>
      </trkpt>
      <trkpt lat="47.26401" lon="-1.53564">
        <ele>6.3224129676819</ele>
        <time>2017-02-14T08:27:04.000Z</time>
      </trkpt>
      <trkpt lat="47.26403" lon="-1.53565">
        <ele>6.1797118186951</ele>
        <time>2017-02-14T08:27:06.000Z</time>
      </trkpt>
      <trkpt lat="47.26406" lon="-1.53566">
        <ele>6.0096426010132</ele>
        <time>2017-02-14T08:27:08.000Z</time>
      </trkpt>
      <trkpt lat="47.2641" lon="-1.53566">
        <ele>5.8341159820557</ele>
        <time>2017-02-14T08:27:11.000Z</time>
      </trkpt>
      <trkpt lat="47.26415" lon="-1.53564">
        <ele>5.6896390914917</ele>
        <time>2017-02-14T08:27:14.000Z</time>
      </trkpt>
      <trkpt lat="47.26418" lon="-1.53562">
        <ele>5.599241733551</ele>
        <time>2017-02-14T08:27:16.000Z</time>
      </trkpt>
      <trkpt lat="47.26422" lon="-1.53561">
        <ele>5.5700888633728</ele>
        <time>2017-02-14T08:27:18.000Z</time>
      </trkpt>
      <trkpt lat="47.26425" lon="-1.5356">
        <ele>5.602436542511</ele>
        <time>2017-02-14T08:27:20.000Z</time>
      </trkpt>
      <trkpt lat="47.2643" lon="-1.53558">
        <ele>5.7090716362</ele>
        <time>2017-02-14T08:27:23.000Z</time>
      </trkpt>
      <trkpt lat="47.26433" lon="-1.53556">
        <ele>5.8476376533508</ele>
        <time>2017-02-14T08:27:25.000Z</time>
      </trkpt>
      <trkpt lat="47.26436" lon="-1.53553">
        <ele>6.0129041671753</ele>
        <time>2017-02-14T08:27:28.000Z</time>
      </trkpt>
      <trkpt lat="47.26439" lon="-1.53552">
        <ele>6.1728129386902</ele>
        <time>2017-02-14T08:27:30.000Z</time>
      </trkpt>
      <trkpt lat="47.26443" lon="-1.53549">
        <ele>6.3519587516785</ele>
        <time>2017-02-14T08:27:33.000Z</time>
      </trkpt>
      <trkpt lat="47.26445" lon="-1.53547">
        <ele>6.5167646408081</ele>
        <time>2017-02-14T08:27:35.000Z</time>
      </trkpt>
      <trkpt lat="47.26449" lon="-1.53547">
        <ele>6.6674118041992</ele>
        <time>2017-02-14T08:27:38.000Z</time>
      </trkpt>
      <trkpt lat="47.26451" lon="-1.53545">
        <ele>6.7977843284607</ele>
        <time>2017-02-14T08:27:40.000Z</time>
      </trkpt>
      <trkpt lat="47.26453" lon="-1.53543">
        <ele>6.9271669387817</ele>
        <time>2017-02-14T08:27:43.000Z</time>
      </trkpt>
      <trkpt lat="47.26455" lon="-1.53542">
        <ele>7.0280981063843</ele>
        <time>2017-02-14T08:27:45.000Z</time>
      </trkpt>
      <trkpt lat="47.2646" lon="-1.53542">
        <ele>7.110659122467</ele>
        <time>2017-02-14T08:27:48.000Z</time>
      </trkpt>
      <trkpt lat="47.26462" lon="-1.53542">
        <ele>7.1741576194763</ele>
        <time>2017-02-14T08:27:50.000Z</time>
      </trkpt>
      <trkpt lat="47.26464" lon="-1.53542">
        <ele>7.2205557823181</ele>
        <time>2017-02-14T08:27:52.000Z</time>
      </trkpt>
      <trkpt lat="47.26466" lon="-1.53543">
        <ele>7.2331457138062</ele>
        <time>2017-02-14T08:27:55.000Z</time>
      </trkpt>
      <trkpt lat="47.26468" lon="-1.53544">
        <ele>7.2308249473572</ele>
        <time>2017-02-14T08:27:57.000Z</time>
      </trkpt>
      <trkpt lat="47.26471" lon="-1.53545">
        <ele>7.2194809913635</ele>
        <time>2017-02-14T08:27:59.000Z</time>
      </trkpt>
      <trkpt lat="47.26474" lon="-1.53546">
        <ele>7.2003951072693</ele>
        <time>2017-02-14T08:28:01.000Z</time>
      </trkpt>
      <trkpt lat="47.26477" lon="-1.53547">
        <ele>7.1756258010864</ele>
        <time>2017-02-14T08:28:03.000Z</time>
      </trkpt>
      <trkpt lat="47.26479" lon="-1.53547">
        <ele>7.1589570045471</ele>
        <time>2017-02-14T08:28:05.000Z</time>
      </trkpt>
      <trkpt lat="47.26484" lon="-1.53548">
        <ele>7.1414337158203</ele>
        <time>2017-02-14T08:28:08.000Z</time>
      </trkpt>
      <trkpt lat="47.26487" lon="-1.53549">
        <ele>7.1306715011597</ele>
        <time>2017-02-14T08:28:10.000Z</time>
      </trkpt>
      <trkpt lat="47.26493" lon="-1.53549">
        <ele>7.1410455703735</ele>
        <time>2017-02-14T08:28:13.000Z</time>
      </trkpt>
      <trkpt lat="47.26497" lon="-1.53549">
        <ele>7.1586380004883</ele>
        <time>2017-02-14T08:28:15.000Z</time>
      </trkpt>
      <trkpt lat="47.26499" lon="-1.5355">
        <ele>7.1660599708557</ele>
        <time>2017-02-14T08:28:17.000Z</time>
      </trkpt>
      <trkpt lat="47.26502" lon="-1.53553">
        <ele>7.1615495681763</ele>
        <time>2017-02-14T08:28:20.000Z</time>
      </trkpt>
      <trkpt lat="47.26505" lon="-1.53553">
        <ele>7.1550531387329</ele>
        <time>2017-02-14T08:28:22.000Z</time>
      </trkpt>
      <trkpt lat="47.26509" lon="-1.53553">
        <ele>7.1417899131775</ele>
        <time>2017-02-14T08:28:25.000Z</time>
      </trkpt>
      <trkpt lat="47.26511" lon="-1.53553">
        <ele>7.1245651245117</ele>
        <time>2017-02-14T08:28:27.000Z</time>
      </trkpt>
      <trkpt lat="47.26515" lon="-1.53553">
        <ele>7.1206107139587</ele>
        <time>2017-02-14T08:28:30.000Z</time>
      </trkpt>
      <trkpt lat="47.26519" lon="-1.53554">
        <ele>7.1270780563354</ele>
        <time>2017-02-14T08:28:33.000Z</time>
      </trkpt>
      <trkpt lat="47.26525" lon="-1.53555">
        <ele>7.128050327301</ele>
        <time>2017-02-14T08:28:36.000Z</time>
      </trkpt>
      <trkpt lat="47.26528" lon="-1.53557">
        <ele>7.1171770095825</ele>
        <time>2017-02-14T08:28:39.000Z</time>
      </trkpt>
      <trkpt lat="47.2653" lon="-1.53559">
        <ele>7.0974359512329</ele>
        <time>2017-02-14T08:28:41.000Z</time>
      </trkpt>
      <trkpt lat="47.26533" lon="-1.53561">
        <ele>7.0625610351562</ele>
        <time>2017-02-14T08:28:44.000Z</time>
      </trkpt>
      <trkpt lat="47.26537" lon="-1.53564">
        <ele>7.0231399536133</ele>
        <time>2017-02-14T08:28:47.000Z</time>
      </trkpt>
      <trkpt lat="47.26542" lon="-1.53566">
        <ele>6.9850988388062</ele>
        <time>2017-02-14T08:28:50.000Z</time>
      </trkpt>
      <trkpt lat="47.26546" lon="-1.53566">
        <ele>6.9608244895935</ele>
        <time>2017-02-14T08:28:53.000Z</time>
      </trkpt>
      <trkpt lat="47.2655" lon="-1.53567">
        <ele>6.9452743530273</ele>
        <time>2017-02-14T08:28:55.000Z</time>
      </trkpt>
      <trkpt lat="47.26552" lon="-1.53568">
        <ele>6.9392318725586</ele>
        <time>2017-02-14T08:28:57.000Z</time>
      </trkpt>
      <trkpt lat="47.26556" lon="-1.53571">
        <ele>6.9355254173279</ele>
        <time>2017-02-14T08:29:00.000Z</time>
      </trkpt>
      <trkpt lat="47.26561" lon="-1.53574">
        <ele>6.930832862854</ele>
        <time>2017-02-14T08:29:03.000Z</time>
      </trkpt>
      <trkpt lat="47.26563" lon="-1.53577">
        <ele>6.9178719520569</ele>
        <time>2017-02-14T08:29:05.000Z</time>
      </trkpt>
      <trkpt lat="47.26566" lon="-1.53578">
        <ele>6.9020781517029</ele>
        <time>2017-02-14T08:29:07.000Z</time>
      </trkpt>
      <trkpt lat="47.26569" lon="-1.53581">
        <ele>6.8852844238281</ele>
        <time>2017-02-14T08:29:10.000Z</time>
      </trkpt>
      <trkpt lat="47.26571" lon="-1.53583">
        <ele>6.8751153945923</ele>
        <time>2017-02-14T08:29:12.000Z</time>
      </trkpt>
      <trkpt lat="47.26574" lon="-1.53583">
        <ele>6.8753523826599</ele>
        <time>2017-02-14T08:29:14.000Z</time>
      </trkpt>
      <trkpt lat="47.26578" lon="-1.53585">
        <ele>6.8752288818359</ele>
        <time>2017-02-14T08:29:17.000Z</time>
      </trkpt>
      <trkpt lat="47.26582" lon="-1.53588">
        <ele>6.8575630187988</ele>
        <time>2017-02-14T08:29:20.000Z</time>
      </trkpt>
      <trkpt lat="47.26585" lon="-1.5359">
        <ele>6.8268136978149</ele>
        <time>2017-02-14T08:29:23.000Z</time>
      </trkpt>
      <trkpt lat="47.26589" lon="-1.53592">
        <ele>6.7827529907227</ele>
        <time>2017-02-14T08:29:26.000Z</time>
      </trkpt>
      <trkpt lat="47.26592" lon="-1.53595">
        <ele>6.7095246315002</ele>
        <time>2017-02-14T08:29:29.000Z</time>
      </trkpt>
      <trkpt lat="47.26594" lon="-1.53596">
        <ele>6.6298980712891</ele>
        <time>2017-02-14T08:29:31.000Z</time>
      </trkpt>
      <trkpt lat="47.26598" lon="-1.53597">
        <ele>6.5679640769958</ele>
        <time>2017-02-14T08:29:34.000Z</time>
      </trkpt>
      <trkpt lat="47.26602" lon="-1.53599">
        <ele>6.5102815628052</ele>
        <time>2017-02-14T08:29:37.000Z</time>
      </trkpt>
      <trkpt lat="47.26605" lon="-1.53602">
        <ele>6.4442186355591</ele>
        <time>2017-02-14T08:29:40.000Z</time>
      </trkpt>
      <trkpt lat="47.26608" lon="-1.53602">
        <ele>6.4074544906616</ele>
        <time>2017-02-14T08:29:42.000Z</time>
      </trkpt>
      <trkpt lat="47.2661" lon="-1.53602">
        <ele>6.3795742988586</ele>
        <time>2017-02-14T08:29:44.000Z</time>
      </trkpt>
      <trkpt lat="47.26612" lon="-1.53604">
        <ele>6.3412861824036</ele>
        <time>2017-02-14T08:29:47.000Z</time>
      </trkpt>
      <trkpt lat="47.26616" lon="-1.53604">
        <ele>6.3153142929077</ele>
        <time>2017-02-14T08:29:50.000Z</time>
      </trkpt>
      <trkpt lat="47.26619" lon="-1.53604">
        <ele>6.314329624176</ele>
        <time>2017-02-14T08:29:53.000Z</time>
      </trkpt>
      <trkpt lat="47.26622" lon="-1.53605">
        <ele>6.311261177063</ele>
        <time>2017-02-14T08:29:56.000Z</time>
      </trkpt>
      <trkpt lat="47.26625" lon="-1.53604">
        <ele>6.3142495155334</ele>
        <time>2017-02-14T08:29:58.000Z</time>
      </trkpt>
      <trkpt lat="47.26628" lon="-1.53603">
        <ele>6.3465576171875</ele>
        <time>2017-02-14T08:30:01.000Z</time>
      </trkpt>
      <trkpt lat="47.2663" lon="-1.53602">
        <ele>6.3988924026489</ele>
        <time>2017-02-14T08:30:03.000Z</time>
      </trkpt>
      <trkpt lat="47.26635" lon="-1.536">
        <ele>6.4793004989624</ele>
        <time>2017-02-14T08:30:06.000Z</time>
      </trkpt>
      <trkpt lat="47.26639" lon="-1.536">
        <ele>6.5581750869751</ele>
        <time>2017-02-14T08:30:09.000Z</time>
      </trkpt>
      <trkpt lat="47.26644" lon="-1.53602">
        <ele>6.6199750900269</ele>
        <time>2017-02-14T08:30:12.000Z</time>
      </trkpt>
      <trkpt lat="47.26647" lon="-1.53602">
        <ele>6.6701917648315</ele>
        <time>2017-02-14T08:30:15.000Z</time>
      </trkpt>
      <trkpt lat="47.2665" lon="-1.53602">
        <ele>6.7057862281799</ele>
        <time>2017-02-14T08:30:18.000Z</time>
      </trkpt>
      <trkpt lat="47.26653" lon="-1.53602">
        <ele>6.7179055213928</ele>
        <time>2017-02-14T08:30:20.000Z</time>
      </trkpt>
      <trkpt lat="47.26659" lon="-1.53599">
        <ele>6.7650046348572</ele>
        <time>2017-02-14T08:30:23.000Z</time>
      </trkpt>
      <trkpt lat="47.26664" lon="-1.53598">
        <ele>6.8533296585083</ele>
        <time>2017-02-14T08:30:26.000Z</time>
      </trkpt>
      <trkpt lat="47.26665" lon="-1.53598">
        <ele>6.937066078186</ele>
        <time>2017-02-14T08:30:28.000Z</time>
      </trkpt>
      <trkpt lat="47.2667" lon="-1.53598">
        <ele>7.0003499984741</ele>
        <time>2017-02-14T08:30:31.000Z</time>
      </trkpt>
      <trkpt lat="47.26674" lon="-1.53599">
        <ele>7.0317716598511</ele>
        <time>2017-02-14T08:30:33.000Z</time>
      </trkpt>
      <trkpt lat="47.26675" lon="-1.53598">
        <ele>7.0254044532776</ele>
        <time>2017-02-14T08:30:35.000Z</time>
      </trkpt>
      <trkpt lat="47.26678" lon="-1.53596">
        <ele>7.0031423568726</ele>
        <time>2017-02-14T08:30:38.000Z</time>
      </trkpt>
      <trkpt lat="47.26681" lon="-1.53594">
        <ele>6.9867887496948</ele>
        <time>2017-02-14T08:30:41.000Z</time>
      </trkpt>
      <trkpt lat="47.26683" lon="-1.53593">
        <ele>6.990541934967</ele>
        <time>2017-02-14T08:30:43.000Z</time>
      </trkpt>
      <trkpt lat="47.26686" lon="-1.53592">
        <ele>7.0213713645935</ele>
        <time>2017-02-14T08:30:46.000Z</time>
      </trkpt>
      <trkpt lat="47.26691" lon="-1.53589">
        <ele>7.0559220314026</ele>
        <time>2017-02-14T08:30:49.000Z</time>
      </trkpt>
      <trkpt lat="47.26694" lon="-1.53587">
        <ele>7.0872945785522</ele>
        <time>2017-02-14T08:30:52.000Z</time>
      </trkpt>
      <trkpt lat="47.26695" lon="-1.53585">
        <ele>7.1230392456055</ele>
        <time>2017-02-14T08:30:55.000Z</time>
      </trkpt>
      <trkpt lat="47.26699" lon="-1.53582">
        <ele>7.1553564071655</ele>
        <time>2017-02-14T08:30:58.000Z</time>
      </trkpt>
      <trkpt lat="47.26702" lon="-1.5358">
        <ele>7.173828125</ele>
        <time>2017-02-14T08:31:00.000Z</time>
      </trkpt>
      <trkpt lat="47.26705" lon="-1.53577">
        <ele>7.1773581504822</ele>
        <time>2017-02-14T08:31:02.000Z</time>
      </trkpt>
      <trkpt lat="47.26708" lon="-1.53574">
        <ele>7.1610884666443</ele>
        <time>2017-02-14T08:31:04.000Z</time>
      </trkpt>
      <trkpt lat="47.26711" lon="-1.53568">
        <ele>7.1266541481018</ele>
        <time>2017-02-14T08:31:07.000Z</time>
      </trkpt>
      <trkpt lat="47.26712" lon="-1.53565">
        <ele>7.0871558189392</ele>
        <time>2017-02-14T08:31:09.000Z</time>
      </trkpt>
      <trkpt lat="47.26713" lon="-1.53561">
        <ele>7.0587224960327</ele>
        <time>2017-02-14T08:31:11.000Z</time>
      </trkpt>
      <trkpt lat="47.26713" lon="-1.53558">
        <ele>7.0467391014099</ele>
        <time>2017-02-14T08:31:13.000Z</time>
      </trkpt>
      <trkpt lat="47.26714" lon="-1.53554">
        <ele>7.0453386306763</ele>
        <time>2017-02-14T08:31:16.000Z</time>
      </trkpt>
      <trkpt lat="47.26715" lon="-1.53552">
        <ele>7.0502624511719</ele>
        <time>2017-02-14T08:31:18.000Z</time>
      </trkpt>
      <trkpt lat="47.26715" lon="-1.53549">
        <ele>7.0602278709412</ele>
        <time>2017-02-14T08:31:20.000Z</time>
      </trkpt>
      <trkpt lat="47.26715" lon="-1.53545">
        <ele>7.0728197097778</ele>
        <time>2017-02-14T08:31:23.000Z</time>
      </trkpt>
      <trkpt lat="47.26717" lon="-1.53542">
        <ele>7.0803308486938</ele>
        <time>2017-02-14T08:31:26.000Z</time>
      </trkpt>
      <trkpt lat="47.26717" lon="-1.53541">
        <ele>7.0886588096619</ele>
        <time>2017-02-14T08:31:28.000Z</time>
      </trkpt>
      <trkpt lat="47.26716" lon="-1.53536">
        <ele>7.1040191650391</ele>
        <time>2017-02-14T08:31:31.000Z</time>
      </trkpt>
      <trkpt lat="47.26716" lon="-1.53532">
        <ele>7.1226835250854</ele>
        <time>2017-02-14T08:31:34.000Z</time>
      </trkpt>
      <trkpt lat="47.26716" lon="-1.53529">
        <ele>7.1423110961914</ele>
        <time>2017-02-14T08:31:37.000Z</time>
      </trkpt>
      <trkpt lat="47.26716" lon="-1.53527">
        <ele>7.1677613258362</ele>
        <time>2017-02-14T08:31:39.000Z</time>
      </trkpt>
      <trkpt lat="47.26715" lon="-1.53522">
        <ele>7.1997361183167</ele>
        <time>2017-02-14T08:31:41.000Z</time>
      </trkpt>
      <trkpt lat="47.26715" lon="-1.53515">
        <ele>7.2341284751892</ele>
        <time>2017-02-14T08:31:44.000Z</time>
      </trkpt>
      <trkpt lat="47.26714" lon="-1.5351">
        <ele>7.2718725204468</ele>
        <time>2017-02-14T08:31:47.000Z</time>
      </trkpt>
      <trkpt lat="47.26714" lon="-1.53506">
        <ele>7.3121109008789</ele>
        <time>2017-02-14T08:31:49.000Z</time>
      </trkpt>
      <trkpt lat="47.26713" lon="-1.53501">
        <ele>7.3553376197815</ele>
        <time>2017-02-14T08:31:52.000Z</time>
      </trkpt>
      <trkpt lat="47.26713" lon="-1.53496">
        <ele>7.4425811767578</ele>
        <time>2017-02-14T08:31:55.000Z</time>
      </trkpt>
      <trkpt lat="47.26713" lon="-1.53491">
        <ele>7.5929627418518</ele>
        <time>2017-02-14T08:31:58.000Z</time>
      </trkpt>
      <trkpt lat="47.26714" lon="-1.53485">
        <ele>7.8125739097595</ele>
        <time>2017-02-14T08:32:01.000Z</time>
      </trkpt>
      <trkpt lat="47.26714" lon="-1.53481">
        <ele>8.0849885940552</ele>
        <time>2017-02-14T08:32:03.000Z</time>
      </trkpt>
      <trkpt lat="47.26712" lon="-1.53475">
        <ele>8.4244327545166</ele>
        <time>2017-02-14T08:32:06.000Z</time>
      </trkpt>
      <trkpt lat="47.26711" lon="-1.53469">
        <ele>8.7887878417969</ele>
        <time>2017-02-14T08:32:09.000Z</time>
      </trkpt>
      <trkpt lat="47.2671" lon="-1.53466">
        <ele>9.1260366439819</ele>
        <time>2017-02-14T08:32:11.000Z</time>
      </trkpt>
      <trkpt lat="47.26709" lon="-1.53462">
        <ele>9.4372425079346</ele>
        <time>2017-02-14T08:32:14.000Z</time>
      </trkpt>
      <trkpt lat="47.26708" lon="-1.53457">
        <ele>9.758264541626</ele>
        <time>2017-02-14T08:32:17.000Z</time>
      </trkpt>
      <trkpt lat="47.26707" lon="-1.53454">
        <ele>10.038018226624</ele>
        <time>2017-02-14T08:32:19.000Z</time>
      </trkpt>
      <trkpt lat="47.26707" lon="-1.53448">
        <ele>10.310529708862</ele>
        <time>2017-02-14T08:32:22.000Z</time>
      </trkpt>
      <trkpt lat="47.26706" lon="-1.53444">
        <ele>10.596171379089</ele>
        <time>2017-02-14T08:32:25.000Z</time>
      </trkpt>
      <trkpt lat="47.26707" lon="-1.5344">
        <ele>10.875357627869</ele>
        <time>2017-02-14T08:32:27.000Z</time>
      </trkpt>
      <trkpt lat="47.26708" lon="-1.53436">
        <ele>11.149766921997</ele>
        <time>2017-02-14T08:32:30.000Z</time>
      </trkpt>
      <trkpt lat="47.26709" lon="-1.53431">
        <ele>11.448755264282</ele>
        <time>2017-02-14T08:32:33.000Z</time>
      </trkpt>
      <trkpt lat="47.26708" lon="-1.53428">
        <ele>11.727916717529</ele>
        <time>2017-02-14T08:32:36.000Z</time>
      </trkpt>
      <trkpt lat="47.26708" lon="-1.53424">
        <ele>11.990951538086</ele>
        <time>2017-02-14T08:32:38.000Z</time>
      </trkpt>
      <trkpt lat="47.26709" lon="-1.5342">
        <ele>12.26703453064</ele>
        <time>2017-02-14T08:32:41.000Z</time>
      </trkpt>
      <trkpt lat="47.26711" lon="-1.53417">
        <ele>12.532554626465</ele>
        <time>2017-02-14T08:32:44.000Z</time>
      </trkpt>
      <trkpt lat="47.26713" lon="-1.53415">
        <ele>12.757726669312</ele>
        <time>2017-02-14T08:32:46.000Z</time>
      </trkpt>
      <trkpt lat="47.26715" lon="-1.53412">
        <ele>12.961929321289</ele>
        <time>2017-02-14T08:32:49.000Z</time>
      </trkpt>
      <trkpt lat="47.26717" lon="-1.53411">
        <ele>13.14026927948</ele>
        <time>2017-02-14T08:32:51.000Z</time>
      </trkpt>
      <trkpt lat="47.26719" lon="-1.5341">
        <ele>13.269033432007</ele>
        <time>2017-02-14T08:32:53.000Z</time>
      </trkpt>
      <trkpt lat="47.26723" lon="-1.53409">
        <ele>13.370226860046</ele>
        <time>2017-02-14T08:32:56.000Z</time>
      </trkpt>
      <trkpt lat="47.26725" lon="-1.53409">
        <ele>13.460706710815</ele>
        <time>2017-02-14T08:32:58.000Z</time>
      </trkpt>
      <trkpt lat="47.26728" lon="-1.53407">
        <ele>13.54456615448</ele>
        <time>2017-02-14T08:33:01.000Z</time>
      </trkpt>
      <trkpt lat="47.26728" lon="-1.53406">
        <ele>13.620872497559</ele>
        <time>2017-02-14T08:33:03.000Z</time>
      </trkpt>
      <trkpt lat="47.26731" lon="-1.53405">
        <ele>13.704378128052</ele>
        <time>2017-02-14T08:33:06.000Z</time>
      </trkpt>
      <trkpt lat="47.26733" lon="-1.53405">
        <ele>13.772459030151</ele>
        <time>2017-02-14T08:33:09.000Z</time>
      </trkpt>
      <trkpt lat="47.26736" lon="-1.53404">
        <ele>13.850652694702</ele>
        <time>2017-02-14T08:33:11.000Z</time>
      </trkpt>
      <trkpt lat="47.26737" lon="-1.53403">
        <ele>13.912564277649</ele>
        <time>2017-02-14T08:33:13.000Z</time>
      </trkpt>
      <trkpt lat="47.26741" lon="-1.534">
        <ele>14.00106048584</ele>
        <time>2017-02-14T08:33:16.000Z</time>
      </trkpt>
      <trkpt lat="47.26744" lon="-1.53399">
        <ele>14.089529037476</ele>
        <time>2017-02-14T08:33:18.000Z</time>
      </trkpt>
      <trkpt lat="47.26746" lon="-1.53396">
        <ele>14.189315795898</ele>
        <time>2017-02-14T08:33:21.000Z</time>
      </trkpt>
      <trkpt lat="47.26749" lon="-1.53394">
        <ele>14.294756889343</ele>
        <time>2017-02-14T08:33:23.000Z</time>
      </trkpt>
      <trkpt lat="47.26752" lon="-1.53392">
        <ele>14.395533561707</ele>
        <time>2017-02-14T08:33:25.000Z</time>
      </trkpt>
      <trkpt lat="47.26756" lon="-1.53391">
        <ele>14.438273429871</ele>
        <time>2017-02-14T08:33:28.000Z</time>
      </trkpt>
      <trkpt lat="47.26759" lon="-1.5339">
        <ele>14.445424079895</ele>
        <time>2017-02-14T08:33:30.000Z</time>
      </trkpt>
      <trkpt lat="47.26761" lon="-1.53389">
        <ele>14.424479484558</ele>
        <time>2017-02-14T08:33:32.000Z</time>
      </trkpt>
      <trkpt lat="47.26766" lon="-1.53388">
        <ele>14.353399276733</ele>
        <time>2017-02-14T08:33:35.000Z</time>
      </trkpt>
      <trkpt lat="47.26768" lon="-1.53389">
        <ele>14.262728691101</ele>
        <time>2017-02-14T08:33:37.000Z</time>
      </trkpt>
      <trkpt lat="47.26774" lon="-1.5339">
        <ele>14.151354789734</ele>
        <time>2017-02-14T08:33:40.000Z</time>
      </trkpt>
      <trkpt lat="47.26778" lon="-1.53393">
        <ele>14.01623249054</ele>
        <time>2017-02-14T08:33:42.000Z</time>
      </trkpt>
      <trkpt lat="47.26782" lon="-1.53395">
        <ele>13.847700119019</ele>
        <time>2017-02-14T08:33:44.000Z</time>
      </trkpt>
      <trkpt lat="47.26786" lon="-1.53398">
        <ele>13.662959098816</ele>
        <time>2017-02-14T08:33:47.000Z</time>
      </trkpt>
      <trkpt lat="47.26791" lon="-1.53402">
        <ele>13.44003868103</ele>
        <time>2017-02-14T08:33:50.000Z</time>
      </trkpt>
      <trkpt lat="47.26794" lon="-1.53403">
        <ele>13.232444763184</ele>
        <time>2017-02-14T08:33:52.000Z</time>
      </trkpt>
      <trkpt lat="47.26796" lon="-1.53406">
        <ele>13.030301094055</ele>
        <time>2017-02-14T08:33:55.000Z</time>
      </trkpt>
      <trkpt lat="47.26798" lon="-1.53409">
        <ele>12.840029716492</ele>
        <time>2017-02-14T08:33:57.000Z</time>
      </trkpt>
      <trkpt lat="47.26801" lon="-1.53411">
        <ele>12.665018081665</ele>
        <time>2017-02-14T08:33:59.000Z</time>
      </trkpt>
      <trkpt lat="47.26804" lon="-1.53414">
        <ele>12.499808311462</ele>
        <time>2017-02-14T08:34:02.000Z</time>
      </trkpt>
      <trkpt lat="47.26806" lon="-1.53417">
        <ele>12.331845283508</ele>
        <time>2017-02-14T08:34:04.000Z</time>
      </trkpt>
      <trkpt lat="47.26809" lon="-1.5342">
        <ele>12.116414070129</ele>
        <time>2017-02-14T08:34:07.000Z</time>
      </trkpt>
      <trkpt lat="47.26813" lon="-1.53423">
        <ele>11.845788002014</ele>
        <time>2017-02-14T08:34:10.000Z</time>
      </trkpt>
      <trkpt lat="47.26818" lon="-1.53426">
        <ele>11.531791687012</ele>
        <time>2017-02-14T08:34:13.000Z</time>
      </trkpt>
      <trkpt lat="47.26823" lon="-1.53427">
        <ele>11.208203315735</ele>
        <time>2017-02-14T08:34:16.000Z</time>
      </trkpt>
      <trkpt lat="47.26827" lon="-1.53429">
        <ele>10.843414306641</ele>
        <time>2017-02-14T08:34:19.000Z</time>
      </trkpt>
      <trkpt lat="47.2683" lon="-1.53429">
        <ele>10.547943115234</ele>
        <time>2017-02-14T08:34:21.000Z</time>
      </trkpt>
      <trkpt lat="47.26833" lon="-1.53427">
        <ele>10.348205566406</ele>
        <time>2017-02-14T08:34:24.000Z</time>
      </trkpt>
      <trkpt lat="47.26835" lon="-1.53426">
        <ele>10.218046188354</ele>
        <time>2017-02-14T08:34:26.000Z</time>
      </trkpt>
      <trkpt lat="47.26838" lon="-1.53423">
        <ele>10.147375106812</ele>
        <time>2017-02-14T08:34:29.000Z</time>
      </trkpt>
      <trkpt lat="47.26838" lon="-1.53419">
        <ele>10.20906162262</ele>
        <time>2017-02-14T08:34:36.000Z</time>
      </trkpt>
      <trkpt lat="47.26839" lon="-1.53416">
        <ele>10.31777381897</ele>
        <time>2017-02-14T08:34:38.000Z</time>
      </trkpt>
      <trkpt lat="47.26841" lon="-1.53413">
        <ele>10.419142723083</ele>
        <time>2017-02-14T08:34:41.000Z</time>
      </trkpt>
      <trkpt lat="47.26842" lon="-1.53413">
        <ele>10.508056640625</ele>
        <time>2017-02-14T08:34:48.000Z</time>
      </trkpt>
      <trkpt lat="47.26841" lon="-1.53415">
        <ele>10.592519760132</ele>
        <time>2017-02-14T08:34:56.000Z</time>
      </trkpt>
      <trkpt lat="47.26842" lon="-1.53418">
        <ele>10.582885742188</ele>
        <time>2017-02-14T08:34:59.000Z</time>
      </trkpt>
      <trkpt lat="47.26842" lon="-1.53417">
        <ele>10.547094345093</ele>
        <time>2017-02-14T08:35:02.000Z</time>
      </trkpt>
      <trkpt lat="47.26843" lon="-1.53415">
        <ele>10.50763130188</ele>
        <time>2017-02-14T08:35:04.000Z</time>
      </trkpt>
      <trkpt lat="47.26846" lon="-1.53412">
        <ele>10.468139648438</ele>
        <time>2017-02-14T08:35:06.000Z</time>
      </trkpt>
      <trkpt lat="47.26849" lon="-1.53409">
        <ele>10.408683776855</ele>
        <time>2017-02-14T08:35:09.000Z</time>
      </trkpt>
      <trkpt lat="47.26851" lon="-1.53407">
        <ele>10.368253707886</ele>
        <time>2017-02-14T08:35:11.000Z</time>
      </trkpt>
      <trkpt lat="47.26855" lon="-1.53404">
        <ele>10.301724433899</ele>
        <time>2017-02-14T08:35:14.000Z</time>
      </trkpt>
      <trkpt lat="47.26858" lon="-1.53402">
        <ele>10.208534240723</ele>
        <time>2017-02-14T08:35:16.000Z</time>
      </trkpt>
      <trkpt lat="47.26863" lon="-1.53399">
        <ele>10.084139823914</ele>
        <time>2017-02-14T08:35:19.000Z</time>
      </trkpt>
      <trkpt lat="47.26866" lon="-1.53397">
        <ele>9.9625835418701</ele>
        <time>2017-02-14T08:35:21.000Z</time>
      </trkpt>
      <trkpt lat="47.26867" lon="-1.53394">
        <ele>9.8513898849487</ele>
        <time>2017-02-14T08:35:23.000Z</time>
      </trkpt>
      <trkpt lat="47.2687" lon="-1.53389">
        <ele>9.7611112594604</ele>
        <time>2017-02-14T08:35:26.000Z</time>
      </trkpt>
      <trkpt lat="47.26871" lon="-1.53386">
        <ele>9.6975879669189</ele>
        <time>2017-02-14T08:35:28.000Z</time>
      </trkpt>
      <trkpt lat="47.26873" lon="-1.53382">
        <ele>9.6697769165039</ele>
        <time>2017-02-14T08:35:31.000Z</time>
      </trkpt>
      <trkpt lat="47.26875" lon="-1.53379">
        <ele>9.6516752243042</ele>
        <time>2017-02-14T08:35:33.000Z</time>
      </trkpt>
      <trkpt lat="47.26879" lon="-1.53375">
        <ele>9.6195659637451</ele>
        <time>2017-02-14T08:35:36.000Z</time>
      </trkpt>
      <trkpt lat="47.26881" lon="-1.53372">
        <ele>9.5737199783325</ele>
        <time>2017-02-14T08:35:38.000Z</time>
      </trkpt>
      <trkpt lat="47.26882" lon="-1.53369">
        <ele>9.5270910263062</ele>
        <time>2017-02-14T08:35:40.000Z</time>
      </trkpt>
      <trkpt lat="47.26883" lon="-1.53365">
        <ele>9.5007619857788</ele>
        <time>2017-02-14T08:35:43.000Z</time>
      </trkpt>
      <trkpt lat="47.26885" lon="-1.53362">
        <ele>9.4776248931885</ele>
        <time>2017-02-14T08:35:45.000Z</time>
      </trkpt>
      <trkpt lat="47.26887" lon="-1.53359">
        <ele>9.4600162506104</ele>
        <time>2017-02-14T08:35:47.000Z</time>
      </trkpt>
      <trkpt lat="47.26891" lon="-1.53356">
        <ele>9.4245290756226</ele>
        <time>2017-02-14T08:35:50.000Z</time>
      </trkpt>
      <trkpt lat="47.26893" lon="-1.53354">
        <ele>9.3647317886353</ele>
        <time>2017-02-14T08:35:52.000Z</time>
      </trkpt>
      <trkpt lat="47.26896" lon="-1.53351">
        <ele>9.2692308425903</ele>
        <time>2017-02-14T08:35:55.000Z</time>
      </trkpt>
      <trkpt lat="47.26899" lon="-1.5335">
        <ele>9.1442966461182</ele>
        <time>2017-02-14T08:35:58.000Z</time>
      </trkpt>
      <trkpt lat="47.26902" lon="-1.53349">
        <ele>8.9971141815186</ele>
        <time>2017-02-14T08:36:00.000Z</time>
      </trkpt>
      <trkpt lat="47.26904" lon="-1.53346">
        <ele>8.8567838668823</ele>
        <time>2017-02-14T08:36:03.000Z</time>
      </trkpt>
      <trkpt lat="47.26907" lon="-1.53342">
        <ele>8.7236814498901</ele>
        <time>2017-02-14T08:36:06.000Z</time>
      </trkpt>
      <trkpt lat="47.26908" lon="-1.5334">
        <ele>8.605580329895</ele>
        <time>2017-02-14T08:36:08.000Z</time>
      </trkpt>
      <trkpt lat="47.26913" lon="-1.53334">
        <ele>8.4792385101318</ele>
        <time>2017-02-14T08:36:11.000Z</time>
      </trkpt>
      <trkpt lat="47.26916" lon="-1.5333">
        <ele>8.379111289978</ele>
        <time>2017-02-14T08:36:13.000Z</time>
      </trkpt>
      <trkpt lat="47.26917" lon="-1.53326">
        <ele>8.308765411377</ele>
        <time>2017-02-14T08:36:15.000Z</time>
      </trkpt>
      <trkpt lat="47.26918" lon="-1.53323">
        <ele>8.2646198272705</ele>
        <time>2017-02-14T08:36:17.000Z</time>
      </trkpt>
      <trkpt lat="47.26919" lon="-1.53318">
        <ele>8.2544116973877</ele>
        <time>2017-02-14T08:36:19.000Z</time>
      </trkpt>
      <trkpt lat="47.2692" lon="-1.53312">
        <ele>8.3291120529175</ele>
        <time>2017-02-14T08:36:22.000Z</time>
      </trkpt>
      <trkpt lat="47.2692" lon="-1.53308">
        <ele>8.4342584609985</ele>
        <time>2017-02-14T08:36:24.000Z</time>
      </trkpt>
      <trkpt lat="47.26923" lon="-1.53303">
        <ele>8.5379858016968</ele>
        <time>2017-02-14T08:36:27.000Z</time>
      </trkpt>
      <trkpt lat="47.26925" lon="-1.533">
        <ele>8.6255645751953</ele>
        <time>2017-02-14T08:36:30.000Z</time>
      </trkpt>
      <trkpt lat="47.26927" lon="-1.53299">
        <ele>8.6888084411621</ele>
        <time>2017-02-14T08:36:32.000Z</time>
      </trkpt>
      <trkpt lat="47.26931" lon="-1.53296">
        <ele>8.6864023208618</ele>
        <time>2017-02-14T08:36:35.000Z</time>
      </trkpt>
      <trkpt lat="47.26935" lon="-1.53293">
        <ele>8.6416492462158</ele>
        <time>2017-02-14T08:36:38.000Z</time>
      </trkpt>
      <trkpt lat="47.26939" lon="-1.53291">
        <ele>8.561767578125</ele>
        <time>2017-02-14T08:36:41.000Z</time>
      </trkpt>
      <trkpt lat="47.26943" lon="-1.5329">
        <ele>8.4540634155273</ele>
        <time>2017-02-14T08:36:44.000Z</time>
      </trkpt>
      <trkpt lat="47.26947" lon="-1.53289">
        <ele>8.3129901885986</ele>
        <time>2017-02-14T08:36:47.000Z</time>
      </trkpt>
      <trkpt lat="47.2695" lon="-1.53287">
        <ele>8.1732940673828</ele>
        <time>2017-02-14T08:36:49.000Z</time>
      </trkpt>
      <trkpt lat="47.26954" lon="-1.53286">
        <ele>8.0167598724365</ele>
        <time>2017-02-14T08:36:52.000Z</time>
      </trkpt>
      <trkpt lat="47.26958" lon="-1.53285">
        <ele>7.8655257225037</ele>
        <time>2017-02-14T08:36:55.000Z</time>
      </trkpt>
      <trkpt lat="47.2696" lon="-1.53284">
        <ele>7.7236924171448</ele>
        <time>2017-02-14T08:36:57.000Z</time>
      </trkpt>
      <trkpt lat="47.26963" lon="-1.53283">
        <ele>7.5923323631287</ele>
        <time>2017-02-14T08:36:59.000Z</time>
      </trkpt>
      <trkpt lat="47.26968" lon="-1.53281">
        <ele>7.4484786987305</ele>
        <time>2017-02-14T08:37:02.000Z</time>
      </trkpt>
      <trkpt lat="47.26971" lon="-1.5328">
        <ele>7.3165230751038</ele>
        <time>2017-02-14T08:37:04.000Z</time>
      </trkpt>
      <trkpt lat="47.26974" lon="-1.53279">
        <ele>7.1952271461487</ele>
        <time>2017-02-14T08:37:06.000Z</time>
      </trkpt>
      <trkpt lat="47.26978" lon="-1.53275">
        <ele>7.0935163497925</ele>
        <time>2017-02-14T08:37:09.000Z</time>
      </trkpt>
      <trkpt lat="47.2698" lon="-1.53272">
        <ele>7.0177526473999</ele>
        <time>2017-02-14T08:37:11.000Z</time>
      </trkpt>
      <trkpt lat="47.26984" lon="-1.5327">
        <ele>6.96240234375</ele>
        <time>2017-02-14T08:37:14.000Z</time>
      </trkpt>
      <trkpt lat="47.26986" lon="-1.53267">
        <ele>6.930926322937</ele>
        <time>2017-02-14T08:37:16.000Z</time>
      </trkpt>
      <trkpt lat="47.26988" lon="-1.53264">
        <ele>6.9240860939026</ele>
        <time>2017-02-14T08:37:19.000Z</time>
      </trkpt>
      <trkpt lat="47.26989" lon="-1.53261">
        <ele>6.9322113990784</ele>
        <time>2017-02-14T08:37:21.000Z</time>
      </trkpt>
      <trkpt lat="47.26992" lon="-1.53256">
        <ele>6.9557595252991</ele>
        <time>2017-02-14T08:37:24.000Z</time>
      </trkpt>
      <trkpt lat="47.26994" lon="-1.53253">
        <ele>7.0078749656677</ele>
        <time>2017-02-14T08:37:26.000Z</time>
      </trkpt>
      <trkpt lat="47.26997" lon="-1.5325">
        <ele>7.0605216026306</ele>
        <time>2017-02-14T08:37:28.000Z</time>
      </trkpt>
      <trkpt lat="47.27" lon="-1.53246">
        <ele>7.1342825889587</ele>
        <time>2017-02-14T08:37:31.000Z</time>
      </trkpt>
      <trkpt lat="47.27002" lon="-1.53244">
        <ele>7.2293915748596</ele>
        <time>2017-02-14T08:37:33.000Z</time>
      </trkpt>
      <trkpt lat="47.27005" lon="-1.53242">
        <ele>7.3399000167847</ele>
        <time>2017-02-14T08:37:36.000Z</time>
      </trkpt>
      <trkpt lat="47.27007" lon="-1.5324">
        <ele>7.4719696044922</ele>
        <time>2017-02-14T08:37:38.000Z</time>
      </trkpt>
      <trkpt lat="47.2701" lon="-1.53235">
        <ele>7.676157951355</ele>
        <time>2017-02-14T08:37:41.000Z</time>
      </trkpt>
      <trkpt lat="47.27012" lon="-1.53232">
        <ele>7.8936052322388</ele>
        <time>2017-02-14T08:37:43.000Z</time>
      </trkpt>
      <trkpt lat="47.27015" lon="-1.53228">
        <ele>8.1495590209961</ele>
        <time>2017-02-14T08:37:46.000Z</time>
      </trkpt>
      <trkpt lat="47.27016" lon="-1.53224">
        <ele>8.4248247146606</ele>
        <time>2017-02-14T08:37:48.000Z</time>
      </trkpt>
      <trkpt lat="47.27018" lon="-1.53221">
        <ele>8.7031164169312</ele>
        <time>2017-02-14T08:37:51.000Z</time>
      </trkpt>
      <trkpt lat="47.2702" lon="-1.53219">
        <ele>8.9334688186646</ele>
        <time>2017-02-14T08:37:53.000Z</time>
      </trkpt>
      <trkpt lat="47.27021" lon="-1.53216">
        <ele>9.1631879806519</ele>
        <time>2017-02-14T08:37:56.000Z</time>
      </trkpt>
      <trkpt lat="47.27022" lon="-1.53215">
        <ele>9.338264465332</ele>
        <time>2017-02-14T08:37:58.000Z</time>
      </trkpt>
      <trkpt lat="47.27024" lon="-1.53211">
        <ele>9.5103826522827</ele>
        <time>2017-02-14T08:38:01.000Z</time>
      </trkpt>
      <trkpt lat="47.27027" lon="-1.53205">
        <ele>9.7188138961792</ele>
        <time>2017-02-14T08:38:04.000Z</time>
      </trkpt>
      <trkpt lat="47.2703" lon="-1.532">
        <ele>9.9587860107422</ele>
        <time>2017-02-14T08:38:07.000Z</time>
      </trkpt>
      <trkpt lat="47.27034" lon="-1.53195">
        <ele>10.213136672974</ele>
        <time>2017-02-14T08:38:10.000Z</time>
      </trkpt>
      <trkpt lat="47.27037" lon="-1.53193">
        <ele>10.465745925903</ele>
        <time>2017-02-14T08:38:12.000Z</time>
      </trkpt>
      <trkpt lat="47.2704" lon="-1.53191">
        <ele>10.678757667542</ele>
        <time>2017-02-14T08:38:15.000Z</time>
      </trkpt>
      <trkpt lat="47.27044" lon="-1.53189">
        <ele>10.816581726074</ele>
        <time>2017-02-14T08:38:18.000Z</time>
      </trkpt>
      <trkpt lat="47.2705" lon="-1.53189">
        <ele>10.875827789307</ele>
        <time>2017-02-14T08:38:21.000Z</time>
      </trkpt>
      <trkpt lat="47.27052" lon="-1.53188">
        <ele>10.87073802948</ele>
        <time>2017-02-14T08:38:24.000Z</time>
      </trkpt>
      <trkpt lat="47.27054" lon="-1.53188">
        <ele>10.845930099487</ele>
        <time>2017-02-14T08:38:26.000Z</time>
      </trkpt>
      <trkpt lat="47.27057" lon="-1.5319">
        <ele>10.768476486206</ele>
        <time>2017-02-14T08:38:29.000Z</time>
      </trkpt>
      <trkpt lat="47.2706" lon="-1.53191">
        <ele>10.671899795532</ele>
        <time>2017-02-14T08:38:31.000Z</time>
      </trkpt>
      <trkpt lat="47.27064" lon="-1.53191">
        <ele>10.571849822998</ele>
        <time>2017-02-14T08:38:34.000Z</time>
      </trkpt>
      <trkpt lat="47.27068" lon="-1.53193">
        <ele>10.433644294739</ele>
        <time>2017-02-14T08:38:37.000Z</time>
      </trkpt>
      <trkpt lat="47.27071" lon="-1.53194">
        <ele>10.27123260498</ele>
        <time>2017-02-14T08:38:39.000Z</time>
      </trkpt>
      <trkpt lat="47.27076" lon="-1.53194">
        <ele>10.136624336243</ele>
        <time>2017-02-14T08:38:42.000Z</time>
      </trkpt>
      <trkpt lat="47.27079" lon="-1.53193">
        <ele>10.014875411987</ele>
        <time>2017-02-14T08:38:45.000Z</time>
      </trkpt>
      <trkpt lat="47.27083" lon="-1.53191">
        <ele>9.9156475067139</ele>
        <time>2017-02-14T08:38:48.000Z</time>
      </trkpt>
      <trkpt lat="47.27085" lon="-1.53188">
        <ele>9.8735828399658</ele>
        <time>2017-02-14T08:38:51.000Z</time>
      </trkpt>
      <trkpt lat="47.27089" lon="-1.53184">
        <ele>9.852912902832</ele>
        <time>2017-02-14T08:38:54.000Z</time>
      </trkpt>
      <trkpt lat="47.27091" lon="-1.53182">
        <ele>9.8447732925415</ele>
        <time>2017-02-14T08:38:57.000Z</time>
      </trkpt>
      <trkpt lat="47.27095" lon="-1.5318">
        <ele>9.8153791427612</ele>
        <time>2017-02-14T08:39:00.000Z</time>
      </trkpt>
      <trkpt lat="47.27097" lon="-1.53178">
        <ele>9.7897357940674</ele>
        <time>2017-02-14T08:39:02.000Z</time>
      </trkpt>
      <trkpt lat="47.27098" lon="-1.53176">
        <ele>9.7480401992798</ele>
        <time>2017-02-14T08:39:04.000Z</time>
      </trkpt>
      <trkpt lat="47.271" lon="-1.53175">
        <ele>9.6972503662109</ele>
        <time>2017-02-14T08:39:06.000Z</time>
      </trkpt>
      <trkpt lat="47.27103" lon="-1.53174">
        <ele>9.6325817108154</ele>
        <time>2017-02-14T08:39:09.000Z</time>
      </trkpt>
      <trkpt lat="47.27105" lon="-1.53172">
        <ele>9.5859994888306</ele>
        <time>2017-02-14T08:39:12.000Z</time>
      </trkpt>
      <trkpt lat="47.27109" lon="-1.53169">
        <ele>9.524863243103</ele>
        <time>2017-02-14T08:39:15.000Z</time>
      </trkpt>
      <trkpt lat="47.27111" lon="-1.53167">
        <ele>9.4523410797119</ele>
        <time>2017-02-14T08:39:17.000Z</time>
      </trkpt>
      <trkpt lat="47.27114" lon="-1.53165">
        <ele>9.3926439285278</ele>
        <time>2017-02-14T08:39:19.000Z</time>
      </trkpt>
      <trkpt lat="47.27116" lon="-1.53161">
        <ele>9.3697452545166</ele>
        <time>2017-02-14T08:39:22.000Z</time>
      </trkpt>
      <trkpt lat="47.27118" lon="-1.53158">
        <ele>9.3690824508667</ele>
        <time>2017-02-14T08:39:24.000Z</time>
      </trkpt>
      <trkpt lat="47.2712" lon="-1.53155">
        <ele>9.4019289016724</ele>
        <time>2017-02-14T08:39:27.000Z</time>
      </trkpt>
      <trkpt lat="47.27123" lon="-1.53152">
        <ele>9.4622392654419</ele>
        <time>2017-02-14T08:39:30.000Z</time>
      </trkpt>
      <trkpt lat="47.27124" lon="-1.53148">
        <ele>9.5568923950195</ele>
        <time>2017-02-14T08:39:33.000Z</time>
      </trkpt>
      <trkpt lat="47.27126" lon="-1.53145">
        <ele>9.6480531692505</ele>
        <time>2017-02-14T08:39:35.000Z</time>
      </trkpt>
      <trkpt lat="47.2713" lon="-1.53142">
        <ele>9.7311677932739</ele>
        <time>2017-02-14T08:39:38.000Z</time>
      </trkpt>
      <trkpt lat="47.27131" lon="-1.5314">
        <ele>9.8041715621948</ele>
        <time>2017-02-14T08:39:40.000Z</time>
      </trkpt>
      <trkpt lat="47.27134" lon="-1.53138">
        <ele>9.8803148269653</ele>
        <time>2017-02-14T08:39:43.000Z</time>
      </trkpt>
      <trkpt lat="47.27137" lon="-1.53136">
        <ele>9.9173336029053</ele>
        <time>2017-02-14T08:39:45.000Z</time>
      </trkpt>
      <trkpt lat="47.2714" lon="-1.53134">
        <ele>9.934962272644</ele>
        <time>2017-02-14T08:39:48.000Z</time>
      </trkpt>
      <trkpt lat="47.27143" lon="-1.53131">
        <ele>9.9693174362183</ele>
        <time>2017-02-14T08:39:51.000Z</time>
      </trkpt>
      <trkpt lat="47.27145" lon="-1.53129">
        <ele>10.013577461243</ele>
        <time>2017-02-14T08:39:53.000Z</time>
      </trkpt>
      <trkpt lat="47.2715" lon="-1.53125">
        <ele>10.06004524231</ele>
        <time>2017-02-14T08:39:56.000Z</time>
      </trkpt>
      <trkpt lat="47.27152" lon="-1.53122">
        <ele>10.138557434082</ele>
        <time>2017-02-14T08:39:58.000Z</time>
      </trkpt>
      <trkpt lat="47.27154" lon="-1.5312">
        <ele>10.237488746643</ele>
        <time>2017-02-14T08:40:00.000Z</time>
      </trkpt>
      <trkpt lat="47.27158" lon="-1.53116">
        <ele>10.35070514679</ele>
        <time>2017-02-14T08:40:03.000Z</time>
      </trkpt>
      <trkpt lat="47.27159" lon="-1.53112">
        <ele>10.497068405151</ele>
        <time>2017-02-14T08:40:06.000Z</time>
      </trkpt>
      <trkpt lat="47.27162" lon="-1.53107">
        <ele>10.681897163391</ele>
        <time>2017-02-14T08:40:09.000Z</time>
      </trkpt>
      <trkpt lat="47.27163" lon="-1.53105">
        <ele>10.864427566528</ele>
        <time>2017-02-14T08:40:11.000Z</time>
      </trkpt>
      <trkpt lat="47.27166" lon="-1.53102">
        <ele>11.073198318481</ele>
        <time>2017-02-14T08:40:14.000Z</time>
      </trkpt>
      <trkpt lat="47.27169" lon="-1.53098">
        <ele>11.265878677368</ele>
        <time>2017-02-14T08:40:17.000Z</time>
      </trkpt>
      <trkpt lat="47.2717" lon="-1.53095">
        <ele>11.423594474792</ele>
        <time>2017-02-14T08:40:19.000Z</time>
      </trkpt>
      <trkpt lat="47.27171" lon="-1.53091">
        <ele>11.577572822571</ele>
        <time>2017-02-14T08:40:21.000Z</time>
      </trkpt>
      <trkpt lat="47.27171" lon="-1.53085">
        <ele>11.801732063293</ele>
        <time>2017-02-14T08:40:24.000Z</time>
      </trkpt>
      <trkpt lat="47.27172" lon="-1.53082">
        <ele>11.985193252563</ele>
        <time>2017-02-14T08:40:26.000Z</time>
      </trkpt>
      <trkpt lat="47.27174" lon="-1.53077">
        <ele>12.0826587677</ele>
        <time>2017-02-14T08:40:29.000Z</time>
      </trkpt>
      <trkpt lat="47.27176" lon="-1.53074">
        <ele>12.12167263031</ele>
        <time>2017-02-14T08:40:31.000Z</time>
      </trkpt>
      <trkpt lat="47.27177" lon="-1.53071">
        <ele>12.076669692993</ele>
        <time>2017-02-14T08:40:33.000Z</time>
      </trkpt>
      <trkpt lat="47.2718" lon="-1.53066">
        <ele>11.863184928894</ele>
        <time>2017-02-14T08:40:36.000Z</time>
      </trkpt>
      <trkpt lat="47.27182" lon="-1.53063">
        <ele>11.608179092407</ele>
        <time>2017-02-14T08:40:39.000Z</time>
      </trkpt>
      <trkpt lat="47.27185" lon="-1.5306">
        <ele>11.355888366699</ele>
        <time>2017-02-14T08:40:42.000Z</time>
      </trkpt>
      <trkpt lat="47.27189" lon="-1.53057">
        <ele>11.059326171875</ele>
        <time>2017-02-14T08:40:45.000Z</time>
      </trkpt>
      <trkpt lat="47.27193" lon="-1.53055">
        <ele>10.701898574829</ele>
        <time>2017-02-14T08:40:48.000Z</time>
      </trkpt>
      <trkpt lat="47.27195" lon="-1.53054">
        <ele>10.380907058716</ele>
        <time>2017-02-14T08:40:50.000Z</time>
      </trkpt>
      <trkpt lat="47.27197" lon="-1.53052">
        <ele>10.058198928833</ele>
        <time>2017-02-14T08:40:52.000Z</time>
      </trkpt>
      <trkpt lat="47.27201" lon="-1.53049">
        <ele>9.7287921905518</ele>
        <time>2017-02-14T08:40:55.000Z</time>
      </trkpt>
      <trkpt lat="47.27203" lon="-1.53048">
        <ele>9.4469156265259</ele>
        <time>2017-02-14T08:40:57.000Z</time>
      </trkpt>
      <trkpt lat="47.27206" lon="-1.53046">
        <ele>9.1955499649048</ele>
        <time>2017-02-14T08:41:00.000Z</time>
      </trkpt>
      <trkpt lat="47.27208" lon="-1.53046">
        <ele>8.9468154907227</ele>
        <time>2017-02-14T08:41:02.000Z</time>
      </trkpt>
      <trkpt lat="47.27211" lon="-1.53045">
        <ele>8.6905946731567</ele>
        <time>2017-02-14T08:41:05.000Z</time>
      </trkpt>
      <trkpt lat="47.27213" lon="-1.53045">
        <ele>8.4640398025513</ele>
        <time>2017-02-14T08:41:07.000Z</time>
      </trkpt>
      <trkpt lat="47.27215" lon="-1.53044">
        <ele>8.2314004898071</ele>
        <time>2017-02-14T08:41:09.000Z</time>
      </trkpt>
      <trkpt lat="47.27219" lon="-1.53042">
        <ele>7.9993453025818</ele>
        <time>2017-02-14T08:41:12.000Z</time>
      </trkpt>
      <trkpt lat="47.27221" lon="-1.53039">
        <ele>7.7835402488708</ele>
        <time>2017-02-14T08:41:14.000Z</time>
      </trkpt>
      <trkpt lat="47.27223" lon="-1.53036">
        <ele>7.5824966430664</ele>
        <time>2017-02-14T08:41:16.000Z</time>
      </trkpt>
      <trkpt lat="47.27225" lon="-1.53033">
        <ele>7.3962831497192</ele>
        <time>2017-02-14T08:41:18.000Z</time>
      </trkpt>
      <trkpt lat="47.27227" lon="-1.53031">
        <ele>7.2282509803772</ele>
        <time>2017-02-14T08:41:20.000Z</time>
      </trkpt>
      <trkpt lat="47.27229" lon="-1.53028">
        <ele>7.0975112915039</ele>
        <time>2017-02-14T08:41:22.000Z</time>
      </trkpt>
      <trkpt lat="47.27234" lon="-1.53024">
        <ele>6.9335174560547</ele>
        <time>2017-02-14T08:41:25.000Z</time>
      </trkpt>
      <trkpt lat="47.27236" lon="-1.53021">
        <ele>6.7755918502808</ele>
        <time>2017-02-14T08:41:28.000Z</time>
      </trkpt>
      <trkpt lat="47.27239" lon="-1.53017">
        <ele>6.6187944412231</ele>
        <time>2017-02-14T08:41:31.000Z</time>
      </trkpt>
      <trkpt lat="47.2724" lon="-1.53014">
        <ele>6.4802255630493</ele>
        <time>2017-02-14T08:41:33.000Z</time>
      </trkpt>
      <trkpt lat="47.27242" lon="-1.53011">
        <ele>6.359694480896</ele>
        <time>2017-02-14T08:41:35.000Z</time>
      </trkpt>
      <trkpt lat="47.27245" lon="-1.53007">
        <ele>6.2763094902039</ele>
        <time>2017-02-14T08:41:38.000Z</time>
      </trkpt>
      <trkpt lat="47.27247" lon="-1.53004">
        <ele>6.2096524238586</ele>
        <time>2017-02-14T08:41:40.000Z</time>
      </trkpt>
      <trkpt lat="47.2725" lon="-1.53002">
        <ele>6.1453790664673</ele>
        <time>2017-02-14T08:41:42.000Z</time>
      </trkpt>
      <trkpt lat="47.27254" lon="-1.52998">
        <ele>6.0779166221619</ele>
        <time>2017-02-14T08:41:45.000Z</time>
      </trkpt>
      <trkpt lat="47.27256" lon="-1.52994">
        <ele>6.0367574691772</ele>
        <time>2017-02-14T08:41:48.000Z</time>
      </trkpt>
      <trkpt lat="47.27258" lon="-1.52989">
        <ele>6.0332827568054</ele>
        <time>2017-02-14T08:41:51.000Z</time>
      </trkpt>
      <trkpt lat="47.27258" lon="-1.52985">
        <ele>6.0572481155396</ele>
        <time>2017-02-14T08:41:53.000Z</time>
      </trkpt>
      <trkpt lat="47.27261" lon="-1.52982">
        <ele>6.1056914329529</ele>
        <time>2017-02-14T08:41:56.000Z</time>
      </trkpt>
      <trkpt lat="47.27264" lon="-1.5298">
        <ele>6.1546354293823</ele>
        <time>2017-02-14T08:41:58.000Z</time>
      </trkpt>
      <trkpt lat="47.27267" lon="-1.52976">
        <ele>6.1848664283752</ele>
        <time>2017-02-14T08:42:01.000Z</time>
      </trkpt>
      <trkpt lat="47.27269" lon="-1.52974">
        <ele>6.2024011611938</ele>
        <time>2017-02-14T08:42:03.000Z</time>
      </trkpt>
      <trkpt lat="47.27272" lon="-1.52969">
        <ele>6.200174331665</ele>
        <time>2017-02-14T08:42:06.000Z</time>
      </trkpt>
      <trkpt lat="47.27275" lon="-1.52966">
        <ele>6.1944527626038</ele>
        <time>2017-02-14T08:42:08.000Z</time>
      </trkpt>
      <trkpt lat="47.27277" lon="-1.52962">
        <ele>6.21555519104</ele>
        <time>2017-02-14T08:42:11.000Z</time>
      </trkpt>
      <trkpt lat="47.27278" lon="-1.52958">
        <ele>6.2450256347656</ele>
        <time>2017-02-14T08:42:13.000Z</time>
      </trkpt>
      <trkpt lat="47.27279" lon="-1.52956">
        <ele>6.270251750946</ele>
        <time>2017-02-14T08:42:15.000Z</time>
      </trkpt>
      <trkpt lat="47.27282" lon="-1.52952">
        <ele>6.3049502372742</ele>
        <time>2017-02-14T08:42:18.000Z</time>
      </trkpt>
      <trkpt lat="47.27283" lon="-1.52948">
        <ele>6.3478798866272</ele>
        <time>2017-02-14T08:42:20.000Z</time>
      </trkpt>
      <trkpt lat="47.27285" lon="-1.52944">
        <ele>6.3890542984009</ele>
        <time>2017-02-14T08:42:22.000Z</time>
      </trkpt>
      <trkpt lat="47.27288" lon="-1.52939">
        <ele>6.4249787330627</ele>
        <time>2017-02-14T08:42:25.000Z</time>
      </trkpt>
      <trkpt lat="47.27291" lon="-1.52933">
        <ele>6.4651198387146</ele>
        <time>2017-02-14T08:42:28.000Z</time>
      </trkpt>
      <trkpt lat="47.27294" lon="-1.52927">
        <ele>6.5044813156128</ele>
        <time>2017-02-14T08:42:31.000Z</time>
      </trkpt>
      <trkpt lat="47.27296" lon="-1.52923">
        <ele>6.5449113845825</ele>
        <time>2017-02-14T08:42:33.000Z</time>
      </trkpt>
      <trkpt lat="47.27298" lon="-1.5292">
        <ele>6.5680360794067</ele>
        <time>2017-02-14T08:42:35.000Z</time>
      </trkpt>
      <trkpt lat="47.273" lon="-1.52917">
        <ele>6.5838041305542</ele>
        <time>2017-02-14T08:42:37.000Z</time>
      </trkpt>
      <trkpt lat="47.27303" lon="-1.52914">
        <ele>6.5851378440857</ele>
        <time>2017-02-14T08:42:39.000Z</time>
      </trkpt>
      <trkpt lat="47.27304" lon="-1.52909">
        <ele>6.586085319519</ele>
        <time>2017-02-14T08:42:42.000Z</time>
      </trkpt>
      <trkpt lat="47.27305" lon="-1.52906">
        <ele>6.5869417190552</ele>
        <time>2017-02-14T08:42:44.000Z</time>
      </trkpt>
      <trkpt lat="47.27307" lon="-1.52902">
        <ele>6.5874032974243</ele>
        <time>2017-02-14T08:42:46.000Z</time>
      </trkpt>
      <trkpt lat="47.2731" lon="-1.52898">
        <ele>6.5822143554688</ele>
        <time>2017-02-14T08:42:49.000Z</time>
      </trkpt>
      <trkpt lat="47.27311" lon="-1.52895">
        <ele>6.5975341796875</ele>
        <time>2017-02-14T08:42:52.000Z</time>
      </trkpt>
      <trkpt lat="47.2731" lon="-1.52893">
        <ele>6.614501953125</ele>
        <time>2017-02-14T08:42:54.000Z</time>
      </trkpt>
      <trkpt lat="47.27309" lon="-1.52891">
        <ele>6.6435546875</ele>
        <time>2017-02-14T08:42:56.000Z</time>
      </trkpt>
      <trkpt lat="47.27308" lon="-1.5289">
        <ele>6.6902465820312</ele>
        <time>2017-02-14T08:42:58.000Z</time>
      </trkpt>
      <trkpt lat="47.27308" lon="-1.52887">
        <ele>6.7590942382812</ele>
        <time>2017-02-14T08:43:01.000Z</time>
      </trkpt>
      <trkpt lat="47.27309" lon="-1.52885">
        <ele>6.8236083984375</ele>
        <time>2017-02-14T08:43:03.000Z</time>
      </trkpt>
      <trkpt lat="47.2731" lon="-1.52883">
        <ele>6.8765258789062</ele>
        <time>2017-02-14T08:43:12.000Z</time>
      </trkpt>
      <trkpt lat="47.27309" lon="-1.52882">
        <ele>6.9232788085938</ele>
        <time>2017-02-14T08:43:22.000Z</time>
      </trkpt>
      <trkpt lat="47.2731" lon="-1.52881">
        <ele>6.9511108398438</ele>
        <time>2017-02-14T08:43:26.000Z</time>
      </trkpt>
      <trkpt lat="47.2731" lon="-1.52881">
        <ele>6.9511108398438</ele>
        <time>2017-02-14T08:43:46.000Z</time>
      </trkpt>
      <trkpt lat="47.27309" lon="-1.52879">
        <ele>6.97705078125</ele>
        <time>2017-02-14T08:43:52.000Z</time>
      </trkpt>
      <trkpt lat="47.27311" lon="-1.52877">
        <ele>6.9988403320312</ele>
        <time>2017-02-14T08:43:55.000Z</time>
      </trkpt>
      <trkpt lat="47.27309" lon="-1.52876">
        <ele>7.038818359375</ele>
        <time>2017-02-14T08:43:58.000Z</time>
      </trkpt>
      <trkpt lat="47.27308" lon="-1.52874">
        <ele>7.0848999023438</ele>
        <time>2017-02-14T08:44:00.000Z</time>
      </trkpt>
      <trkpt lat="47.2731" lon="-1.52876">
        <ele>7.1090698242188</ele>
        <time>2017-02-14T08:44:03.000Z</time>
      </trkpt>
      <trkpt lat="47.27309" lon="-1.52878">
        <ele>7.1172485351562</ele>
        <time>2017-02-14T08:44:05.000Z</time>
      </trkpt>
      <trkpt lat="47.2731" lon="-1.52881">
        <ele>7.1013793945312</ele>
        <time>2017-02-14T08:44:08.000Z</time>
      </trkpt>
      <trkpt lat="47.27312" lon="-1.52884">
        <ele>7.034423828125</ele>
        <time>2017-02-14T08:44:11.000Z</time>
      </trkpt>
      <trkpt lat="47.27315" lon="-1.52885">
        <ele>6.9144897460938</ele>
        <time>2017-02-14T08:44:13.000Z</time>
      </trkpt>
      <trkpt lat="47.27317" lon="-1.52886">
        <ele>6.8023681640625</ele>
        <time>2017-02-14T08:44:16.000Z</time>
      </trkpt>
      <trkpt lat="47.27318" lon="-1.52887">
        <ele>6.680419921875</ele>
        <time>2017-02-14T08:44:19.000Z</time>
      </trkpt>
      <trkpt lat="47.27319" lon="-1.52887">
        <ele>6.5678100585938</ele>
        <time>2017-02-14T08:44:21.000Z</time>
      </trkpt>
      <trkpt lat="47.27321" lon="-1.52887">
        <ele>6.469970703125</ele>
        <time>2017-02-14T08:44:24.000Z</time>
      </trkpt>
      <trkpt lat="47.27323" lon="-1.52891">
        <ele>6.3660888671875</ele>
        <time>2017-02-14T08:44:33.000Z</time>
      </trkpt>
      <trkpt lat="47.27324" lon="-1.52891">
        <ele>6.2697143554688</ele>
        <time>2017-02-14T08:44:39.000Z</time>
      </trkpt>
      <trkpt lat="47.27324" lon="-1.52891">
        <ele>6.2697143554688</ele>
        <time>2017-02-14T08:44:59.000Z</time>
      </trkpt>
      <trkpt lat="47.27325" lon="-1.52895">
        <ele>6.1551513671875</ele>
        <time>2017-02-14T08:45:41.000Z</time>
      </trkpt>
      <trkpt lat="47.27328" lon="-1.52894">
        <ele>6.030517578125</ele>
        <time>2017-02-14T08:45:44.000Z</time>
      </trkpt>
      <trkpt lat="47.27331" lon="-1.52894">
        <ele>5.90185546875</ele>
        <time>2017-02-14T08:45:47.000Z</time>
      </trkpt>
      <trkpt lat="47.27333" lon="-1.52897">
        <ele>5.7813720703125</ele>
        <time>2017-02-14T08:45:50.000Z</time>
      </trkpt>
      <trkpt lat="47.27332" lon="-1.52898">
        <ele>5.67919921875</ele>
        <time>2017-02-14T08:46:01.000Z</time>
      </trkpt>
      <trkpt lat="47.2733" lon="-1.52897">
        <ele>5.626708984375</ele>
        <time>2017-02-14T08:46:04.000Z</time>
      </trkpt>
      <trkpt lat="47.2733" lon="-1.52893">
        <ele>5.6134033203125</ele>
        <time>2017-02-14T08:46:20.000Z</time>
      </trkpt>
      <trkpt lat="47.27328" lon="-1.52891">
        <ele>5.6553344726562</ele>
        <time>2017-02-14T08:46:22.000Z</time>
      </trkpt>
      <trkpt lat="47.27333" lon="-1.52892">
        <ele>5.6793212890625</ele>
        <time>2017-02-14T08:47:02.000Z</time>
      </trkpt>
      <trkpt lat="47.27333" lon="-1.52893">
        <ele>5.6853742599487</ele>
        <time>2017-02-14T08:47:04.000Z</time>
      </trkpt>
      <trkpt lat="47.27336" lon="-1.52893">
        <ele>5.6823129653931</ele>
        <time>2017-02-14T08:47:07.000Z</time>
      </trkpt>
      <trkpt lat="47.27338" lon="-1.52891">
        <ele>5.6851243972778</ele>
        <time>2017-02-14T08:47:10.000Z</time>
      </trkpt>
      <trkpt lat="47.2734" lon="-1.52889">
        <ele>5.6753873825073</ele>
        <time>2017-02-14T08:47:12.000Z</time>
      </trkpt>
      <trkpt lat="47.27343" lon="-1.52886">
        <ele>5.7447881698608</ele>
        <time>2017-02-14T08:47:15.000Z</time>
      </trkpt>
      <trkpt lat="47.27344" lon="-1.52885">
        <ele>5.8400139808655</ele>
        <time>2017-02-14T08:47:18.000Z</time>
      </trkpt>
      <trkpt lat="47.27346" lon="-1.52885">
        <ele>5.9331941604614</ele>
        <time>2017-02-14T08:47:20.000Z</time>
      </trkpt>
      <trkpt lat="47.27348" lon="-1.52885">
        <ele>6.0137491226196</ele>
        <time>2017-02-14T08:47:23.000Z</time>
      </trkpt>
      <trkpt lat="47.27352" lon="-1.52884">
        <ele>6.1083326339722</ele>
        <time>2017-02-14T08:47:26.000Z</time>
      </trkpt>
      <trkpt lat="47.27355" lon="-1.52882">
        <ele>6.1975946426392</ele>
        <time>2017-02-14T08:47:29.000Z</time>
      </trkpt>
      <trkpt lat="47.27359" lon="-1.52882">
        <ele>6.2931890487671</ele>
        <time>2017-02-14T08:47:32.000Z</time>
      </trkpt>
      <trkpt lat="47.27363" lon="-1.52882">
        <ele>6.4026212692261</ele>
        <time>2017-02-14T08:47:35.000Z</time>
      </trkpt>
      <trkpt lat="47.27367" lon="-1.52882">
        <ele>6.5226697921753</ele>
        <time>2017-02-14T08:47:38.000Z</time>
      </trkpt>
      <trkpt lat="47.2737" lon="-1.5288">
        <ele>6.6461324691772</ele>
        <time>2017-02-14T08:47:41.000Z</time>
      </trkpt>
      <trkpt lat="47.27374" lon="-1.52877">
        <ele>6.7871360778809</ele>
        <time>2017-02-14T08:47:44.000Z</time>
      </trkpt>
      <trkpt lat="47.27377" lon="-1.52876">
        <ele>6.9383592605591</ele>
        <time>2017-02-14T08:47:47.000Z</time>
      </trkpt>
      <trkpt lat="47.27378" lon="-1.52875">
        <ele>7.0845756530762</ele>
        <time>2017-02-14T08:47:49.000Z</time>
      </trkpt>
      <trkpt lat="47.27379" lon="-1.52872">
        <ele>7.2351784706116</ele>
        <time>2017-02-14T08:47:52.000Z</time>
      </trkpt>
      <trkpt lat="47.27382" lon="-1.5287">
        <ele>7.3893690109253</ele>
        <time>2017-02-14T08:47:54.000Z</time>
      </trkpt>
      <trkpt lat="47.27384" lon="-1.52869">
        <ele>7.5272207260132</ele>
        <time>2017-02-14T08:47:56.000Z</time>
      </trkpt>
      <trkpt lat="47.27387" lon="-1.52867">
        <ele>7.6688919067383</ele>
        <time>2017-02-14T08:47:59.000Z</time>
      </trkpt>
      <trkpt lat="47.27389" lon="-1.52865">
        <ele>7.8281888961792</ele>
        <time>2017-02-14T08:48:01.000Z</time>
      </trkpt>
      <trkpt lat="47.27391" lon="-1.52863">
        <ele>7.9956312179565</ele>
        <time>2017-02-14T08:48:04.000Z</time>
      </trkpt>
      <trkpt lat="47.27393" lon="-1.52862">
        <ele>8.141695022583</ele>
        <time>2017-02-14T08:48:06.000Z</time>
      </trkpt>
      <trkpt lat="47.27396" lon="-1.5286">
        <ele>8.3067255020142</ele>
        <time>2017-02-14T08:48:09.000Z</time>
      </trkpt>
      <trkpt lat="47.27398" lon="-1.52859">
        <ele>8.4662961959839</ele>
        <time>2017-02-14T08:48:11.000Z</time>
      </trkpt>
      <trkpt lat="47.27402" lon="-1.52855">
        <ele>8.6633405685425</ele>
        <time>2017-02-14T08:48:14.000Z</time>
      </trkpt>
      <trkpt lat="47.27404" lon="-1.52853">
        <ele>8.8665351867676</ele>
        <time>2017-02-14T08:48:16.000Z</time>
      </trkpt>
      <trkpt lat="47.27407" lon="-1.52851">
        <ele>9.1009769439697</ele>
        <time>2017-02-14T08:48:18.000Z</time>
      </trkpt>
      <trkpt lat="47.27411" lon="-1.52849">
        <ele>9.3280658721924</ele>
        <time>2017-02-14T08:48:21.000Z</time>
      </trkpt>
      <trkpt lat="47.27412" lon="-1.52848">
        <ele>9.5487461090088</ele>
        <time>2017-02-14T08:48:23.000Z</time>
      </trkpt>
      <trkpt lat="47.27414" lon="-1.52847">
        <ele>9.7354106903076</ele>
        <time>2017-02-14T08:48:26.000Z</time>
      </trkpt>
      <trkpt lat="47.27417" lon="-1.52845">
        <ele>9.917947769165</ele>
        <time>2017-02-14T08:48:28.000Z</time>
      </trkpt>
      <trkpt lat="47.2742" lon="-1.52844">
        <ele>10.033612251282</ele>
        <time>2017-02-14T08:48:31.000Z</time>
      </trkpt>
      <trkpt lat="47.27423" lon="-1.52841">
        <ele>10.099462509155</ele>
        <time>2017-02-14T08:48:33.000Z</time>
      </trkpt>
      <trkpt lat="47.27427" lon="-1.52838">
        <ele>10.125478744507</ele>
        <time>2017-02-14T08:48:36.000Z</time>
      </trkpt>
      <trkpt lat="47.27431" lon="-1.52835">
        <ele>10.080354690552</ele>
        <time>2017-02-14T08:48:39.000Z</time>
      </trkpt>
      <trkpt lat="47.27435" lon="-1.52834">
        <ele>9.9575853347778</ele>
        <time>2017-02-14T08:48:42.000Z</time>
      </trkpt>
      <trkpt lat="47.27439" lon="-1.52832">
        <ele>9.7989101409912</ele>
        <time>2017-02-14T08:48:45.000Z</time>
      </trkpt>
      <trkpt lat="47.27442" lon="-1.5283">
        <ele>9.6119728088379</ele>
        <time>2017-02-14T08:48:47.000Z</time>
      </trkpt>
      <trkpt lat="47.27447" lon="-1.52827">
        <ele>9.374303817749</ele>
        <time>2017-02-14T08:48:50.000Z</time>
      </trkpt>
      <trkpt lat="47.2745" lon="-1.52825">
        <ele>9.1276807785034</ele>
        <time>2017-02-14T08:48:52.000Z</time>
      </trkpt>
      <trkpt lat="47.27453" lon="-1.52822">
        <ele>8.88991355896</ele>
        <time>2017-02-14T08:48:55.000Z</time>
      </trkpt>
      <trkpt lat="47.27456" lon="-1.5282">
        <ele>8.6633682250977</ele>
        <time>2017-02-14T08:48:58.000Z</time>
      </trkpt>
      <trkpt lat="47.27458" lon="-1.52818">
        <ele>8.4508037567139</ele>
        <time>2017-02-14T08:49:00.000Z</time>
      </trkpt>
      <trkpt lat="47.2746" lon="-1.52814">
        <ele>8.2818050384521</ele>
        <time>2017-02-14T08:49:03.000Z</time>
      </trkpt>
      <trkpt lat="47.27464" lon="-1.5281">
        <ele>8.1180009841919</ele>
        <time>2017-02-14T08:49:06.000Z</time>
      </trkpt>
      <trkpt lat="47.27468" lon="-1.52807">
        <ele>7.9223189353943</ele>
        <time>2017-02-14T08:49:09.000Z</time>
      </trkpt>
      <trkpt lat="47.27471" lon="-1.52806">
        <ele>7.7395262718201</ele>
        <time>2017-02-14T08:49:11.000Z</time>
      </trkpt>
      <trkpt lat="47.27473" lon="-1.52802">
        <ele>7.5545530319214</ele>
        <time>2017-02-14T08:49:13.000Z</time>
      </trkpt>
      <trkpt lat="47.27475" lon="-1.52798">
        <ele>7.3787155151367</ele>
        <time>2017-02-14T08:49:16.000Z</time>
      </trkpt>
      <trkpt lat="47.27476" lon="-1.52795">
        <ele>7.2362112998962</ele>
        <time>2017-02-14T08:49:18.000Z</time>
      </trkpt>
      <trkpt lat="47.27478" lon="-1.52791">
        <ele>7.1268510818481</ele>
        <time>2017-02-14T08:49:21.000Z</time>
      </trkpt>
      <trkpt lat="47.2748" lon="-1.52786">
        <ele>7.0308814048767</ele>
        <time>2017-02-14T08:49:24.000Z</time>
      </trkpt>
      <trkpt lat="47.27482" lon="-1.52781">
        <ele>6.9549789428711</ele>
        <time>2017-02-14T08:49:26.000Z</time>
      </trkpt>
      <trkpt lat="47.27484" lon="-1.52777">
        <ele>6.8713979721069</ele>
        <time>2017-02-14T08:49:29.000Z</time>
      </trkpt>
      <trkpt lat="47.27486" lon="-1.52773">
        <ele>6.7792558670044</ele>
        <time>2017-02-14T08:49:31.000Z</time>
      </trkpt>
      <trkpt lat="47.27488" lon="-1.52769">
        <ele>6.7000823020935</ele>
        <time>2017-02-14T08:49:34.000Z</time>
      </trkpt>
      <trkpt lat="47.27489" lon="-1.52766">
        <ele>6.6252183914185</ele>
        <time>2017-02-14T08:49:36.000Z</time>
      </trkpt>
      <trkpt lat="47.27492" lon="-1.5276">
        <ele>6.5348906517029</ele>
        <time>2017-02-14T08:49:39.000Z</time>
      </trkpt>
      <trkpt lat="47.27494" lon="-1.52756">
        <ele>6.4617552757263</ele>
        <time>2017-02-14T08:49:42.000Z</time>
      </trkpt>
      <trkpt lat="47.27494" lon="-1.52751">
        <ele>6.4036989212036</ele>
        <time>2017-02-14T08:49:45.000Z</time>
      </trkpt>
      <trkpt lat="47.27496" lon="-1.52743">
        <ele>6.3246202468872</ele>
        <time>2017-02-14T08:49:48.000Z</time>
      </trkpt>
      <trkpt lat="47.27497" lon="-1.52739">
        <ele>6.2391505241394</ele>
        <time>2017-02-14T08:49:50.000Z</time>
      </trkpt>
      <trkpt lat="47.27498" lon="-1.52735">
        <ele>6.1574048995972</ele>
        <time>2017-02-14T08:49:52.000Z</time>
      </trkpt>
      <trkpt lat="47.27501" lon="-1.5273">
        <ele>6.0387015342712</ele>
        <time>2017-02-14T08:49:55.000Z</time>
      </trkpt>
      <trkpt lat="47.27504" lon="-1.52725">
        <ele>5.8849496841431</ele>
        <time>2017-02-14T08:49:58.000Z</time>
      </trkpt>
      <trkpt lat="47.27505" lon="-1.52721">
        <ele>5.7454767227173</ele>
        <time>2017-02-14T08:50:00.000Z</time>
      </trkpt>
      <trkpt lat="47.27506" lon="-1.52718">
        <ele>5.6089429855347</ele>
        <time>2017-02-14T08:50:02.000Z</time>
      </trkpt>
      <trkpt lat="47.27509" lon="-1.52714">
        <ele>5.4520969390869</ele>
        <time>2017-02-14T08:50:05.000Z</time>
      </trkpt>
      <trkpt lat="47.27511" lon="-1.5271">
        <ele>5.3035464286804</ele>
        <time>2017-02-14T08:50:07.000Z</time>
      </trkpt>
      <trkpt lat="47.27514" lon="-1.52705">
        <ele>5.149863243103</ele>
        <time>2017-02-14T08:50:10.000Z</time>
      </trkpt>
      <trkpt lat="47.27515" lon="-1.52702">
        <ele>4.9858460426331</ele>
        <time>2017-02-14T08:50:12.000Z</time>
      </trkpt>
      <trkpt lat="47.27518" lon="-1.52698">
        <ele>4.7966465950012</ele>
        <time>2017-02-14T08:50:15.000Z</time>
      </trkpt>
      <trkpt lat="47.2752" lon="-1.52695">
        <ele>4.6056747436523</ele>
        <time>2017-02-14T08:50:17.000Z</time>
      </trkpt>
      <trkpt lat="47.27523" lon="-1.5269">
        <ele>4.3921003341675</ele>
        <time>2017-02-14T08:50:20.000Z</time>
      </trkpt>
      <trkpt lat="47.27525" lon="-1.52685">
        <ele>4.1657876968384</ele>
        <time>2017-02-14T08:50:23.000Z</time>
      </trkpt>
      <trkpt lat="47.27526" lon="-1.5268">
        <ele>3.9318218231201</ele>
        <time>2017-02-14T08:50:26.000Z</time>
      </trkpt>
      <trkpt lat="47.27527" lon="-1.52674">
        <ele>3.698714017868</ele>
        <time>2017-02-14T08:50:29.000Z</time>
      </trkpt>
      <trkpt lat="47.27528" lon="-1.5267">
        <ele>3.4741413593292</ele>
        <time>2017-02-14T08:50:31.000Z</time>
      </trkpt>
      <trkpt lat="47.27529" lon="-1.52666">
        <ele>3.2775168418884</ele>
        <time>2017-02-14T08:50:33.000Z</time>
      </trkpt>
      <trkpt lat="47.2753" lon="-1.5266">
        <ele>3.1579082012177</ele>
        <time>2017-02-14T08:50:36.000Z</time>
      </trkpt>
      <trkpt lat="47.27532" lon="-1.52657">
        <ele>3.0783357620239</ele>
        <time>2017-02-14T08:50:38.000Z</time>
      </trkpt>
      <trkpt lat="47.27535" lon="-1.52652">
        <ele>3.0426685810089</ele>
        <time>2017-02-14T08:50:41.000Z</time>
      </trkpt>
      <trkpt lat="47.27536" lon="-1.5265">
        <ele>3.0440783500671</ele>
        <time>2017-02-14T08:50:43.000Z</time>
      </trkpt>
      <trkpt lat="47.2754" lon="-1.52647">
        <ele>3.0596792697906</ele>
        <time>2017-02-14T08:50:46.000Z</time>
      </trkpt>
      <trkpt lat="47.27543" lon="-1.52641">
        <ele>3.0792939662933</ele>
        <time>2017-02-14T08:50:49.000Z</time>
      </trkpt>
      <trkpt lat="47.27545" lon="-1.52635">
        <ele>3.1485056877136</ele>
        <time>2017-02-14T08:50:52.000Z</time>
      </trkpt>
      <trkpt lat="47.27546" lon="-1.52632">
        <ele>3.2386257648468</ele>
        <time>2017-02-14T08:50:54.000Z</time>
      </trkpt>
      <trkpt lat="47.27547" lon="-1.52628">
        <ele>3.3613982200623</ele>
        <time>2017-02-14T08:50:57.000Z</time>
      </trkpt>
      <trkpt lat="47.27548" lon="-1.52626">
        <ele>3.5160109996796</ele>
        <time>2017-02-14T08:50:59.000Z</time>
      </trkpt>
      <trkpt lat="47.27549" lon="-1.52622">
        <ele>3.6772391796112</ele>
        <time>2017-02-14T08:51:01.000Z</time>
      </trkpt>
      <trkpt lat="47.27552" lon="-1.52616">
        <ele>3.8533911705017</ele>
        <time>2017-02-14T08:51:04.000Z</time>
      </trkpt>
      <trkpt lat="47.27553" lon="-1.5261">
        <ele>4.0760183334351</ele>
        <time>2017-02-14T08:51:07.000Z</time>
      </trkpt>
      <trkpt lat="47.27555" lon="-1.52604">
        <ele>4.3432855606079</ele>
        <time>2017-02-14T08:51:10.000Z</time>
      </trkpt>
      <trkpt lat="47.27556" lon="-1.52598">
        <ele>4.6686625480652</ele>
        <time>2017-02-14T08:51:13.000Z</time>
      </trkpt>
      <trkpt lat="47.27558" lon="-1.52592">
        <ele>5.0411901473999</ele>
        <time>2017-02-14T08:51:16.000Z</time>
      </trkpt>
      <trkpt lat="47.27559" lon="-1.52586">
        <ele>5.4311394691467</ele>
        <time>2017-02-14T08:51:19.000Z</time>
      </trkpt>
      <trkpt lat="47.2756" lon="-1.5258">
        <ele>5.8064475059509</ele>
        <time>2017-02-14T08:51:22.000Z</time>
      </trkpt>
      <trkpt lat="47.27561" lon="-1.52574">
        <ele>6.1297526359558</ele>
        <time>2017-02-14T08:51:25.000Z</time>
      </trkpt>
      <trkpt lat="47.27562" lon="-1.52569">
        <ele>6.4041380882263</ele>
        <time>2017-02-14T08:51:28.000Z</time>
      </trkpt>
      <trkpt lat="47.27563" lon="-1.52566">
        <ele>6.6141419410706</ele>
        <time>2017-02-14T08:51:30.000Z</time>
      </trkpt>
      <trkpt lat="47.27565" lon="-1.52559">
        <ele>6.7768874168396</ele>
        <time>2017-02-14T08:51:33.000Z</time>
      </trkpt>
      <trkpt lat="47.27566" lon="-1.52553">
        <ele>6.9096250534058</ele>
        <time>2017-02-14T08:51:36.000Z</time>
      </trkpt>
      <trkpt lat="47.27567" lon="-1.52549">
        <ele>7.0305609703064</ele>
        <time>2017-02-14T08:51:38.000Z</time>
      </trkpt>
      <trkpt lat="47.27568" lon="-1.52545">
        <ele>7.1417326927185</ele>
        <time>2017-02-14T08:51:40.000Z</time>
      </trkpt>
      <trkpt lat="47.27568" lon="-1.5254">
        <ele>7.2537307739258</ele>
        <time>2017-02-14T08:51:43.000Z</time>
      </trkpt>
      <trkpt lat="47.27569" lon="-1.52537">
        <ele>7.3443880081177</ele>
        <time>2017-02-14T08:51:46.000Z</time>
      </trkpt>
      <trkpt lat="47.27573" lon="-1.52536">
        <ele>7.4152269363403</ele>
        <time>2017-02-14T08:51:49.000Z</time>
      </trkpt>
      <trkpt lat="47.27576" lon="-1.52535">
        <ele>7.4741907119751</ele>
        <time>2017-02-14T08:51:51.000Z</time>
      </trkpt>
      <trkpt lat="47.27581" lon="-1.52535">
        <ele>7.5204172134399</ele>
        <time>2017-02-14T08:51:54.000Z</time>
      </trkpt>
      <trkpt lat="47.27586" lon="-1.52535">
        <ele>7.5581893920898</ele>
        <time>2017-02-14T08:51:57.000Z</time>
      </trkpt>
      <trkpt lat="47.2759" lon="-1.52535">
        <ele>7.597891330719</ele>
        <time>2017-02-14T08:51:59.000Z</time>
      </trkpt>
      <trkpt lat="47.27592" lon="-1.52534">
        <ele>7.6374006271362</ele>
        <time>2017-02-14T08:52:01.000Z</time>
      </trkpt>
      <trkpt lat="47.27594" lon="-1.52535">
        <ele>7.677140712738</ele>
        <time>2017-02-14T08:52:04.000Z</time>
      </trkpt>
      <trkpt lat="47.27596" lon="-1.52537">
        <ele>7.717755317688</ele>
        <time>2017-02-14T08:52:06.000Z</time>
      </trkpt>
      <trkpt lat="47.27599" lon="-1.52539">
        <ele>7.7540063858032</ele>
        <time>2017-02-14T08:52:09.000Z</time>
      </trkpt>
      <trkpt lat="47.27602" lon="-1.5254">
        <ele>7.7835211753845</ele>
        <time>2017-02-14T08:52:11.000Z</time>
      </trkpt>
      <trkpt lat="47.27604" lon="-1.52542">
        <ele>7.8124251365662</ele>
        <time>2017-02-14T08:52:13.000Z</time>
      </trkpt>
      <trkpt lat="47.27607" lon="-1.52544">
        <ele>7.8425264358521</ele>
        <time>2017-02-14T08:52:16.000Z</time>
      </trkpt>
      <trkpt lat="47.2761" lon="-1.52547">
        <ele>7.8717141151428</ele>
        <time>2017-02-14T08:52:19.000Z</time>
      </trkpt>
      <trkpt lat="47.27611" lon="-1.52549">
        <ele>7.8971710205078</ele>
        <time>2017-02-14T08:52:21.000Z</time>
      </trkpt>
      <trkpt lat="47.27613" lon="-1.52552">
        <ele>7.9210066795349</ele>
        <time>2017-02-14T08:52:24.000Z</time>
      </trkpt>
      <trkpt lat="47.27615" lon="-1.52554">
        <ele>7.9437637329102</ele>
        <time>2017-02-14T08:52:26.000Z</time>
      </trkpt>
      <trkpt lat="47.27617" lon="-1.52556">
        <ele>7.9620542526245</ele>
        <time>2017-02-14T08:52:29.000Z</time>
      </trkpt>
      <trkpt lat="47.27618" lon="-1.5256">
        <ele>7.9753952026367</ele>
        <time>2017-02-14T08:52:32.000Z</time>
      </trkpt>
      <trkpt lat="47.2762" lon="-1.52564">
        <ele>7.9888367652893</ele>
        <time>2017-02-14T08:52:35.000Z</time>
      </trkpt>
      <trkpt lat="47.27621" lon="-1.52567">
        <ele>7.9999504089355</ele>
        <time>2017-02-14T08:52:37.000Z</time>
      </trkpt>
      <trkpt lat="47.27623" lon="-1.52569">
        <ele>8.0094203948975</ele>
        <time>2017-02-14T08:52:39.000Z</time>
      </trkpt>
      <trkpt lat="47.27625" lon="-1.52569">
        <ele>8.0264091491699</ele>
        <time>2017-02-14T08:52:42.000Z</time>
      </trkpt>
      <trkpt lat="47.27626" lon="-1.52567">
        <ele>8.0538711547852</ele>
        <time>2017-02-14T08:52:44.000Z</time>
      </trkpt>
      <trkpt lat="47.27627" lon="-1.52561">
        <ele>8.0874519348145</ele>
        <time>2017-02-14T08:52:47.000Z</time>
      </trkpt>
      <trkpt lat="47.27625" lon="-1.52557">
        <ele>8.1170024871826</ele>
        <time>2017-02-14T08:52:49.000Z</time>
      </trkpt>
      <trkpt lat="47.27623" lon="-1.52553">
        <ele>8.1404266357422</ele>
        <time>2017-02-14T08:52:51.000Z</time>
      </trkpt>
      <trkpt lat="47.2762" lon="-1.5255">
        <ele>8.1469030380249</ele>
        <time>2017-02-14T08:52:54.000Z</time>
      </trkpt>
      <trkpt lat="47.27617" lon="-1.52546">
        <ele>8.1356334686279</ele>
        <time>2017-02-14T08:52:57.000Z</time>
      </trkpt>
      <trkpt lat="47.27615" lon="-1.52543">
        <ele>8.1114196777344</ele>
        <time>2017-02-14T08:52:59.000Z</time>
      </trkpt>
      <trkpt lat="47.27612" lon="-1.5254">
        <ele>8.0821971893311</ele>
        <time>2017-02-14T08:53:02.000Z</time>
      </trkpt>
      <trkpt lat="47.27609" lon="-1.52539">
        <ele>8.0496845245361</ele>
        <time>2017-02-14T08:53:04.000Z</time>
      </trkpt>
      <trkpt lat="47.27606" lon="-1.52537">
        <ele>8.016263961792</ele>
        <time>2017-02-14T08:53:07.000Z</time>
      </trkpt>
      <trkpt lat="47.27602" lon="-1.52535">
        <ele>7.9812521934509</ele>
        <time>2017-02-14T08:53:10.000Z</time>
      </trkpt>
      <trkpt lat="47.27598" lon="-1.52533">
        <ele>7.9404954910278</ele>
        <time>2017-02-14T08:53:13.000Z</time>
      </trkpt>
      <trkpt lat="47.27596" lon="-1.52531">
        <ele>7.9032959938049</ele>
        <time>2017-02-14T08:53:15.000Z</time>
      </trkpt>
      <trkpt lat="47.27592" lon="-1.52528">
        <ele>7.8659858703613</ele>
        <time>2017-02-14T08:53:18.000Z</time>
      </trkpt>
      <trkpt lat="47.27589" lon="-1.52525">
        <ele>7.8328895568848</ele>
        <time>2017-02-14T08:53:21.000Z</time>
      </trkpt>
      <trkpt lat="47.27585" lon="-1.52522">
        <ele>7.8033165931702</ele>
        <time>2017-02-14T08:53:24.000Z</time>
      </trkpt>
      <trkpt lat="47.27583" lon="-1.52521">
        <ele>7.7838754653931</ele>
        <time>2017-02-14T08:53:26.000Z</time>
      </trkpt>
      <trkpt lat="47.2758" lon="-1.52516">
        <ele>7.7811918258667</ele>
        <time>2017-02-14T08:53:29.000Z</time>
      </trkpt>
      <trkpt lat="47.27578" lon="-1.52513">
        <ele>7.797022819519</ele>
        <time>2017-02-14T08:53:31.000Z</time>
      </trkpt>
      <trkpt lat="47.27577" lon="-1.5251">
        <ele>7.8277297019958</ele>
        <time>2017-02-14T08:53:33.000Z</time>
      </trkpt>
      <trkpt lat="47.27572" lon="-1.52507">
        <ele>7.8819551467896</ele>
        <time>2017-02-14T08:53:36.000Z</time>
      </trkpt>
      <trkpt lat="47.27569" lon="-1.52505">
        <ele>7.9483895301819</ele>
        <time>2017-02-14T08:53:38.000Z</time>
      </trkpt>
      <trkpt lat="47.27567" lon="-1.52503">
        <ele>8.0127792358398</ele>
        <time>2017-02-14T08:53:40.000Z</time>
      </trkpt>
      <trkpt lat="47.27563" lon="-1.52499">
        <ele>8.0986299514771</ele>
        <time>2017-02-14T08:53:43.000Z</time>
      </trkpt>
      <trkpt lat="47.2756" lon="-1.52496">
        <ele>8.207407951355</ele>
        <time>2017-02-14T08:53:45.000Z</time>
      </trkpt>
      <trkpt lat="47.27558" lon="-1.52494">
        <ele>8.3274631500244</ele>
        <time>2017-02-14T08:53:47.000Z</time>
      </trkpt>
      <trkpt lat="47.27556" lon="-1.52492">
        <ele>8.4647645950317</ele>
        <time>2017-02-14T08:53:49.000Z</time>
      </trkpt>
      <trkpt lat="47.27553" lon="-1.52488">
        <ele>8.6350002288818</ele>
        <time>2017-02-14T08:53:52.000Z</time>
      </trkpt>
      <trkpt lat="47.27551" lon="-1.52486">
        <ele>8.7981996536255</ele>
        <time>2017-02-14T08:53:54.000Z</time>
      </trkpt>
      <trkpt lat="47.27549" lon="-1.52483">
        <ele>8.9604387283325</ele>
        <time>2017-02-14T08:53:56.000Z</time>
      </trkpt>
      <trkpt lat="47.27546" lon="-1.52478">
        <ele>9.1455307006836</ele>
        <time>2017-02-14T08:53:59.000Z</time>
      </trkpt>
      <trkpt lat="47.27544" lon="-1.52473">
        <ele>9.3507690429688</ele>
        <time>2017-02-14T08:54:02.000Z</time>
      </trkpt>
      <trkpt lat="47.27542" lon="-1.52467">
        <ele>9.5683031082153</ele>
        <time>2017-02-14T08:54:05.000Z</time>
      </trkpt>
      <trkpt lat="47.27541" lon="-1.52462">
        <ele>9.8119297027588</ele>
        <time>2017-02-14T08:54:08.000Z</time>
      </trkpt>
      <trkpt lat="47.2754" lon="-1.52458">
        <ele>10.055766105652</ele>
        <time>2017-02-14T08:54:10.000Z</time>
      </trkpt>
      <trkpt lat="47.27539" lon="-1.52453">
        <ele>10.295580863953</ele>
        <time>2017-02-14T08:54:13.000Z</time>
      </trkpt>
      <trkpt lat="47.27537" lon="-1.52447">
        <ele>10.54089641571</ele>
        <time>2017-02-14T08:54:16.000Z</time>
      </trkpt>
      <trkpt lat="47.27537" lon="-1.52443">
        <ele>10.76486492157</ele>
        <time>2017-02-14T08:54:18.000Z</time>
      </trkpt>
      <trkpt lat="47.27536" lon="-1.5244">
        <ele>10.969476699829</ele>
        <time>2017-02-14T08:54:20.000Z</time>
      </trkpt>
      <trkpt lat="47.27536" lon="-1.52435">
        <ele>11.181078910828</ele>
        <time>2017-02-14T08:54:22.000Z</time>
      </trkpt>
      <trkpt lat="47.27536" lon="-1.52429">
        <ele>11.402588844299</ele>
        <time>2017-02-14T08:54:25.000Z</time>
      </trkpt>
      <trkpt lat="47.27534" lon="-1.52423">
        <ele>11.620050430298</ele>
        <time>2017-02-14T08:54:28.000Z</time>
      </trkpt>
      <trkpt lat="47.27534" lon="-1.52418">
        <ele>11.850965499878</ele>
        <time>2017-02-14T08:54:31.000Z</time>
      </trkpt>
      <trkpt lat="47.27533" lon="-1.52414">
        <ele>12.079768180847</ele>
        <time>2017-02-14T08:54:33.000Z</time>
      </trkpt>
      <trkpt lat="47.27533" lon="-1.52411">
        <ele>12.291473388672</ele>
        <time>2017-02-14T08:54:35.000Z</time>
      </trkpt>
      <trkpt lat="47.27531" lon="-1.52405">
        <ele>12.494096755981</ele>
        <time>2017-02-14T08:54:38.000Z</time>
      </trkpt>
      <trkpt lat="47.2753" lon="-1.52399">
        <ele>12.688649177551</ele>
        <time>2017-02-14T08:54:41.000Z</time>
      </trkpt>
      <trkpt lat="47.2753" lon="-1.52395">
        <ele>12.865133285522</ele>
        <time>2017-02-14T08:54:43.000Z</time>
      </trkpt>
      <trkpt lat="47.27529" lon="-1.52389">
        <ele>13.056039810181</ele>
        <time>2017-02-14T08:54:46.000Z</time>
      </trkpt>
      <trkpt lat="47.27529" lon="-1.52385">
        <ele>13.256032943726</ele>
        <time>2017-02-14T08:54:48.000Z</time>
      </trkpt>
      <trkpt lat="47.27528" lon="-1.5238">
        <ele>13.448191642761</ele>
        <time>2017-02-14T08:54:51.000Z</time>
      </trkpt>
      <trkpt lat="47.27528" lon="-1.52375">
        <ele>13.630716323853</ele>
        <time>2017-02-14T08:54:53.000Z</time>
      </trkpt>
      <trkpt lat="47.27526" lon="-1.52369">
        <ele>13.82373046875</ele>
        <time>2017-02-14T08:54:56.000Z</time>
      </trkpt>
      <trkpt lat="47.27526" lon="-1.52365">
        <ele>14.004821777344</ele>
        <time>2017-02-14T08:54:58.000Z</time>
      </trkpt>
      <trkpt lat="47.27525" lon="-1.52361">
        <ele>14.180612564087</ele>
        <time>2017-02-14T08:55:00.000Z</time>
      </trkpt>
      <trkpt lat="47.27524" lon="-1.52357">
        <ele>14.343233108521</ele>
        <time>2017-02-14T08:55:02.000Z</time>
      </trkpt>
      <trkpt lat="47.27522" lon="-1.52351">
        <ele>14.508827209473</ele>
        <time>2017-02-14T08:55:05.000Z</time>
      </trkpt>
      <trkpt lat="47.27521" lon="-1.52348">
        <ele>14.656232833862</ele>
        <time>2017-02-14T08:55:07.000Z</time>
      </trkpt>
      <trkpt lat="47.2752" lon="-1.52345">
        <ele>14.788805961609</ele>
        <time>2017-02-14T08:55:09.000Z</time>
      </trkpt>
      <trkpt lat="47.27518" lon="-1.52341">
        <ele>14.916007995605</ele>
        <time>2017-02-14T08:55:11.000Z</time>
      </trkpt>
      <trkpt lat="47.27517" lon="-1.52335">
        <ele>15.054487228394</ele>
        <time>2017-02-14T08:55:14.000Z</time>
      </trkpt>
      <trkpt lat="47.27515" lon="-1.52331">
        <ele>15.173352241516</ele>
        <time>2017-02-14T08:55:16.000Z</time>
      </trkpt>
      <trkpt lat="47.27513" lon="-1.52326">
        <ele>15.290585517883</ele>
        <time>2017-02-14T08:55:19.000Z</time>
      </trkpt>
      <trkpt lat="47.27511" lon="-1.52323">
        <ele>15.40448474884</ele>
        <time>2017-02-14T08:55:21.000Z</time>
      </trkpt>
      <trkpt lat="47.2751" lon="-1.5232">
        <ele>15.512843132019</ele>
        <time>2017-02-14T08:55:23.000Z</time>
      </trkpt>
      <trkpt lat="47.27509" lon="-1.52316">
        <ele>15.606575012207</ele>
        <time>2017-02-14T08:55:25.000Z</time>
      </trkpt>
      <trkpt lat="47.27506" lon="-1.5231">
        <ele>15.715034484863</ele>
        <time>2017-02-14T08:55:28.000Z</time>
      </trkpt>
      <trkpt lat="47.27505" lon="-1.52306">
        <ele>15.824151992798</ele>
        <time>2017-02-14T08:55:30.000Z</time>
      </trkpt>
      <trkpt lat="47.27503" lon="-1.52302">
        <ele>15.936433792114</ele>
        <time>2017-02-14T08:55:32.000Z</time>
      </trkpt>
      <trkpt lat="47.27501" lon="-1.52297">
        <ele>16.06488609314</ele>
        <time>2017-02-14T08:55:35.000Z</time>
      </trkpt>
      <trkpt lat="47.275" lon="-1.52294">
        <ele>16.189828872681</ele>
        <time>2017-02-14T08:55:37.000Z</time>
      </trkpt>
      <trkpt lat="47.27499" lon="-1.52291">
        <ele>16.292984008789</ele>
        <time>2017-02-14T08:55:39.000Z</time>
      </trkpt>
      <trkpt lat="47.27497" lon="-1.52287">
        <ele>16.38610458374</ele>
        <time>2017-02-14T08:55:42.000Z</time>
      </trkpt>
      <trkpt lat="47.27494" lon="-1.52281">
        <ele>16.480983734131</ele>
        <time>2017-02-14T08:55:45.000Z</time>
      </trkpt>
      <trkpt lat="47.27493" lon="-1.52276">
        <ele>16.57074546814</ele>
        <time>2017-02-14T08:55:48.000Z</time>
      </trkpt>
      <trkpt lat="47.27491" lon="-1.52271">
        <ele>16.666669845581</ele>
        <time>2017-02-14T08:55:51.000Z</time>
      </trkpt>
      <trkpt lat="47.27489" lon="-1.52266">
        <ele>16.775156021118</ele>
        <time>2017-02-14T08:55:54.000Z</time>
      </trkpt>
      <trkpt lat="47.27488" lon="-1.52262">
        <ele>16.884220123291</ele>
        <time>2017-02-14T08:55:56.000Z</time>
      </trkpt>
      <trkpt lat="47.27485" lon="-1.52258">
        <ele>16.986173629761</ele>
        <time>2017-02-14T08:55:59.000Z</time>
      </trkpt>
      <trkpt lat="47.27483" lon="-1.52254">
        <ele>17.074993133545</ele>
        <time>2017-02-14T08:56:01.000Z</time>
      </trkpt>
      <trkpt lat="47.27481" lon="-1.52249">
        <ele>17.167139053345</ele>
        <time>2017-02-14T08:56:04.000Z</time>
      </trkpt>
      <trkpt lat="47.27479" lon="-1.52244">
        <ele>17.261707305908</ele>
        <time>2017-02-14T08:56:07.000Z</time>
      </trkpt>
      <trkpt lat="47.27478" lon="-1.5224">
        <ele>17.362615585327</ele>
        <time>2017-02-14T08:56:09.000Z</time>
      </trkpt>
      <trkpt lat="47.27476" lon="-1.52236">
        <ele>17.467763900757</ele>
        <time>2017-02-14T08:56:11.000Z</time>
      </trkpt>
      <trkpt lat="47.27474" lon="-1.5223">
        <ele>17.600894927979</ele>
        <time>2017-02-14T08:56:14.000Z</time>
      </trkpt>
      <trkpt lat="47.27473" lon="-1.52226">
        <ele>17.728189468384</ele>
        <time>2017-02-14T08:56:16.000Z</time>
      </trkpt>
      <trkpt lat="47.27472" lon="-1.52222">
        <ele>17.849102020264</ele>
        <time>2017-02-14T08:56:18.000Z</time>
      </trkpt>
      <trkpt lat="47.27469" lon="-1.52217">
        <ele>17.976055145264</ele>
        <time>2017-02-14T08:56:21.000Z</time>
      </trkpt>
      <trkpt lat="47.27466" lon="-1.52212">
        <ele>18.106916427612</ele>
        <time>2017-02-14T08:56:24.000Z</time>
      </trkpt>
      <trkpt lat="47.27464" lon="-1.52209">
        <ele>18.209142684937</ele>
        <time>2017-02-14T08:56:27.000Z</time>
      </trkpt>
      <trkpt lat="47.27462" lon="-1.52206">
        <ele>18.302921295166</ele>
        <time>2017-02-14T08:56:29.000Z</time>
      </trkpt>
      <trkpt lat="47.2746" lon="-1.52201">
        <ele>18.404792785645</ele>
        <time>2017-02-14T08:56:32.000Z</time>
      </trkpt>
      <trkpt lat="47.27458" lon="-1.52198">
        <ele>18.495998382568</ele>
        <time>2017-02-14T08:56:34.000Z</time>
      </trkpt>
      <trkpt lat="47.27456" lon="-1.52194">
        <ele>18.586368560791</ele>
        <time>2017-02-14T08:56:36.000Z</time>
      </trkpt>
      <trkpt lat="47.27454" lon="-1.5219">
        <ele>18.689748764038</ele>
        <time>2017-02-14T08:56:39.000Z</time>
      </trkpt>
      <trkpt lat="47.27452" lon="-1.52184">
        <ele>18.815967559814</ele>
        <time>2017-02-14T08:56:42.000Z</time>
      </trkpt>
      <trkpt lat="47.27451" lon="-1.52179">
        <ele>18.953769683838</ele>
        <time>2017-02-14T08:56:45.000Z</time>
      </trkpt>
      <trkpt lat="47.27449" lon="-1.52173">
        <ele>19.115518569946</ele>
        <time>2017-02-14T08:56:48.000Z</time>
      </trkpt>
      <trkpt lat="47.27447" lon="-1.5217">
        <ele>19.280284881592</ele>
        <time>2017-02-14T08:56:50.000Z</time>
      </trkpt>
      <trkpt lat="47.27445" lon="-1.52163">
        <ele>19.444801330566</ele>
        <time>2017-02-14T08:56:53.000Z</time>
      </trkpt>
      <trkpt lat="47.27443" lon="-1.52159">
        <ele>19.576793670654</ele>
        <time>2017-02-14T08:56:56.000Z</time>
      </trkpt>
      <trkpt lat="47.27441" lon="-1.52156">
        <ele>19.671165466309</ele>
        <time>2017-02-14T08:56:58.000Z</time>
      </trkpt>
      <trkpt lat="47.27438" lon="-1.52151">
        <ele>19.73384475708</ele>
        <time>2017-02-14T08:57:01.000Z</time>
      </trkpt>
      <trkpt lat="47.27436" lon="-1.52145">
        <ele>19.783191680908</ele>
        <time>2017-02-14T08:57:04.000Z</time>
      </trkpt>
      <trkpt lat="47.27434" lon="-1.52142">
        <ele>19.811988830566</ele>
        <time>2017-02-14T08:57:06.000Z</time>
      </trkpt>
      <trkpt lat="47.27431" lon="-1.52136">
        <ele>19.850648880005</ele>
        <time>2017-02-14T08:57:09.000Z</time>
      </trkpt>
      <trkpt lat="47.27429" lon="-1.52131">
        <ele>19.901620864868</ele>
        <time>2017-02-14T08:57:12.000Z</time>
      </trkpt>
      <trkpt lat="47.27427" lon="-1.52128">
        <ele>19.952392578125</ele>
        <time>2017-02-14T08:57:14.000Z</time>
      </trkpt>
      <trkpt lat="47.27425" lon="-1.52123">
        <ele>20.011093139648</ele>
        <time>2017-02-14T08:57:17.000Z</time>
      </trkpt>
      <trkpt lat="47.27423" lon="-1.5212">
        <ele>20.074373245239</ele>
        <time>2017-02-14T08:57:19.000Z</time>
      </trkpt>
      <trkpt lat="47.27421" lon="-1.52113">
        <ele>20.145854949951</ele>
        <time>2017-02-14T08:57:22.000Z</time>
      </trkpt>
      <trkpt lat="47.27419" lon="-1.52107">
        <ele>20.230228424072</ele>
        <time>2017-02-14T08:57:25.000Z</time>
      </trkpt>
      <trkpt lat="47.27417" lon="-1.52102">
        <ele>20.328771591187</ele>
        <time>2017-02-14T08:57:28.000Z</time>
      </trkpt>
      <trkpt lat="47.27415" lon="-1.52097">
        <ele>20.441217422485</ele>
        <time>2017-02-14T08:57:31.000Z</time>
      </trkpt>
      <trkpt lat="47.27413" lon="-1.52091">
        <ele>20.575262069702</ele>
        <time>2017-02-14T08:57:34.000Z</time>
      </trkpt>
      <trkpt lat="47.27411" lon="-1.52086">
        <ele>20.716053009033</ele>
        <time>2017-02-14T08:57:37.000Z</time>
      </trkpt>
      <trkpt lat="47.27408" lon="-1.52081">
        <ele>20.854694366455</ele>
        <time>2017-02-14T08:57:40.000Z</time>
      </trkpt>
      <trkpt lat="47.27406" lon="-1.52076">
        <ele>20.991201400757</ele>
        <time>2017-02-14T08:57:43.000Z</time>
      </trkpt>
      <trkpt lat="47.27403" lon="-1.5207">
        <ele>21.119268417358</ele>
        <time>2017-02-14T08:57:46.000Z</time>
      </trkpt>
      <trkpt lat="47.27401" lon="-1.52065">
        <ele>21.236869812012</ele>
        <time>2017-02-14T08:57:49.000Z</time>
      </trkpt>
      <trkpt lat="47.274" lon="-1.52061">
        <ele>21.33655166626</ele>
        <time>2017-02-14T08:57:51.000Z</time>
      </trkpt>
      <trkpt lat="47.27398" lon="-1.52058">
        <ele>21.428329467773</ele>
        <time>2017-02-14T08:57:53.000Z</time>
      </trkpt>
      <trkpt lat="47.27396" lon="-1.52052">
        <ele>21.524923324585</ele>
        <time>2017-02-14T08:57:56.000Z</time>
      </trkpt>
      <trkpt lat="47.27395" lon="-1.52049">
        <ele>21.610548019409</ele>
        <time>2017-02-14T08:57:58.000Z</time>
      </trkpt>
      <trkpt lat="47.27393" lon="-1.52045">
        <ele>21.697965621948</ele>
        <time>2017-02-14T08:58:01.000Z</time>
      </trkpt>
      <trkpt lat="47.27391" lon="-1.52039">
        <ele>21.79775428772</ele>
        <time>2017-02-14T08:58:04.000Z</time>
      </trkpt>
      <trkpt lat="47.2739" lon="-1.52035">
        <ele>21.898567199707</ele>
        <time>2017-02-14T08:58:06.000Z</time>
      </trkpt>
      <trkpt lat="47.27387" lon="-1.52029">
        <ele>22.001552581787</ele>
        <time>2017-02-14T08:58:09.000Z</time>
      </trkpt>
      <trkpt lat="47.27385" lon="-1.52024">
        <ele>22.11883354187</ele>
        <time>2017-02-14T08:58:12.000Z</time>
      </trkpt>
      <trkpt lat="47.27383" lon="-1.52019">
        <ele>22.237676620483</ele>
        <time>2017-02-14T08:58:15.000Z</time>
      </trkpt>
      <trkpt lat="47.27382" lon="-1.52015">
        <ele>22.351516723633</ele>
        <time>2017-02-14T08:58:17.000Z</time>
      </trkpt>
      <trkpt lat="47.27379" lon="-1.52009">
        <ele>22.478420257568</ele>
        <time>2017-02-14T08:58:20.000Z</time>
      </trkpt>
      <trkpt lat="47.27378" lon="-1.52006">
        <ele>22.598892211914</ele>
        <time>2017-02-14T08:58:22.000Z</time>
      </trkpt>
      <trkpt lat="47.27375" lon="-1.52001">
        <ele>22.722911834717</ele>
        <time>2017-02-14T08:58:25.000Z</time>
      </trkpt>
      <trkpt lat="47.27374" lon="-1.51997">
        <ele>22.830572128296</ele>
        <time>2017-02-14T08:58:27.000Z</time>
      </trkpt>
      <trkpt lat="47.27372" lon="-1.51992">
        <ele>22.922170639038</ele>
        <time>2017-02-14T08:58:30.000Z</time>
      </trkpt>
      <trkpt lat="47.2737" lon="-1.51989">
        <ele>22.986053466797</ele>
        <time>2017-02-14T08:58:32.000Z</time>
      </trkpt>
      <trkpt lat="47.27368" lon="-1.51983">
        <ele>23.035730361938</ele>
        <time>2017-02-14T08:58:35.000Z</time>
      </trkpt>
      <trkpt lat="47.27365" lon="-1.51978">
        <ele>23.065956115723</ele>
        <time>2017-02-14T08:58:38.000Z</time>
      </trkpt>
      <trkpt lat="47.27365" lon="-1.51975">
        <ele>23.08745765686</ele>
        <time>2017-02-14T08:58:40.000Z</time>
      </trkpt>
      <trkpt lat="47.27363" lon="-1.5197">
        <ele>23.109699249268</ele>
        <time>2017-02-14T08:58:43.000Z</time>
      </trkpt>
      <trkpt lat="47.27362" lon="-1.51965">
        <ele>23.134452819824</ele>
        <time>2017-02-14T08:58:46.000Z</time>
      </trkpt>
      <trkpt lat="47.27359" lon="-1.5196">
        <ele>23.164926528931</ele>
        <time>2017-02-14T08:58:49.000Z</time>
      </trkpt>
      <trkpt lat="47.27355" lon="-1.51959">
        <ele>23.208309173584</ele>
        <time>2017-02-14T08:58:52.000Z</time>
      </trkpt>
      <trkpt lat="47.27353" lon="-1.5196">
        <ele>23.267364501953</ele>
        <time>2017-02-14T08:58:54.000Z</time>
      </trkpt>
      <trkpt lat="47.2735" lon="-1.51962">
        <ele>23.339138031006</ele>
        <time>2017-02-14T08:58:56.000Z</time>
      </trkpt>
      <trkpt lat="47.27346" lon="-1.51964">
        <ele>23.428565979004</ele>
        <time>2017-02-14T08:58:59.000Z</time>
      </trkpt>
      <trkpt lat="47.27343" lon="-1.51966">
        <ele>23.524423599243</ele>
        <time>2017-02-14T08:59:01.000Z</time>
      </trkpt>
      <trkpt lat="47.2734" lon="-1.51969">
        <ele>23.616260528564</ele>
        <time>2017-02-14T08:59:04.000Z</time>
      </trkpt>
      <trkpt lat="47.27337" lon="-1.5197">
        <ele>23.71376991272</ele>
        <time>2017-02-14T08:59:07.000Z</time>
      </trkpt>
      <trkpt lat="47.27333" lon="-1.51973">
        <ele>23.809841156006</ele>
        <time>2017-02-14T08:59:10.000Z</time>
      </trkpt>
      <trkpt lat="47.27331" lon="-1.51974">
        <ele>23.900163650513</ele>
        <time>2017-02-14T08:59:12.000Z</time>
      </trkpt>
      <trkpt lat="47.27329" lon="-1.51977">
        <ele>23.98964881897</ele>
        <time>2017-02-14T08:59:14.000Z</time>
      </trkpt>
      <trkpt lat="47.27325" lon="-1.51979">
        <ele>24.080261230469</ele>
        <time>2017-02-14T08:59:17.000Z</time>
      </trkpt>
      <trkpt lat="47.27322" lon="-1.51981">
        <ele>24.172063827515</ele>
        <time>2017-02-14T08:59:20.000Z</time>
      </trkpt>
      <trkpt lat="47.27317" lon="-1.51983">
        <ele>24.273231506348</ele>
        <time>2017-02-14T08:59:23.000Z</time>
      </trkpt>
      <trkpt lat="47.27314" lon="-1.51985">
        <ele>24.377212524414</ele>
        <time>2017-02-14T08:59:26.000Z</time>
      </trkpt>
      <trkpt lat="47.27309" lon="-1.51989">
        <ele>24.482849121094</ele>
        <time>2017-02-14T08:59:29.000Z</time>
      </trkpt>
      <trkpt lat="47.27306" lon="-1.51991">
        <ele>24.584806442261</ele>
        <time>2017-02-14T08:59:32.000Z</time>
      </trkpt>
      <trkpt lat="47.27303" lon="-1.51994">
        <ele>24.672672271729</ele>
        <time>2017-02-14T08:59:34.000Z</time>
      </trkpt>
      <trkpt lat="47.273" lon="-1.51996">
        <ele>24.744243621826</ele>
        <time>2017-02-14T08:59:37.000Z</time>
      </trkpt>
      <trkpt lat="47.27297" lon="-1.51998">
        <ele>24.802968978882</ele>
        <time>2017-02-14T08:59:39.000Z</time>
      </trkpt>
      <trkpt lat="47.27293" lon="-1.52001">
        <ele>24.85626411438</ele>
        <time>2017-02-14T08:59:42.000Z</time>
      </trkpt>
      <trkpt lat="47.2729" lon="-1.52003">
        <ele>24.90439414978</ele>
        <time>2017-02-14T08:59:44.000Z</time>
      </trkpt>
      <trkpt lat="47.27285" lon="-1.52007">
        <ele>24.966579437256</ele>
        <time>2017-02-14T08:59:47.000Z</time>
      </trkpt>
      <trkpt lat="47.27282" lon="-1.52011">
        <ele>25.040622711182</ele>
        <time>2017-02-14T08:59:50.000Z</time>
      </trkpt>
      <trkpt lat="47.27279" lon="-1.52012">
        <ele>25.119281768799</ele>
        <time>2017-02-14T08:59:52.000Z</time>
      </trkpt>
      <trkpt lat="47.27275" lon="-1.52015">
        <ele>25.209978103638</ele>
        <time>2017-02-14T08:59:55.000Z</time>
      </trkpt>
      <trkpt lat="47.27272" lon="-1.52018">
        <ele>25.312927246094</ele>
        <time>2017-02-14T08:59:58.000Z</time>
      </trkpt>
      <trkpt lat="47.27269" lon="-1.5202">
        <ele>25.413049697876</ele>
        <time>2017-02-14T09:00:00.000Z</time>
      </trkpt>
      <trkpt lat="47.27266" lon="-1.52022">
        <ele>25.512634277344</ele>
        <time>2017-02-14T09:00:02.000Z</time>
      </trkpt>
      <trkpt lat="47.27263" lon="-1.52024">
        <ele>25.625301361084</ele>
        <time>2017-02-14T09:00:04.000Z</time>
      </trkpt>
      <trkpt lat="47.27259" lon="-1.52027">
        <ele>25.746242523193</ele>
        <time>2017-02-14T09:00:07.000Z</time>
      </trkpt>
      <trkpt lat="47.27257" lon="-1.52028">
        <ele>25.860631942749</ele>
        <time>2017-02-14T09:00:09.000Z</time>
      </trkpt>
      <trkpt lat="47.27254" lon="-1.5203">
        <ele>25.980535507202</ele>
        <time>2017-02-14T09:00:12.000Z</time>
      </trkpt>
      <trkpt lat="47.27251" lon="-1.52032">
        <ele>26.102447509766</ele>
        <time>2017-02-14T09:00:14.000Z</time>
      </trkpt>
      <trkpt lat="47.27248" lon="-1.52035">
        <ele>26.225412368774</ele>
        <time>2017-02-14T09:00:17.000Z</time>
      </trkpt>
      <trkpt lat="47.27245" lon="-1.52038">
        <ele>26.336175918579</ele>
        <time>2017-02-14T09:00:20.000Z</time>
      </trkpt>
      <trkpt lat="47.27242" lon="-1.5204">
        <ele>26.444499969482</ele>
        <time>2017-02-14T09:00:22.000Z</time>
      </trkpt>
      <trkpt lat="47.27239" lon="-1.52042">
        <ele>26.541707992554</ele>
        <time>2017-02-14T09:00:24.000Z</time>
      </trkpt>
      <trkpt lat="47.27235" lon="-1.52045">
        <ele>26.630355834961</ele>
        <time>2017-02-14T09:00:27.000Z</time>
      </trkpt>
      <trkpt lat="47.27233" lon="-1.52046">
        <ele>26.70308303833</ele>
        <time>2017-02-14T09:00:29.000Z</time>
      </trkpt>
      <trkpt lat="47.2723" lon="-1.52048">
        <ele>26.765941619873</ele>
        <time>2017-02-14T09:00:32.000Z</time>
      </trkpt>
      <trkpt lat="47.27226" lon="-1.52051">
        <ele>26.828384399414</ele>
        <time>2017-02-14T09:00:35.000Z</time>
      </trkpt>
      <trkpt lat="47.27224" lon="-1.52054">
        <ele>26.882995605469</ele>
        <time>2017-02-14T09:00:37.000Z</time>
      </trkpt>
      <trkpt lat="47.27221" lon="-1.52057">
        <ele>26.93147277832</ele>
        <time>2017-02-14T09:00:40.000Z</time>
      </trkpt>
      <trkpt lat="47.27218" lon="-1.52059">
        <ele>26.975214004517</ele>
        <time>2017-02-14T09:00:42.000Z</time>
      </trkpt>
      <trkpt lat="47.27214" lon="-1.52062">
        <ele>27.013805389404</ele>
        <time>2017-02-14T09:00:45.000Z</time>
      </trkpt>
      <trkpt lat="47.27211" lon="-1.52066">
        <ele>27.040105819702</ele>
        <time>2017-02-14T09:00:48.000Z</time>
      </trkpt>
      <trkpt lat="47.27208" lon="-1.5207">
        <ele>27.060028076172</ele>
        <time>2017-02-14T09:00:51.000Z</time>
      </trkpt>
      <trkpt lat="47.27206" lon="-1.52073">
        <ele>27.070623397827</ele>
        <time>2017-02-14T09:00:53.000Z</time>
      </trkpt>
      <trkpt lat="47.27203" lon="-1.52076">
        <ele>27.074621200562</ele>
        <time>2017-02-14T09:00:56.000Z</time>
      </trkpt>
      <trkpt lat="47.272" lon="-1.52079">
        <ele>27.067722320557</ele>
        <time>2017-02-14T09:00:59.000Z</time>
      </trkpt>
      <trkpt lat="47.27201" lon="-1.52086">
        <ele>27.035039901733</ele>
        <time>2017-02-14T09:01:02.000Z</time>
      </trkpt>
      <trkpt lat="47.27203" lon="-1.52091">
        <ele>26.963184356689</ele>
        <time>2017-02-14T09:01:05.000Z</time>
      </trkpt>
      <trkpt lat="47.27204" lon="-1.52094">
        <ele>26.868890762329</ele>
        <time>2017-02-14T09:01:07.000Z</time>
      </trkpt>
      <trkpt lat="47.27206" lon="-1.521">
        <ele>26.739559173584</ele>
        <time>2017-02-14T09:01:10.000Z</time>
      </trkpt>
      <trkpt lat="47.27207" lon="-1.52104">
        <ele>26.580413818359</ele>
        <time>2017-02-14T09:01:13.000Z</time>
      </trkpt>
      <trkpt lat="47.27209" lon="-1.52109">
        <ele>26.408569335938</ele>
        <time>2017-02-14T09:01:16.000Z</time>
      </trkpt>
      <trkpt lat="47.27211" lon="-1.52112">
        <ele>26.255310058594</ele>
        <time>2017-02-14T09:01:18.000Z</time>
      </trkpt>
      <trkpt lat="47.27212" lon="-1.52116">
        <ele>26.100128173828</ele>
        <time>2017-02-14T09:01:20.000Z</time>
      </trkpt>
      <trkpt lat="47.27214" lon="-1.52122">
        <ele>25.941375732422</ele>
        <time>2017-02-14T09:01:23.000Z</time>
      </trkpt>
      <trkpt lat="47.27215" lon="-1.52128">
        <ele>25.771820068359</ele>
        <time>2017-02-14T09:01:26.000Z</time>
      </trkpt>
      <trkpt lat="47.27217" lon="-1.52134">
        <ele>25.593383789062</ele>
        <time>2017-02-14T09:01:29.000Z</time>
      </trkpt>
      <trkpt lat="47.27217" lon="-1.52139">
        <ele>25.403228759766</ele>
        <time>2017-02-14T09:01:31.000Z</time>
      </trkpt>
      <trkpt lat="47.27218" lon="-1.52143">
        <ele>25.209777832031</ele>
        <time>2017-02-14T09:01:33.000Z</time>
      </trkpt>
      <trkpt lat="47.27219" lon="-1.52147">
        <ele>25.027038574219</ele>
        <time>2017-02-14T09:01:35.000Z</time>
      </trkpt>
      <trkpt lat="47.2722" lon="-1.52152">
        <ele>24.850982666016</ele>
        <time>2017-02-14T09:01:38.000Z</time>
      </trkpt>
      <trkpt lat="47.27221" lon="-1.52158">
        <ele>24.680145263672</ele>
        <time>2017-02-14T09:01:41.000Z</time>
      </trkpt>
      <trkpt lat="47.27222" lon="-1.52162">
        <ele>24.514617919922</ele>
        <time>2017-02-14T09:01:43.000Z</time>
      </trkpt>
      <trkpt lat="47.27222" lon="-1.52169">
        <ele>24.336833953857</ele>
        <time>2017-02-14T09:01:46.000Z</time>
      </trkpt>
      <trkpt lat="47.27225" lon="-1.52173">
        <ele>24.174789428711</ele>
        <time>2017-02-14T09:01:48.000Z</time>
      </trkpt>
      <trkpt lat="47.27227" lon="-1.52176">
        <ele>24.038654327393</ele>
        <time>2017-02-14T09:01:50.000Z</time>
      </trkpt>
      <trkpt lat="47.27228" lon="-1.5218">
        <ele>23.92783164978</ele>
        <time>2017-02-14T09:01:52.000Z</time>
      </trkpt>
      <trkpt lat="47.2723" lon="-1.52187">
        <ele>23.819847106934</ele>
        <time>2017-02-14T09:01:55.000Z</time>
      </trkpt>
      <trkpt lat="47.27231" lon="-1.5219">
        <ele>23.738193511963</ele>
        <time>2017-02-14T09:01:57.000Z</time>
      </trkpt>
      <trkpt lat="47.27232" lon="-1.52196">
        <ele>23.64680480957</ele>
        <time>2017-02-14T09:02:00.000Z</time>
      </trkpt>
      <trkpt lat="47.27234" lon="-1.522">
        <ele>23.551197052002</ele>
        <time>2017-02-14T09:02:02.000Z</time>
      </trkpt>
      <trkpt lat="47.27235" lon="-1.52204">
        <ele>23.45108795166</ele>
        <time>2017-02-14T09:02:04.000Z</time>
      </trkpt>
      <trkpt lat="47.27236" lon="-1.52212">
        <ele>23.344394683838</ele>
        <time>2017-02-14T09:02:07.000Z</time>
      </trkpt>
      <trkpt lat="47.27238" lon="-1.52218">
        <ele>23.223962783813</ele>
        <time>2017-02-14T09:02:10.000Z</time>
      </trkpt>
      <trkpt lat="47.27239" lon="-1.52221">
        <ele>23.109189987183</ele>
        <time>2017-02-14T09:02:12.000Z</time>
      </trkpt>
      <trkpt lat="47.2724" lon="-1.52224">
        <ele>22.996204376221</ele>
        <time>2017-02-14T09:02:14.000Z</time>
      </trkpt>
      <trkpt lat="47.2724" lon="-1.52229">
        <ele>22.880790710449</ele>
        <time>2017-02-14T09:02:17.000Z</time>
      </trkpt>
      <trkpt lat="47.27239" lon="-1.52232">
        <ele>22.787014007568</ele>
        <time>2017-02-14T09:02:19.000Z</time>
      </trkpt>
      <trkpt lat="47.27237" lon="-1.52236">
        <ele>22.714580535889</ele>
        <time>2017-02-14T09:02:22.000Z</time>
      </trkpt>
      <trkpt lat="47.27234" lon="-1.52238">
        <ele>22.661159515381</ele>
        <time>2017-02-14T09:02:24.000Z</time>
      </trkpt>
      <trkpt lat="47.27232" lon="-1.52242">
        <ele>22.623542785645</ele>
        <time>2017-02-14T09:02:27.000Z</time>
      </trkpt>
      <trkpt lat="47.2723" lon="-1.52243">
        <ele>22.607685089111</ele>
        <time>2017-02-14T09:02:29.000Z</time>
      </trkpt>
      <trkpt lat="47.27228" lon="-1.52245">
        <ele>22.605081558228</ele>
        <time>2017-02-14T09:02:31.000Z</time>
      </trkpt>
      <trkpt lat="47.27226" lon="-1.52246">
        <ele>22.614110946655</ele>
        <time>2017-02-14T09:02:33.000Z</time>
      </trkpt>
      <trkpt lat="47.27222" lon="-1.52249">
        <ele>22.630100250244</ele>
        <time>2017-02-14T09:02:36.000Z</time>
      </trkpt>
      <trkpt lat="47.27219" lon="-1.52251">
        <ele>22.659601211548</ele>
        <time>2017-02-14T09:02:39.000Z</time>
      </trkpt>
      <trkpt lat="47.27214" lon="-1.52254">
        <ele>22.704719543457</ele>
        <time>2017-02-14T09:02:42.000Z</time>
      </trkpt>
      <trkpt lat="47.27211" lon="-1.52257">
        <ele>22.760576248169</ele>
        <time>2017-02-14T09:02:45.000Z</time>
      </trkpt>
      <trkpt lat="47.27208" lon="-1.52259">
        <ele>22.825740814209</ele>
        <time>2017-02-14T09:02:48.000Z</time>
      </trkpt>
      <trkpt lat="47.27204" lon="-1.52262">
        <ele>22.895854949951</ele>
        <time>2017-02-14T09:02:51.000Z</time>
      </trkpt>
      <trkpt lat="47.27201" lon="-1.52265">
        <ele>22.968408584595</ele>
        <time>2017-02-14T09:02:54.000Z</time>
      </trkpt>
      <trkpt lat="47.27198" lon="-1.52267">
        <ele>23.034284591675</ele>
        <time>2017-02-14T09:02:56.000Z</time>
      </trkpt>
      <trkpt lat="47.27197" lon="-1.52269">
        <ele>23.095327377319</ele>
        <time>2017-02-14T09:02:58.000Z</time>
      </trkpt>
      <trkpt lat="47.27192" lon="-1.52272">
        <ele>23.162281036377</ele>
        <time>2017-02-14T09:03:01.000Z</time>
      </trkpt>
      <trkpt lat="47.2719" lon="-1.52274">
        <ele>23.230388641357</ele>
        <time>2017-02-14T09:03:03.000Z</time>
      </trkpt>
      <trkpt lat="47.27186" lon="-1.52276">
        <ele>23.298948287964</ele>
        <time>2017-02-14T09:03:06.000Z</time>
      </trkpt>
      <trkpt lat="47.27182" lon="-1.52279">
        <ele>23.38226890564</ele>
        <time>2017-02-14T09:03:09.000Z</time>
      </trkpt>
      <trkpt lat="47.2718" lon="-1.5228">
        <ele>23.467021942139</ele>
        <time>2017-02-14T09:03:11.000Z</time>
      </trkpt>
      <trkpt lat="47.27176" lon="-1.52282">
        <ele>23.554794311523</ele>
        <time>2017-02-14T09:03:14.000Z</time>
      </trkpt>
      <trkpt lat="47.27173" lon="-1.52284">
        <ele>23.644472122192</ele>
        <time>2017-02-14T09:03:16.000Z</time>
      </trkpt>
      <trkpt lat="47.2717" lon="-1.52286">
        <ele>23.736318588257</ele>
        <time>2017-02-14T09:03:18.000Z</time>
      </trkpt>
      <trkpt lat="47.27167" lon="-1.52288">
        <ele>23.81856918335</ele>
        <time>2017-02-14T09:03:20.000Z</time>
      </trkpt>
      <trkpt lat="47.27163" lon="-1.5229">
        <ele>23.931142807007</ele>
        <time>2017-02-14T09:03:23.000Z</time>
      </trkpt>
      <trkpt lat="47.27159" lon="-1.52292">
        <ele>24.069900512695</ele>
        <time>2017-02-14T09:03:26.000Z</time>
      </trkpt>
      <trkpt lat="47.27156" lon="-1.52294">
        <ele>24.219650268555</ele>
        <time>2017-02-14T09:03:28.000Z</time>
      </trkpt>
      <trkpt lat="47.27153" lon="-1.52296">
        <ele>24.382530212402</ele>
        <time>2017-02-14T09:03:30.000Z</time>
      </trkpt>
      <trkpt lat="47.27151" lon="-1.52298">
        <ele>24.554275512695</ele>
        <time>2017-02-14T09:03:32.000Z</time>
      </trkpt>
      <trkpt lat="47.27147" lon="-1.52301">
        <ele>24.731189727783</ele>
        <time>2017-02-14T09:03:35.000Z</time>
      </trkpt>
      <trkpt lat="47.27145" lon="-1.52303">
        <ele>24.883056640625</ele>
        <time>2017-02-14T09:03:37.000Z</time>
      </trkpt>
      <trkpt lat="47.27142" lon="-1.52305">
        <ele>25.050384521484</ele>
        <time>2017-02-14T09:03:40.000Z</time>
      </trkpt>
      <trkpt lat="47.27139" lon="-1.52307">
        <ele>25.210285186768</ele>
        <time>2017-02-14T09:03:42.000Z</time>
      </trkpt>
      <trkpt lat="47.27137" lon="-1.52309">
        <ele>25.38064956665</ele>
        <time>2017-02-14T09:03:44.000Z</time>
      </trkpt>
      <trkpt lat="47.27133" lon="-1.52312">
        <ele>25.548484802246</ele>
        <time>2017-02-14T09:03:47.000Z</time>
      </trkpt>
      <trkpt lat="47.2713" lon="-1.52314">
        <ele>25.727954864502</ele>
        <time>2017-02-14T09:03:50.000Z</time>
      </trkpt>
      <trkpt lat="47.27127" lon="-1.52317">
        <ele>25.905542373657</ele>
        <time>2017-02-14T09:03:53.000Z</time>
      </trkpt>
      <trkpt lat="47.27123" lon="-1.5232">
        <ele>26.109380722046</ele>
        <time>2017-02-14T09:03:56.000Z</time>
      </trkpt>
      <trkpt lat="47.2712" lon="-1.52322">
        <ele>26.310668945312</ele>
        <time>2017-02-14T09:03:58.000Z</time>
      </trkpt>
      <trkpt lat="47.27116" lon="-1.52324">
        <ele>26.52353477478</ele>
        <time>2017-02-14T09:04:01.000Z</time>
      </trkpt>
      <trkpt lat="47.27113" lon="-1.52326">
        <ele>26.742183685303</ele>
        <time>2017-02-14T09:04:03.000Z</time>
      </trkpt>
      <trkpt lat="47.2711" lon="-1.52328">
        <ele>26.961544036865</ele>
        <time>2017-02-14T09:04:05.000Z</time>
      </trkpt>
      <trkpt lat="47.27107" lon="-1.5233">
        <ele>27.163248062134</ele>
        <time>2017-02-14T09:04:07.000Z</time>
      </trkpt>
      <trkpt lat="47.27103" lon="-1.52333">
        <ele>27.388341903687</ele>
        <time>2017-02-14T09:04:10.000Z</time>
      </trkpt>
      <trkpt lat="47.271" lon="-1.52336">
        <ele>27.58291053772</ele>
        <time>2017-02-14T09:04:12.000Z</time>
      </trkpt>
      <trkpt lat="47.27097" lon="-1.52338">
        <ele>27.779735565186</ele>
        <time>2017-02-14T09:04:15.000Z</time>
      </trkpt>
      <trkpt lat="47.27093" lon="-1.52342">
        <ele>27.9714012146</ele>
        <time>2017-02-14T09:04:18.000Z</time>
      </trkpt>
      <trkpt lat="47.2709" lon="-1.52345">
        <ele>28.155767440796</ele>
        <time>2017-02-14T09:04:21.000Z</time>
      </trkpt>
      <trkpt lat="47.27087" lon="-1.52347">
        <ele>28.30947303772</ele>
        <time>2017-02-14T09:04:23.000Z</time>
      </trkpt>
      <trkpt lat="47.27084" lon="-1.52349">
        <ele>28.471160888672</ele>
        <time>2017-02-14T09:04:26.000Z</time>
      </trkpt>
      <trkpt lat="47.2708" lon="-1.52351">
        <ele>28.585067749023</ele>
        <time>2017-02-14T09:04:29.000Z</time>
      </trkpt>
      <trkpt lat="47.27076" lon="-1.52353">
        <ele>28.646322250366</ele>
        <time>2017-02-14T09:04:32.000Z</time>
      </trkpt>
      <trkpt lat="47.27074" lon="-1.52355">
        <ele>28.670278549194</ele>
        <time>2017-02-14T09:04:34.000Z</time>
      </trkpt>
      <trkpt lat="47.27071" lon="-1.52357">
        <ele>28.657587051392</ele>
        <time>2017-02-14T09:04:36.000Z</time>
      </trkpt>
      <trkpt lat="47.27069" lon="-1.52359">
        <ele>28.596853256226</ele>
        <time>2017-02-14T09:04:38.000Z</time>
      </trkpt>
      <trkpt lat="47.27065" lon="-1.52362">
        <ele>28.52233505249</ele>
        <time>2017-02-14T09:04:41.000Z</time>
      </trkpt>
      <trkpt lat="47.27062" lon="-1.52365">
        <ele>28.44423866272</ele>
        <time>2017-02-14T09:04:44.000Z</time>
      </trkpt>
      <trkpt lat="47.2706" lon="-1.52367">
        <ele>28.364343643188</ele>
        <time>2017-02-14T09:04:46.000Z</time>
      </trkpt>
      <trkpt lat="47.27058" lon="-1.52369">
        <ele>28.285604476929</ele>
        <time>2017-02-14T09:04:48.000Z</time>
      </trkpt>
      <trkpt lat="47.27054" lon="-1.5237">
        <ele>28.204479217529</ele>
        <time>2017-02-14T09:04:51.000Z</time>
      </trkpt>
      <trkpt lat="47.27049" lon="-1.5237">
        <ele>28.12554359436</ele>
        <time>2017-02-14T09:04:54.000Z</time>
      </trkpt>
      <trkpt lat="47.27045" lon="-1.52368">
        <ele>28.061920166016</ele>
        <time>2017-02-14T09:04:57.000Z</time>
      </trkpt>
      <trkpt lat="47.27043" lon="-1.52366">
        <ele>28.009008407593</ele>
        <time>2017-02-14T09:04:59.000Z</time>
      </trkpt>
      <trkpt lat="47.27039" lon="-1.52364">
        <ele>27.960521697998</ele>
        <time>2017-02-14T09:05:02.000Z</time>
      </trkpt>
      <trkpt lat="47.27036" lon="-1.52364">
        <ele>27.922220230103</ele>
        <time>2017-02-14T09:05:04.000Z</time>
      </trkpt>
      <trkpt lat="47.27032" lon="-1.52364">
        <ele>27.886257171631</ele>
        <time>2017-02-14T09:05:07.000Z</time>
      </trkpt>
      <trkpt lat="47.27029" lon="-1.52362">
        <ele>27.854885101318</ele>
        <time>2017-02-14T09:05:10.000Z</time>
      </trkpt>
      <trkpt lat="47.27027" lon="-1.52357">
        <ele>27.836568832397</ele>
        <time>2017-02-14T09:05:13.000Z</time>
      </trkpt>
      <trkpt lat="47.27025" lon="-1.52352">
        <ele>27.841058731079</ele>
        <time>2017-02-14T09:05:16.000Z</time>
      </trkpt>
      <trkpt lat="47.27023" lon="-1.52346">
        <ele>27.870143890381</ele>
        <time>2017-02-14T09:05:19.000Z</time>
      </trkpt>
      <trkpt lat="47.27021" lon="-1.52344">
        <ele>27.920175552368</ele>
        <time>2017-02-14T09:05:21.000Z</time>
      </trkpt>
      <trkpt lat="47.2702" lon="-1.52341">
        <ele>27.97932434082</ele>
        <time>2017-02-14T09:05:23.000Z</time>
      </trkpt>
      <trkpt lat="47.27019" lon="-1.52336">
        <ele>28.045562744141</ele>
        <time>2017-02-14T09:05:26.000Z</time>
      </trkpt>
      <trkpt lat="47.27019" lon="-1.52333">
        <ele>28.105266571045</ele>
        <time>2017-02-14T09:05:28.000Z</time>
      </trkpt>
      <trkpt lat="47.27017" lon="-1.52329">
        <ele>28.135833740234</ele>
        <time>2017-02-14T09:05:31.000Z</time>
      </trkpt>
      <trkpt lat="47.27015" lon="-1.52326">
        <ele>28.147445678711</ele>
        <time>2017-02-14T09:05:33.000Z</time>
      </trkpt>
      <trkpt lat="47.27013" lon="-1.52322">
        <ele>28.134521484375</ele>
        <time>2017-02-14T09:05:36.000Z</time>
      </trkpt>
      <trkpt lat="47.27012" lon="-1.52317">
        <ele>28.087677001953</ele>
        <time>2017-02-14T09:05:39.000Z</time>
      </trkpt>
      <trkpt lat="47.27011" lon="-1.52313">
        <ele>28.020874023438</ele>
        <time>2017-02-14T09:05:41.000Z</time>
      </trkpt>
      <trkpt lat="47.2701" lon="-1.52309">
        <ele>27.953002929688</ele>
        <time>2017-02-14T09:05:43.000Z</time>
      </trkpt>
      <trkpt lat="47.27007" lon="-1.52301">
        <ele>27.873077392578</ele>
        <time>2017-02-14T09:05:46.000Z</time>
      </trkpt>
      <trkpt lat="47.27006" lon="-1.52297">
        <ele>27.794036865234</ele>
        <time>2017-02-14T09:05:48.000Z</time>
      </trkpt>
      <trkpt lat="47.27003" lon="-1.5229">
        <ele>27.709594726562</ele>
        <time>2017-02-14T09:05:51.000Z</time>
      </trkpt>
      <trkpt lat="47.27001" lon="-1.52283">
        <ele>27.613861083984</ele>
        <time>2017-02-14T09:05:54.000Z</time>
      </trkpt>
      <trkpt lat="47.27" lon="-1.52279">
        <ele>27.517827987671</ele>
        <time>2017-02-14T09:05:56.000Z</time>
      </trkpt>
      <trkpt lat="47.26998" lon="-1.52273">
        <ele>27.427684783936</ele>
        <time>2017-02-14T09:05:59.000Z</time>
      </trkpt>
      <trkpt lat="47.26997" lon="-1.5227">
        <ele>27.338256835938</ele>
        <time>2017-02-14T09:06:01.000Z</time>
      </trkpt>
      <trkpt lat="47.26995" lon="-1.52267">
        <ele>27.26025390625</ele>
        <time>2017-02-14T09:06:03.000Z</time>
      </trkpt>
      <trkpt lat="47.26994" lon="-1.52264">
        <ele>27.193542480469</ele>
        <time>2017-02-14T09:06:05.000Z</time>
      </trkpt>
      <trkpt lat="47.26992" lon="-1.52259">
        <ele>27.123931884766</ele>
        <time>2017-02-14T09:06:08.000Z</time>
      </trkpt>
      <trkpt lat="47.2699" lon="-1.52254">
        <ele>27.057378768921</ele>
        <time>2017-02-14T09:06:11.000Z</time>
      </trkpt>
      <trkpt lat="47.26989" lon="-1.5225">
        <ele>26.994354248047</ele>
        <time>2017-02-14T09:06:13.000Z</time>
      </trkpt>
      <trkpt lat="47.26985" lon="-1.52247">
        <ele>26.93363571167</ele>
        <time>2017-02-14T09:06:16.000Z</time>
      </trkpt>
      <trkpt lat="47.26981" lon="-1.52247">
        <ele>26.873180389404</ele>
        <time>2017-02-14T09:06:19.000Z</time>
      </trkpt>
      <trkpt lat="47.26978" lon="-1.52248">
        <ele>26.822925567627</ele>
        <time>2017-02-14T09:06:21.000Z</time>
      </trkpt>
      <trkpt lat="47.26976" lon="-1.52248">
        <ele>26.780712127686</ele>
        <time>2017-02-14T09:06:23.000Z</time>
      </trkpt>
      <trkpt lat="47.26972" lon="-1.52249">
        <ele>26.740234375</ele>
        <time>2017-02-14T09:06:26.000Z</time>
      </trkpt>
      <trkpt lat="47.26968" lon="-1.5225">
        <ele>26.69921875</ele>
        <time>2017-02-14T09:06:29.000Z</time>
      </trkpt>
      <trkpt lat="47.26965" lon="-1.5225">
        <ele>26.662109375</ele>
        <time>2017-02-14T09:06:31.000Z</time>
      </trkpt>
      <trkpt lat="47.26962" lon="-1.5225">
        <ele>26.623126983643</ele>
        <time>2017-02-14T09:06:33.000Z</time>
      </trkpt>
      <trkpt lat="47.2696" lon="-1.52251">
        <ele>26.585144042969</ele>
        <time>2017-02-14T09:06:35.000Z</time>
      </trkpt>
      <trkpt lat="47.26956" lon="-1.52253">
        <ele>26.546716690063</ele>
        <time>2017-02-14T09:06:38.000Z</time>
      </trkpt>
      <trkpt lat="47.26952" lon="-1.52254">
        <ele>26.506271362305</ele>
        <time>2017-02-14T09:06:41.000Z</time>
      </trkpt>
      <trkpt lat="47.26949" lon="-1.52254">
        <ele>26.464864730835</ele>
        <time>2017-02-14T09:06:43.000Z</time>
      </trkpt>
      <trkpt lat="47.26945" lon="-1.52256">
        <ele>26.41801071167</ele>
        <time>2017-02-14T09:06:46.000Z</time>
      </trkpt>
      <trkpt lat="47.26941" lon="-1.5226">
        <ele>26.364507675171</ele>
        <time>2017-02-14T09:06:49.000Z</time>
      </trkpt>
      <trkpt lat="47.26938" lon="-1.52265">
        <ele>26.302953720093</ele>
        <time>2017-02-14T09:06:52.000Z</time>
      </trkpt>
      <trkpt lat="47.26936" lon="-1.52271">
        <ele>26.237873077393</ele>
        <time>2017-02-14T09:06:55.000Z</time>
      </trkpt>
      <trkpt lat="47.26933" lon="-1.52274">
        <ele>26.167043685913</ele>
        <time>2017-02-14T09:06:57.000Z</time>
      </trkpt>
      <trkpt lat="47.2693" lon="-1.52279">
        <ele>26.089559555054</ele>
        <time>2017-02-14T09:07:00.000Z</time>
      </trkpt>
      <trkpt lat="47.26928" lon="-1.52281">
        <ele>26.011905670166</ele>
        <time>2017-02-14T09:07:02.000Z</time>
      </trkpt>
      <trkpt lat="47.26925" lon="-1.52286">
        <ele>25.933191299438</ele>
        <time>2017-02-14T09:07:05.000Z</time>
      </trkpt>
      <trkpt lat="47.26923" lon="-1.52289">
        <ele>25.853824615479</ele>
        <time>2017-02-14T09:07:07.000Z</time>
      </trkpt>
      <trkpt lat="47.26921" lon="-1.52292">
        <ele>25.766403198242</ele>
        <time>2017-02-14T09:07:10.000Z</time>
      </trkpt>
      <trkpt lat="47.26917" lon="-1.52297">
        <ele>25.672246932983</ele>
        <time>2017-02-14T09:07:13.000Z</time>
      </trkpt>
      <trkpt lat="47.26915" lon="-1.52301">
        <ele>25.56901550293</ele>
        <time>2017-02-14T09:07:15.000Z</time>
      </trkpt>
      <trkpt lat="47.26912" lon="-1.52305">
        <ele>25.462560653687</ele>
        <time>2017-02-14T09:07:18.000Z</time>
      </trkpt>
      <trkpt lat="47.26908" lon="-1.5231">
        <ele>25.349206924438</ele>
        <time>2017-02-14T09:07:21.000Z</time>
      </trkpt>
      <trkpt lat="47.26906" lon="-1.52313">
        <ele>25.244792938232</ele>
        <time>2017-02-14T09:07:23.000Z</time>
      </trkpt>
      <trkpt lat="47.26904" lon="-1.52315">
        <ele>25.154788970947</ele>
        <time>2017-02-14T09:07:25.000Z</time>
      </trkpt>
      <trkpt lat="47.269" lon="-1.5232">
        <ele>25.066732406616</ele>
        <time>2017-02-14T09:07:28.000Z</time>
      </trkpt>
      <trkpt lat="47.26899" lon="-1.52323">
        <ele>24.989528656006</ele>
        <time>2017-02-14T09:07:30.000Z</time>
      </trkpt>
      <trkpt lat="47.26896" lon="-1.52329">
        <ele>24.918575286865</ele>
        <time>2017-02-14T09:07:33.000Z</time>
      </trkpt>
      <trkpt lat="47.26893" lon="-1.52332">
        <ele>24.851274490356</ele>
        <time>2017-02-14T09:07:35.000Z</time>
      </trkpt>
      <trkpt lat="47.2689" lon="-1.52337">
        <ele>24.78684425354</ele>
        <time>2017-02-14T09:07:38.000Z</time>
      </trkpt>
      <trkpt lat="47.26887" lon="-1.52343">
        <ele>24.734380722046</ele>
        <time>2017-02-14T09:07:41.000Z</time>
      </trkpt>
      <trkpt lat="47.26884" lon="-1.52346">
        <ele>24.686773300171</ele>
        <time>2017-02-14T09:07:43.000Z</time>
      </trkpt>
      <trkpt lat="47.26882" lon="-1.5235">
        <ele>24.648946762085</ele>
        <time>2017-02-14T09:07:46.000Z</time>
      </trkpt>
      <trkpt lat="47.26878" lon="-1.52355">
        <ele>24.611328125</ele>
        <time>2017-02-14T09:07:49.000Z</time>
      </trkpt>
      <trkpt lat="47.26875" lon="-1.52361">
        <ele>24.576171875</ele>
        <time>2017-02-14T09:07:52.000Z</time>
      </trkpt>
      <trkpt lat="47.26873" lon="-1.52365">
        <ele>24.54296875</ele>
        <time>2017-02-14T09:07:54.000Z</time>
      </trkpt>
      <trkpt lat="47.26871" lon="-1.52368">
        <ele>24.5107421875</ele>
        <time>2017-02-14T09:07:56.000Z</time>
      </trkpt>
      <trkpt lat="47.26868" lon="-1.52373">
        <ele>24.4765625</ele>
        <time>2017-02-14T09:07:59.000Z</time>
      </trkpt>
      <trkpt lat="47.26864" lon="-1.52378">
        <ele>24.443359375</ele>
        <time>2017-02-14T09:08:02.000Z</time>
      </trkpt>
      <trkpt lat="47.26862" lon="-1.52382">
        <ele>24.4111328125</ele>
        <time>2017-02-14T09:08:04.000Z</time>
      </trkpt>
      <trkpt lat="47.26859" lon="-1.52386">
        <ele>24.376953125</ele>
        <time>2017-02-14T09:08:07.000Z</time>
      </trkpt>
      <trkpt lat="47.26856" lon="-1.5239">
        <ele>24.341796875</ele>
        <time>2017-02-14T09:08:10.000Z</time>
      </trkpt>
      <trkpt lat="47.26854" lon="-1.52394">
        <ele>24.30859375</ele>
        <time>2017-02-14T09:08:12.000Z</time>
      </trkpt>
      <trkpt lat="47.2685" lon="-1.52398">
        <ele>24.2744140625</ele>
        <time>2017-02-14T09:08:15.000Z</time>
      </trkpt>
      <trkpt lat="47.26847" lon="-1.52402">
        <ele>24.2392578125</ele>
        <time>2017-02-14T09:08:17.000Z</time>
      </trkpt>
      <trkpt lat="47.26845" lon="-1.52404">
        <ele>24.20703125</ele>
        <time>2017-02-14T09:08:19.000Z</time>
      </trkpt>
      <trkpt lat="47.26843" lon="-1.52408">
        <ele>24.1748046875</ele>
        <time>2017-02-14T09:08:21.000Z</time>
      </trkpt>
      <trkpt lat="47.26839" lon="-1.52412">
        <ele>24.140625</ele>
        <time>2017-02-14T09:08:24.000Z</time>
      </trkpt>
      <trkpt lat="47.26837" lon="-1.52415">
        <ele>24.109375</ele>
        <time>2017-02-14T09:08:26.000Z</time>
      </trkpt>
      <trkpt lat="47.26834" lon="-1.52418">
        <ele>24.078125</ele>
        <time>2017-02-14T09:08:28.000Z</time>
      </trkpt>
      <trkpt lat="47.26832" lon="-1.52421">
        <ele>24.044473648071</ele>
        <time>2017-02-14T09:08:31.000Z</time>
      </trkpt>
      <trkpt lat="47.26831" lon="-1.52424">
        <ele>24.00929069519</ele>
        <time>2017-02-14T09:08:33.000Z</time>
      </trkpt>
      <trkpt lat="47.26829" lon="-1.52429">
        <ele>23.975051879883</ele>
        <time>2017-02-14T09:08:36.000Z</time>
      </trkpt>
      <trkpt lat="47.26828" lon="-1.52434">
        <ele>23.943811416626</ele>
        <time>2017-02-14T09:08:39.000Z</time>
      </trkpt>
      <trkpt lat="47.26828" lon="-1.52437">
        <ele>23.918106079102</ele>
        <time>2017-02-14T09:08:41.000Z</time>
      </trkpt>
      <trkpt lat="47.26828" lon="-1.52441">
        <ele>23.900375366211</ele>
        <time>2017-02-14T09:08:44.000Z</time>
      </trkpt>
      <trkpt lat="47.26828" lon="-1.52444">
        <ele>23.892192840576</ele>
        <time>2017-02-14T09:08:46.000Z</time>
      </trkpt>
      <trkpt lat="47.26827" lon="-1.52451">
        <ele>23.887134552002</ele>
        <time>2017-02-14T09:08:49.000Z</time>
      </trkpt>
      <trkpt lat="47.26825" lon="-1.52455">
        <ele>23.879776000977</ele>
        <time>2017-02-14T09:08:51.000Z</time>
      </trkpt>
      <trkpt lat="47.26824" lon="-1.5246">
        <ele>23.868976593018</ele>
        <time>2017-02-14T09:08:53.000Z</time>
      </trkpt>
      <trkpt lat="47.26822" lon="-1.52464">
        <ele>23.851724624634</ele>
        <time>2017-02-14T09:08:55.000Z</time>
      </trkpt>
      <trkpt lat="47.26818" lon="-1.52469">
        <ele>23.823276519775</ele>
        <time>2017-02-14T09:08:58.000Z</time>
      </trkpt>
      <trkpt lat="47.26816" lon="-1.52473">
        <ele>23.791362762451</ele>
        <time>2017-02-14T09:09:01.000Z</time>
      </trkpt>
      <trkpt lat="47.26814" lon="-1.52477">
        <ele>23.762975692749</ele>
        <time>2017-02-14T09:09:04.000Z</time>
      </trkpt>
      <trkpt lat="47.26813" lon="-1.5248">
        <ele>23.737152099609</ele>
        <time>2017-02-14T09:09:06.000Z</time>
      </trkpt>
      <trkpt lat="47.26811" lon="-1.52485">
        <ele>23.713098526001</ele>
        <time>2017-02-14T09:09:09.000Z</time>
      </trkpt>
      <trkpt lat="47.26808" lon="-1.52489">
        <ele>23.693780899048</ele>
        <time>2017-02-14T09:09:12.000Z</time>
      </trkpt>
      <trkpt lat="47.26807" lon="-1.52491">
        <ele>23.678798675537</ele>
        <time>2017-02-14T09:09:14.000Z</time>
      </trkpt>
      <trkpt lat="47.26805" lon="-1.52494">
        <ele>23.663564682007</ele>
        <time>2017-02-14T09:09:16.000Z</time>
      </trkpt>
      <trkpt lat="47.26802" lon="-1.52499">
        <ele>23.648839950562</ele>
        <time>2017-02-14T09:09:19.000Z</time>
      </trkpt>
      <trkpt lat="47.26799" lon="-1.52506">
        <ele>23.628665924072</ele>
        <time>2017-02-14T09:09:22.000Z</time>
      </trkpt>
      <trkpt lat="47.26797" lon="-1.52511">
        <ele>23.607677459717</ele>
        <time>2017-02-14T09:09:24.000Z</time>
      </trkpt>
      <trkpt lat="47.26796" lon="-1.52515">
        <ele>23.584976196289</ele>
        <time>2017-02-14T09:09:26.000Z</time>
      </trkpt>
      <trkpt lat="47.26793" lon="-1.5252">
        <ele>23.559949874878</ele>
        <time>2017-02-14T09:09:29.000Z</time>
      </trkpt>
      <trkpt lat="47.26791" lon="-1.52525">
        <ele>23.533823013306</ele>
        <time>2017-02-14T09:09:32.000Z</time>
      </trkpt>
      <trkpt lat="47.26789" lon="-1.52529">
        <ele>23.516138076782</ele>
        <time>2017-02-14T09:09:34.000Z</time>
      </trkpt>
      <trkpt lat="47.26786" lon="-1.52533">
        <ele>23.502834320068</ele>
        <time>2017-02-14T09:09:37.000Z</time>
      </trkpt>
      <trkpt lat="47.26784" lon="-1.52536">
        <ele>23.494312286377</ele>
        <time>2017-02-14T09:09:39.000Z</time>
      </trkpt>
      <trkpt lat="47.26781" lon="-1.5254">
        <ele>23.491516113281</ele>
        <time>2017-02-14T09:09:42.000Z</time>
      </trkpt>
      <trkpt lat="47.26779" lon="-1.52543">
        <ele>23.493457794189</ele>
        <time>2017-02-14T09:09:44.000Z</time>
      </trkpt>
      <trkpt lat="47.26775" lon="-1.52548">
        <ele>23.501352310181</ele>
        <time>2017-02-14T09:09:47.000Z</time>
      </trkpt>
      <trkpt lat="47.26773" lon="-1.52551">
        <ele>23.513774871826</ele>
        <time>2017-02-14T09:09:49.000Z</time>
      </trkpt>
      <trkpt lat="47.26772" lon="-1.52554">
        <ele>23.530208587646</ele>
        <time>2017-02-14T09:09:51.000Z</time>
      </trkpt>
      <trkpt lat="47.26768" lon="-1.52558">
        <ele>23.554191589355</ele>
        <time>2017-02-14T09:09:54.000Z</time>
      </trkpt>
      <trkpt lat="47.26765" lon="-1.52561">
        <ele>23.582780838013</ele>
        <time>2017-02-14T09:09:56.000Z</time>
      </trkpt>
      <trkpt lat="47.26762" lon="-1.52566">
        <ele>23.618640899658</ele>
        <time>2017-02-14T09:09:59.000Z</time>
      </trkpt>
      <trkpt lat="47.2676" lon="-1.5257">
        <ele>23.659296035767</ele>
        <time>2017-02-14T09:10:01.000Z</time>
      </trkpt>
      <trkpt lat="47.26757" lon="-1.52575">
        <ele>23.711206436157</ele>
        <time>2017-02-14T09:10:04.000Z</time>
      </trkpt>
      <trkpt lat="47.26756" lon="-1.52578">
        <ele>23.762966156006</ele>
        <time>2017-02-14T09:10:06.000Z</time>
      </trkpt>
      <trkpt lat="47.26754" lon="-1.52581">
        <ele>23.81734085083</ele>
        <time>2017-02-14T09:10:08.000Z</time>
      </trkpt>
      <trkpt lat="47.26752" lon="-1.52585">
        <ele>23.869495391846</ele>
        <time>2017-02-14T09:10:11.000Z</time>
      </trkpt>
      <trkpt lat="47.26751" lon="-1.52588">
        <ele>23.917881011963</ele>
        <time>2017-02-14T09:10:13.000Z</time>
      </trkpt>
      <trkpt lat="47.26749" lon="-1.52591">
        <ele>23.952154159546</ele>
        <time>2017-02-14T09:10:15.000Z</time>
      </trkpt>
      <trkpt lat="47.26747" lon="-1.52596">
        <ele>23.978435516357</ele>
        <time>2017-02-14T09:10:18.000Z</time>
      </trkpt>
      <trkpt lat="47.26745" lon="-1.52599">
        <ele>23.996761322021</ele>
        <time>2017-02-14T09:10:20.000Z</time>
      </trkpt>
      <trkpt lat="47.26742" lon="-1.52604">
        <ele>24.00737953186</ele>
        <time>2017-02-14T09:10:23.000Z</time>
      </trkpt>
      <trkpt lat="47.26739" lon="-1.52608">
        <ele>24.016260147095</ele>
        <time>2017-02-14T09:10:26.000Z</time>
      </trkpt>
      <trkpt lat="47.26737" lon="-1.52611">
        <ele>24.026447296143</ele>
        <time>2017-02-14T09:10:28.000Z</time>
      </trkpt>
      <trkpt lat="47.26734" lon="-1.52617">
        <ele>24.040409088135</ele>
        <time>2017-02-14T09:10:31.000Z</time>
      </trkpt>
      <trkpt lat="47.26732" lon="-1.5262">
        <ele>24.057172775269</ele>
        <time>2017-02-14T09:10:33.000Z</time>
      </trkpt>
      <trkpt lat="47.2673" lon="-1.52623">
        <ele>24.075090408325</ele>
        <time>2017-02-14T09:10:35.000Z</time>
      </trkpt>
      <trkpt lat="47.26727" lon="-1.52626">
        <ele>24.095508575439</ele>
        <time>2017-02-14T09:10:38.000Z</time>
      </trkpt>
      <trkpt lat="47.26725" lon="-1.52631">
        <ele>24.11935043335</ele>
        <time>2017-02-14T09:10:41.000Z</time>
      </trkpt>
      <trkpt lat="47.26725" lon="-1.52637">
        <ele>24.143674850464</ele>
        <time>2017-02-14T09:10:44.000Z</time>
      </trkpt>
      <trkpt lat="47.26725" lon="-1.52641">
        <ele>24.165323257446</ele>
        <time>2017-02-14T09:10:46.000Z</time>
      </trkpt>
      <trkpt lat="47.26726" lon="-1.52645">
        <ele>24.184936523438</ele>
        <time>2017-02-14T09:10:48.000Z</time>
      </trkpt>
      <trkpt lat="47.26727" lon="-1.52648">
        <ele>24.20072555542</ele>
        <time>2017-02-14T09:10:50.000Z</time>
      </trkpt>
      <trkpt lat="47.26727" lon="-1.52653">
        <ele>24.213502883911</ele>
        <time>2017-02-14T09:10:52.000Z</time>
      </trkpt>
      <trkpt lat="47.26727" lon="-1.52659">
        <ele>24.225408554077</ele>
        <time>2017-02-14T09:10:55.000Z</time>
      </trkpt>
      <trkpt lat="47.26727" lon="-1.52664">
        <ele>24.238916397095</ele>
        <time>2017-02-14T09:10:57.000Z</time>
      </trkpt>
      <trkpt lat="47.26726" lon="-1.5267">
        <ele>24.270412445068</ele>
        <time>2017-02-14T09:11:00.000Z</time>
      </trkpt>
      <trkpt lat="47.26727" lon="-1.52676">
        <ele>24.328701019287</ele>
        <time>2017-02-14T09:11:03.000Z</time>
      </trkpt>
      <trkpt lat="47.26726" lon="-1.52683">
        <ele>24.417669296265</ele>
        <time>2017-02-14T09:11:06.000Z</time>
      </trkpt>
      <trkpt lat="47.26726" lon="-1.52688">
        <ele>24.525104522705</ele>
        <time>2017-02-14T09:11:08.000Z</time>
      </trkpt>
      <trkpt lat="47.26725" lon="-1.52694">
        <ele>24.662170410156</ele>
        <time>2017-02-14T09:11:11.000Z</time>
      </trkpt>
      <trkpt lat="47.26725" lon="-1.527">
        <ele>24.809204101562</ele>
        <time>2017-02-14T09:11:14.000Z</time>
      </trkpt>
      <trkpt lat="47.26724" lon="-1.52704">
        <ele>24.94970703125</ele>
        <time>2017-02-14T09:11:16.000Z</time>
      </trkpt>
      <trkpt lat="47.26723" lon="-1.52708">
        <ele>25.07763671875</ele>
        <time>2017-02-14T09:11:18.000Z</time>
      </trkpt>
      <trkpt lat="47.26722" lon="-1.52714">
        <ele>25.212158203125</ele>
        <time>2017-02-14T09:11:21.000Z</time>
      </trkpt>
      <trkpt lat="47.26722" lon="-1.52718">
        <ele>25.333557128906</ele>
        <time>2017-02-14T09:11:23.000Z</time>
      </trkpt>
      <trkpt lat="47.2672" lon="-1.52721">
        <ele>25.445373535156</ele>
        <time>2017-02-14T09:11:25.000Z</time>
      </trkpt>
      <trkpt lat="47.26719" lon="-1.52724">
        <ele>25.554016113281</ele>
        <time>2017-02-14T09:11:27.000Z</time>
      </trkpt>
      <trkpt lat="47.26718" lon="-1.52731">
        <ele>25.674194335938</ele>
        <time>2017-02-14T09:11:30.000Z</time>
      </trkpt>
      <trkpt lat="47.26717" lon="-1.52735">
        <ele>25.784545898438</ele>
        <time>2017-02-14T09:11:32.000Z</time>
      </trkpt>
      <trkpt lat="47.26716" lon="-1.5274">
        <ele>25.906188964844</ele>
        <time>2017-02-14T09:11:35.000Z</time>
      </trkpt>
      <trkpt lat="47.26716" lon="-1.52746">
        <ele>26.035583496094</ele>
        <time>2017-02-14T09:11:38.000Z</time>
      </trkpt>
      <trkpt lat="47.26716" lon="-1.52749">
        <ele>26.162963867188</ele>
        <time>2017-02-14T09:11:40.000Z</time>
      </trkpt>
      <trkpt lat="47.26715" lon="-1.52753">
        <ele>26.250202178955</ele>
        <time>2017-02-14T09:11:42.000Z</time>
      </trkpt>
      <trkpt lat="47.26715" lon="-1.5276">
        <ele>26.297967910767</ele>
        <time>2017-02-14T09:11:45.000Z</time>
      </trkpt>
      <trkpt lat="47.26714" lon="-1.52766">
        <ele>26.29693031311</ele>
        <time>2017-02-14T09:11:48.000Z</time>
      </trkpt>
      <trkpt lat="47.26713" lon="-1.5277">
        <ele>26.255849838257</ele>
        <time>2017-02-14T09:11:50.000Z</time>
      </trkpt>
      <trkpt lat="47.26712" lon="-1.52776">
        <ele>26.179210662842</ele>
        <time>2017-02-14T09:11:53.000Z</time>
      </trkpt>
      <trkpt lat="47.26711" lon="-1.52781">
        <ele>26.092365264893</ele>
        <time>2017-02-14T09:11:56.000Z</time>
      </trkpt>
      <trkpt lat="47.2671" lon="-1.52785">
        <ele>26.013156890869</ele>
        <time>2017-02-14T09:11:58.000Z</time>
      </trkpt>
      <trkpt lat="47.26709" lon="-1.52791">
        <ele>25.931102752686</ele>
        <time>2017-02-14T09:12:01.000Z</time>
      </trkpt>
      <trkpt lat="47.26707" lon="-1.52799">
        <ele>25.837009429932</ele>
        <time>2017-02-14T09:12:04.000Z</time>
      </trkpt>
      <trkpt lat="47.26706" lon="-1.52803">
        <ele>25.746881484985</ele>
        <time>2017-02-14T09:12:06.000Z</time>
      </trkpt>
      <trkpt lat="47.26705" lon="-1.52806">
        <ele>25.66335105896</ele>
        <time>2017-02-14T09:12:08.000Z</time>
      </trkpt>
      <trkpt lat="47.26704" lon="-1.52811">
        <ele>25.572860717773</ele>
        <time>2017-02-14T09:12:11.000Z</time>
      </trkpt>
      <trkpt lat="47.26704" lon="-1.52815">
        <ele>25.4912109375</ele>
        <time>2017-02-14T09:12:13.000Z</time>
      </trkpt>
      <trkpt lat="47.26704" lon="-1.52818">
        <ele>25.420660018921</ele>
        <time>2017-02-14T09:12:15.000Z</time>
      </trkpt>
      <trkpt lat="47.26703" lon="-1.52822">
        <ele>25.35032081604</ele>
        <time>2017-02-14T09:12:17.000Z</time>
      </trkpt>
      <trkpt lat="47.26704" lon="-1.52828">
        <ele>25.270666122437</ele>
        <time>2017-02-14T09:12:20.000Z</time>
      </trkpt>
      <trkpt lat="47.26704" lon="-1.52831">
        <ele>25.198516845703</ele>
        <time>2017-02-14T09:12:22.000Z</time>
      </trkpt>
      <trkpt lat="47.26704" lon="-1.52833">
        <ele>25.128427505493</ele>
        <time>2017-02-14T09:12:24.000Z</time>
      </trkpt>
      <trkpt lat="47.26704" lon="-1.52837">
        <ele>25.057357788086</ele>
        <time>2017-02-14T09:12:27.000Z</time>
      </trkpt>
      <trkpt lat="47.26702" lon="-1.5284">
        <ele>24.990575790405</ele>
        <time>2017-02-14T09:12:29.000Z</time>
      </trkpt>
      <trkpt lat="47.26701" lon="-1.52842">
        <ele>24.936754226685</ele>
        <time>2017-02-14T09:12:31.000Z</time>
      </trkpt>
      <trkpt lat="47.267" lon="-1.52843">
        <ele>24.889850616455</ele>
        <time>2017-02-14T09:12:33.000Z</time>
      </trkpt>
      <trkpt lat="47.26699" lon="-1.52845">
        <ele>24.843967437744</ele>
        <time>2017-02-14T09:12:36.000Z</time>
      </trkpt>
      <trkpt lat="47.26698" lon="-1.52847">
        <ele>24.804374694824</ele>
        <time>2017-02-14T09:12:38.000Z</time>
      </trkpt>
      <trkpt lat="47.26698" lon="-1.52851">
        <ele>24.759805679321</ele>
        <time>2017-02-14T09:12:41.000Z</time>
      </trkpt>
      <trkpt lat="47.26697" lon="-1.52856">
        <ele>24.704210281372</ele>
        <time>2017-02-14T09:12:44.000Z</time>
      </trkpt>
      <trkpt lat="47.26696" lon="-1.52861">
        <ele>24.631336212158</ele>
        <time>2017-02-14T09:12:47.000Z</time>
      </trkpt>
      <trkpt lat="47.26695" lon="-1.52866">
        <ele>24.546728134155</ele>
        <time>2017-02-14T09:12:50.000Z</time>
      </trkpt>
      <trkpt lat="47.26695" lon="-1.52871">
        <ele>24.450634002686</ele>
        <time>2017-02-14T09:12:53.000Z</time>
      </trkpt>
      <trkpt lat="47.26695" lon="-1.52874">
        <ele>24.358484268188</ele>
        <time>2017-02-14T09:12:55.000Z</time>
      </trkpt>
      <trkpt lat="47.26696" lon="-1.52878">
        <ele>24.270343780518</ele>
        <time>2017-02-14T09:12:58.000Z</time>
      </trkpt>
      <trkpt lat="47.26698" lon="-1.52881">
        <ele>24.196691513062</ele>
        <time>2017-02-14T09:13:01.000Z</time>
      </trkpt>
      <trkpt lat="47.26699" lon="-1.52883">
        <ele>24.133411407471</ele>
        <time>2017-02-14T09:13:03.000Z</time>
      </trkpt>
      <trkpt lat="47.26698" lon="-1.52888">
        <ele>24.070697784424</ele>
        <time>2017-02-14T09:13:06.000Z</time>
      </trkpt>
      <trkpt lat="47.26696" lon="-1.52893">
        <ele>23.997995376587</ele>
        <time>2017-02-14T09:13:08.000Z</time>
      </trkpt>
      <trkpt lat="47.26694" lon="-1.529">
        <ele>23.905395507812</ele>
        <time>2017-02-14T09:13:11.000Z</time>
      </trkpt>
      <trkpt lat="47.26693" lon="-1.52907">
        <ele>23.791999816895</ele>
        <time>2017-02-14T09:13:14.000Z</time>
      </trkpt>
      <trkpt lat="47.26693" lon="-1.52912">
        <ele>23.669063568115</ele>
        <time>2017-02-14T09:13:16.000Z</time>
      </trkpt>
      <trkpt lat="47.26692" lon="-1.52918">
        <ele>23.534524917603</ele>
        <time>2017-02-14T09:13:19.000Z</time>
      </trkpt>
      <trkpt lat="47.26691" lon="-1.52924">
        <ele>23.395557403564</ele>
        <time>2017-02-14T09:13:22.000Z</time>
      </trkpt>
      <trkpt lat="47.26691" lon="-1.52928">
        <ele>23.274364471436</ele>
        <time>2017-02-14T09:13:24.000Z</time>
      </trkpt>
      <trkpt lat="47.26691" lon="-1.52935">
        <ele>23.149181365967</ele>
        <time>2017-02-14T09:13:27.000Z</time>
      </trkpt>
      <trkpt lat="47.2669" lon="-1.52941">
        <ele>23.013767242432</ele>
        <time>2017-02-14T09:13:30.000Z</time>
      </trkpt>
      <trkpt lat="47.26688" lon="-1.52947">
        <ele>22.884609222412</ele>
        <time>2017-02-14T09:13:33.000Z</time>
      </trkpt>
      <trkpt lat="47.26687" lon="-1.52952">
        <ele>22.757989883423</ele>
        <time>2017-02-14T09:13:36.000Z</time>
      </trkpt>
      <trkpt lat="47.26686" lon="-1.52958">
        <ele>22.626844406128</ele>
        <time>2017-02-14T09:13:39.000Z</time>
      </trkpt>
      <trkpt lat="47.26685" lon="-1.52963">
        <ele>22.508823394775</ele>
        <time>2017-02-14T09:13:42.000Z</time>
      </trkpt>
      <trkpt lat="47.26685" lon="-1.52967">
        <ele>22.407434463501</ele>
        <time>2017-02-14T09:13:44.000Z</time>
      </trkpt>
      <trkpt lat="47.26683" lon="-1.52973">
        <ele>22.309753417969</ele>
        <time>2017-02-14T09:13:47.000Z</time>
      </trkpt>
      <trkpt lat="47.26682" lon="-1.52977">
        <ele>22.224111557007</ele>
        <time>2017-02-14T09:13:49.000Z</time>
      </trkpt>
      <trkpt lat="47.2668" lon="-1.52983">
        <ele>22.139282226562</ele>
        <time>2017-02-14T09:13:52.000Z</time>
      </trkpt>
      <trkpt lat="47.26678" lon="-1.5299">
        <ele>22.055904388428</ele>
        <time>2017-02-14T09:13:55.000Z</time>
      </trkpt>
      <trkpt lat="47.26678" lon="-1.52995">
        <ele>21.973888397217</ele>
        <time>2017-02-14T09:13:57.000Z</time>
      </trkpt>
      <trkpt lat="47.26677" lon="-1.53001">
        <ele>21.890336990356</ele>
        <time>2017-02-14T09:14:00.000Z</time>
      </trkpt>
      <trkpt lat="47.26677" lon="-1.53006">
        <ele>21.787734985352</ele>
        <time>2017-02-14T09:14:02.000Z</time>
      </trkpt>
      <trkpt lat="47.26675" lon="-1.53013">
        <ele>21.663766860962</ele>
        <time>2017-02-14T09:14:05.000Z</time>
      </trkpt>
      <trkpt lat="47.26674" lon="-1.53016">
        <ele>21.53609085083</ele>
        <time>2017-02-14T09:14:07.000Z</time>
      </trkpt>
      <trkpt lat="47.26674" lon="-1.53019">
        <ele>21.402811050415</ele>
        <time>2017-02-14T09:14:09.000Z</time>
      </trkpt>
      <trkpt lat="47.26674" lon="-1.53024">
        <ele>21.262523651123</ele>
        <time>2017-02-14T09:14:11.000Z</time>
      </trkpt>
      <trkpt lat="47.26672" lon="-1.5303">
        <ele>21.114765167236</ele>
        <time>2017-02-14T09:14:14.000Z</time>
      </trkpt>
      <trkpt lat="47.26671" lon="-1.53035">
        <ele>20.972520828247</ele>
        <time>2017-02-14T09:14:17.000Z</time>
      </trkpt>
      <trkpt lat="47.2667" lon="-1.53041">
        <ele>20.814514160156</ele>
        <time>2017-02-14T09:14:20.000Z</time>
      </trkpt>
      <trkpt lat="47.26669" lon="-1.53047">
        <ele>20.636167526245</ele>
        <time>2017-02-14T09:14:23.000Z</time>
      </trkpt>
      <trkpt lat="47.26667" lon="-1.53054">
        <ele>20.444812774658</ele>
        <time>2017-02-14T09:14:26.000Z</time>
      </trkpt>
      <trkpt lat="47.26665" lon="-1.5306">
        <ele>20.257848739624</ele>
        <time>2017-02-14T09:14:29.000Z</time>
      </trkpt>
      <trkpt lat="47.26661" lon="-1.53065">
        <ele>20.093229293823</ele>
        <time>2017-02-14T09:14:32.000Z</time>
      </trkpt>
      <trkpt lat="47.26658" lon="-1.53071">
        <ele>19.943553924561</ele>
        <time>2017-02-14T09:14:35.000Z</time>
      </trkpt>
      <trkpt lat="47.26657" lon="-1.53078">
        <ele>19.793573379517</ele>
        <time>2017-02-14T09:14:38.000Z</time>
      </trkpt>
      <trkpt lat="47.26656" lon="-1.53083">
        <ele>19.666126251221</ele>
        <time>2017-02-14T09:14:40.000Z</time>
      </trkpt>
      <trkpt lat="47.26654" lon="-1.53087">
        <ele>19.56000328064</ele>
        <time>2017-02-14T09:14:42.000Z</time>
      </trkpt>
      <trkpt lat="47.26651" lon="-1.53094">
        <ele>19.453939437866</ele>
        <time>2017-02-14T09:14:45.000Z</time>
      </trkpt>
      <trkpt lat="47.26649" lon="-1.53098">
        <ele>19.366344451904</ele>
        <time>2017-02-14T09:14:47.000Z</time>
      </trkpt>
      <trkpt lat="47.26645" lon="-1.53103">
        <ele>19.314596176147</ele>
        <time>2017-02-14T09:14:50.000Z</time>
      </trkpt>
      <trkpt lat="47.26643" lon="-1.53106">
        <ele>19.279088973999</ele>
        <time>2017-02-14T09:14:52.000Z</time>
      </trkpt>
      <trkpt lat="47.26641" lon="-1.53109">
        <ele>19.252372741699</ele>
        <time>2017-02-14T09:14:54.000Z</time>
      </trkpt>
      <trkpt lat="47.26639" lon="-1.53112">
        <ele>19.235359191895</ele>
        <time>2017-02-14T09:14:56.000Z</time>
      </trkpt>
      <trkpt lat="47.26635" lon="-1.53116">
        <ele>19.221973419189</ele>
        <time>2017-02-14T09:14:59.000Z</time>
      </trkpt>
      <trkpt lat="47.26633" lon="-1.53118">
        <ele>19.212652206421</ele>
        <time>2017-02-14T09:15:01.000Z</time>
      </trkpt>
      <trkpt lat="47.2663" lon="-1.53122">
        <ele>19.204668045044</ele>
        <time>2017-02-14T09:15:04.000Z</time>
      </trkpt>
      <trkpt lat="47.26627" lon="-1.53126">
        <ele>19.196809768677</ele>
        <time>2017-02-14T09:15:07.000Z</time>
      </trkpt>
      <trkpt lat="47.26625" lon="-1.53128">
        <ele>19.189111709595</ele>
        <time>2017-02-14T09:15:09.000Z</time>
      </trkpt>
      <trkpt lat="47.26622" lon="-1.53132">
        <ele>19.175405502319</ele>
        <time>2017-02-14T09:15:12.000Z</time>
      </trkpt>
      <trkpt lat="47.26618" lon="-1.53136">
        <ele>19.156351089478</ele>
        <time>2017-02-14T09:15:15.000Z</time>
      </trkpt>
      <trkpt lat="47.26614" lon="-1.53141">
        <ele>19.131708145142</ele>
        <time>2017-02-14T09:15:18.000Z</time>
      </trkpt>
      <trkpt lat="47.26612" lon="-1.53143">
        <ele>19.103187561035</ele>
        <time>2017-02-14T09:15:20.000Z</time>
      </trkpt>
      <trkpt lat="47.26611" lon="-1.53148">
        <ele>19.061227798462</ele>
        <time>2017-02-14T09:15:23.000Z</time>
      </trkpt>
      <trkpt lat="47.26609" lon="-1.53151">
        <ele>19.015829086304</ele>
        <time>2017-02-14T09:15:25.000Z</time>
      </trkpt>
      <trkpt lat="47.26606" lon="-1.53155">
        <ele>18.959728240967</ele>
        <time>2017-02-14T09:15:28.000Z</time>
      </trkpt>
      <trkpt lat="47.26605" lon="-1.53157">
        <ele>18.901926040649</ele>
        <time>2017-02-14T09:15:30.000Z</time>
      </trkpt>
      <trkpt lat="47.26604" lon="-1.5316">
        <ele>18.841773986816</ele>
        <time>2017-02-14T09:15:32.000Z</time>
      </trkpt>
      <trkpt lat="47.26601" lon="-1.53164">
        <ele>18.785320281982</ele>
        <time>2017-02-14T09:15:35.000Z</time>
      </trkpt>
      <trkpt lat="47.26599" lon="-1.53167">
        <ele>18.728879928589</ele>
        <time>2017-02-14T09:15:37.000Z</time>
      </trkpt>
      <trkpt lat="47.26596" lon="-1.5317">
        <ele>18.685493469238</ele>
        <time>2017-02-14T09:15:40.000Z</time>
      </trkpt>
      <trkpt lat="47.26594" lon="-1.53172">
        <ele>18.651805877686</ele>
        <time>2017-02-14T09:15:42.000Z</time>
      </trkpt>
      <trkpt lat="47.26592" lon="-1.53174">
        <ele>18.630275726318</ele>
        <time>2017-02-14T09:15:44.000Z</time>
      </trkpt>
      <trkpt lat="47.26589" lon="-1.53177">
        <ele>18.623020172119</ele>
        <time>2017-02-14T09:15:47.000Z</time>
      </trkpt>
      <trkpt lat="47.26587" lon="-1.53179">
        <ele>18.624557495117</ele>
        <time>2017-02-14T09:15:49.000Z</time>
      </trkpt>
      <trkpt lat="47.26582" lon="-1.53181">
        <ele>18.641363143921</ele>
        <time>2017-02-14T09:15:52.000Z</time>
      </trkpt>
      <trkpt lat="47.2658" lon="-1.53181">
        <ele>18.67746925354</ele>
        <time>2017-02-14T09:15:54.000Z</time>
      </trkpt>
      <trkpt lat="47.26575" lon="-1.53182">
        <ele>18.739263534546</ele>
        <time>2017-02-14T09:15:57.000Z</time>
      </trkpt>
      <trkpt lat="47.26573" lon="-1.53181">
        <ele>18.824258804321</ele>
        <time>2017-02-14T09:15:59.000Z</time>
      </trkpt>
      <trkpt lat="47.2657" lon="-1.5318">
        <ele>18.937021255493</ele>
        <time>2017-02-14T09:16:01.000Z</time>
      </trkpt>
      <trkpt lat="47.26566" lon="-1.53177">
        <ele>19.077781677246</ele>
        <time>2017-02-14T09:16:04.000Z</time>
      </trkpt>
      <trkpt lat="47.26563" lon="-1.53176">
        <ele>19.223917007446</ele>
        <time>2017-02-14T09:16:06.000Z</time>
      </trkpt>
      <trkpt lat="47.2656" lon="-1.53175">
        <ele>19.374069213867</ele>
        <time>2017-02-14T09:16:09.000Z</time>
      </trkpt>
      <trkpt lat="47.26556" lon="-1.53173">
        <ele>19.53563117981</ele>
        <time>2017-02-14T09:16:12.000Z</time>
      </trkpt>
      <trkpt lat="47.26553" lon="-1.53172">
        <ele>19.692077636719</ele>
        <time>2017-02-14T09:16:14.000Z</time>
      </trkpt>
      <trkpt lat="47.2655" lon="-1.53172">
        <ele>19.83017539978</ele>
        <time>2017-02-14T09:16:16.000Z</time>
      </trkpt>
      <trkpt lat="47.26545" lon="-1.53171">
        <ele>19.986194610596</ele>
        <time>2017-02-14T09:16:19.000Z</time>
      </trkpt>
      <trkpt lat="47.26542" lon="-1.5317">
        <ele>20.140277862549</ele>
        <time>2017-02-14T09:16:21.000Z</time>
      </trkpt>
      <trkpt lat="47.26538" lon="-1.53168">
        <ele>20.289022445679</ele>
        <time>2017-02-14T09:16:23.000Z</time>
      </trkpt>
      <trkpt lat="47.26535" lon="-1.53165">
        <ele>20.443988800049</ele>
        <time>2017-02-14T09:16:26.000Z</time>
      </trkpt>
      <trkpt lat="47.26533" lon="-1.53163">
        <ele>20.595813751221</ele>
        <time>2017-02-14T09:16:28.000Z</time>
      </trkpt>
      <trkpt lat="47.26531" lon="-1.5316">
        <ele>20.731874465942</ele>
        <time>2017-02-14T09:16:31.000Z</time>
      </trkpt>
      <trkpt lat="47.26529" lon="-1.53154">
        <ele>20.864749908447</ele>
        <time>2017-02-14T09:16:34.000Z</time>
      </trkpt>
      <trkpt lat="47.26526" lon="-1.53149">
        <ele>20.993734359741</ele>
        <time>2017-02-14T09:16:37.000Z</time>
      </trkpt>
      <trkpt lat="47.26525" lon="-1.53145">
        <ele>21.111324310303</ele>
        <time>2017-02-14T09:16:39.000Z</time>
      </trkpt>
      <trkpt lat="47.26522" lon="-1.53142">
        <ele>21.226978302002</ele>
        <time>2017-02-14T09:16:42.000Z</time>
      </trkpt>
      <trkpt lat="47.2652" lon="-1.53138">
        <ele>21.335670471191</ele>
        <time>2017-02-14T09:16:45.000Z</time>
      </trkpt>
      <trkpt lat="47.26519" lon="-1.53135">
        <ele>21.428482055664</ele>
        <time>2017-02-14T09:16:47.000Z</time>
      </trkpt>
      <trkpt lat="47.26518" lon="-1.5313">
        <ele>21.505229949951</ele>
        <time>2017-02-14T09:16:49.000Z</time>
      </trkpt>
      <trkpt lat="47.26516" lon="-1.53128">
        <ele>21.577251434326</ele>
        <time>2017-02-14T09:16:51.000Z</time>
      </trkpt>
      <trkpt lat="47.26512" lon="-1.53126">
        <ele>21.648122787476</ele>
        <time>2017-02-14T09:16:54.000Z</time>
      </trkpt>
      <trkpt lat="47.26508" lon="-1.53127">
        <ele>21.712139129639</ele>
        <time>2017-02-14T09:16:56.000Z</time>
      </trkpt>
      <trkpt lat="47.26505" lon="-1.53128">
        <ele>21.776052474976</ele>
        <time>2017-02-14T09:16:58.000Z</time>
      </trkpt>
      <trkpt lat="47.26502" lon="-1.53129">
        <ele>21.840822219849</ele>
        <time>2017-02-14T09:17:00.000Z</time>
      </trkpt>
      <trkpt lat="47.26498" lon="-1.53131">
        <ele>21.886810302734</ele>
        <time>2017-02-14T09:17:03.000Z</time>
      </trkpt>
      <trkpt lat="47.26494" lon="-1.53133">
        <ele>21.888065338135</ele>
        <time>2017-02-14T09:17:06.000Z</time>
      </trkpt>
      <trkpt lat="47.2649" lon="-1.53135">
        <ele>21.852970123291</ele>
        <time>2017-02-14T09:17:09.000Z</time>
      </trkpt>
      <trkpt lat="47.26486" lon="-1.53136">
        <ele>21.774450302124</ele>
        <time>2017-02-14T09:17:12.000Z</time>
      </trkpt>
      <trkpt lat="47.26482" lon="-1.53135">
        <ele>21.660081863403</ele>
        <time>2017-02-14T09:17:15.000Z</time>
      </trkpt>
      <trkpt lat="47.26479" lon="-1.53136">
        <ele>21.529071807861</ele>
        <time>2017-02-14T09:17:18.000Z</time>
      </trkpt>
      <trkpt lat="47.26475" lon="-1.53137">
        <ele>21.392332077026</ele>
        <time>2017-02-14T09:17:21.000Z</time>
      </trkpt>
      <trkpt lat="47.26471" lon="-1.53138">
        <ele>21.248098373413</ele>
        <time>2017-02-14T09:17:24.000Z</time>
      </trkpt>
      <trkpt lat="47.26467" lon="-1.53138">
        <ele>21.112903594971</ele>
        <time>2017-02-14T09:17:27.000Z</time>
      </trkpt>
      <trkpt lat="47.26464" lon="-1.53138">
        <ele>20.982748031616</ele>
        <time>2017-02-14T09:17:30.000Z</time>
      </trkpt>
      <trkpt lat="47.26461" lon="-1.53137">
        <ele>20.85524559021</ele>
        <time>2017-02-14T09:17:33.000Z</time>
      </trkpt>
      <trkpt lat="47.26458" lon="-1.53136">
        <ele>20.743993759155</ele>
        <time>2017-02-14T09:17:35.000Z</time>
      </trkpt>
      <trkpt lat="47.26456" lon="-1.53136">
        <ele>20.646715164185</ele>
        <time>2017-02-14T09:17:37.000Z</time>
      </trkpt>
      <trkpt lat="47.26453" lon="-1.53136">
        <ele>20.554363250732</ele>
        <time>2017-02-14T09:17:39.000Z</time>
      </trkpt>
      <trkpt lat="47.2645" lon="-1.53138">
        <ele>20.44825553894</ele>
        <time>2017-02-14T09:17:42.000Z</time>
      </trkpt>
      <trkpt lat="47.26448" lon="-1.5314">
        <ele>20.344638824463</ele>
        <time>2017-02-14T09:17:44.000Z</time>
      </trkpt>
      <trkpt lat="47.26445" lon="-1.53141">
        <ele>20.225498199463</ele>
        <time>2017-02-14T09:17:47.000Z</time>
      </trkpt>
      <trkpt lat="47.26442" lon="-1.53144">
        <ele>20.086736679077</ele>
        <time>2017-02-14T09:17:50.000Z</time>
      </trkpt>
      <trkpt lat="47.26437" lon="-1.53145">
        <ele>19.927133560181</ele>
        <time>2017-02-14T09:17:53.000Z</time>
      </trkpt>
      <trkpt lat="47.26434" lon="-1.53146">
        <ele>19.769458770752</ele>
        <time>2017-02-14T09:17:56.000Z</time>
      </trkpt>
      <trkpt lat="47.26432" lon="-1.53146">
        <ele>19.611396789551</ele>
        <time>2017-02-14T09:17:59.000Z</time>
      </trkpt>
      <trkpt lat="47.26429" lon="-1.53146">
        <ele>19.469398498535</ele>
        <time>2017-02-14T09:18:01.000Z</time>
      </trkpt>
      <trkpt lat="47.26425" lon="-1.53146">
        <ele>19.325119018555</ele>
        <time>2017-02-14T09:18:04.000Z</time>
      </trkpt>
      <trkpt lat="47.26422" lon="-1.53147">
        <ele>19.191120147705</ele>
        <time>2017-02-14T09:18:06.000Z</time>
      </trkpt>
      <trkpt lat="47.26418" lon="-1.53147">
        <ele>19.054946899414</ele>
        <time>2017-02-14T09:18:09.000Z</time>
      </trkpt>
      <trkpt lat="47.26413" lon="-1.53149">
        <ele>18.901655197144</ele>
        <time>2017-02-14T09:18:12.000Z</time>
      </trkpt>
      <trkpt lat="47.26408" lon="-1.53151">
        <ele>18.737844467163</ele>
        <time>2017-02-14T09:18:15.000Z</time>
      </trkpt>
      <trkpt lat="47.26405" lon="-1.53151">
        <ele>18.599040985107</ele>
        <time>2017-02-14T09:18:17.000Z</time>
      </trkpt>
      <trkpt lat="47.26399" lon="-1.53152">
        <ele>18.469268798828</ele>
        <time>2017-02-14T09:18:20.000Z</time>
      </trkpt>
      <trkpt lat="47.26395" lon="-1.53151">
        <ele>18.360876083374</ele>
        <time>2017-02-14T09:18:22.000Z</time>
      </trkpt>
      <trkpt lat="47.26392" lon="-1.53152">
        <ele>18.278133392334</ele>
        <time>2017-02-14T09:18:24.000Z</time>
      </trkpt>
      <trkpt lat="47.26389" lon="-1.53152">
        <ele>18.206939697266</ele>
        <time>2017-02-14T09:18:26.000Z</time>
      </trkpt>
      <trkpt lat="47.26385" lon="-1.53153">
        <ele>18.136028289795</ele>
        <time>2017-02-14T09:18:28.000Z</time>
      </trkpt>
      <trkpt lat="47.2638" lon="-1.53153">
        <ele>18.063289642334</ele>
        <time>2017-02-14T09:18:31.000Z</time>
      </trkpt>
      <trkpt lat="47.26375" lon="-1.53154">
        <ele>17.986034393311</ele>
        <time>2017-02-14T09:18:34.000Z</time>
      </trkpt>
      <trkpt lat="47.26372" lon="-1.53153">
        <ele>17.910104751587</ele>
        <time>2017-02-14T09:18:36.000Z</time>
      </trkpt>
      <trkpt lat="47.26369" lon="-1.53152">
        <ele>17.848052978516</ele>
        <time>2017-02-14T09:18:38.000Z</time>
      </trkpt>
      <trkpt lat="47.26364" lon="-1.53148">
        <ele>17.799884796143</ele>
        <time>2017-02-14T09:18:41.000Z</time>
      </trkpt>
      <trkpt lat="47.26361" lon="-1.53145">
        <ele>17.77240562439</ele>
        <time>2017-02-14T09:18:43.000Z</time>
      </trkpt>
      <trkpt lat="47.26358" lon="-1.53142">
        <ele>17.766042709351</ele>
        <time>2017-02-14T09:18:46.000Z</time>
      </trkpt>
      <trkpt lat="47.26357" lon="-1.53138">
        <ele>17.774757385254</ele>
        <time>2017-02-14T09:18:48.000Z</time>
      </trkpt>
      <trkpt lat="47.26356" lon="-1.53135">
        <ele>17.791885375977</ele>
        <time>2017-02-14T09:18:50.000Z</time>
      </trkpt>
      <trkpt lat="47.26355" lon="-1.5313">
        <ele>17.824310302734</ele>
        <time>2017-02-14T09:18:53.000Z</time>
      </trkpt>
      <trkpt lat="47.26353" lon="-1.53125">
        <ele>17.867206573486</ele>
        <time>2017-02-14T09:18:56.000Z</time>
      </trkpt>
      <trkpt lat="47.26351" lon="-1.53122">
        <ele>17.909194946289</ele>
        <time>2017-02-14T09:18:58.000Z</time>
      </trkpt>
      <trkpt lat="47.26348" lon="-1.5312">
        <ele>17.936834335327</ele>
        <time>2017-02-14T09:19:01.000Z</time>
      </trkpt>
      <trkpt lat="47.26345" lon="-1.53119">
        <ele>17.944458007812</ele>
        <time>2017-02-14T09:19:04.000Z</time>
      </trkpt>
      <trkpt lat="47.26343" lon="-1.53118">
        <ele>17.925064086914</ele>
        <time>2017-02-14T09:19:06.000Z</time>
      </trkpt>
      <trkpt lat="47.26337" lon="-1.53115">
        <ele>17.876123428345</ele>
        <time>2017-02-14T09:19:09.000Z</time>
      </trkpt>
      <trkpt lat="47.26334" lon="-1.53116">
        <ele>17.804983139038</ele>
        <time>2017-02-14T09:19:11.000Z</time>
      </trkpt>
      <trkpt lat="47.26332" lon="-1.53119">
        <ele>17.716255187988</ele>
        <time>2017-02-14T09:19:13.000Z</time>
      </trkpt>
      <trkpt lat="47.26329" lon="-1.53122">
        <ele>17.596700668335</ele>
        <time>2017-02-14T09:19:16.000Z</time>
      </trkpt>
      <trkpt lat="47.26327" lon="-1.53124">
        <ele>17.460227966309</ele>
        <time>2017-02-14T09:19:18.000Z</time>
      </trkpt>
      <trkpt lat="47.26324" lon="-1.53125">
        <ele>17.30352973938</ele>
        <time>2017-02-14T09:19:20.000Z</time>
      </trkpt>
      <trkpt lat="47.26321" lon="-1.53124">
        <ele>17.132349014282</ele>
        <time>2017-02-14T09:19:22.000Z</time>
      </trkpt>
      <trkpt lat="47.26316" lon="-1.53123">
        <ele>16.923227310181</ele>
        <time>2017-02-14T09:19:25.000Z</time>
      </trkpt>
      <trkpt lat="47.26313" lon="-1.53122">
        <ele>16.723155975342</ele>
        <time>2017-02-14T09:19:27.000Z</time>
      </trkpt>
      <trkpt lat="47.26309" lon="-1.53121">
        <ele>16.500347137451</ele>
        <time>2017-02-14T09:19:30.000Z</time>
      </trkpt>
      <trkpt lat="47.26305" lon="-1.53122">
        <ele>16.268045425415</ele>
        <time>2017-02-14T09:19:33.000Z</time>
      </trkpt>
      <trkpt lat="47.26302" lon="-1.53125">
        <ele>16.032094955444</ele>
        <time>2017-02-14T09:19:36.000Z</time>
      </trkpt>
      <trkpt lat="47.26299" lon="-1.53127">
        <ele>15.833923339844</ele>
        <time>2017-02-14T09:19:38.000Z</time>
      </trkpt>
      <trkpt lat="47.26297" lon="-1.53128">
        <ele>15.648602485657</ele>
        <time>2017-02-14T09:19:40.000Z</time>
      </trkpt>
      <trkpt lat="47.26295" lon="-1.53129">
        <ele>15.487279891968</ele>
        <time>2017-02-14T09:19:42.000Z</time>
      </trkpt>
      <trkpt lat="47.26293" lon="-1.5313">
        <ele>15.354078292847</ele>
        <time>2017-02-14T09:19:45.000Z</time>
      </trkpt>
      <trkpt lat="47.26291" lon="-1.53133">
        <ele>15.243710517883</ele>
        <time>2017-02-14T09:19:48.000Z</time>
      </trkpt>
      <trkpt lat="47.26287" lon="-1.53137">
        <ele>15.133337020874</ele>
        <time>2017-02-14T09:19:51.000Z</time>
      </trkpt>
      <trkpt lat="47.26285" lon="-1.53139">
        <ele>15.025357246399</ele>
        <time>2017-02-14T09:19:53.000Z</time>
      </trkpt>
      <trkpt lat="47.26283" lon="-1.53141">
        <ele>14.930397033691</ele>
        <time>2017-02-14T09:19:55.000Z</time>
      </trkpt>
      <trkpt lat="47.26281" lon="-1.53145">
        <ele>14.84956073761</ele>
        <time>2017-02-14T09:19:58.000Z</time>
      </trkpt>
      <trkpt lat="47.2628" lon="-1.53147">
        <ele>14.778950691223</ele>
        <time>2017-02-14T09:20:01.000Z</time>
      </trkpt>
      <trkpt lat="47.26278" lon="-1.53151">
        <ele>14.737652778625</ele>
        <time>2017-02-14T09:20:03.000Z</time>
      </trkpt>
      <trkpt lat="47.26276" lon="-1.53154">
        <ele>14.710309028625</ele>
        <time>2017-02-14T09:20:05.000Z</time>
      </trkpt>
      <trkpt lat="47.26273" lon="-1.53157">
        <ele>14.681549072266</ele>
        <time>2017-02-14T09:20:08.000Z</time>
      </trkpt>
      <trkpt lat="47.2627" lon="-1.53158">
        <ele>14.644861221313</ele>
        <time>2017-02-14T09:20:10.000Z</time>
      </trkpt>
      <trkpt lat="47.26266" lon="-1.53158">
        <ele>14.578989028931</ele>
        <time>2017-02-14T09:20:13.000Z</time>
      </trkpt>
      <trkpt lat="47.26263" lon="-1.53158">
        <ele>14.482885360718</ele>
        <time>2017-02-14T09:20:15.000Z</time>
      </trkpt>
      <trkpt lat="47.26259" lon="-1.53158">
        <ele>14.359377861023</ele>
        <time>2017-02-14T09:20:18.000Z</time>
      </trkpt>
      <trkpt lat="47.26257" lon="-1.53155">
        <ele>14.208760261536</ele>
        <time>2017-02-14T09:20:21.000Z</time>
      </trkpt>
      <trkpt lat="47.26255" lon="-1.53149">
        <ele>14.01925945282</ele>
        <time>2017-02-14T09:20:24.000Z</time>
      </trkpt>
      <trkpt lat="47.26253" lon="-1.53144">
        <ele>13.816447257996</ele>
        <time>2017-02-14T09:20:27.000Z</time>
      </trkpt>
      <trkpt lat="47.26252" lon="-1.53141">
        <ele>13.612528800964</ele>
        <time>2017-02-14T09:20:29.000Z</time>
      </trkpt>
      <trkpt lat="47.26252" lon="-1.53138">
        <ele>13.413495063782</ele>
        <time>2017-02-14T09:20:31.000Z</time>
      </trkpt>
      <trkpt lat="47.26252" lon="-1.53134">
        <ele>13.227688789368</ele>
        <time>2017-02-14T09:20:33.000Z</time>
      </trkpt>
      <trkpt lat="47.26251" lon="-1.53129">
        <ele>13.057199478149</ele>
        <time>2017-02-14T09:20:36.000Z</time>
      </trkpt>
      <trkpt lat="47.2625" lon="-1.53126">
        <ele>12.898887634277</ele>
        <time>2017-02-14T09:20:39.000Z</time>
      </trkpt>
      <trkpt lat="47.2625" lon="-1.53124">
        <ele>12.753051757812</ele>
        <time>2017-02-14T09:20:43.000Z</time>
      </trkpt>
      <trkpt lat="47.2625" lon="-1.53122">
        <ele>12.615375518799</ele>
        <time>2017-02-14T09:20:45.000Z</time>
      </trkpt>
      <trkpt lat="47.2625" lon="-1.53117">
        <ele>12.477518081665</ele>
        <time>2017-02-14T09:20:48.000Z</time>
      </trkpt>
      <trkpt lat="47.2625" lon="-1.53114">
        <ele>12.353178024292</ele>
        <time>2017-02-14T09:20:50.000Z</time>
      </trkpt>
      <trkpt lat="47.2625" lon="-1.53165">
        <ele>12.63005065918</ele>
        <time>2017-02-14T09:26:16.000Z</time>
      </trkpt>
      <trkpt lat="47.2625" lon="-1.53162">
        <ele>12.897109985352</ele>
        <time>2017-02-14T09:26:19.000Z</time>
      </trkpt>
      <trkpt lat="47.26249" lon="-1.53163">
        <ele>13.186368942261</ele>
        <time>2017-02-14T09:26:22.000Z</time>
      </trkpt>
      <trkpt lat="47.26246" lon="-1.53161">
        <ele>13.483072280884</ele>
        <time>2017-02-14T09:26:24.000Z</time>
      </trkpt>
      <trkpt lat="47.26243" lon="-1.53158">
        <ele>13.769380569458</ele>
        <time>2017-02-14T09:26:26.000Z</time>
      </trkpt>
      <trkpt lat="47.2624" lon="-1.53152">
        <ele>13.638644218445</ele>
        <time>2017-02-14T09:26:29.000Z</time>
      </trkpt>
      <trkpt lat="47.26237" lon="-1.53146">
        <ele>13.485239982605</ele>
        <time>2017-02-14T09:26:32.000Z</time>
      </trkpt>
      <trkpt lat="47.26236" lon="-1.53142">
        <ele>13.306032180786</ele>
        <time>2017-02-14T09:26:34.000Z</time>
      </trkpt>
      <trkpt lat="47.26233" lon="-1.53138">
        <ele>13.117475509644</ele>
        <time>2017-02-14T09:26:37.000Z</time>
      </trkpt>
      <trkpt lat="47.26231" lon="-1.53136">
        <ele>12.945508003235</ele>
        <time>2017-02-14T09:26:39.000Z</time>
      </trkpt>
      <trkpt lat="47.26228" lon="-1.53132">
        <ele>12.797343254089</ele>
        <time>2017-02-14T09:26:42.000Z</time>
      </trkpt>
      <trkpt lat="47.26225" lon="-1.5313">
        <ele>12.682148933411</ele>
        <time>2017-02-14T09:26:44.000Z</time>
      </trkpt>
      <trkpt lat="47.26221" lon="-1.53129">
        <ele>12.5784740448</ele>
        <time>2017-02-14T09:26:46.000Z</time>
      </trkpt>
      <trkpt lat="47.26218" lon="-1.53129">
        <ele>12.502665519714</ele>
        <time>2017-02-14T09:26:48.000Z</time>
      </trkpt>
      <trkpt lat="47.26214" lon="-1.53132">
        <ele>12.449776649475</ele>
        <time>2017-02-14T09:26:51.000Z</time>
      </trkpt>
      <trkpt lat="47.26212" lon="-1.53134">
        <ele>12.429032325745</ele>
        <time>2017-02-14T09:26:53.000Z</time>
      </trkpt>
      <trkpt lat="47.26209" lon="-1.53139">
        <ele>12.434518814087</ele>
        <time>2017-02-14T09:26:56.000Z</time>
      </trkpt>
      <trkpt lat="47.26207" lon="-1.53144">
        <ele>12.465643882751</ele>
        <time>2017-02-14T09:26:59.000Z</time>
      </trkpt>
      <trkpt lat="47.26205" lon="-1.53147">
        <ele>12.506511688232</ele>
        <time>2017-02-14T09:27:01.000Z</time>
      </trkpt>
      <trkpt lat="47.26204" lon="-1.53152">
        <ele>12.556829452515</ele>
        <time>2017-02-14T09:27:04.000Z</time>
      </trkpt>
      <trkpt lat="47.26205" lon="-1.53157">
        <ele>12.617935180664</ele>
        <time>2017-02-14T09:27:07.000Z</time>
      </trkpt>
      <trkpt lat="47.26205" lon="-1.5316">
        <ele>12.679231643677</ele>
        <time>2017-02-14T09:27:09.000Z</time>
      </trkpt>
      <trkpt lat="47.26204" lon="-1.53165">
        <ele>12.738395690918</ele>
        <time>2017-02-14T09:27:12.000Z</time>
      </trkpt>
      <trkpt lat="47.26203" lon="-1.53167">
        <ele>12.793904304504</ele>
        <time>2017-02-14T09:27:14.000Z</time>
      </trkpt>
      <trkpt lat="47.26201" lon="-1.53173">
        <ele>12.827436447144</ele>
        <time>2017-02-14T09:27:17.000Z</time>
      </trkpt>
      <trkpt lat="47.26199" lon="-1.53176">
        <ele>12.837155342102</ele>
        <time>2017-02-14T09:27:19.000Z</time>
      </trkpt>
      <trkpt lat="47.26196" lon="-1.53182">
        <ele>12.817770004272</ele>
        <time>2017-02-14T09:27:22.000Z</time>
      </trkpt>
      <trkpt lat="47.26195" lon="-1.53184">
        <ele>12.779611587524</ele>
        <time>2017-02-14T09:27:24.000Z</time>
      </trkpt>
      <trkpt lat="47.26192" lon="-1.53188">
        <ele>12.725054740906</ele>
        <time>2017-02-14T09:27:27.000Z</time>
      </trkpt>
      <trkpt lat="47.26191" lon="-1.53192">
        <ele>12.664400100708</ele>
        <time>2017-02-14T09:27:29.000Z</time>
      </trkpt>
      <trkpt lat="47.26187" lon="-1.53196">
        <ele>12.586062431335</ele>
        <time>2017-02-14T09:27:32.000Z</time>
      </trkpt>
      <trkpt lat="47.26184" lon="-1.53199">
        <ele>12.495790481567</ele>
        <time>2017-02-14T09:27:35.000Z</time>
      </trkpt>
      <trkpt lat="47.2618" lon="-1.53202">
        <ele>12.383680343628</ele>
        <time>2017-02-14T09:27:38.000Z</time>
      </trkpt>
      <trkpt lat="47.26177" lon="-1.53206">
        <ele>12.253721237183</ele>
        <time>2017-02-14T09:27:41.000Z</time>
      </trkpt>
      <trkpt lat="47.26174" lon="-1.53211">
        <ele>12.104141235352</ele>
        <time>2017-02-14T09:27:44.000Z</time>
      </trkpt>
      <trkpt lat="47.2617" lon="-1.53214">
        <ele>11.939834594727</ele>
        <time>2017-02-14T09:27:47.000Z</time>
      </trkpt>
      <trkpt lat="47.26167" lon="-1.53219">
        <ele>11.768320083618</ele>
        <time>2017-02-14T09:27:50.000Z</time>
      </trkpt>
      <trkpt lat="47.26163" lon="-1.53224">
        <ele>11.624681472778</ele>
        <time>2017-02-14T09:27:53.000Z</time>
      </trkpt>
      <trkpt lat="47.26161" lon="-1.53227">
        <ele>11.517133712769</ele>
        <time>2017-02-14T09:27:55.000Z</time>
      </trkpt>
      <trkpt lat="47.26158" lon="-1.53231">
        <ele>11.449674606323</ele>
        <time>2017-02-14T09:27:58.000Z</time>
      </trkpt>
      <trkpt lat="47.26156" lon="-1.53234">
        <ele>11.422354698181</ele>
        <time>2017-02-14T09:28:00.000Z</time>
      </trkpt>
      <trkpt lat="47.26154" lon="-1.53238">
        <ele>11.434265136719</ele>
        <time>2017-02-14T09:28:03.000Z</time>
      </trkpt>
      <trkpt lat="47.26152" lon="-1.53241">
        <ele>11.446899414062</ele>
        <time>2017-02-14T09:28:06.000Z</time>
      </trkpt>
      <trkpt lat="47.26151" lon="-1.53245">
        <ele>11.451293945312</ele>
        <time>2017-02-14T09:28:08.000Z</time>
      </trkpt>
      <trkpt lat="47.2615" lon="-1.53249">
        <ele>11.442626953125</ele>
        <time>2017-02-14T09:28:10.000Z</time>
      </trkpt>
      <trkpt lat="47.26149" lon="-1.53254">
        <ele>11.426382064819</ele>
        <time>2017-02-14T09:28:13.000Z</time>
      </trkpt>
      <trkpt lat="47.26148" lon="-1.53258">
        <ele>11.401324272156</ele>
        <time>2017-02-14T09:28:15.000Z</time>
      </trkpt>
      <trkpt lat="47.26146" lon="-1.53262">
        <ele>11.371243476868</ele>
        <time>2017-02-14T09:28:18.000Z</time>
      </trkpt>
      <trkpt lat="47.26145" lon="-1.53265">
        <ele>11.340566635132</ele>
        <time>2017-02-14T09:28:20.000Z</time>
      </trkpt>
      <trkpt lat="47.26143" lon="-1.53271">
        <ele>11.30795955658</ele>
        <time>2017-02-14T09:28:23.000Z</time>
      </trkpt>
      <trkpt lat="47.26141" lon="-1.53274">
        <ele>11.281381607056</ele>
        <time>2017-02-14T09:28:25.000Z</time>
      </trkpt>
      <trkpt lat="47.26139" lon="-1.53277">
        <ele>11.261593818665</ele>
        <time>2017-02-14T09:28:27.000Z</time>
      </trkpt>
      <trkpt lat="47.26137" lon="-1.53281">
        <ele>11.24133014679</ele>
        <time>2017-02-14T09:28:30.000Z</time>
      </trkpt>
      <trkpt lat="47.26135" lon="-1.53284">
        <ele>11.22315788269</ele>
        <time>2017-02-14T09:28:32.000Z</time>
      </trkpt>
      <trkpt lat="47.26132" lon="-1.53286">
        <ele>11.219005584717</ele>
        <time>2017-02-14T09:28:35.000Z</time>
      </trkpt>
      <trkpt lat="47.26129" lon="-1.53287">
        <ele>11.223390579224</ele>
        <time>2017-02-14T09:28:37.000Z</time>
      </trkpt>
      <trkpt lat="47.26125" lon="-1.53289">
        <ele>11.234516143799</ele>
        <time>2017-02-14T09:28:40.000Z</time>
      </trkpt>
      <trkpt lat="47.26121" lon="-1.53291">
        <ele>11.259572982788</ele>
        <time>2017-02-14T09:28:43.000Z</time>
      </trkpt>
      <trkpt lat="47.26117" lon="-1.53293">
        <ele>11.295590400696</ele>
        <time>2017-02-14T09:28:46.000Z</time>
      </trkpt>
      <trkpt lat="47.26114" lon="-1.53295">
        <ele>11.328358650208</ele>
        <time>2017-02-14T09:28:49.000Z</time>
      </trkpt>
      <trkpt lat="47.26111" lon="-1.53297">
        <ele>11.353420257568</ele>
        <time>2017-02-14T09:28:51.000Z</time>
      </trkpt>
      <trkpt lat="47.26109" lon="-1.53299">
        <ele>11.372040748596</ele>
        <time>2017-02-14T09:28:53.000Z</time>
      </trkpt>
      <trkpt lat="47.26105" lon="-1.53303">
        <ele>11.381400108337</ele>
        <time>2017-02-14T09:28:56.000Z</time>
      </trkpt>
      <trkpt lat="47.26103" lon="-1.53306">
        <ele>11.377153396606</ele>
        <time>2017-02-14T09:28:59.000Z</time>
      </trkpt>
      <trkpt lat="47.26101" lon="-1.53308">
        <ele>11.365434646606</ele>
        <time>2017-02-14T09:29:01.000Z</time>
      </trkpt>
      <trkpt lat="47.26099" lon="-1.5331">
        <ele>11.351739883423</ele>
        <time>2017-02-14T09:29:03.000Z</time>
      </trkpt>
      <trkpt lat="47.26097" lon="-1.53313">
        <ele>11.330169677734</ele>
        <time>2017-02-14T09:29:06.000Z</time>
      </trkpt>
      <trkpt lat="47.26096" lon="-1.53316">
        <ele>11.30096912384</ele>
        <time>2017-02-14T09:29:09.000Z</time>
      </trkpt>
      <trkpt lat="47.26094" lon="-1.53319">
        <ele>11.268880844116</ele>
        <time>2017-02-14T09:29:11.000Z</time>
      </trkpt>
      <trkpt lat="47.26092" lon="-1.53323">
        <ele>11.231739997864</ele>
        <time>2017-02-14T09:29:14.000Z</time>
      </trkpt>
      <trkpt lat="47.26091" lon="-1.53325">
        <ele>11.188812255859</ele>
        <time>2017-02-14T09:29:16.000Z</time>
      </trkpt>
      <trkpt lat="47.26091" lon="-1.53329">
        <ele>11.134637832642</ele>
        <time>2017-02-14T09:29:19.000Z</time>
      </trkpt>
      <trkpt lat="47.26091" lon="-1.53332">
        <ele>11.077412605286</ele>
        <time>2017-02-14T09:29:21.000Z</time>
      </trkpt>
      <trkpt lat="47.26092" lon="-1.53337">
        <ele>11.00334072113</ele>
        <time>2017-02-14T09:29:24.000Z</time>
      </trkpt>
      <trkpt lat="47.26092" lon="-1.53341">
        <ele>10.922402381897</ele>
        <time>2017-02-14T09:29:26.000Z</time>
      </trkpt>
      <trkpt lat="47.26092" lon="-1.53344">
        <ele>10.834861755371</ele>
        <time>2017-02-14T09:29:28.000Z</time>
      </trkpt>
      <trkpt lat="47.26093" lon="-1.5335">
        <ele>10.742335319519</ele>
        <time>2017-02-14T09:29:31.000Z</time>
      </trkpt>
      <trkpt lat="47.26094" lon="-1.53353">
        <ele>10.644434928894</ele>
        <time>2017-02-14T09:29:33.000Z</time>
      </trkpt>
      <trkpt lat="47.26095" lon="-1.53357">
        <ele>10.55424785614</ele>
        <time>2017-02-14T09:29:35.000Z</time>
      </trkpt>
      <trkpt lat="47.26097" lon="-1.53362">
        <ele>10.457989692688</ele>
        <time>2017-02-14T09:29:38.000Z</time>
      </trkpt>
      <trkpt lat="47.26099" lon="-1.53367">
        <ele>10.355604171753</ele>
        <time>2017-02-14T09:29:41.000Z</time>
      </trkpt>
      <trkpt lat="47.26102" lon="-1.53372">
        <ele>10.259495735168</ele>
        <time>2017-02-14T09:29:44.000Z</time>
      </trkpt>
      <trkpt lat="47.26104" lon="-1.53378">
        <ele>10.157605171204</ele>
        <time>2017-02-14T09:29:47.000Z</time>
      </trkpt>
      <trkpt lat="47.26106" lon="-1.53382">
        <ele>10.058174133301</ele>
        <time>2017-02-14T09:29:49.000Z</time>
      </trkpt>
      <trkpt lat="47.26109" lon="-1.53386">
        <ele>9.9690456390381</ele>
        <time>2017-02-14T09:29:52.000Z</time>
      </trkpt>
      <trkpt lat="47.26111" lon="-1.53389">
        <ele>9.8940629959106</ele>
        <time>2017-02-14T09:29:54.000Z</time>
      </trkpt>
      <trkpt lat="47.26113" lon="-1.53392">
        <ele>9.8287048339844</ele>
        <time>2017-02-14T09:29:57.000Z</time>
      </trkpt>
      <trkpt lat="47.26112" lon="-1.53395">
        <ele>9.7774047851562</ele>
        <time>2017-02-14T09:29:59.000Z</time>
      </trkpt>
      <trkpt lat="47.26108" lon="-1.53398">
        <ele>9.7255477905273</ele>
        <time>2017-02-14T09:30:02.000Z</time>
      </trkpt>
      <trkpt lat="47.26105" lon="-1.53399">
        <ele>9.6786422729492</ele>
        <time>2017-02-14T09:30:04.000Z</time>
      </trkpt>
      <trkpt lat="47.26103" lon="-1.53401">
        <ele>9.6283693313599</ele>
        <time>2017-02-14T09:30:06.000Z</time>
      </trkpt>
      <trkpt lat="47.261" lon="-1.53404">
        <ele>9.5718221664429</ele>
        <time>2017-02-14T09:30:09.000Z</time>
      </trkpt>
      <trkpt lat="47.26099" lon="-1.53406">
        <ele>9.5134792327881</ele>
        <time>2017-02-14T09:30:11.000Z</time>
      </trkpt>
      <trkpt lat="47.26097" lon="-1.53407">
        <ele>9.4600467681885</ele>
        <time>2017-02-14T09:30:14.000Z</time>
      </trkpt>
      <trkpt lat="47.26095" lon="-1.53409">
        <ele>9.4051847457886</ele>
        <time>2017-02-14T09:30:16.000Z</time>
      </trkpt>
      <trkpt lat="47.26093" lon="-1.53412">
        <ele>9.3441963195801</ele>
        <time>2017-02-14T09:30:19.000Z</time>
      </trkpt>
      <trkpt lat="47.26092" lon="-1.53415">
        <ele>9.2836475372314</ele>
        <time>2017-02-14T09:30:21.000Z</time>
      </trkpt>
      <trkpt lat="47.26089" lon="-1.53418">
        <ele>9.2151823043823</ele>
        <time>2017-02-14T09:30:24.000Z</time>
      </trkpt>
      <trkpt lat="47.26086" lon="-1.53419">
        <ele>9.1400051116943</ele>
        <time>2017-02-14T09:30:26.000Z</time>
      </trkpt>
      <trkpt lat="47.26083" lon="-1.53422">
        <ele>9.0524682998657</ele>
        <time>2017-02-14T09:30:29.000Z</time>
      </trkpt>
      <trkpt lat="47.26079" lon="-1.53424">
        <ele>8.9641523361206</ele>
        <time>2017-02-14T09:30:32.000Z</time>
      </trkpt>
      <trkpt lat="47.26077" lon="-1.53424">
        <ele>8.8809480667114</ele>
        <time>2017-02-14T09:30:34.000Z</time>
      </trkpt>
      <trkpt lat="47.26073" lon="-1.53425">
        <ele>8.8044996261597</ele>
        <time>2017-02-14T09:30:37.000Z</time>
      </trkpt>
      <trkpt lat="47.26071" lon="-1.53425">
        <ele>8.7413330078125</ele>
        <time>2017-02-14T09:30:39.000Z</time>
      </trkpt>
      <trkpt lat="47.26067" lon="-1.53424">
        <ele>8.6947021484375</ele>
        <time>2017-02-14T09:30:42.000Z</time>
      </trkpt>
      <trkpt lat="47.26064" lon="-1.53422">
        <ele>8.6683349609375</ele>
        <time>2017-02-14T09:30:45.000Z</time>
      </trkpt>
      <trkpt lat="47.26062" lon="-1.5342">
        <ele>8.6508178710938</ele>
        <time>2017-02-14T09:30:47.000Z</time>
      </trkpt>
      <trkpt lat="47.26057" lon="-1.5342">
        <ele>8.6400146484375</ele>
        <time>2017-02-14T09:30:50.000Z</time>
      </trkpt>
      <trkpt lat="47.26055" lon="-1.53421">
        <ele>8.6198120117188</ele>
        <time>2017-02-14T09:30:52.000Z</time>
      </trkpt>
      <trkpt lat="47.26052" lon="-1.53422">
        <ele>8.5936279296875</ele>
        <time>2017-02-14T09:30:55.000Z</time>
      </trkpt>
      <trkpt lat="47.2605" lon="-1.53423">
        <ele>8.5537719726562</ele>
        <time>2017-02-14T09:30:57.000Z</time>
      </trkpt>
      <trkpt lat="47.26048" lon="-1.53424">
        <ele>8.5037841796875</ele>
        <time>2017-02-14T09:30:59.000Z</time>
      </trkpt>
      <trkpt lat="47.26046" lon="-1.53426">
        <ele>8.4480590820312</ele>
        <time>2017-02-14T09:31:01.000Z</time>
      </trkpt>
      <trkpt lat="47.26044" lon="-1.53427">
        <ele>8.3928833007812</ele>
        <time>2017-02-14T09:31:03.000Z</time>
      </trkpt>
      <trkpt lat="47.26041" lon="-1.53429">
        <ele>8.3330078125</ele>
        <time>2017-02-14T09:31:06.000Z</time>
      </trkpt>
      <trkpt lat="47.26036" lon="-1.5343">
        <ele>8.2647094726562</ele>
        <time>2017-02-14T09:31:09.000Z</time>
      </trkpt>
      <trkpt lat="47.26031" lon="-1.5343">
        <ele>8.1952514648438</ele>
        <time>2017-02-14T09:31:12.000Z</time>
      </trkpt>
      <trkpt lat="47.26029" lon="-1.5343">
        <ele>8.1329345703125</ele>
        <time>2017-02-14T09:31:14.000Z</time>
      </trkpt>
      <trkpt lat="47.26025" lon="-1.53429">
        <ele>8.0745849609375</ele>
        <time>2017-02-14T09:31:17.000Z</time>
      </trkpt>
      <trkpt lat="47.26022" lon="-1.53429">
        <ele>8.0285034179688</ele>
        <time>2017-02-14T09:31:19.000Z</time>
      </trkpt>
      <trkpt lat="47.26019" lon="-1.53429">
        <ele>7.9951171875</ele>
        <time>2017-02-14T09:31:21.000Z</time>
      </trkpt>
      <trkpt lat="47.26014" lon="-1.53427">
        <ele>7.9672241210938</ele>
        <time>2017-02-14T09:31:24.000Z</time>
      </trkpt>
      <trkpt lat="47.2601" lon="-1.53426">
        <ele>7.94140625</ele>
        <time>2017-02-14T09:31:27.000Z</time>
      </trkpt>
      <trkpt lat="47.26007" lon="-1.53425">
        <ele>7.9226684570312</ele>
        <time>2017-02-14T09:31:29.000Z</time>
      </trkpt>
      <trkpt lat="47.26003" lon="-1.53423">
        <ele>7.9082641601562</ele>
        <time>2017-02-14T09:31:32.000Z</time>
      </trkpt>
      <trkpt lat="47.25999" lon="-1.5342">
        <ele>7.914412021637</ele>
        <time>2017-02-14T09:31:35.000Z</time>
      </trkpt>
      <trkpt lat="47.25994" lon="-1.53418">
        <ele>7.9810853004456</ele>
        <time>2017-02-14T09:31:38.000Z</time>
      </trkpt>
      <trkpt lat="47.25991" lon="-1.53416">
        <ele>8.0863580703735</ele>
        <time>2017-02-14T09:31:40.000Z</time>
      </trkpt>
      <trkpt lat="47.25986" lon="-1.53413">
        <ele>8.2438249588013</ele>
        <time>2017-02-14T09:31:43.000Z</time>
      </trkpt>
      <trkpt lat="47.25982" lon="-1.5341">
        <ele>8.4474620819092</ele>
        <time>2017-02-14T09:31:46.000Z</time>
      </trkpt>
      <trkpt lat="47.25977" lon="-1.53407">
        <ele>8.6812324523926</ele>
        <time>2017-02-14T09:31:49.000Z</time>
      </trkpt>
      <trkpt lat="47.25973" lon="-1.53404">
        <ele>8.9029712677002</ele>
        <time>2017-02-14T09:31:52.000Z</time>
      </trkpt>
      <trkpt lat="47.25968" lon="-1.534">
        <ele>9.1336231231689</ele>
        <time>2017-02-14T09:31:55.000Z</time>
      </trkpt>
      <trkpt lat="47.25964" lon="-1.53397">
        <ele>9.3459424972534</ele>
        <time>2017-02-14T09:31:58.000Z</time>
      </trkpt>
      <trkpt lat="47.25962" lon="-1.53395">
        <ele>9.5365581512451</ele>
        <time>2017-02-14T09:32:00.000Z</time>
      </trkpt>
      <trkpt lat="47.25957" lon="-1.53391">
        <ele>9.7197551727295</ele>
        <time>2017-02-14T09:32:03.000Z</time>
      </trkpt>
      <trkpt lat="47.25953" lon="-1.53388">
        <ele>9.8949851989746</ele>
        <time>2017-02-14T09:32:06.000Z</time>
      </trkpt>
      <trkpt lat="47.2595" lon="-1.53386">
        <ele>10.046228408813</ele>
        <time>2017-02-14T09:32:08.000Z</time>
      </trkpt>
      <trkpt lat="47.25946" lon="-1.53384">
        <ele>10.191995620728</ele>
        <time>2017-02-14T09:32:11.000Z</time>
      </trkpt>
      <trkpt lat="47.25942" lon="-1.53383">
        <ele>10.343664169312</ele>
        <time>2017-02-14T09:32:14.000Z</time>
      </trkpt>
      <trkpt lat="47.25937" lon="-1.53381">
        <ele>10.493679046631</ele>
        <time>2017-02-14T09:32:17.000Z</time>
      </trkpt>
      <trkpt lat="47.25933" lon="-1.53379">
        <ele>10.638966560364</ele>
        <time>2017-02-14T09:32:20.000Z</time>
      </trkpt>
      <trkpt lat="47.25929" lon="-1.53378">
        <ele>10.784711837769</ele>
        <time>2017-02-14T09:32:22.000Z</time>
      </trkpt>
      <trkpt lat="47.25925" lon="-1.53378">
        <ele>10.93879699707</ele>
        <time>2017-02-14T09:32:25.000Z</time>
      </trkpt>
      <trkpt lat="47.2592" lon="-1.53379">
        <ele>11.094879150391</ele>
        <time>2017-02-14T09:32:28.000Z</time>
      </trkpt>
      <trkpt lat="47.25916" lon="-1.5338">
        <ele>11.250043869019</ele>
        <time>2017-02-14T09:32:31.000Z</time>
      </trkpt>
      <trkpt lat="47.25914" lon="-1.53382">
        <ele>11.400894165039</ele>
        <time>2017-02-14T09:32:33.000Z</time>
      </trkpt>
      <trkpt lat="47.25911" lon="-1.53383">
        <ele>11.555532455444</ele>
        <time>2017-02-14T09:32:35.000Z</time>
      </trkpt>
      <trkpt lat="47.25906" lon="-1.53384">
        <ele>11.711172103882</ele>
        <time>2017-02-14T09:32:38.000Z</time>
      </trkpt>
      <trkpt lat="47.25902" lon="-1.53386">
        <ele>11.874108314514</ele>
        <time>2017-02-14T09:32:41.000Z</time>
      </trkpt>
      <trkpt lat="47.259" lon="-1.53387">
        <ele>12.024326324463</ele>
        <time>2017-02-14T09:32:43.000Z</time>
      </trkpt>
      <trkpt lat="47.25897" lon="-1.53388">
        <ele>12.17046546936</ele>
        <time>2017-02-14T09:32:45.000Z</time>
      </trkpt>
      <trkpt lat="47.25895" lon="-1.5339">
        <ele>12.315590858459</ele>
        <time>2017-02-14T09:32:47.000Z</time>
      </trkpt>
      <trkpt lat="47.25891" lon="-1.53391">
        <ele>12.456296920776</ele>
        <time>2017-02-14T09:32:50.000Z</time>
      </trkpt>
      <trkpt lat="47.25888" lon="-1.53393">
        <ele>12.578832626343</ele>
        <time>2017-02-14T09:32:52.000Z</time>
      </trkpt>
      <trkpt lat="47.25886" lon="-1.53394">
        <ele>12.701174736023</ele>
        <time>2017-02-14T09:32:54.000Z</time>
      </trkpt>
      <trkpt lat="47.25882" lon="-1.53396">
        <ele>12.836178779602</ele>
        <time>2017-02-14T09:32:57.000Z</time>
      </trkpt>
      <trkpt lat="47.25878" lon="-1.53398">
        <ele>12.979730606079</ele>
        <time>2017-02-14T09:33:00.000Z</time>
      </trkpt>
      <trkpt lat="47.25873" lon="-1.53399">
        <ele>13.126764297485</ele>
        <time>2017-02-14T09:33:03.000Z</time>
      </trkpt>
      <trkpt lat="47.25869" lon="-1.534">
        <ele>13.282165527344</ele>
        <time>2017-02-14T09:33:06.000Z</time>
      </trkpt>
      <trkpt lat="47.25867" lon="-1.53401">
        <ele>13.438809394836</ele>
        <time>2017-02-14T09:33:08.000Z</time>
      </trkpt>
      <trkpt lat="47.25862" lon="-1.53403">
        <ele>13.595941543579</ele>
        <time>2017-02-14T09:33:11.000Z</time>
      </trkpt>
      <trkpt lat="47.25859" lon="-1.53403">
        <ele>13.744875907898</ele>
        <time>2017-02-14T09:33:13.000Z</time>
      </trkpt>
      <trkpt lat="47.25854" lon="-1.53405">
        <ele>13.893200874329</ele>
        <time>2017-02-14T09:33:16.000Z</time>
      </trkpt>
      <trkpt lat="47.25852" lon="-1.53406">
        <ele>14.03357219696</ele>
        <time>2017-02-14T09:33:18.000Z</time>
      </trkpt>
      <trkpt lat="47.25849" lon="-1.53407">
        <ele>14.172894477844</ele>
        <time>2017-02-14T09:33:20.000Z</time>
      </trkpt>
      <trkpt lat="47.25846" lon="-1.53408">
        <ele>14.298635482788</ele>
        <time>2017-02-14T09:33:22.000Z</time>
      </trkpt>
      <trkpt lat="47.25842" lon="-1.5341">
        <ele>14.430003166199</ele>
        <time>2017-02-14T09:33:25.000Z</time>
      </trkpt>
      <trkpt lat="47.25837" lon="-1.53411">
        <ele>14.559621810913</ele>
        <time>2017-02-14T09:33:28.000Z</time>
      </trkpt>
      <trkpt lat="47.25833" lon="-1.53413">
        <ele>14.697145462036</ele>
        <time>2017-02-14T09:33:31.000Z</time>
      </trkpt>
      <trkpt lat="47.25829" lon="-1.53415">
        <ele>14.812538146973</ele>
        <time>2017-02-14T09:33:34.000Z</time>
      </trkpt>
      <trkpt lat="47.25825" lon="-1.53416">
        <ele>14.906283378601</ele>
        <time>2017-02-14T09:33:37.000Z</time>
      </trkpt>
      <trkpt lat="47.25821" lon="-1.53418">
        <ele>14.946797370911</ele>
        <time>2017-02-14T09:33:40.000Z</time>
      </trkpt>
      <trkpt lat="47.25818" lon="-1.5342">
        <ele>14.917665481567</ele>
        <time>2017-02-14T09:33:43.000Z</time>
      </trkpt>
      <trkpt lat="47.25815" lon="-1.53422">
        <ele>14.823628425598</ele>
        <time>2017-02-14T09:33:45.000Z</time>
      </trkpt>
      <trkpt lat="47.25811" lon="-1.53425">
        <ele>14.680928230286</ele>
        <time>2017-02-14T09:33:48.000Z</time>
      </trkpt>
      <trkpt lat="47.25807" lon="-1.53428">
        <ele>14.497131347656</ele>
        <time>2017-02-14T09:33:51.000Z</time>
      </trkpt>
      <trkpt lat="47.25803" lon="-1.5343">
        <ele>14.296539306641</ele>
        <time>2017-02-14T09:33:54.000Z</time>
      </trkpt>
      <trkpt lat="47.258" lon="-1.53431">
        <ele>14.1181640625</ele>
        <time>2017-02-14T09:33:57.000Z</time>
      </trkpt>
      <trkpt lat="47.25797" lon="-1.53432">
        <ele>13.951751708984</ele>
        <time>2017-02-14T09:34:00.000Z</time>
      </trkpt>
      <trkpt lat="47.25793" lon="-1.53435">
        <ele>13.791748046875</ele>
        <time>2017-02-14T09:34:03.000Z</time>
      </trkpt>
      <trkpt lat="47.25791" lon="-1.53437">
        <ele>13.641357421875</ele>
        <time>2017-02-14T09:34:05.000Z</time>
      </trkpt>
      <trkpt lat="47.25787" lon="-1.53438">
        <ele>13.49951171875</ele>
        <time>2017-02-14T09:34:08.000Z</time>
      </trkpt>
      <trkpt lat="47.25782" lon="-1.53441">
        <ele>13.331817626953</ele>
        <time>2017-02-14T09:34:11.000Z</time>
      </trkpt>
      <trkpt lat="47.2578" lon="-1.53442">
        <ele>13.158996582031</ele>
        <time>2017-02-14T09:34:13.000Z</time>
      </trkpt>
      <trkpt lat="47.25778" lon="-1.53445">
        <ele>12.993225097656</ele>
        <time>2017-02-14T09:34:15.000Z</time>
      </trkpt>
      <trkpt lat="47.25776" lon="-1.53449">
        <ele>12.777252197266</ele>
        <time>2017-02-14T09:34:18.000Z</time>
      </trkpt>
      <trkpt lat="47.25774" lon="-1.53455">
        <ele>12.503173828125</ele>
        <time>2017-02-14T09:34:21.000Z</time>
      </trkpt>
      <trkpt lat="47.25772" lon="-1.53459">
        <ele>12.195343017578</ele>
        <time>2017-02-14T09:34:24.000Z</time>
      </trkpt>
      <trkpt lat="47.25772" lon="-1.53463">
        <ele>11.847778320312</ele>
        <time>2017-02-14T09:34:27.000Z</time>
      </trkpt>
      <trkpt lat="47.25771" lon="-1.53466">
        <ele>11.485473632812</ele>
        <time>2017-02-14T09:34:29.000Z</time>
      </trkpt>
      <trkpt lat="47.2577" lon="-1.53471">
        <ele>11.125732421875</ele>
        <time>2017-02-14T09:34:32.000Z</time>
      </trkpt>
      <trkpt lat="47.25769" lon="-1.53474">
        <ele>10.794403076172</ele>
        <time>2017-02-14T09:34:35.000Z</time>
      </trkpt>
      <trkpt lat="47.25766" lon="-1.53479">
        <ele>10.455383300781</ele>
        <time>2017-02-14T09:34:38.000Z</time>
      </trkpt>
      <trkpt lat="47.25763" lon="-1.53482">
        <ele>10.1328125</ele>
        <time>2017-02-14T09:34:40.000Z</time>
      </trkpt>
      <trkpt lat="47.2576" lon="-1.53487">
        <ele>9.7867431640625</ele>
        <time>2017-02-14T09:34:43.000Z</time>
      </trkpt>
      <trkpt lat="47.25756" lon="-1.53492">
        <ele>9.4340515136719</ele>
        <time>2017-02-14T09:34:46.000Z</time>
      </trkpt>
      <trkpt lat="47.25753" lon="-1.53495">
        <ele>9.0916137695312</ele>
        <time>2017-02-14T09:34:48.000Z</time>
      </trkpt>
      <trkpt lat="47.25749" lon="-1.535">
        <ele>8.7510585784912</ele>
        <time>2017-02-14T09:34:51.000Z</time>
      </trkpt>
      <trkpt lat="47.25747" lon="-1.53504">
        <ele>8.4525423049927</ele>
        <time>2017-02-14T09:34:53.000Z</time>
      </trkpt>
      <trkpt lat="47.25744" lon="-1.53509">
        <ele>8.2235431671143</ele>
        <time>2017-02-14T09:34:56.000Z</time>
      </trkpt>
      <trkpt lat="47.25742" lon="-1.53513">
        <ele>8.0672597885132</ele>
        <time>2017-02-14T09:34:58.000Z</time>
      </trkpt>
      <trkpt lat="47.2574" lon="-1.53517">
        <ele>7.9496521949768</ele>
        <time>2017-02-14T09:35:00.000Z</time>
      </trkpt>
      <trkpt lat="47.25737" lon="-1.53523">
        <ele>7.8846969604492</ele>
        <time>2017-02-14T09:35:03.000Z</time>
      </trkpt>
      <trkpt lat="47.25735" lon="-1.53528">
        <ele>7.8092069625854</ele>
        <time>2017-02-14T09:35:05.000Z</time>
      </trkpt>
      <trkpt lat="47.25733" lon="-1.53532">
        <ele>7.7237067222595</ele>
        <time>2017-02-14T09:35:07.000Z</time>
      </trkpt>
      <trkpt lat="47.25731" lon="-1.53538">
        <ele>7.6263074874878</ele>
        <time>2017-02-14T09:35:10.000Z</time>
      </trkpt>
      <trkpt lat="47.25729" lon="-1.53542">
        <ele>7.5252914428711</ele>
        <time>2017-02-14T09:35:12.000Z</time>
      </trkpt>
      <trkpt lat="47.25727" lon="-1.53549">
        <ele>7.4158353805542</ele>
        <time>2017-02-14T09:35:15.000Z</time>
      </trkpt>
      <trkpt lat="47.25724" lon="-1.53556">
        <ele>7.3140244483948</ele>
        <time>2017-02-14T09:35:18.000Z</time>
      </trkpt>
      <trkpt lat="47.25721" lon="-1.5356">
        <ele>7.2194366455078</ele>
        <time>2017-02-14T09:35:21.000Z</time>
      </trkpt>
      <trkpt lat="47.25719" lon="-1.53564">
        <ele>7.1583032608032</ele>
        <time>2017-02-14T09:35:23.000Z</time>
      </trkpt>
      <trkpt lat="47.25717" lon="-1.53566">
        <ele>7.1131706237793</ele>
        <time>2017-02-14T09:35:25.000Z</time>
      </trkpt>
      <trkpt lat="47.25713" lon="-1.53571">
        <ele>7.1292953491211</ele>
        <time>2017-02-14T09:35:28.000Z</time>
      </trkpt>
      <trkpt lat="47.2571" lon="-1.53573">
        <ele>7.1717081069946</ele>
        <time>2017-02-14T09:35:30.000Z</time>
      </trkpt>
      <trkpt lat="47.25706" lon="-1.53577">
        <ele>7.2414283752441</ele>
        <time>2017-02-14T09:35:33.000Z</time>
      </trkpt>
      <trkpt lat="47.25703" lon="-1.5358">
        <ele>7.3127570152283</ele>
        <time>2017-02-14T09:35:36.000Z</time>
      </trkpt>
      <trkpt lat="47.25701" lon="-1.53583">
        <ele>7.396303653717</ele>
        <time>2017-02-14T09:35:38.000Z</time>
      </trkpt>
      <trkpt lat="47.25698" lon="-1.53587">
        <ele>7.4746322631836</ele>
        <time>2017-02-14T09:35:41.000Z</time>
      </trkpt>
      <trkpt lat="47.25697" lon="-1.53591">
        <ele>7.5561037063599</ele>
        <time>2017-02-14T09:35:43.000Z</time>
      </trkpt>
      <trkpt lat="47.25695" lon="-1.53597">
        <ele>7.6271843910217</ele>
        <time>2017-02-14T09:35:46.000Z</time>
      </trkpt>
      <trkpt lat="47.25693" lon="-1.53602">
        <ele>7.6949586868286</ele>
        <time>2017-02-14T09:35:48.000Z</time>
      </trkpt>
      <trkpt lat="47.25691" lon="-1.53608">
        <ele>7.7487778663635</ele>
        <time>2017-02-14T09:35:51.000Z</time>
      </trkpt>
      <trkpt lat="47.2569" lon="-1.53614">
        <ele>7.7788114547729</ele>
        <time>2017-02-14T09:35:54.000Z</time>
      </trkpt>
      <trkpt lat="47.25689" lon="-1.53618">
        <ele>7.7885270118713</ele>
        <time>2017-02-14T09:35:56.000Z</time>
      </trkpt>
      <trkpt lat="47.25688" lon="-1.53622">
        <ele>7.7939515113831</ele>
        <time>2017-02-14T09:35:58.000Z</time>
      </trkpt>
      <trkpt lat="47.25687" lon="-1.53625">
        <ele>7.7889747619629</ele>
        <time>2017-02-14T09:36:01.000Z</time>
      </trkpt>
      <trkpt lat="47.25684" lon="-1.53629">
        <ele>7.799614906311</ele>
        <time>2017-02-14T09:36:04.000Z</time>
      </trkpt>
      <trkpt lat="47.25682" lon="-1.53632">
        <ele>7.8260717391968</ele>
        <time>2017-02-14T09:36:06.000Z</time>
      </trkpt>
      <trkpt lat="47.25679" lon="-1.53636">
        <ele>7.8792152404785</ele>
        <time>2017-02-14T09:36:09.000Z</time>
      </trkpt>
      <trkpt lat="47.25676" lon="-1.53638">
        <ele>7.9491028785706</ele>
        <time>2017-02-14T09:36:11.000Z</time>
      </trkpt>
      <trkpt lat="47.25673" lon="-1.53641">
        <ele>8.0500392913818</ele>
        <time>2017-02-14T09:36:14.000Z</time>
      </trkpt>
      <trkpt lat="47.25668" lon="-1.53643">
        <ele>8.1762351989746</ele>
        <time>2017-02-14T09:36:17.000Z</time>
      </trkpt>
      <trkpt lat="47.25665" lon="-1.53646">
        <ele>8.3050136566162</ele>
        <time>2017-02-14T09:36:20.000Z</time>
      </trkpt>
      <trkpt lat="47.25662" lon="-1.53648">
        <ele>8.4221601486206</ele>
        <time>2017-02-14T09:36:22.000Z</time>
      </trkpt>
      <trkpt lat="47.25658" lon="-1.53649">
        <ele>8.5457515716553</ele>
        <time>2017-02-14T09:36:25.000Z</time>
      </trkpt>
      <trkpt lat="47.25654" lon="-1.5365">
        <ele>8.6650638580322</ele>
        <time>2017-02-14T09:36:28.000Z</time>
      </trkpt>
      <trkpt lat="47.25651" lon="-1.5365">
        <ele>8.7684125900269</ele>
        <time>2017-02-14T09:36:30.000Z</time>
      </trkpt>
      <trkpt lat="47.25647" lon="-1.5365">
        <ele>8.8844041824341</ele>
        <time>2017-02-14T09:36:33.000Z</time>
      </trkpt>
      <trkpt lat="47.25644" lon="-1.53651">
        <ele>9.0129547119141</ele>
        <time>2017-02-14T09:36:36.000Z</time>
      </trkpt>
      <trkpt lat="47.2564" lon="-1.53652">
        <ele>9.130895614624</ele>
        <time>2017-02-14T09:36:39.000Z</time>
      </trkpt>
      <trkpt lat="47.25637" lon="-1.53655">
        <ele>9.2276458740234</ele>
        <time>2017-02-14T09:36:42.000Z</time>
      </trkpt>
      <trkpt lat="47.25636" lon="-1.53657">
        <ele>9.3025741577148</ele>
        <time>2017-02-14T09:36:44.000Z</time>
      </trkpt>
      <trkpt lat="47.25634" lon="-1.5366">
        <ele>9.3485126495361</ele>
        <time>2017-02-14T09:36:47.000Z</time>
      </trkpt>
      <trkpt lat="47.25631" lon="-1.53665">
        <ele>9.3598766326904</ele>
        <time>2017-02-14T09:36:50.000Z</time>
      </trkpt>
      <trkpt lat="47.2563" lon="-1.53669">
        <ele>9.3403463363647</ele>
        <time>2017-02-14T09:36:52.000Z</time>
      </trkpt>
      <trkpt lat="47.25628" lon="-1.53674">
        <ele>9.30943775177</ele>
        <time>2017-02-14T09:36:55.000Z</time>
      </trkpt>
      <trkpt lat="47.25626" lon="-1.53679">
        <ele>9.2695913314819</ele>
        <time>2017-02-14T09:36:58.000Z</time>
      </trkpt>
      <trkpt lat="47.25624" lon="-1.53682">
        <ele>9.2223262786865</ele>
        <time>2017-02-14T09:37:00.000Z</time>
      </trkpt>
      <trkpt lat="47.25623" lon="-1.53687">
        <ele>9.1785001754761</ele>
        <time>2017-02-14T09:37:02.000Z</time>
      </trkpt>
      <trkpt lat="47.25621" lon="-1.53693">
        <ele>9.1330966949463</ele>
        <time>2017-02-14T09:37:05.000Z</time>
      </trkpt>
      <trkpt lat="47.2562" lon="-1.53697">
        <ele>9.093770980835</ele>
        <time>2017-02-14T09:37:07.000Z</time>
      </trkpt>
      <trkpt lat="47.25618" lon="-1.537">
        <ele>9.0558681488037</ele>
        <time>2017-02-14T09:37:09.000Z</time>
      </trkpt>
      <trkpt lat="47.25617" lon="-1.53705">
        <ele>9.0201511383057</ele>
        <time>2017-02-14T09:37:12.000Z</time>
      </trkpt>
      <trkpt lat="47.25615" lon="-1.5371">
        <ele>8.994086265564</ele>
        <time>2017-02-14T09:37:15.000Z</time>
      </trkpt>
      <trkpt lat="47.25613" lon="-1.53715">
        <ele>8.9756879806519</ele>
        <time>2017-02-14T09:37:18.000Z</time>
      </trkpt>
      <trkpt lat="47.25611" lon="-1.53718">
        <ele>8.9649295806885</ele>
        <time>2017-02-14T09:37:20.000Z</time>
      </trkpt>
      <trkpt lat="47.2561" lon="-1.53721">
        <ele>8.9645643234253</ele>
        <time>2017-02-14T09:37:22.000Z</time>
      </trkpt>
      <trkpt lat="47.25608" lon="-1.53725">
        <ele>8.9745025634766</ele>
        <time>2017-02-14T09:37:24.000Z</time>
      </trkpt>
      <trkpt lat="47.25606" lon="-1.5373">
        <ele>8.9835119247437</ele>
        <time>2017-02-14T09:37:27.000Z</time>
      </trkpt>
      <trkpt lat="47.25604" lon="-1.53734">
        <ele>9.0081300735474</ele>
        <time>2017-02-14T09:37:29.000Z</time>
      </trkpt>
      <trkpt lat="47.25602" lon="-1.53739">
        <ele>9.0366249084473</ele>
        <time>2017-02-14T09:37:32.000Z</time>
      </trkpt>
      <trkpt lat="47.256" lon="-1.53742">
        <ele>9.0673007965088</ele>
        <time>2017-02-14T09:37:35.000Z</time>
      </trkpt>
      <trkpt lat="47.25598" lon="-1.53745">
        <ele>9.1037731170654</ele>
        <time>2017-02-14T09:37:37.000Z</time>
      </trkpt>
      <trkpt lat="47.25597" lon="-1.53747">
        <ele>9.1411180496216</ele>
        <time>2017-02-14T09:37:39.000Z</time>
      </trkpt>
      <trkpt lat="47.25595" lon="-1.53752">
        <ele>9.1787252426147</ele>
        <time>2017-02-14T09:37:42.000Z</time>
      </trkpt>
      <trkpt lat="47.25595" lon="-1.53755">
        <ele>9.2059841156006</ele>
        <time>2017-02-14T09:37:44.000Z</time>
      </trkpt>
      <trkpt lat="47.25594" lon="-1.53758">
        <ele>9.2264156341553</ele>
        <time>2017-02-14T09:37:47.000Z</time>
      </trkpt>
      <trkpt lat="47.25592" lon="-1.53765">
        <ele>9.2380275726318</ele>
        <time>2017-02-14T09:37:50.000Z</time>
      </trkpt>
      <trkpt lat="47.25591" lon="-1.5377">
        <ele>9.2503833770752</ele>
        <time>2017-02-14T09:37:53.000Z</time>
      </trkpt>
      <trkpt lat="47.25587" lon="-1.53775">
        <ele>9.2853260040283</ele>
        <time>2017-02-14T09:37:56.000Z</time>
      </trkpt>
      <trkpt lat="47.25585" lon="-1.53779">
        <ele>9.3497266769409</ele>
        <time>2017-02-14T09:37:59.000Z</time>
      </trkpt>
      <trkpt lat="47.25581" lon="-1.53783">
        <ele>9.4482936859131</ele>
        <time>2017-02-14T09:38:02.000Z</time>
      </trkpt>
      <trkpt lat="47.25579" lon="-1.53785">
        <ele>9.5604076385498</ele>
        <time>2017-02-14T09:38:04.000Z</time>
      </trkpt>
      <trkpt lat="47.25578" lon="-1.53788">
        <ele>9.6719465255737</ele>
        <time>2017-02-14T09:38:06.000Z</time>
      </trkpt>
      <trkpt lat="47.25577" lon="-1.53789">
        <ele>9.7554121017456</ele>
        <time>2017-02-14T09:38:08.000Z</time>
      </trkpt>
      <trkpt lat="47.25574" lon="-1.53794">
        <ele>9.8231582641602</ele>
        <time>2017-02-14T09:38:10.000Z</time>
      </trkpt>
      <trkpt lat="47.25571" lon="-1.53799">
        <ele>9.8599920272827</ele>
        <time>2017-02-14T09:38:13.000Z</time>
      </trkpt>
      <trkpt lat="47.25569" lon="-1.53803">
        <ele>9.8798704147339</ele>
        <time>2017-02-14T09:38:16.000Z</time>
      </trkpt>
      <trkpt lat="47.25567" lon="-1.53807">
        <ele>9.8941097259521</ele>
        <time>2017-02-14T09:38:19.000Z</time>
      </trkpt>
      <trkpt lat="47.25563" lon="-1.5381">
        <ele>9.9145565032959</ele>
        <time>2017-02-14T09:38:22.000Z</time>
      </trkpt>
      <trkpt lat="47.25559" lon="-1.53811">
        <ele>9.937801361084</ele>
        <time>2017-02-14T09:38:24.000Z</time>
      </trkpt>
      <trkpt lat="47.25555" lon="-1.53813">
        <ele>9.9673404693604</ele>
        <time>2017-02-14T09:38:26.000Z</time>
      </trkpt>
      <trkpt lat="47.25554" lon="-1.53813">
        <ele>10.008839607239</ele>
        <time>2017-02-14T09:38:28.000Z</time>
      </trkpt>
      <trkpt lat="47.25552" lon="-1.53815">
        <ele>10.047517776489</ele>
        <time>2017-02-14T09:38:30.000Z</time>
      </trkpt>
      <trkpt lat="47.25551" lon="-1.53818">
        <ele>10.055221557617</ele>
        <time>2017-02-14T09:38:33.000Z</time>
      </trkpt>
      <trkpt lat="47.25551" lon="-1.5382">
        <ele>10.030790328979</ele>
        <time>2017-02-14T09:38:35.000Z</time>
      </trkpt>
      <trkpt lat="47.25551" lon="-1.53824">
        <ele>9.9680500030518</ele>
        <time>2017-02-14T09:38:38.000Z</time>
      </trkpt>
      <trkpt lat="47.25552" lon="-1.53826">
        <ele>9.8786668777466</ele>
        <time>2017-02-14T09:38:40.000Z</time>
      </trkpt>
      <trkpt lat="47.25553" lon="-1.53828">
        <ele>9.7735919952393</ele>
        <time>2017-02-14T09:38:43.000Z</time>
      </trkpt>
      <trkpt lat="47.25553" lon="-1.5383">
        <ele>9.6762237548828</ele>
        <time>2017-02-14T09:38:45.000Z</time>
      </trkpt>
      <trkpt lat="47.25552" lon="-1.53832">
        <ele>9.580135345459</ele>
        <time>2017-02-14T09:38:48.000Z</time>
      </trkpt>
      <trkpt lat="47.2555" lon="-1.53833">
        <ele>9.5112133026123</ele>
        <time>2017-02-14T09:38:51.000Z</time>
      </trkpt>
      <trkpt lat="47.25548" lon="-1.53833">
        <ele>9.4618721008301</ele>
        <time>2017-02-14T09:38:53.000Z</time>
      </trkpt>
      <trkpt lat="47.25549" lon="-1.53835">
        <ele>9.4174575805664</ele>
        <time>2017-02-14T09:39:00.000Z</time>
      </trkpt>
      <trkpt lat="47.25548" lon="-1.53837">
        <ele>9.3764810562134</ele>
        <time>2017-02-14T09:39:02.000Z</time>
      </trkpt>
      <trkpt lat="47.25548" lon="-1.53835">
        <ele>9.367449760437</ele>
        <time>2017-02-14T09:39:07.000Z</time>
      </trkpt>
      <trkpt lat="47.25547" lon="-1.53831">
        <ele>9.3879718780518</ele>
        <time>2017-02-14T09:39:10.000Z</time>
      </trkpt>
      <trkpt lat="47.25549" lon="-1.5383">
        <ele>9.4129009246826</ele>
        <time>2017-02-14T09:39:16.000Z</time>
      </trkpt>
      <trkpt lat="47.25549" lon="-1.53829">
        <ele>9.4639644622803</ele>
        <time>2017-02-14T09:39:19.000Z</time>
      </trkpt>
      <trkpt lat="47.2555" lon="-1.53828">
        <ele>9.5314502716064</ele>
        <time>2017-02-14T09:39:22.000Z</time>
      </trkpt>
      <trkpt lat="47.25551" lon="-1.53827">
        <ele>9.5866975784302</ele>
        <time>2017-02-14T09:39:25.000Z</time>
      </trkpt>
      <trkpt lat="47.25551" lon="-1.53829">
        <ele>9.5972766876221</ele>
        <time>2017-02-14T09:39:27.000Z</time>
      </trkpt>
      <trkpt lat="47.25549" lon="-1.53829">
        <ele>9.606912612915</ele>
        <time>2017-02-14T09:39:30.000Z</time>
      </trkpt>
      <trkpt lat="47.25546" lon="-1.5383">
        <ele>9.6103191375732</ele>
        <time>2017-02-14T09:39:33.000Z</time>
      </trkpt>
      <trkpt lat="47.25542" lon="-1.53832">
        <ele>9.5914249420166</ele>
        <time>2017-02-14T09:39:36.000Z</time>
      </trkpt>
      <trkpt lat="47.25542" lon="-1.53834">
        <ele>9.5578479766846</ele>
        <time>2017-02-14T09:39:38.000Z</time>
      </trkpt>
      <trkpt lat="47.25543" lon="-1.53834">
        <ele>9.5328407287598</ele>
        <time>2017-02-14T09:39:40.000Z</time>
      </trkpt>
      <trkpt lat="47.25544" lon="-1.53833">
        <ele>9.5084886550903</ele>
        <time>2017-02-14T09:39:47.000Z</time>
      </trkpt>
      <trkpt lat="47.25544" lon="-1.53832">
        <ele>9.4913196563721</ele>
        <time>2017-02-14T09:39:50.000Z</time>
      </trkpt>
      <trkpt lat="47.25544" lon="-1.5383">
        <ele>9.505033493042</ele>
        <time>2017-02-14T09:39:53.000Z</time>
      </trkpt>
      <trkpt lat="47.25546" lon="-1.53831">
        <ele>9.5221948623657</ele>
        <time>2017-02-14T09:39:55.000Z</time>
      </trkpt>
      <trkpt lat="47.25548" lon="-1.53834">
        <ele>9.5105028152466</ele>
        <time>2017-02-14T09:39:58.000Z</time>
      </trkpt>
      <trkpt lat="47.25549" lon="-1.53839">
        <ele>9.4527416229248</ele>
        <time>2017-02-14T09:40:00.000Z</time>
      </trkpt>
      <trkpt lat="47.25551" lon="-1.53844">
        <ele>9.3394908905029</ele>
        <time>2017-02-14T09:40:02.000Z</time>
      </trkpt>
      <trkpt lat="47.25552" lon="-1.53848">
        <ele>9.1757574081421</ele>
        <time>2017-02-14T09:40:04.000Z</time>
      </trkpt>
      <trkpt lat="47.25554" lon="-1.53852">
        <ele>8.9846887588501</ele>
        <time>2017-02-14T09:40:06.000Z</time>
      </trkpt>
      <trkpt lat="47.25557" lon="-1.53857">
        <ele>8.7863922119141</ele>
        <time>2017-02-14T09:40:09.000Z</time>
      </trkpt>
      <trkpt lat="47.25558" lon="-1.53859">
        <ele>8.6034326553345</ele>
        <time>2017-02-14T09:40:11.000Z</time>
      </trkpt>
      <trkpt lat="47.2556" lon="-1.53864">
        <ele>8.4250516891479</ele>
        <time>2017-02-14T09:40:14.000Z</time>
      </trkpt>
      <trkpt lat="47.2556" lon="-1.53868">
        <ele>8.249400138855</ele>
        <time>2017-02-14T09:40:16.000Z</time>
      </trkpt>
      <trkpt lat="47.25561" lon="-1.53872">
        <ele>8.0792589187622</ele>
        <time>2017-02-14T09:40:18.000Z</time>
      </trkpt>
      <trkpt lat="47.25562" lon="-1.53876">
        <ele>7.9233040809631</ele>
        <time>2017-02-14T09:40:21.000Z</time>
      </trkpt>
      <trkpt lat="47.25563" lon="-1.53882">
        <ele>7.7371459007263</ele>
        <time>2017-02-14T09:40:24.000Z</time>
      </trkpt>
      <trkpt lat="47.25564" lon="-1.53886">
        <ele>7.562385559082</ele>
        <time>2017-02-14T09:40:26.000Z</time>
      </trkpt>
      <trkpt lat="47.25566" lon="-1.53891">
        <ele>7.3782439231873</ele>
        <time>2017-02-14T09:40:29.000Z</time>
      </trkpt>
      <trkpt lat="47.25567" lon="-1.53896">
        <ele>7.183876991272</ele>
        <time>2017-02-14T09:40:32.000Z</time>
      </trkpt>
      <trkpt lat="47.25568" lon="-1.53899">
        <ele>6.9931197166443</ele>
        <time>2017-02-14T09:40:34.000Z</time>
      </trkpt>
      <trkpt lat="47.25569" lon="-1.53903">
        <ele>6.829981803894</ele>
        <time>2017-02-14T09:40:36.000Z</time>
      </trkpt>
      <trkpt lat="47.2557" lon="-1.53906">
        <ele>6.6718473434448</ele>
        <time>2017-02-14T09:40:38.000Z</time>
      </trkpt>
      <trkpt lat="47.25573" lon="-1.5391">
        <ele>6.5209913253784</ele>
        <time>2017-02-14T09:40:41.000Z</time>
      </trkpt>
      <trkpt lat="47.25574" lon="-1.53913">
        <ele>6.3908982276917</ele>
        <time>2017-02-14T09:40:43.000Z</time>
      </trkpt>
      <trkpt lat="47.25576" lon="-1.53915">
        <ele>6.2687873840332</ele>
        <time>2017-02-14T09:40:45.000Z</time>
      </trkpt>
      <trkpt lat="47.25577" lon="-1.53918">
        <ele>6.1865148544312</ele>
        <time>2017-02-14T09:40:47.000Z</time>
      </trkpt>
      <trkpt lat="47.25579" lon="-1.53923">
        <ele>6.2005910873413</ele>
        <time>2017-02-14T09:40:50.000Z</time>
      </trkpt>
      <trkpt lat="47.2558" lon="-1.53926">
        <ele>6.286452293396</ele>
        <time>2017-02-14T09:40:52.000Z</time>
      </trkpt>
      <trkpt lat="47.25581" lon="-1.53931">
        <ele>6.4628801345825</ele>
        <time>2017-02-14T09:40:55.000Z</time>
      </trkpt>
      <trkpt lat="47.25582" lon="-1.53934">
        <ele>6.6977210044861</ele>
        <time>2017-02-14T09:40:57.000Z</time>
      </trkpt>
      <trkpt lat="47.25584" lon="-1.53939">
        <ele>6.9914827346802</ele>
        <time>2017-02-14T09:41:00.000Z</time>
      </trkpt>
      <trkpt lat="47.25586" lon="-1.53943">
        <ele>7.2845983505249</ele>
        <time>2017-02-14T09:41:03.000Z</time>
      </trkpt>
      <trkpt lat="47.25588" lon="-1.53948">
        <ele>7.609254360199</ele>
        <time>2017-02-14T09:41:06.000Z</time>
      </trkpt>
      <trkpt lat="47.25589" lon="-1.53953">
        <ele>7.9403443336487</ele>
        <time>2017-02-14T09:41:09.000Z</time>
      </trkpt>
      <trkpt lat="47.25591" lon="-1.53956">
        <ele>8.2843017578125</ele>
        <time>2017-02-14T09:41:11.000Z</time>
      </trkpt>
      <trkpt lat="47.25591" lon="-1.53959">
        <ele>8.5921020507812</ele>
        <time>2017-02-14T09:41:13.000Z</time>
      </trkpt>
      <trkpt lat="47.25589" lon="-1.5396">
        <ele>8.8462524414062</ele>
        <time>2017-02-14T09:41:16.000Z</time>
      </trkpt>
      <trkpt lat="47.25588" lon="-1.5396">
        <ele>9.0227661132812</ele>
        <time>2017-02-14T09:41:19.000Z</time>
      </trkpt>
      <trkpt lat="47.25587" lon="-1.53959">
        <ele>9.1121826171875</ele>
        <time>2017-02-14T09:41:22.000Z</time>
      </trkpt>
      <trkpt lat="47.25586" lon="-1.53958">
        <ele>9.126708984375</ele>
        <time>2017-02-14T09:41:26.000Z</time>
      </trkpt>
      <trkpt lat="47.25587" lon="-1.53959">
        <ele>9.1182250976562</ele>
        <time>2017-02-14T09:41:32.000Z</time>
      </trkpt>
      <trkpt lat="47.25587" lon="-1.5396">
        <ele>9.1156005859375</ele>
        <time>2017-02-14T09:41:35.000Z</time>
      </trkpt>
      <trkpt lat="47.25587" lon="-1.53962">
        <ele>9.1483154296875</ele>
        <time>2017-02-14T09:41:38.000Z</time>
      </trkpt>
      <trkpt lat="47.25588" lon="-1.53964">
        <ele>9.2152709960938</ele>
        <time>2017-02-14T09:41:41.000Z</time>
      </trkpt>
      <trkpt lat="47.25587" lon="-1.53967">
        <ele>9.343994140625</ele>
        <time>2017-02-14T09:41:43.000Z</time>
      </trkpt>
      <trkpt lat="47.25585" lon="-1.53969">
        <ele>9.484375</ele>
        <time>2017-02-14T09:41:46.000Z</time>
      </trkpt>
      <trkpt lat="47.25584" lon="-1.53967">
        <ele>9.5745239257812</ele>
        <time>2017-02-14T09:41:49.000Z</time>
      </trkpt>
      <trkpt lat="47.25584" lon="-1.53966">
        <ele>9.6151123046875</ele>
        <time>2017-02-14T09:41:51.000Z</time>
      </trkpt>
      <trkpt lat="47.25583" lon="-1.53963">
        <ele>9.5852241516113</ele>
        <time>2017-02-14T09:41:54.000Z</time>
      </trkpt>
      <trkpt lat="47.25582" lon="-1.53961">
        <ele>9.4861993789673</ele>
        <time>2017-02-14T09:41:56.000Z</time>
      </trkpt>
      <trkpt lat="47.25583" lon="-1.53959">
        <ele>9.3318328857422</ele>
        <time>2017-02-14T09:41:59.000Z</time>
      </trkpt>
      <trkpt lat="47.25584" lon="-1.53959">
        <ele>9.2137908935547</ele>
        <time>2017-02-14T09:42:01.000Z</time>
      </trkpt>
      <trkpt lat="47.25586" lon="-1.53959">
        <ele>9.1161346435547</ele>
        <time>2017-02-14T09:42:03.000Z</time>
      </trkpt>
      <trkpt lat="47.25588" lon="-1.5396">
        <ele>9.0912742614746</ele>
        <time>2017-02-14T09:42:06.000Z</time>
      </trkpt>
      <trkpt lat="47.25588" lon="-1.53962">
        <ele>9.1260290145874</ele>
        <time>2017-02-14T09:42:08.000Z</time>
      </trkpt>
      <trkpt lat="47.25588" lon="-1.53967">
        <ele>9.2550048828125</ele>
        <time>2017-02-14T09:42:11.000Z</time>
      </trkpt>
      <trkpt lat="47.25585" lon="-1.53971">
        <ele>9.431396484375</ele>
        <time>2017-02-14T09:42:14.000Z</time>
      </trkpt>
      <trkpt lat="47.25582" lon="-1.53977">
        <ele>9.6906824111938</ele>
        <time>2017-02-14T09:42:17.000Z</time>
      </trkpt>
      <trkpt lat="47.25579" lon="-1.53981">
        <ele>9.964882850647</ele>
        <time>2017-02-14T09:42:20.000Z</time>
      </trkpt>
      <trkpt lat="47.25577" lon="-1.53984">
        <ele>10.24237537384</ele>
        <time>2017-02-14T09:42:22.000Z</time>
      </trkpt>
      <trkpt lat="47.25574" lon="-1.53986">
        <ele>10.467366218567</ele>
        <time>2017-02-14T09:42:25.000Z</time>
      </trkpt>
      <trkpt lat="47.25571" lon="-1.53985">
        <ele>10.605985641479</ele>
        <time>2017-02-14T09:42:27.000Z</time>
      </trkpt>
      <trkpt lat="47.2557" lon="-1.5398">
        <ele>10.599558830261</ele>
        <time>2017-02-14T09:42:30.000Z</time>
      </trkpt>
      <trkpt lat="47.25571" lon="-1.53978">
        <ele>10.533851623535</ele>
        <time>2017-02-14T09:42:32.000Z</time>
      </trkpt>
      <trkpt lat="47.25573" lon="-1.5398">
        <ele>10.462019920349</ele>
        <time>2017-02-14T09:42:35.000Z</time>
      </trkpt>
      <trkpt lat="47.25573" lon="-1.53979">
        <ele>10.369527816772</ele>
        <time>2017-02-14T09:42:37.000Z</time>
      </trkpt>
      <trkpt lat="47.25574" lon="-1.53979">
        <ele>10.308759689331</ele>
        <time>2017-02-14T09:42:40.000Z</time>
      </trkpt>
      <trkpt lat="47.25576" lon="-1.53976">
        <ele>10.270101547241</ele>
        <time>2017-02-14T09:42:42.000Z</time>
      </trkpt>
      <trkpt lat="47.25576" lon="-1.53969">
        <ele>10.16081237793</ele>
        <time>2017-02-14T09:42:44.000Z</time>
      </trkpt>
      <trkpt lat="47.25579" lon="-1.53963">
        <ele>9.9482975006104</ele>
        <time>2017-02-14T09:42:47.000Z</time>
      </trkpt>
      <trkpt lat="47.25582" lon="-1.53961">
        <ele>9.717080116272</ele>
        <time>2017-02-14T09:42:49.000Z</time>
      </trkpt>
      <trkpt lat="47.25585" lon="-1.53959">
        <ele>9.4607019424438</ele>
        <time>2017-02-14T09:42:51.000Z</time>
      </trkpt>
      <trkpt lat="47.25589" lon="-1.53958">
        <ele>9.2408237457275</ele>
        <time>2017-02-14T09:42:54.000Z</time>
      </trkpt>
      <trkpt lat="47.25591" lon="-1.53957">
        <ele>9.103289604187</ele>
        <time>2017-02-14T09:42:56.000Z</time>
      </trkpt>
      <trkpt lat="47.25595" lon="-1.53955">
        <ele>9.0160884857178</ele>
        <time>2017-02-14T09:42:59.000Z</time>
      </trkpt>
      <trkpt lat="47.25597" lon="-1.53949">
        <ele>8.8776245117188</ele>
        <time>2017-02-14T09:43:02.000Z</time>
      </trkpt>
      <trkpt lat="47.256" lon="-1.53944">
        <ele>8.6981811523438</ele>
        <time>2017-02-14T09:43:05.000Z</time>
      </trkpt>
      <trkpt lat="47.25602" lon="-1.53942">
        <ele>8.4981689453125</ele>
        <time>2017-02-14T09:43:07.000Z</time>
      </trkpt>
      <trkpt lat="47.25607" lon="-1.53942">
        <ele>8.3231201171875</ele>
        <time>2017-02-14T09:43:09.000Z</time>
      </trkpt>
      <trkpt lat="47.25613" lon="-1.53942">
        <ele>8.18701171875</ele>
        <time>2017-02-14T09:43:12.000Z</time>
      </trkpt>
      <trkpt lat="47.25616" lon="-1.53943">
        <ele>8.1510009765625</ele>
        <time>2017-02-14T09:43:14.000Z</time>
      </trkpt>
      <trkpt lat="47.25619" lon="-1.53941">
        <ele>8.16015625</ele>
        <time>2017-02-14T09:43:17.000Z</time>
      </trkpt>
      <trkpt lat="47.25621" lon="-1.53941">
        <ele>8.2017822265625</ele>
        <time>2017-02-14T09:43:22.000Z</time>
      </trkpt>
      <trkpt lat="47.25627" lon="-1.5394">
        <ele>8.2255859375</ele>
        <time>2017-02-14T09:43:25.000Z</time>
      </trkpt>
      <trkpt lat="47.25632" lon="-1.5394">
        <ele>8.2437133789062</ele>
        <time>2017-02-14T09:43:28.000Z</time>
      </trkpt>
      <trkpt lat="47.25635" lon="-1.5394">
        <ele>8.2412719726562</ele>
        <time>2017-02-14T09:43:30.000Z</time>
      </trkpt>
      <trkpt lat="47.2564" lon="-1.53939">
        <ele>8.2553100585938</ele>
        <time>2017-02-14T09:43:33.000Z</time>
      </trkpt>
      <trkpt lat="47.25642" lon="-1.53938">
        <ele>8.2579345703125</ele>
        <time>2017-02-14T09:43:35.000Z</time>
      </trkpt>
      <trkpt lat="47.25645" lon="-1.53936">
        <ele>8.2323608398438</ele>
        <time>2017-02-14T09:43:38.000Z</time>
      </trkpt>
      <trkpt lat="47.25648" lon="-1.53935">
        <ele>8.1946411132812</ele>
        <time>2017-02-14T09:43:40.000Z</time>
      </trkpt>
      <trkpt lat="47.25653" lon="-1.53934">
        <ele>8.150390625</ele>
        <time>2017-02-14T09:43:43.000Z</time>
      </trkpt>
      <trkpt lat="47.25658" lon="-1.53931">
        <ele>8.0862426757812</ele>
        <time>2017-02-14T09:43:46.000Z</time>
      </trkpt>
      <trkpt lat="47.25661" lon="-1.5393">
        <ele>8.0224609375</ele>
        <time>2017-02-14T09:43:49.000Z</time>
      </trkpt>
      <trkpt lat="47.25665" lon="-1.53928">
        <ele>7.9642944335938</ele>
        <time>2017-02-14T09:43:52.000Z</time>
      </trkpt>
      <trkpt lat="47.25668" lon="-1.53927">
        <ele>7.8886461257935</ele>
        <time>2017-02-14T09:43:54.000Z</time>
      </trkpt>
      <trkpt lat="47.25673" lon="-1.53924">
        <ele>7.7812032699585</ele>
        <time>2017-02-14T09:43:57.000Z</time>
      </trkpt>
      <trkpt lat="47.25676" lon="-1.53922">
        <ele>7.6718244552612</ele>
        <time>2017-02-14T09:43:59.000Z</time>
      </trkpt>
      <trkpt lat="47.25679" lon="-1.53921">
        <ele>7.5477533340454</ele>
        <time>2017-02-14T09:44:01.000Z</time>
      </trkpt>
      <trkpt lat="47.25683" lon="-1.5392">
        <ele>7.4301352500916</ele>
        <time>2017-02-14T09:44:04.000Z</time>
      </trkpt>
      <trkpt lat="47.25687" lon="-1.53918">
        <ele>7.3091979026794</ele>
        <time>2017-02-14T09:44:06.000Z</time>
      </trkpt>
      <trkpt lat="47.25691" lon="-1.53916">
        <ele>7.1948752403259</ele>
        <time>2017-02-14T09:44:09.000Z</time>
      </trkpt>
      <trkpt lat="47.25694" lon="-1.53915">
        <ele>7.0955495834351</ele>
        <time>2017-02-14T09:44:11.000Z</time>
      </trkpt>
      <trkpt lat="47.257" lon="-1.53913">
        <ele>7.0009078979492</ele>
        <time>2017-02-14T09:44:14.000Z</time>
      </trkpt>
      <trkpt lat="47.25704" lon="-1.53912">
        <ele>6.9081749916077</ele>
        <time>2017-02-14T09:44:16.000Z</time>
      </trkpt>
      <trkpt lat="47.25708" lon="-1.53911">
        <ele>6.83544921875</ele>
        <time>2017-02-14T09:44:18.000Z</time>
      </trkpt>
      <trkpt lat="47.25714" lon="-1.53913">
        <ele>6.8126220703125</ele>
        <time>2017-02-14T09:44:21.000Z</time>
      </trkpt>
      <trkpt lat="47.25718" lon="-1.53916">
        <ele>6.82861328125</ele>
        <time>2017-02-14T09:44:24.000Z</time>
      </trkpt>
      <trkpt lat="47.25721" lon="-1.53919">
        <ele>6.8970441818237</ele>
        <time>2017-02-14T09:44:26.000Z</time>
      </trkpt>
      <trkpt lat="47.25723" lon="-1.53922">
        <ele>7.0140333175659</ele>
        <time>2017-02-14T09:44:28.000Z</time>
      </trkpt>
      <trkpt lat="47.25726" lon="-1.53926">
        <ele>7.1904740333557</ele>
        <time>2017-02-14T09:44:31.000Z</time>
      </trkpt>
      <trkpt lat="47.25728" lon="-1.53931">
        <ele>7.4045066833496</ele>
        <time>2017-02-14T09:44:34.000Z</time>
      </trkpt>
      <trkpt lat="47.25729" lon="-1.53935">
        <ele>7.639949798584</ele>
        <time>2017-02-14T09:44:36.000Z</time>
      </trkpt>
      <trkpt lat="47.25731" lon="-1.53938">
        <ele>7.8777227401733</ele>
        <time>2017-02-14T09:44:38.000Z</time>
      </trkpt>
      <trkpt lat="47.25734" lon="-1.53941">
        <ele>8.109016418457</ele>
        <time>2017-02-14T09:44:41.000Z</time>
      </trkpt>
      <trkpt lat="47.25736" lon="-1.53942">
        <ele>8.303092956543</ele>
        <time>2017-02-14T09:44:43.000Z</time>
      </trkpt>
      <trkpt lat="47.25738" lon="-1.53945">
        <ele>8.4765720367432</ele>
        <time>2017-02-14T09:44:45.000Z</time>
      </trkpt>
      <trkpt lat="47.2574" lon="-1.53948">
        <ele>8.6352157592773</ele>
        <time>2017-02-14T09:44:47.000Z</time>
      </trkpt>
      <trkpt lat="47.25743" lon="-1.53952">
        <ele>8.7961502075195</ele>
        <time>2017-02-14T09:44:49.000Z</time>
      </trkpt>
      <trkpt lat="47.25746" lon="-1.53956">
        <ele>8.9696025848389</ele>
        <time>2017-02-14T09:44:52.000Z</time>
      </trkpt>
      <trkpt lat="47.25749" lon="-1.53959">
        <ele>9.1651849746704</ele>
        <time>2017-02-14T09:44:55.000Z</time>
      </trkpt>
      <trkpt lat="47.25753" lon="-1.53963">
        <ele>9.3728723526001</ele>
        <time>2017-02-14T09:44:58.000Z</time>
      </trkpt>
      <trkpt lat="47.25756" lon="-1.53964">
        <ele>9.5553417205811</ele>
        <time>2017-02-14T09:45:00.000Z</time>
      </trkpt>
      <trkpt lat="47.25758" lon="-1.53964">
        <ele>9.7079038619995</ele>
        <time>2017-02-14T09:45:02.000Z</time>
      </trkpt>
      <trkpt lat="47.25763" lon="-1.53965">
        <ele>9.8348608016968</ele>
        <time>2017-02-14T09:45:05.000Z</time>
      </trkpt>
      <trkpt lat="47.25767" lon="-1.53964">
        <ele>9.9168710708618</ele>
        <time>2017-02-14T09:45:08.000Z</time>
      </trkpt>
      <trkpt lat="47.25769" lon="-1.53964">
        <ele>9.9493284225464</ele>
        <time>2017-02-14T09:45:10.000Z</time>
      </trkpt>
      <trkpt lat="47.25771" lon="-1.53963">
        <ele>9.9599590301514</ele>
        <time>2017-02-14T09:45:12.000Z</time>
      </trkpt>
      <trkpt lat="47.25775" lon="-1.53961">
        <ele>9.9378986358643</ele>
        <time>2017-02-14T09:45:14.000Z</time>
      </trkpt>
      <trkpt lat="47.25779" lon="-1.53958">
        <ele>9.86501121521</ele>
        <time>2017-02-14T09:45:17.000Z</time>
      </trkpt>
      <trkpt lat="47.2578" lon="-1.53956">
        <ele>9.7718868255615</ele>
        <time>2017-02-14T09:45:20.000Z</time>
      </trkpt>
      <trkpt lat="47.25782" lon="-1.53955">
        <ele>9.6692218780518</ele>
        <time>2017-02-14T09:45:22.000Z</time>
      </trkpt>
      <trkpt lat="47.25783" lon="-1.53953">
        <ele>9.5524654388428</ele>
        <time>2017-02-14T09:45:25.000Z</time>
      </trkpt>
      <trkpt lat="47.25787" lon="-1.53951">
        <ele>9.4395503997803</ele>
        <time>2017-02-14T09:45:27.000Z</time>
      </trkpt>
      <trkpt lat="47.2579" lon="-1.5395">
        <ele>9.3503322601318</ele>
        <time>2017-02-14T09:45:29.000Z</time>
      </trkpt>
      <trkpt lat="47.25796" lon="-1.53949">
        <ele>9.2730340957642</ele>
        <time>2017-02-14T09:45:32.000Z</time>
      </trkpt>
      <trkpt lat="47.258" lon="-1.53948">
        <ele>9.2054510116577</ele>
        <time>2017-02-14T09:45:35.000Z</time>
      </trkpt>
      <trkpt lat="47.25804" lon="-1.53947">
        <ele>9.1554584503174</ele>
        <time>2017-02-14T09:45:37.000Z</time>
      </trkpt>
      <trkpt lat="47.25808" lon="-1.53947">
        <ele>9.1226215362549</ele>
        <time>2017-02-14T09:45:39.000Z</time>
      </trkpt>
      <trkpt lat="47.25812" lon="-1.53947">
        <ele>9.1067399978638</ele>
        <time>2017-02-14T09:45:41.000Z</time>
      </trkpt>
      <trkpt lat="47.25814" lon="-1.53948">
        <ele>9.111626625061</ele>
        <time>2017-02-14T09:45:44.000Z</time>
      </trkpt>
      <trkpt lat="47.25817" lon="-1.53948">
        <ele>9.1226892471313</ele>
        <time>2017-02-14T09:45:47.000Z</time>
      </trkpt>
      <trkpt lat="47.25821" lon="-1.53947">
        <ele>9.130687713623</ele>
        <time>2017-02-14T09:45:49.000Z</time>
      </trkpt>
      <trkpt lat="47.25824" lon="-1.53946">
        <ele>9.1219682693481</ele>
        <time>2017-02-14T09:45:51.000Z</time>
      </trkpt>
      <trkpt lat="47.2583" lon="-1.53944">
        <ele>9.0932006835938</ele>
        <time>2017-02-14T09:45:54.000Z</time>
      </trkpt>
      <trkpt lat="47.25835" lon="-1.53944">
        <ele>9.058277130127</ele>
        <time>2017-02-14T09:45:56.000Z</time>
      </trkpt>
      <trkpt lat="47.25838" lon="-1.53941">
        <ele>9.007740020752</ele>
        <time>2017-02-14T09:45:59.000Z</time>
      </trkpt>
      <trkpt lat="47.2584" lon="-1.53939">
        <ele>8.9431581497192</ele>
        <time>2017-02-14T09:46:01.000Z</time>
      </trkpt>
      <trkpt lat="47.25842" lon="-1.53935">
        <ele>8.8581733703613</ele>
        <time>2017-02-14T09:46:03.000Z</time>
      </trkpt>
      <trkpt lat="47.25844" lon="-1.53932">
        <ele>8.7551364898682</ele>
        <time>2017-02-14T09:46:06.000Z</time>
      </trkpt>
      <trkpt lat="47.25849" lon="-1.5393">
        <ele>8.6547517776489</ele>
        <time>2017-02-14T09:46:09.000Z</time>
      </trkpt>
      <trkpt lat="47.25855" lon="-1.53927">
        <ele>8.5705690383911</ele>
        <time>2017-02-14T09:46:12.000Z</time>
      </trkpt>
      <trkpt lat="47.25859" lon="-1.53925">
        <ele>8.5037851333618</ele>
        <time>2017-02-14T09:46:14.000Z</time>
      </trkpt>
      <trkpt lat="47.25864" lon="-1.53923">
        <ele>8.4807443618774</ele>
        <time>2017-02-14T09:46:17.000Z</time>
      </trkpt>
      <trkpt lat="47.25868" lon="-1.53921">
        <ele>8.4963865280151</ele>
        <time>2017-02-14T09:46:20.000Z</time>
      </trkpt>
      <trkpt lat="47.25871" lon="-1.53919">
        <ele>8.5068950653076</ele>
        <time>2017-02-14T09:46:22.000Z</time>
      </trkpt>
      <trkpt lat="47.25875" lon="-1.53918">
        <ele>8.5210113525391</ele>
        <time>2017-02-14T09:46:24.000Z</time>
      </trkpt>
      <trkpt lat="47.25878" lon="-1.53916">
        <ele>8.5403842926025</ele>
        <time>2017-02-14T09:46:26.000Z</time>
      </trkpt>
      <trkpt lat="47.25882" lon="-1.53913">
        <ele>8.5507097244263</ele>
        <time>2017-02-14T09:46:29.000Z</time>
      </trkpt>
      <trkpt lat="47.25885" lon="-1.53911">
        <ele>8.5443801879883</ele>
        <time>2017-02-14T09:46:31.000Z</time>
      </trkpt>
      <trkpt lat="47.25887" lon="-1.53909">
        <ele>8.5354280471802</ele>
        <time>2017-02-14T09:46:33.000Z</time>
      </trkpt>
      <trkpt lat="47.25891" lon="-1.53907">
        <ele>8.5142955780029</ele>
        <time>2017-02-14T09:46:35.000Z</time>
      </trkpt>
      <trkpt lat="47.25895" lon="-1.53904">
        <ele>8.4802932739258</ele>
        <time>2017-02-14T09:46:38.000Z</time>
      </trkpt>
      <trkpt lat="47.259" lon="-1.53902">
        <ele>8.4479999542236</ele>
        <time>2017-02-14T09:46:41.000Z</time>
      </trkpt>
      <trkpt lat="47.25903" lon="-1.539">
        <ele>8.4273738861084</ele>
        <time>2017-02-14T09:46:43.000Z</time>
      </trkpt>
      <trkpt lat="47.25906" lon="-1.53899">
        <ele>8.4097776412964</ele>
        <time>2017-02-14T09:46:45.000Z</time>
      </trkpt>
      <trkpt lat="47.25912" lon="-1.53896">
        <ele>8.3907461166382</ele>
        <time>2017-02-14T09:46:48.000Z</time>
      </trkpt>
      <trkpt lat="47.25917" lon="-1.53895">
        <ele>8.3972625732422</ele>
        <time>2017-02-14T09:46:51.000Z</time>
      </trkpt>
      <trkpt lat="47.25922" lon="-1.53894">
        <ele>8.418550491333</ele>
        <time>2017-02-14T09:46:54.000Z</time>
      </trkpt>
      <trkpt lat="47.25926" lon="-1.53893">
        <ele>8.4419040679932</ele>
        <time>2017-02-14T09:46:57.000Z</time>
      </trkpt>
      <trkpt lat="47.25929" lon="-1.53891">
        <ele>8.4376230239868</ele>
        <time>2017-02-14T09:47:00.000Z</time>
      </trkpt>
      <trkpt lat="47.2593" lon="-1.5389">
        <ele>8.4273815155029</ele>
        <time>2017-02-14T09:47:02.000Z</time>
      </trkpt>
      <trkpt lat="47.25931" lon="-1.53889">
        <ele>8.397216796875</ele>
        <time>2017-02-14T09:47:05.000Z</time>
      </trkpt>
      <trkpt lat="47.25933" lon="-1.53887">
        <ele>8.3395214080811</ele>
        <time>2017-02-14T09:47:08.000Z</time>
      </trkpt>
      <trkpt lat="47.25935" lon="-1.53886">
        <ele>8.2699861526489</ele>
        <time>2017-02-14T09:47:10.000Z</time>
      </trkpt>
      <trkpt lat="47.25938" lon="-1.53885">
        <ele>8.2188196182251</ele>
        <time>2017-02-14T09:47:13.000Z</time>
      </trkpt>
      <trkpt lat="47.25941" lon="-1.53883">
        <ele>8.1584768295288</ele>
        <time>2017-02-14T09:47:15.000Z</time>
      </trkpt>
      <trkpt lat="47.25945" lon="-1.53879">
        <ele>8.0702819824219</ele>
        <time>2017-02-14T09:47:18.000Z</time>
      </trkpt>
      <trkpt lat="47.25948" lon="-1.53876">
        <ele>7.9630584716797</ele>
        <time>2017-02-14T09:47:21.000Z</time>
      </trkpt>
      <trkpt lat="47.25952" lon="-1.53874">
        <ele>7.8392333984375</ele>
        <time>2017-02-14T09:47:23.000Z</time>
      </trkpt>
      <trkpt lat="47.25954" lon="-1.53869">
        <ele>7.6550064086914</ele>
        <time>2017-02-14T09:47:26.000Z</time>
      </trkpt>
      <trkpt lat="47.25957" lon="-1.53863">
        <ele>7.4136953353882</ele>
        <time>2017-02-14T09:47:29.000Z</time>
      </trkpt>
      <trkpt lat="47.25959" lon="-1.5386">
        <ele>7.1712470054626</ele>
        <time>2017-02-14T09:47:32.000Z</time>
      </trkpt>
      <trkpt lat="47.25962" lon="-1.53858">
        <ele>6.9369559288025</ele>
        <time>2017-02-14T09:47:34.000Z</time>
      </trkpt>
      <trkpt lat="47.25965" lon="-1.53856">
        <ele>6.7073378562927</ele>
        <time>2017-02-14T09:47:37.000Z</time>
      </trkpt>
      <trkpt lat="47.2597" lon="-1.53854">
        <ele>6.5316095352173</ele>
        <time>2017-02-14T09:47:40.000Z</time>
      </trkpt>
      <trkpt lat="47.25976" lon="-1.53851">
        <ele>6.4031915664673</ele>
        <time>2017-02-14T09:47:43.000Z</time>
      </trkpt>
      <trkpt lat="47.25979" lon="-1.5385">
        <ele>6.2948799133301</ele>
        <time>2017-02-14T09:47:45.000Z</time>
      </trkpt>
      <trkpt lat="47.25985" lon="-1.53848">
        <ele>6.2069215774536</ele>
        <time>2017-02-14T09:47:48.000Z</time>
      </trkpt>
      <trkpt lat="47.25988" lon="-1.53848">
        <ele>6.1466779708862</ele>
        <time>2017-02-14T09:47:50.000Z</time>
      </trkpt>
      <trkpt lat="47.25993" lon="-1.53847">
        <ele>6.0921821594238</ele>
        <time>2017-02-14T09:47:53.000Z</time>
      </trkpt>
      <trkpt lat="47.25997" lon="-1.53845">
        <ele>6.0431280136108</ele>
        <time>2017-02-14T09:47:56.000Z</time>
      </trkpt>
      <trkpt lat="47.26001" lon="-1.53843">
        <ele>5.9816651344299</ele>
        <time>2017-02-14T09:47:59.000Z</time>
      </trkpt>
      <trkpt lat="47.26005" lon="-1.53841">
        <ele>5.8944487571716</ele>
        <time>2017-02-14T09:48:02.000Z</time>
      </trkpt>
      <trkpt lat="47.26008" lon="-1.5384">
        <ele>5.7859091758728</ele>
        <time>2017-02-14T09:48:04.000Z</time>
      </trkpt>
      <trkpt lat="47.26012" lon="-1.53839">
        <ele>5.6842541694641</ele>
        <time>2017-02-14T09:48:07.000Z</time>
      </trkpt>
      <trkpt lat="47.26015" lon="-1.53839">
        <ele>5.6042590141296</ele>
        <time>2017-02-14T09:48:09.000Z</time>
      </trkpt>
      <trkpt lat="47.2602" lon="-1.53839">
        <ele>5.5521478652954</ele>
        <time>2017-02-14T09:48:12.000Z</time>
      </trkpt>
      <trkpt lat="47.26025" lon="-1.53839">
        <ele>5.5381565093994</ele>
        <time>2017-02-14T09:48:15.000Z</time>
      </trkpt>
      <trkpt lat="47.26028" lon="-1.5384">
        <ele>5.5489540100098</ele>
        <time>2017-02-14T09:48:17.000Z</time>
      </trkpt>
      <trkpt lat="47.26031" lon="-1.5384">
        <ele>5.5707097053528</ele>
        <time>2017-02-14T09:48:19.000Z</time>
      </trkpt>
      <trkpt lat="47.26034" lon="-1.5384">
        <ele>5.6006150245667</ele>
        <time>2017-02-14T09:48:21.000Z</time>
      </trkpt>
      <trkpt lat="47.26038" lon="-1.53841">
        <ele>5.6420993804932</ele>
        <time>2017-02-14T09:48:24.000Z</time>
      </trkpt>
      <trkpt lat="47.26041" lon="-1.53841">
        <ele>5.6830830574036</ele>
        <time>2017-02-14T09:48:26.000Z</time>
      </trkpt>
      <trkpt lat="47.26044" lon="-1.53842">
        <ele>5.7237639427185</ele>
        <time>2017-02-14T09:48:28.000Z</time>
      </trkpt>
      <trkpt lat="47.26048" lon="-1.53843">
        <ele>5.7741751670837</ele>
        <time>2017-02-14T09:48:31.000Z</time>
      </trkpt>
      <trkpt lat="47.26052" lon="-1.53843">
        <ele>5.8349504470825</ele>
        <time>2017-02-14T09:48:34.000Z</time>
      </trkpt>
      <trkpt lat="47.26055" lon="-1.53844">
        <ele>5.9014329910278</ele>
        <time>2017-02-14T09:48:36.000Z</time>
      </trkpt>
      <trkpt lat="47.26057" lon="-1.53844">
        <ele>5.9620747566223</ele>
        <time>2017-02-14T09:48:38.000Z</time>
      </trkpt>
      <trkpt lat="47.26059" lon="-1.53844">
        <ele>6.0195074081421</ele>
        <time>2017-02-14T09:48:41.000Z</time>
      </trkpt>
      <trkpt lat="47.26064" lon="-1.53845">
        <ele>6.0734896659851</ele>
        <time>2017-02-14T09:48:44.000Z</time>
      </trkpt>
      <trkpt lat="47.26066" lon="-1.53845">
        <ele>6.1164474487305</ele>
        <time>2017-02-14T09:48:46.000Z</time>
      </trkpt>
      <trkpt lat="47.26068" lon="-1.53845">
        <ele>6.1393814086914</ele>
        <time>2017-02-14T09:48:48.000Z</time>
      </trkpt>
      <trkpt lat="47.26072" lon="-1.53844">
        <ele>6.1579055786133</ele>
        <time>2017-02-14T09:48:51.000Z</time>
      </trkpt>
      <trkpt lat="47.26075" lon="-1.53844">
        <ele>6.1697745323181</ele>
        <time>2017-02-14T09:48:53.000Z</time>
      </trkpt>
      <trkpt lat="47.2608" lon="-1.53844">
        <ele>6.1682195663452</ele>
        <time>2017-02-14T09:48:56.000Z</time>
      </trkpt>
      <trkpt lat="47.26083" lon="-1.53843">
        <ele>6.145546913147</ele>
        <time>2017-02-14T09:48:58.000Z</time>
      </trkpt>
      <trkpt lat="47.26086" lon="-1.53842">
        <ele>6.1337251663208</ele>
        <time>2017-02-14T09:49:00.000Z</time>
      </trkpt>
      <trkpt lat="47.26089" lon="-1.53842">
        <ele>6.1496500968933</ele>
        <time>2017-02-14T09:49:03.000Z</time>
      </trkpt>
      <trkpt lat="47.26092" lon="-1.53841">
        <ele>6.1819047927856</ele>
        <time>2017-02-14T09:49:05.000Z</time>
      </trkpt>
      <trkpt lat="47.26096" lon="-1.53841">
        <ele>6.2304964065552</ele>
        <time>2017-02-14T09:49:08.000Z</time>
      </trkpt>
      <trkpt lat="47.26099" lon="-1.53838">
        <ele>6.2856793403625</ele>
        <time>2017-02-14T09:49:11.000Z</time>
      </trkpt>
      <trkpt lat="47.26102" lon="-1.53837">
        <ele>6.3326988220215</ele>
        <time>2017-02-14T09:49:13.000Z</time>
      </trkpt>
      <trkpt lat="47.26105" lon="-1.53837">
        <ele>6.3732271194458</ele>
        <time>2017-02-14T09:49:15.000Z</time>
      </trkpt>
      <trkpt lat="47.26109" lon="-1.53836">
        <ele>6.4234819412231</ele>
        <time>2017-02-14T09:49:17.000Z</time>
      </trkpt>
      <trkpt lat="47.26113" lon="-1.53836">
        <ele>6.488995552063</ele>
        <time>2017-02-14T09:49:19.000Z</time>
      </trkpt>
      <trkpt lat="47.26119" lon="-1.53836">
        <ele>6.6239318847656</ele>
        <time>2017-02-14T09:49:22.000Z</time>
      </trkpt>
      <trkpt lat="47.26122" lon="-1.53836">
        <ele>6.790901184082</ele>
        <time>2017-02-14T09:49:24.000Z</time>
      </trkpt>
      <trkpt lat="47.26126" lon="-1.53836">
        <ele>6.9729070663452</ele>
        <time>2017-02-14T09:49:26.000Z</time>
      </trkpt>
      <trkpt lat="47.26131" lon="-1.53836">
        <ele>7.1837286949158</ele>
        <time>2017-02-14T09:49:29.000Z</time>
      </trkpt>
      <trkpt lat="47.26135" lon="-1.53836">
        <ele>7.4001417160034</ele>
        <time>2017-02-14T09:49:31.000Z</time>
      </trkpt>
      <trkpt lat="47.26138" lon="-1.53836">
        <ele>7.5788130760193</ele>
        <time>2017-02-14T09:49:33.000Z</time>
      </trkpt>
      <trkpt lat="47.26142" lon="-1.53835">
        <ele>7.7398691177368</ele>
        <time>2017-02-14T09:49:36.000Z</time>
      </trkpt>
      <trkpt lat="47.26145" lon="-1.53835">
        <ele>7.8903493881226</ele>
        <time>2017-02-14T09:49:38.000Z</time>
      </trkpt>
      <trkpt lat="47.26148" lon="-1.53835">
        <ele>8.0235805511475</ele>
        <time>2017-02-14T09:49:40.000Z</time>
      </trkpt>
      <trkpt lat="47.2615" lon="-1.53835">
        <ele>8.1540975570679</ele>
        <time>2017-02-14T09:49:42.000Z</time>
      </trkpt>
      <trkpt lat="47.26154" lon="-1.53837">
        <ele>8.3402576446533</ele>
        <time>2017-02-14T09:49:45.000Z</time>
      </trkpt>
      <trkpt lat="47.26156" lon="-1.53838">
        <ele>8.5577821731567</ele>
        <time>2017-02-14T09:49:47.000Z</time>
      </trkpt>
      <trkpt lat="47.26159" lon="-1.53838">
        <ele>8.7816114425659</ele>
        <time>2017-02-14T09:49:49.000Z</time>
      </trkpt>
      <trkpt lat="47.26162" lon="-1.5384">
        <ele>9.0372085571289</ele>
        <time>2017-02-14T09:49:51.000Z</time>
      </trkpt>
      <trkpt lat="47.26166" lon="-1.53842">
        <ele>9.3560075759888</ele>
        <time>2017-02-14T09:49:54.000Z</time>
      </trkpt>
      <trkpt lat="47.2617" lon="-1.53843">
        <ele>9.6191310882568</ele>
        <time>2017-02-14T09:49:57.000Z</time>
      </trkpt>
      <trkpt lat="47.26173" lon="-1.53844">
        <ele>9.8337602615356</ele>
        <time>2017-02-14T09:49:59.000Z</time>
      </trkpt>
      <trkpt lat="47.26176" lon="-1.53845">
        <ele>10.024387359619</ele>
        <time>2017-02-14T09:50:01.000Z</time>
      </trkpt>
      <trkpt lat="47.26181" lon="-1.53847">
        <ele>10.145649909973</ele>
        <time>2017-02-14T09:50:04.000Z</time>
      </trkpt>
      <trkpt lat="47.26185" lon="-1.53849">
        <ele>10.187479972839</ele>
        <time>2017-02-14T09:50:07.000Z</time>
      </trkpt>
      <trkpt lat="47.26189" lon="-1.53852">
        <ele>10.233632087708</ele>
        <time>2017-02-14T09:50:10.000Z</time>
      </trkpt>
      <trkpt lat="47.26191" lon="-1.53853">
        <ele>10.298946380615</ele>
        <time>2017-02-14T09:50:13.000Z</time>
      </trkpt>
      <trkpt lat="47.26193" lon="-1.53856">
        <ele>10.404075622559</ele>
        <time>2017-02-14T09:50:15.000Z</time>
      </trkpt>
      <trkpt lat="47.26198" lon="-1.53858">
        <ele>10.516532897949</ele>
        <time>2017-02-14T09:50:18.000Z</time>
      </trkpt>
      <trkpt lat="47.262" lon="-1.5386">
        <ele>10.614607810974</ele>
        <time>2017-02-14T09:50:20.000Z</time>
      </trkpt>
      <trkpt lat="47.26203" lon="-1.53861">
        <ele>10.685196876526</ele>
        <time>2017-02-14T09:50:22.000Z</time>
      </trkpt>
      <trkpt lat="47.26205" lon="-1.53861">
        <ele>10.730047225952</ele>
        <time>2017-02-14T09:50:24.000Z</time>
      </trkpt>
      <trkpt lat="47.26207" lon="-1.53863">
        <ele>10.748476028442</ele>
        <time>2017-02-14T09:50:27.000Z</time>
      </trkpt>
      <trkpt lat="47.26211" lon="-1.53868">
        <ele>10.807459831238</ele>
        <time>2017-02-14T09:50:30.000Z</time>
      </trkpt>
      <trkpt lat="47.26215" lon="-1.5387">
        <ele>10.876908302307</ele>
        <time>2017-02-14T09:50:32.000Z</time>
      </trkpt>
      <trkpt lat="47.26219" lon="-1.53874">
        <ele>10.971843719482</ele>
        <time>2017-02-14T09:50:35.000Z</time>
      </trkpt>
      <trkpt lat="47.26223" lon="-1.53876">
        <ele>11.081820487976</ele>
        <time>2017-02-14T09:50:38.000Z</time>
      </trkpt>
      <trkpt lat="47.26225" lon="-1.53878">
        <ele>11.18194770813</ele>
        <time>2017-02-14T09:50:40.000Z</time>
      </trkpt>
      <trkpt lat="47.26227" lon="-1.53881">
        <ele>11.258633613586</ele>
        <time>2017-02-14T09:50:42.000Z</time>
      </trkpt>
      <trkpt lat="47.26229" lon="-1.53883">
        <ele>11.343613624573</ele>
        <time>2017-02-14T09:50:44.000Z</time>
      </trkpt>
      <trkpt lat="47.26232" lon="-1.53886">
        <ele>11.422891616821</ele>
        <time>2017-02-14T09:50:46.000Z</time>
      </trkpt>
      <trkpt lat="47.26235" lon="-1.5389">
        <ele>11.539741516113</ele>
        <time>2017-02-14T09:50:49.000Z</time>
      </trkpt>
      <trkpt lat="47.26237" lon="-1.53892">
        <ele>11.656520843506</ele>
        <time>2017-02-14T09:50:51.000Z</time>
      </trkpt>
      <trkpt lat="47.2624" lon="-1.53895">
        <ele>11.752583503723</ele>
        <time>2017-02-14T09:50:54.000Z</time>
      </trkpt>
      <trkpt lat="47.26244" lon="-1.53898">
        <ele>11.827955245972</ele>
        <time>2017-02-14T09:50:57.000Z</time>
      </trkpt>
      <trkpt lat="47.26246" lon="-1.539">
        <ele>11.883362770081</ele>
        <time>2017-02-14T09:50:59.000Z</time>
      </trkpt>
      <trkpt lat="47.26249" lon="-1.53903">
        <ele>11.907803535461</ele>
        <time>2017-02-14T09:51:02.000Z</time>
      </trkpt>
      <trkpt lat="47.26251" lon="-1.53907">
        <ele>11.944407463074</ele>
        <time>2017-02-14T09:51:04.000Z</time>
      </trkpt>
      <trkpt lat="47.26254" lon="-1.53909">
        <ele>11.977125167847</ele>
        <time>2017-02-14T09:51:06.000Z</time>
      </trkpt>
      <trkpt lat="47.26258" lon="-1.53913">
        <ele>12.014241218567</ele>
        <time>2017-02-14T09:51:09.000Z</time>
      </trkpt>
      <trkpt lat="47.26262" lon="-1.53918">
        <ele>12.033317565918</ele>
        <time>2017-02-14T09:51:12.000Z</time>
      </trkpt>
      <trkpt lat="47.26264" lon="-1.5392">
        <ele>12.0133934021</ele>
        <time>2017-02-14T09:51:14.000Z</time>
      </trkpt>
      <trkpt lat="47.26266" lon="-1.53922">
        <ele>11.94550037384</ele>
        <time>2017-02-14T09:51:16.000Z</time>
      </trkpt>
      <trkpt lat="47.26271" lon="-1.53925">
        <ele>11.813047409058</ele>
        <time>2017-02-14T09:51:19.000Z</time>
      </trkpt>
      <trkpt lat="47.26273" lon="-1.53927">
        <ele>11.64316368103</ele>
        <time>2017-02-14T09:51:21.000Z</time>
      </trkpt>
      <trkpt lat="47.26276" lon="-1.53929">
        <ele>11.456533432007</ele>
        <time>2017-02-14T09:51:23.000Z</time>
      </trkpt>
      <trkpt lat="47.26278" lon="-1.53932">
        <ele>11.277458190918</ele>
        <time>2017-02-14T09:51:26.000Z</time>
      </trkpt>
      <trkpt lat="47.26279" lon="-1.53934">
        <ele>11.110599517822</ele>
        <time>2017-02-14T09:51:28.000Z</time>
      </trkpt>
      <trkpt lat="47.26281" lon="-1.53935">
        <ele>10.982351303101</ele>
        <time>2017-02-14T09:51:30.000Z</time>
      </trkpt>
      <trkpt lat="47.26286" lon="-1.53939">
        <ele>10.823385238647</ele>
        <time>2017-02-14T09:51:33.000Z</time>
      </trkpt>
      <trkpt lat="47.26289" lon="-1.53941">
        <ele>10.661145210266</ele>
        <time>2017-02-14T09:51:35.000Z</time>
      </trkpt>
      <trkpt lat="47.26294" lon="-1.53945">
        <ele>10.476576805115</ele>
        <time>2017-02-14T09:51:38.000Z</time>
      </trkpt>
      <trkpt lat="47.26298" lon="-1.53949">
        <ele>10.267665863037</ele>
        <time>2017-02-14T09:51:41.000Z</time>
      </trkpt>
      <trkpt lat="47.26301" lon="-1.53952">
        <ele>10.043299674988</ele>
        <time>2017-02-14T09:51:43.000Z</time>
      </trkpt>
      <trkpt lat="47.26306" lon="-1.53955">
        <ele>9.8240270614624</ele>
        <time>2017-02-14T09:51:46.000Z</time>
      </trkpt>
      <trkpt lat="47.26311" lon="-1.53956">
        <ele>9.5833978652954</ele>
        <time>2017-02-14T09:51:49.000Z</time>
      </trkpt>
      <trkpt lat="47.26316" lon="-1.53959">
        <ele>9.3325319290161</ele>
        <time>2017-02-14T09:51:52.000Z</time>
      </trkpt>
      <trkpt lat="47.2632" lon="-1.53962">
        <ele>9.0850858688354</ele>
        <time>2017-02-14T09:51:55.000Z</time>
      </trkpt>
      <trkpt lat="47.26322" lon="-1.53963">
        <ele>8.8510789871216</ele>
        <time>2017-02-14T09:51:57.000Z</time>
      </trkpt>
      <trkpt lat="47.26325" lon="-1.53964">
        <ele>8.637864112854</ele>
        <time>2017-02-14T09:51:59.000Z</time>
      </trkpt>
      <trkpt lat="47.26328" lon="-1.53966">
        <ele>8.4627017974854</ele>
        <time>2017-02-14T09:52:01.000Z</time>
      </trkpt>
      <trkpt lat="47.26329" lon="-1.53967">
        <ele>8.3264799118042</ele>
        <time>2017-02-14T09:52:03.000Z</time>
      </trkpt>
      <trkpt lat="47.26334" lon="-1.53969">
        <ele>8.1768913269043</ele>
        <time>2017-02-14T09:52:06.000Z</time>
      </trkpt>
      <trkpt lat="47.26337" lon="-1.5397">
        <ele>8.0364637374878</ele>
        <time>2017-02-14T09:52:08.000Z</time>
      </trkpt>
      <trkpt lat="47.2634" lon="-1.53971">
        <ele>7.926203250885</ele>
        <time>2017-02-14T09:52:11.000Z</time>
      </trkpt>
      <trkpt lat="47.26345" lon="-1.53974">
        <ele>7.8134832382202</ele>
        <time>2017-02-14T09:52:14.000Z</time>
      </trkpt>
      <trkpt lat="47.2635" lon="-1.53976">
        <ele>7.7003173828125</ele>
        <time>2017-02-14T09:52:17.000Z</time>
      </trkpt>
      <trkpt lat="47.26355" lon="-1.53979">
        <ele>7.6239624023438</ele>
        <time>2017-02-14T09:52:20.000Z</time>
      </trkpt>
      <trkpt lat="47.26359" lon="-1.53981">
        <ele>7.554931640625</ele>
        <time>2017-02-14T09:52:23.000Z</time>
      </trkpt>
      <trkpt lat="47.26362" lon="-1.53984">
        <ele>7.48388671875</ele>
        <time>2017-02-14T09:52:25.000Z</time>
      </trkpt>
      <trkpt lat="47.26366" lon="-1.53985">
        <ele>7.4219055175781</ele>
        <time>2017-02-14T09:52:28.000Z</time>
      </trkpt>
      <trkpt lat="47.26369" lon="-1.53987">
        <ele>7.3569946289062</ele>
        <time>2017-02-14T09:52:30.000Z</time>
      </trkpt>
      <trkpt lat="47.26373" lon="-1.53988">
        <ele>7.2860412597656</ele>
        <time>2017-02-14T09:52:33.000Z</time>
      </trkpt>
      <trkpt lat="47.26376" lon="-1.53988">
        <ele>7.2095947265625</ele>
        <time>2017-02-14T09:52:35.000Z</time>
      </trkpt>
      <trkpt lat="47.26381" lon="-1.5399">
        <ele>7.1181335449219</ele>
        <time>2017-02-14T09:52:38.000Z</time>
      </trkpt>
      <trkpt lat="47.26385" lon="-1.53991">
        <ele>7.0210876464844</ele>
        <time>2017-02-14T09:52:41.000Z</time>
      </trkpt>
      <trkpt lat="47.26387" lon="-1.53991">
        <ele>6.9277038574219</ele>
        <time>2017-02-14T09:52:43.000Z</time>
      </trkpt>
      <trkpt lat="47.2639" lon="-1.53991">
        <ele>6.8322143554688</ele>
        <time>2017-02-14T09:52:45.000Z</time>
      </trkpt>
      <trkpt lat="47.26395" lon="-1.53992">
        <ele>6.7236328125</ele>
        <time>2017-02-14T09:52:48.000Z</time>
      </trkpt>
      <trkpt lat="47.26398" lon="-1.53992">
        <ele>6.61669921875</ele>
        <time>2017-02-14T09:52:50.000Z</time>
      </trkpt>
      <trkpt lat="47.26403" lon="-1.53992">
        <ele>6.4974975585938</ele>
        <time>2017-02-14T09:52:53.000Z</time>
      </trkpt>
      <trkpt lat="47.26405" lon="-1.53992">
        <ele>6.3748168945312</ele>
        <time>2017-02-14T09:52:55.000Z</time>
      </trkpt>
      <trkpt lat="47.2641" lon="-1.53993">
        <ele>6.2473754882812</ele>
        <time>2017-02-14T09:52:58.000Z</time>
      </trkpt>
      <trkpt lat="47.26412" lon="-1.53994">
        <ele>6.1350402832031</ele>
        <time>2017-02-14T09:53:00.000Z</time>
      </trkpt>
      <trkpt lat="47.26414" lon="-1.53994">
        <ele>6.0313110351562</ele>
        <time>2017-02-14T09:53:03.000Z</time>
      </trkpt>
      <trkpt lat="47.26416" lon="-1.53992">
        <ele>5.9410400390625</ele>
        <time>2017-02-14T09:53:05.000Z</time>
      </trkpt>
      <trkpt lat="47.26418" lon="-1.53993">
        <ele>5.8629488945007</ele>
        <time>2017-02-14T09:53:07.000Z</time>
      </trkpt>
      <trkpt lat="47.2642" lon="-1.53994">
        <ele>5.8226437568665</ele>
        <time>2017-02-14T09:53:09.000Z</time>
      </trkpt>
      <trkpt lat="47.26424" lon="-1.53997">
        <ele>5.8148064613342</ele>
        <time>2017-02-14T09:53:12.000Z</time>
      </trkpt>
      <trkpt lat="47.26427" lon="-1.53998">
        <ele>5.8293557167053</ele>
        <time>2017-02-14T09:53:14.000Z</time>
      </trkpt>
      <trkpt lat="47.26431" lon="-1.54">
        <ele>5.8738965988159</ele>
        <time>2017-02-14T09:53:17.000Z</time>
      </trkpt>
      <trkpt lat="47.26434" lon="-1.54">
        <ele>5.9272570610046</ele>
        <time>2017-02-14T09:53:19.000Z</time>
      </trkpt>
      <trkpt lat="47.26439" lon="-1.54001">
        <ele>5.9705500602722</ele>
        <time>2017-02-14T09:53:22.000Z</time>
      </trkpt>
      <trkpt lat="47.26443" lon="-1.54001">
        <ele>5.9988451004028</ele>
        <time>2017-02-14T09:53:25.000Z</time>
      </trkpt>
      <trkpt lat="47.26445" lon="-1.54001">
        <ele>6.0183873176575</ele>
        <time>2017-02-14T09:53:27.000Z</time>
      </trkpt>
      <trkpt lat="47.26448" lon="-1.54001">
        <ele>6.0250053405762</ele>
        <time>2017-02-14T09:53:29.000Z</time>
      </trkpt>
      <trkpt lat="47.26452" lon="-1.54">
        <ele>6.0219297409058</ele>
        <time>2017-02-14T09:53:32.000Z</time>
      </trkpt>
      <trkpt lat="47.26456" lon="-1.53998">
        <ele>6.004111289978</ele>
        <time>2017-02-14T09:53:35.000Z</time>
      </trkpt>
      <trkpt lat="47.26458" lon="-1.53996">
        <ele>5.9751377105713</ele>
        <time>2017-02-14T09:53:37.000Z</time>
      </trkpt>
      <trkpt lat="47.26461" lon="-1.53995">
        <ele>5.9381318092346</ele>
        <time>2017-02-14T09:53:39.000Z</time>
      </trkpt>
      <trkpt lat="47.26464" lon="-1.53993">
        <ele>5.8906846046448</ele>
        <time>2017-02-14T09:53:42.000Z</time>
      </trkpt>
      <trkpt lat="47.26469" lon="-1.5399">
        <ele>5.8349580764771</ele>
        <time>2017-02-14T09:53:45.000Z</time>
      </trkpt>
      <trkpt lat="47.26471" lon="-1.53988">
        <ele>5.7827668190002</ele>
        <time>2017-02-14T09:53:47.000Z</time>
      </trkpt>
      <trkpt lat="47.26475" lon="-1.53987">
        <ele>5.7304048538208</ele>
        <time>2017-02-14T09:53:50.000Z</time>
      </trkpt>
      <trkpt lat="47.26478" lon="-1.53986">
        <ele>5.6817684173584</ele>
        <time>2017-02-14T09:53:52.000Z</time>
      </trkpt>
      <trkpt lat="47.2648" lon="-1.53984">
        <ele>5.6398019790649</ele>
        <time>2017-02-14T09:53:54.000Z</time>
      </trkpt>
      <trkpt lat="47.26482" lon="-1.53981">
        <ele>5.5979623794556</ele>
        <time>2017-02-14T09:53:56.000Z</time>
      </trkpt>
      <trkpt lat="47.26484" lon="-1.53978">
        <ele>5.5507583618164</ele>
        <time>2017-02-14T09:53:59.000Z</time>
      </trkpt>
      <trkpt lat="47.26488" lon="-1.53977">
        <ele>5.5074872970581</ele>
        <time>2017-02-14T09:54:02.000Z</time>
      </trkpt>
      <trkpt lat="47.26491" lon="-1.53978">
        <ele>5.47336769104</ele>
        <time>2017-02-14T09:54:04.000Z</time>
      </trkpt>
      <trkpt lat="47.26494" lon="-1.53979">
        <ele>5.4520072937012</ele>
        <time>2017-02-14T09:54:06.000Z</time>
      </trkpt>
      <trkpt lat="47.26499" lon="-1.53979">
        <ele>5.4501776695251</ele>
        <time>2017-02-14T09:54:09.000Z</time>
      </trkpt>
      <trkpt lat="47.26501" lon="-1.5398">
        <ele>5.4900345802307</ele>
        <time>2017-02-14T09:54:11.000Z</time>
      </trkpt>
      <trkpt lat="47.26506" lon="-1.53981">
        <ele>5.6140761375427</ele>
        <time>2017-02-14T09:54:14.000Z</time>
      </trkpt>
      <trkpt lat="47.26511" lon="-1.53982">
        <ele>5.7979326248169</ele>
        <time>2017-02-14T09:54:17.000Z</time>
      </trkpt>
      <trkpt lat="47.26514" lon="-1.53984">
        <ele>6.0434136390686</ele>
        <time>2017-02-14T09:54:20.000Z</time>
      </trkpt>
      <trkpt lat="47.26518" lon="-1.53986">
        <ele>6.3544869422913</ele>
        <time>2017-02-14T09:54:23.000Z</time>
      </trkpt>
      <trkpt lat="47.26521" lon="-1.53987">
        <ele>6.6928520202637</ele>
        <time>2017-02-14T09:54:25.000Z</time>
      </trkpt>
      <trkpt lat="47.26526" lon="-1.53987">
        <ele>7.0389757156372</ele>
        <time>2017-02-14T09:54:28.000Z</time>
      </trkpt>
      <trkpt lat="47.26529" lon="-1.53989">
        <ele>7.3751883506775</ele>
        <time>2017-02-14T09:54:30.000Z</time>
      </trkpt>
      <trkpt lat="47.26532" lon="-1.53991">
        <ele>7.6978135108948</ele>
        <time>2017-02-14T09:54:32.000Z</time>
      </trkpt>
      <trkpt lat="47.26534" lon="-1.53993">
        <ele>8.0017280578613</ele>
        <time>2017-02-14T09:54:35.000Z</time>
      </trkpt>
      <trkpt lat="47.26536" lon="-1.53992">
        <ele>8.2771472930908</ele>
        <time>2017-02-14T09:54:37.000Z</time>
      </trkpt>
      <trkpt lat="47.26538" lon="-1.53992">
        <ele>8.4957609176636</ele>
        <time>2017-02-14T09:54:39.000Z</time>
      </trkpt>
      <trkpt lat="47.26541" lon="-1.53992">
        <ele>8.7078523635864</ele>
        <time>2017-02-14T09:54:41.000Z</time>
      </trkpt>
      <trkpt lat="47.26544" lon="-1.53994">
        <ele>8.9368438720703</ele>
        <time>2017-02-14T09:54:44.000Z</time>
      </trkpt>
      <trkpt lat="47.26546" lon="-1.53996">
        <ele>9.1703624725342</ele>
        <time>2017-02-14T09:54:46.000Z</time>
      </trkpt>
      <trkpt lat="47.2655" lon="-1.53998">
        <ele>9.4540882110596</ele>
        <time>2017-02-14T09:54:49.000Z</time>
      </trkpt>
      <trkpt lat="47.26553" lon="-1.54">
        <ele>9.7775297164917</ele>
        <time>2017-02-14T09:54:51.000Z</time>
      </trkpt>
      <trkpt lat="47.26557" lon="-1.54004">
        <ele>10.135931015015</ele>
        <time>2017-02-14T09:54:54.000Z</time>
      </trkpt>
      <trkpt lat="47.26559" lon="-1.54007">
        <ele>10.483048439026</ele>
        <time>2017-02-14T09:54:56.000Z</time>
      </trkpt>
      <trkpt lat="47.26562" lon="-1.54009">
        <ele>10.830614089966</ele>
        <time>2017-02-14T09:54:59.000Z</time>
      </trkpt>
      <trkpt lat="47.26564" lon="-1.54007">
        <ele>11.116478919983</ele>
        <time>2017-02-14T09:55:01.000Z</time>
      </trkpt>
      <trkpt lat="47.26565" lon="-1.54003">
        <ele>11.338067054749</ele>
        <time>2017-02-14T09:55:04.000Z</time>
      </trkpt>
      <trkpt lat="47.26567" lon="-1.53999">
        <ele>11.472696304321</ele>
        <time>2017-02-14T09:55:07.000Z</time>
      </trkpt>
      <trkpt lat="47.26568" lon="-1.53996">
        <ele>11.530241012573</ele>
        <time>2017-02-14T09:55:09.000Z</time>
      </trkpt>
      <trkpt lat="47.26568" lon="-1.53992">
        <ele>11.49885559082</ele>
        <time>2017-02-14T09:55:12.000Z</time>
      </trkpt>
      <trkpt lat="47.26569" lon="-1.5399">
        <ele>11.430157661438</ele>
        <time>2017-02-14T09:55:15.000Z</time>
      </trkpt>
      <trkpt lat="47.26569" lon="-1.53987">
        <ele>11.32502746582</ele>
        <time>2017-02-14T09:55:18.000Z</time>
      </trkpt>
      <trkpt lat="47.2657" lon="-1.53984">
        <ele>11.216406822205</ele>
        <time>2017-02-14T09:55:20.000Z</time>
      </trkpt>
      <trkpt lat="47.26571" lon="-1.53983">
        <ele>11.133189201355</ele>
        <time>2017-02-14T09:55:22.000Z</time>
      </trkpt>
      <trkpt lat="47.26574" lon="-1.53982">
        <ele>11.099450111389</ele>
        <time>2017-02-14T09:55:25.000Z</time>
      </trkpt>
      <trkpt lat="47.26575" lon="-1.53981">
        <ele>11.112833976746</ele>
        <time>2017-02-14T09:55:28.000Z</time>
      </trkpt>
      <trkpt lat="47.26578" lon="-1.5398">
        <ele>11.175977706909</ele>
        <time>2017-02-14T09:55:31.000Z</time>
      </trkpt>
      <trkpt lat="47.2658" lon="-1.53979">
        <ele>11.262365341187</ele>
        <time>2017-02-14T09:55:33.000Z</time>
      </trkpt>
      <trkpt lat="47.26582" lon="-1.53976">
        <ele>11.341305732727</ele>
        <time>2017-02-14T09:55:36.000Z</time>
      </trkpt>
      <trkpt lat="47.26582" lon="-1.53974">
        <ele>11.391062736511</ele>
        <time>2017-02-14T09:55:39.000Z</time>
      </trkpt>
      <trkpt lat="47.26583" lon="-1.53973">
        <ele>11.406142234802</ele>
        <time>2017-02-14T09:55:41.000Z</time>
      </trkpt>
      <trkpt lat="47.26584" lon="-1.53971">
        <ele>11.388346672058</ele>
        <time>2017-02-14T09:55:43.000Z</time>
      </trkpt>
      <trkpt lat="47.26585" lon="-1.53968">
        <ele>11.333617210388</ele>
        <time>2017-02-14T09:55:46.000Z</time>
      </trkpt>
      <trkpt lat="47.26586" lon="-1.53966">
        <ele>11.257852554321</ele>
        <time>2017-02-14T09:55:49.000Z</time>
      </trkpt>
      <trkpt lat="47.26588" lon="-1.53964">
        <ele>11.200973510742</ele>
        <time>2017-02-14T09:55:51.000Z</time>
      </trkpt>
      <trkpt lat="47.26589" lon="-1.53963">
        <ele>11.156498908997</ele>
        <time>2017-02-14T09:55:53.000Z</time>
      </trkpt>
      <trkpt lat="47.26591" lon="-1.53959">
        <ele>11.09118938446</ele>
        <time>2017-02-14T09:55:56.000Z</time>
      </trkpt>
      <trkpt lat="47.26593" lon="-1.53954">
        <ele>10.997610092163</ele>
        <time>2017-02-14T09:55:59.000Z</time>
      </trkpt>
      <trkpt lat="47.26594" lon="-1.5395">
        <ele>10.885724067688</ele>
        <time>2017-02-14T09:56:02.000Z</time>
      </trkpt>
      <trkpt lat="47.26595" lon="-1.53946">
        <ele>10.728853225708</ele>
        <time>2017-02-14T09:56:05.000Z</time>
      </trkpt>
      <trkpt lat="47.26596" lon="-1.53944">
        <ele>10.548735618591</ele>
        <time>2017-02-14T09:56:07.000Z</time>
      </trkpt>
      <trkpt lat="47.26599" lon="-1.53941">
        <ele>10.374799728394</ele>
        <time>2017-02-14T09:56:10.000Z</time>
      </trkpt>
      <trkpt lat="47.26603" lon="-1.53937">
        <ele>10.225618362427</ele>
        <time>2017-02-14T09:56:13.000Z</time>
      </trkpt>
      <trkpt lat="47.26604" lon="-1.53936">
        <ele>10.112431526184</ele>
        <time>2017-02-14T09:56:15.000Z</time>
      </trkpt>
      <trkpt lat="47.26607" lon="-1.53933">
        <ele>10.013048171997</ele>
        <time>2017-02-14T09:56:18.000Z</time>
      </trkpt>
      <trkpt lat="47.26609" lon="-1.53928">
        <ele>9.873161315918</ele>
        <time>2017-02-14T09:56:21.000Z</time>
      </trkpt>
      <trkpt lat="47.26611" lon="-1.53927">
        <ele>9.754035949707</ele>
        <time>2017-02-14T09:56:24.000Z</time>
      </trkpt>
      <trkpt lat="47.26616" lon="-1.53925">
        <ele>9.6571502685547</ele>
        <time>2017-02-14T09:56:27.000Z</time>
      </trkpt>
      <trkpt lat="47.26619" lon="-1.53924">
        <ele>9.5591373443604</ele>
        <time>2017-02-14T09:56:29.000Z</time>
      </trkpt>
      <trkpt lat="47.26624" lon="-1.53922">
        <ele>9.4942560195923</ele>
        <time>2017-02-14T09:56:32.000Z</time>
      </trkpt>
      <trkpt lat="47.26628" lon="-1.53921">
        <ele>9.4858102798462</ele>
        <time>2017-02-14T09:56:34.000Z</time>
      </trkpt>
      <trkpt lat="47.26632" lon="-1.53921">
        <ele>9.5040254592896</ele>
        <time>2017-02-14T09:56:37.000Z</time>
      </trkpt>
      <trkpt lat="47.26638" lon="-1.53922">
        <ele>9.5724544525146</ele>
        <time>2017-02-14T09:56:40.000Z</time>
      </trkpt>
      <trkpt lat="47.26644" lon="-1.53921">
        <ele>9.6678295135498</ele>
        <time>2017-02-14T09:56:43.000Z</time>
      </trkpt>
      <trkpt lat="47.26648" lon="-1.53921">
        <ele>9.7597408294678</ele>
        <time>2017-02-14T09:56:45.000Z</time>
      </trkpt>
      <trkpt lat="47.26651" lon="-1.5392">
        <ele>9.8523435592651</ele>
        <time>2017-02-14T09:56:48.000Z</time>
      </trkpt>
      <trkpt lat="47.26654" lon="-1.53918">
        <ele>9.8960466384888</ele>
        <time>2017-02-14T09:56:51.000Z</time>
      </trkpt>
      <trkpt lat="47.26655" lon="-1.53917">
        <ele>9.8891935348511</ele>
        <time>2017-02-14T09:56:53.000Z</time>
      </trkpt>
      <trkpt lat="47.26658" lon="-1.53917">
        <ele>9.8740663528442</ele>
        <time>2017-02-14T09:56:56.000Z</time>
      </trkpt>
      <trkpt lat="47.26664" lon="-1.5392">
        <ele>9.9372434616089</ele>
        <time>2017-02-14T09:56:59.000Z</time>
      </trkpt>
      <trkpt lat="47.26669" lon="-1.5392">
        <ele>10.040903091431</ele>
        <time>2017-02-14T09:57:02.000Z</time>
      </trkpt>
      <trkpt lat="47.26672" lon="-1.53921">
        <ele>10.194110870361</ele>
        <time>2017-02-14T09:57:04.000Z</time>
      </trkpt>
      <trkpt lat="47.26677" lon="-1.53921">
        <ele>10.363664627075</ele>
        <time>2017-02-14T09:57:07.000Z</time>
      </trkpt>
      <trkpt lat="47.26682" lon="-1.53921">
        <ele>10.518727302551</ele>
        <time>2017-02-14T09:57:10.000Z</time>
      </trkpt>
      <trkpt lat="47.26685" lon="-1.5392">
        <ele>10.588549613953</ele>
        <time>2017-02-14T09:57:13.000Z</time>
      </trkpt>
      <trkpt lat="47.26688" lon="-1.5392">
        <ele>10.609823226929</ele>
        <time>2017-02-14T09:57:15.000Z</time>
      </trkpt>
      <trkpt lat="47.26692" lon="-1.53919">
        <ele>10.61319732666</ele>
        <time>2017-02-14T09:57:18.000Z</time>
      </trkpt>
      <trkpt lat="47.26694" lon="-1.53921">
        <ele>10.64403629303</ele>
        <time>2017-02-14T09:57:20.000Z</time>
      </trkpt>
      <trkpt lat="47.26697" lon="-1.53922">
        <ele>10.689191818237</ele>
        <time>2017-02-14T09:57:22.000Z</time>
      </trkpt>
      <trkpt lat="47.267" lon="-1.5392">
        <ele>10.713195800781</ele>
        <time>2017-02-14T09:57:25.000Z</time>
      </trkpt>
      <trkpt lat="47.26703" lon="-1.53919">
        <ele>10.738670349121</ele>
        <time>2017-02-14T09:57:27.000Z</time>
      </trkpt>
      <trkpt lat="47.26706" lon="-1.53919">
        <ele>10.761105537415</ele>
        <time>2017-02-14T09:57:29.000Z</time>
      </trkpt>
      <trkpt lat="47.2671" lon="-1.53919">
        <ele>10.755788803101</ele>
        <time>2017-02-14T09:57:32.000Z</time>
      </trkpt>
      <trkpt lat="47.26715" lon="-1.53918">
        <ele>10.73138999939</ele>
        <time>2017-02-14T09:57:35.000Z</time>
      </trkpt>
      <trkpt lat="47.26719" lon="-1.53919">
        <ele>10.746145248413</ele>
        <time>2017-02-14T09:57:38.000Z</time>
      </trkpt>
      <trkpt lat="47.26724" lon="-1.5392">
        <ele>10.794626235962</ele>
        <time>2017-02-14T09:57:41.000Z</time>
      </trkpt>
      <trkpt lat="47.26729" lon="-1.53918">
        <ele>10.820045471191</ele>
        <time>2017-02-14T09:57:44.000Z</time>
      </trkpt>
      <trkpt lat="47.26731" lon="-1.53915">
        <ele>10.807470321655</ele>
        <time>2017-02-14T09:57:46.000Z</time>
      </trkpt>
      <trkpt lat="47.26732" lon="-1.53912">
        <ele>10.77437877655</ele>
        <time>2017-02-14T09:57:49.000Z</time>
      </trkpt>
      <trkpt lat="47.26734" lon="-1.53909">
        <ele>10.701922416687</ele>
        <time>2017-02-14T09:57:52.000Z</time>
      </trkpt>
      <trkpt lat="47.26736" lon="-1.53906">
        <ele>10.587833404541</ele>
        <time>2017-02-14T09:57:54.000Z</time>
      </trkpt>
      <trkpt lat="47.26736" lon="-1.53902">
        <ele>10.470446586609</ele>
        <time>2017-02-14T09:57:56.000Z</time>
      </trkpt>
      <trkpt lat="47.26739" lon="-1.53899">
        <ele>10.357421875</ele>
        <time>2017-02-14T09:57:59.000Z</time>
      </trkpt>
      <trkpt lat="47.26742" lon="-1.53897">
        <ele>10.265256881714</ele>
        <time>2017-02-14T09:58:02.000Z</time>
      </trkpt>
      <trkpt lat="47.26744" lon="-1.53894">
        <ele>10.178564071655</ele>
        <time>2017-02-14T09:58:04.000Z</time>
      </trkpt>
      <trkpt lat="47.26746" lon="-1.5389">
        <ele>10.094079971313</ele>
        <time>2017-02-14T09:58:07.000Z</time>
      </trkpt>
      <trkpt lat="47.26748" lon="-1.53887">
        <ele>10.024446487427</ele>
        <time>2017-02-14T09:58:09.000Z</time>
      </trkpt>
      <trkpt lat="47.26751" lon="-1.53884">
        <ele>9.9757604598999</ele>
        <time>2017-02-14T09:58:12.000Z</time>
      </trkpt>
      <trkpt lat="47.26755" lon="-1.53882">
        <ele>9.9582548141479</ele>
        <time>2017-02-14T09:58:15.000Z</time>
      </trkpt>
      <trkpt lat="47.26758" lon="-1.5388">
        <ele>9.9848308563232</ele>
        <time>2017-02-14T09:58:17.000Z</time>
      </trkpt>
      <trkpt lat="47.26761" lon="-1.53877">
        <ele>10.035620689392</ele>
        <time>2017-02-14T09:58:20.000Z</time>
      </trkpt>
      <trkpt lat="47.26763" lon="-1.53876">
        <ele>10.099650382996</ele>
        <time>2017-02-14T09:58:22.000Z</time>
      </trkpt>
      <trkpt lat="47.26765" lon="-1.53874">
        <ele>10.173234939575</ele>
        <time>2017-02-14T09:58:25.000Z</time>
      </trkpt>
      <trkpt lat="47.26767" lon="-1.53873">
        <ele>10.234390258789</ele>
        <time>2017-02-14T09:58:27.000Z</time>
      </trkpt>
      <trkpt lat="47.26771" lon="-1.53872">
        <ele>10.292793273926</ele>
        <time>2017-02-14T09:58:30.000Z</time>
      </trkpt>
      <trkpt lat="47.26776" lon="-1.5387">
        <ele>10.378389358521</ele>
        <time>2017-02-14T09:58:33.000Z</time>
      </trkpt>
      <trkpt lat="47.26778" lon="-1.5387">
        <ele>10.479182243347</ele>
        <time>2017-02-14T09:58:35.000Z</time>
      </trkpt>
      <trkpt lat="47.26781" lon="-1.53869">
        <ele>10.592915534973</ele>
        <time>2017-02-14T09:58:38.000Z</time>
      </trkpt>
      <trkpt lat="47.26783" lon="-1.53867">
        <ele>10.696712493896</ele>
        <time>2017-02-14T09:58:41.000Z</time>
      </trkpt>
      <trkpt lat="47.26786" lon="-1.53867">
        <ele>10.795275688171</ele>
        <time>2017-02-14T09:58:43.000Z</time>
      </trkpt>
      <trkpt lat="47.26789" lon="-1.53865">
        <ele>10.87015914917</ele>
        <time>2017-02-14T09:58:46.000Z</time>
      </trkpt>
      <trkpt lat="47.26792" lon="-1.53864">
        <ele>10.93224811554</ele>
        <time>2017-02-14T09:58:49.000Z</time>
      </trkpt>
      <trkpt lat="47.26794" lon="-1.53863">
        <ele>10.975662231445</ele>
        <time>2017-02-14T09:58:51.000Z</time>
      </trkpt>
      <trkpt lat="47.26797" lon="-1.53863">
        <ele>11.042008399963</ele>
        <time>2017-02-14T09:58:54.000Z</time>
      </trkpt>
      <trkpt lat="47.26803" lon="-1.53865">
        <ele>11.16970539093</ele>
        <time>2017-02-14T09:58:57.000Z</time>
      </trkpt>
      <trkpt lat="47.26806" lon="-1.53865">
        <ele>11.318014144897</ele>
        <time>2017-02-14T09:58:59.000Z</time>
      </trkpt>
      <trkpt lat="47.2681" lon="-1.53863">
        <ele>11.47500038147</ele>
        <time>2017-02-14T09:59:01.000Z</time>
      </trkpt>
      <trkpt lat="47.26813" lon="-1.53862">
        <ele>11.62441444397</ele>
        <time>2017-02-14T09:59:04.000Z</time>
      </trkpt>
      <trkpt lat="47.26817" lon="-1.5386">
        <ele>11.768376350403</ele>
        <time>2017-02-14T09:59:07.000Z</time>
      </trkpt>
      <trkpt lat="47.26821" lon="-1.5386">
        <ele>11.853497505188</ele>
        <time>2017-02-14T09:59:10.000Z</time>
      </trkpt>
      <trkpt lat="47.26826" lon="-1.5386">
        <ele>11.95442199707</ele>
        <time>2017-02-14T09:59:12.000Z</time>
      </trkpt>
      <trkpt lat="47.2683" lon="-1.5386">
        <ele>12.07932472229</ele>
        <time>2017-02-14T09:59:15.000Z</time>
      </trkpt>
      <trkpt lat="47.26833" lon="-1.5386">
        <ele>12.232404708862</ele>
        <time>2017-02-14T09:59:17.000Z</time>
      </trkpt>
      <trkpt lat="47.26835" lon="-1.5386">
        <ele>12.368005752563</ele>
        <time>2017-02-14T09:59:19.000Z</time>
      </trkpt>
      <trkpt lat="47.26837" lon="-1.53861">
        <ele>12.516372680664</ele>
        <time>2017-02-14T09:59:21.000Z</time>
      </trkpt>
      <trkpt lat="47.26841" lon="-1.53862">
        <ele>12.667274475098</ele>
        <time>2017-02-14T09:59:24.000Z</time>
      </trkpt>
      <trkpt lat="47.26845" lon="-1.53863">
        <ele>12.833627700806</ele>
        <time>2017-02-14T09:59:27.000Z</time>
      </trkpt>
      <trkpt lat="47.26849" lon="-1.53864">
        <ele>13.027099609375</ele>
        <time>2017-02-14T09:59:30.000Z</time>
      </trkpt>
      <trkpt lat="47.26852" lon="-1.53865">
        <ele>13.250244140625</ele>
        <time>2017-02-14T09:59:32.000Z</time>
      </trkpt>
      <trkpt lat="47.26855" lon="-1.53865">
        <ele>13.4677734375</ele>
        <time>2017-02-14T09:59:34.000Z</time>
      </trkpt>
      <trkpt lat="47.26858" lon="-1.53865">
        <ele>13.6474609375</ele>
        <time>2017-02-14T09:59:36.000Z</time>
      </trkpt>
      <trkpt lat="47.26861" lon="-1.53865">
        <ele>13.801513671875</ele>
        <time>2017-02-14T09:59:39.000Z</time>
      </trkpt>
      <trkpt lat="47.26865" lon="-1.53864">
        <ele>13.902587890625</ele>
        <time>2017-02-14T09:59:42.000Z</time>
      </trkpt>
      <trkpt lat="47.26867" lon="-1.53862">
        <ele>13.953125</ele>
        <time>2017-02-14T09:59:44.000Z</time>
      </trkpt>
      <trkpt lat="47.2687" lon="-1.5386">
        <ele>13.970458984375</ele>
        <time>2017-02-14T09:59:46.000Z</time>
      </trkpt>
      <trkpt lat="47.26873" lon="-1.5386">
        <ele>13.986572265625</ele>
        <time>2017-02-14T09:59:48.000Z</time>
      </trkpt>
      <trkpt lat="47.26877" lon="-1.5386">
        <ele>14.00537109375</ele>
        <time>2017-02-14T09:59:51.000Z</time>
      </trkpt>
      <trkpt lat="47.26879" lon="-1.5386">
        <ele>14.028076171875</ele>
        <time>2017-02-14T09:59:53.000Z</time>
      </trkpt>
      <trkpt lat="47.26882" lon="-1.53858">
        <ele>14.060791015625</ele>
        <time>2017-02-14T09:59:55.000Z</time>
      </trkpt>
      <trkpt lat="47.26885" lon="-1.53857">
        <ele>14.098876953125</ele>
        <time>2017-02-14T09:59:58.000Z</time>
      </trkpt>
      <trkpt lat="47.26889" lon="-1.53857">
        <ele>14.160888671875</ele>
        <time>2017-02-14T10:00:01.000Z</time>
      </trkpt>
      <trkpt lat="47.26893" lon="-1.53857">
        <ele>14.216796875</ele>
        <time>2017-02-14T10:00:04.000Z</time>
      </trkpt>
      <trkpt lat="47.26896" lon="-1.53856">
        <ele>14.27783203125</ele>
        <time>2017-02-14T10:00:06.000Z</time>
      </trkpt>
      <trkpt lat="47.26899" lon="-1.53857">
        <ele>14.384033203125</ele>
        <time>2017-02-14T10:00:09.000Z</time>
      </trkpt>
      <trkpt lat="47.26902" lon="-1.53856">
        <ele>14.493408203125</ele>
        <time>2017-02-14T10:00:11.000Z</time>
      </trkpt>
      <trkpt lat="47.26905" lon="-1.53854">
        <ele>14.555908203125</ele>
        <time>2017-02-14T10:00:13.000Z</time>
      </trkpt>
      <trkpt lat="47.26908" lon="-1.53852">
        <ele>14.56591796875</ele>
        <time>2017-02-14T10:00:15.000Z</time>
      </trkpt>
      <trkpt lat="47.26912" lon="-1.5385">
        <ele>14.560791015625</ele>
        <time>2017-02-14T10:00:17.000Z</time>
      </trkpt>
      <trkpt lat="47.26916" lon="-1.53849">
        <ele>14.529052734375</ele>
        <time>2017-02-14T10:00:20.000Z</time>
      </trkpt>
      <trkpt lat="47.2692" lon="-1.53848">
        <ele>14.458425521851</ele>
        <time>2017-02-14T10:00:22.000Z</time>
      </trkpt>
      <trkpt lat="47.26925" lon="-1.53846">
        <ele>14.340092658997</ele>
        <time>2017-02-14T10:00:25.000Z</time>
      </trkpt>
      <trkpt lat="47.26928" lon="-1.53844">
        <ele>14.19753074646</ele>
        <time>2017-02-14T10:00:28.000Z</time>
      </trkpt>
      <trkpt lat="47.26933" lon="-1.53844">
        <ele>14.032945632935</ele>
        <time>2017-02-14T10:00:31.000Z</time>
      </trkpt>
      <trkpt lat="47.26938" lon="-1.53844">
        <ele>13.840950012207</ele>
        <time>2017-02-14T10:00:34.000Z</time>
      </trkpt>
      <trkpt lat="47.2694" lon="-1.53845">
        <ele>13.686979293823</ele>
        <time>2017-02-14T10:00:36.000Z</time>
      </trkpt>
      <trkpt lat="47.26944" lon="-1.53847">
        <ele>13.608242988586</ele>
        <time>2017-02-14T10:00:39.000Z</time>
      </trkpt>
      <trkpt lat="47.26948" lon="-1.53849">
        <ele>13.588160514832</ele>
        <time>2017-02-14T10:00:41.000Z</time>
      </trkpt>
      <trkpt lat="47.26952" lon="-1.53849">
        <ele>13.576263427734</ele>
        <time>2017-02-14T10:00:44.000Z</time>
      </trkpt>
      <trkpt lat="47.26954" lon="-1.53849">
        <ele>13.568722724915</ele>
        <time>2017-02-14T10:00:46.000Z</time>
      </trkpt>
      <trkpt lat="47.26959" lon="-1.5385">
        <ele>13.559819221497</ele>
        <time>2017-02-14T10:00:49.000Z</time>
      </trkpt>
      <trkpt lat="47.26962" lon="-1.5385">
        <ele>13.516851425171</ele>
        <time>2017-02-14T10:00:51.000Z</time>
      </trkpt>
      <trkpt lat="47.26965" lon="-1.53851">
        <ele>13.471170425415</ele>
        <time>2017-02-14T10:00:53.000Z</time>
      </trkpt>
      <trkpt lat="47.2697" lon="-1.53853">
        <ele>13.447712898254</ele>
        <time>2017-02-14T10:00:56.000Z</time>
      </trkpt>
      <trkpt lat="47.26974" lon="-1.53855">
        <ele>13.458274841309</ele>
        <time>2017-02-14T10:00:59.000Z</time>
      </trkpt>
      <trkpt lat="47.26979" lon="-1.53858">
        <ele>13.486665725708</ele>
        <time>2017-02-14T10:01:02.000Z</time>
      </trkpt>
      <trkpt lat="47.26983" lon="-1.5386">
        <ele>13.540510177612</ele>
        <time>2017-02-14T10:01:05.000Z</time>
      </trkpt>
      <trkpt lat="47.26986" lon="-1.53861">
        <ele>13.601289749146</ele>
        <time>2017-02-14T10:01:07.000Z</time>
      </trkpt>
      <trkpt lat="47.26989" lon="-1.53863">
        <ele>13.67910194397</ele>
        <time>2017-02-14T10:01:09.000Z</time>
      </trkpt>
      <trkpt lat="47.26993" lon="-1.53866">
        <ele>13.755142211914</ele>
        <time>2017-02-14T10:01:12.000Z</time>
      </trkpt>
      <trkpt lat="47.26995" lon="-1.53866">
        <ele>13.808820724487</ele>
        <time>2017-02-14T10:01:14.000Z</time>
      </trkpt>
      <trkpt lat="47.26998" lon="-1.53867">
        <ele>13.848124504089</ele>
        <time>2017-02-14T10:01:17.000Z</time>
      </trkpt>
      <trkpt lat="47.27" lon="-1.53867">
        <ele>13.870241165161</ele>
        <time>2017-02-14T10:01:19.000Z</time>
      </trkpt>
      <trkpt lat="47.27003" lon="-1.53867">
        <ele>13.895700454712</ele>
        <time>2017-02-14T10:01:22.000Z</time>
      </trkpt>
      <trkpt lat="47.27005" lon="-1.53865">
        <ele>13.904475212097</ele>
        <time>2017-02-14T10:01:25.000Z</time>
      </trkpt>
      <trkpt lat="47.27007" lon="-1.53865">
        <ele>13.921895027161</ele>
        <time>2017-02-14T10:01:27.000Z</time>
      </trkpt>
      <trkpt lat="47.27009" lon="-1.53864">
        <ele>13.963645935059</ele>
        <time>2017-02-14T10:01:31.000Z</time>
      </trkpt>
      <trkpt lat="47.2701" lon="-1.53864">
        <ele>14.019088745117</ele>
        <time>2017-02-14T10:01:33.000Z</time>
      </trkpt>
      <trkpt lat="47.27013" lon="-1.53862">
        <ele>14.049832344055</ele>
        <time>2017-02-14T10:02:01.000Z</time>
      </trkpt>
      <trkpt lat="47.27013" lon="-1.5386">
        <ele>14.05590057373</ele>
        <time>2017-02-14T10:02:04.000Z</time>
      </trkpt>
      <trkpt lat="47.27015" lon="-1.53856">
        <ele>14.019989013672</ele>
        <time>2017-02-14T10:02:07.000Z</time>
      </trkpt>
      <trkpt lat="47.27016" lon="-1.53853">
        <ele>13.941485404968</ele>
        <time>2017-02-14T10:02:10.000Z</time>
      </trkpt>
      <trkpt lat="47.27017" lon="-1.5385">
        <ele>13.828855514526</ele>
        <time>2017-02-14T10:02:12.000Z</time>
      </trkpt>
      <trkpt lat="47.27019" lon="-1.53844">
        <ele>13.666101455688</ele>
        <time>2017-02-14T10:02:15.000Z</time>
      </trkpt>
      <trkpt lat="47.27019" lon="-1.53841">
        <ele>13.483896255493</ele>
        <time>2017-02-14T10:02:18.000Z</time>
      </trkpt>
      <trkpt lat="47.2702" lon="-1.53838">
        <ele>13.306200027466</ele>
        <time>2017-02-14T10:02:21.000Z</time>
      </trkpt>
      <trkpt lat="47.27019" lon="-1.53836">
        <ele>13.119369506836</ele>
        <time>2017-02-14T10:02:23.000Z</time>
      </trkpt>
      <trkpt lat="47.27018" lon="-1.53832">
        <ele>12.880955696106</ele>
        <time>2017-02-14T10:02:26.000Z</time>
      </trkpt>
      <trkpt lat="47.27017" lon="-1.53828">
        <ele>12.648666381836</ele>
        <time>2017-02-14T10:02:29.000Z</time>
      </trkpt>
      <trkpt lat="47.27016" lon="-1.53825">
        <ele>12.400399208069</ele>
        <time>2017-02-14T10:02:31.000Z</time>
      </trkpt>
      <trkpt lat="47.27014" lon="-1.53818">
        <ele>12.061055183411</ele>
        <time>2017-02-14T10:02:34.000Z</time>
      </trkpt>
      <trkpt lat="47.27014" lon="-1.53814">
        <ele>11.69736289978</ele>
        <time>2017-02-14T10:02:36.000Z</time>
      </trkpt>
      <trkpt lat="47.27014" lon="-1.53812">
        <ele>11.396591186523</ele>
        <time>2017-02-14T10:02:38.000Z</time>
      </trkpt>
      <trkpt lat="47.27013" lon="-1.53809">
        <ele>11.097477912903</ele>
        <time>2017-02-14T10:02:40.000Z</time>
      </trkpt>
      <trkpt lat="47.27012" lon="-1.53807">
        <ele>10.803658485413</ele>
        <time>2017-02-14T10:02:42.000Z</time>
      </trkpt>
      <trkpt lat="47.27011" lon="-1.53802">
        <ele>10.556260108948</ele>
        <time>2017-02-14T10:02:45.000Z</time>
      </trkpt>
      <trkpt lat="47.27011" lon="-1.53797">
        <ele>10.305839538574</ele>
        <time>2017-02-14T10:02:48.000Z</time>
      </trkpt>
      <trkpt lat="47.2701" lon="-1.53791">
        <ele>9.9898500442505</ele>
        <time>2017-02-14T10:02:51.000Z</time>
      </trkpt>
      <trkpt lat="47.2701" lon="-1.53786">
        <ele>9.6539249420166</ele>
        <time>2017-02-14T10:02:53.000Z</time>
      </trkpt>
      <trkpt lat="47.27009" lon="-1.5378">
        <ele>9.2774133682251</ele>
        <time>2017-02-14T10:02:56.000Z</time>
      </trkpt>
      <trkpt lat="47.27009" lon="-1.53773">
        <ele>8.8869524002075</ele>
        <time>2017-02-14T10:02:59.000Z</time>
      </trkpt>
      <trkpt lat="47.27009" lon="-1.5377">
        <ele>8.5176668167114</ele>
        <time>2017-02-14T10:03:01.000Z</time>
      </trkpt>
      <trkpt lat="47.27008" lon="-1.53763">
        <ele>8.1450185775757</ele>
        <time>2017-02-14T10:03:04.000Z</time>
      </trkpt>
      <trkpt lat="47.27007" lon="-1.53756">
        <ele>7.7365326881409</ele>
        <time>2017-02-14T10:03:07.000Z</time>
      </trkpt>
      <trkpt lat="47.27008" lon="-1.53752">
        <ele>7.3695349693298</ele>
        <time>2017-02-14T10:03:09.000Z</time>
      </trkpt>
      <trkpt lat="47.27008" lon="-1.53745">
        <ele>7.0738816261292</ele>
        <time>2017-02-14T10:03:12.000Z</time>
      </trkpt>
      <trkpt lat="47.27008" lon="-1.53738">
        <ele>6.8196358680725</ele>
        <time>2017-02-14T10:03:15.000Z</time>
      </trkpt>
      <trkpt lat="47.27009" lon="-1.53734">
        <ele>6.6535973548889</ele>
        <time>2017-02-14T10:03:17.000Z</time>
      </trkpt>
      <trkpt lat="47.2701" lon="-1.53727">
        <ele>6.6027474403381</ele>
        <time>2017-02-14T10:03:20.000Z</time>
      </trkpt>
      <trkpt lat="47.27011" lon="-1.53723">
        <ele>6.6034026145935</ele>
        <time>2017-02-14T10:03:22.000Z</time>
      </trkpt>
      <trkpt lat="47.27012" lon="-1.53719">
        <ele>6.6279983520508</ele>
        <time>2017-02-14T10:03:24.000Z</time>
      </trkpt>
      <trkpt lat="47.27011" lon="-1.53714">
        <ele>6.6375999450684</ele>
        <time>2017-02-14T10:03:26.000Z</time>
      </trkpt>
      <trkpt lat="47.27011" lon="-1.53708">
        <ele>6.6392478942871</ele>
        <time>2017-02-14T10:03:29.000Z</time>
      </trkpt>
      <trkpt lat="47.27013" lon="-1.53701">
        <ele>6.6406555175781</ele>
        <time>2017-02-14T10:03:32.000Z</time>
      </trkpt>
      <trkpt lat="47.27014" lon="-1.53698">
        <ele>6.6487107276917</ele>
        <time>2017-02-14T10:03:34.000Z</time>
      </trkpt>
      <trkpt lat="47.27015" lon="-1.53691">
        <ele>6.6513547897339</ele>
        <time>2017-02-14T10:03:37.000Z</time>
      </trkpt>
      <trkpt lat="47.27017" lon="-1.53685">
        <ele>6.6782426834106</ele>
        <time>2017-02-14T10:03:40.000Z</time>
      </trkpt>
      <trkpt lat="47.27019" lon="-1.53682">
        <ele>6.7197952270508</ele>
        <time>2017-02-14T10:03:42.000Z</time>
      </trkpt>
      <trkpt lat="47.2702" lon="-1.53679">
        <ele>6.7551589012146</ele>
        <time>2017-02-14T10:03:44.000Z</time>
      </trkpt>
      <trkpt lat="47.27023" lon="-1.53673">
        <ele>6.7921028137207</ele>
        <time>2017-02-14T10:03:47.000Z</time>
      </trkpt>
      <trkpt lat="47.27024" lon="-1.5367">
        <ele>6.8310737609863</ele>
        <time>2017-02-14T10:03:49.000Z</time>
      </trkpt>
      <trkpt lat="47.27026" lon="-1.53667">
        <ele>6.8683371543884</ele>
        <time>2017-02-14T10:03:51.000Z</time>
      </trkpt>
      <trkpt lat="47.27028" lon="-1.53662">
        <ele>6.9044075012207</ele>
        <time>2017-02-14T10:03:54.000Z</time>
      </trkpt>
      <trkpt lat="47.2703" lon="-1.53659">
        <ele>6.9354033470154</ele>
        <time>2017-02-14T10:03:56.000Z</time>
      </trkpt>
      <trkpt lat="47.27033" lon="-1.53656">
        <ele>6.982159614563</ele>
        <time>2017-02-14T10:03:59.000Z</time>
      </trkpt>
      <trkpt lat="47.27037" lon="-1.53653">
        <ele>7.057975769043</ele>
        <time>2017-02-14T10:04:02.000Z</time>
      </trkpt>
      <trkpt lat="47.2704" lon="-1.5365">
        <ele>7.1562399864197</ele>
        <time>2017-02-14T10:04:04.000Z</time>
      </trkpt>
      <trkpt lat="47.27044" lon="-1.53648">
        <ele>7.2843170166016</ele>
        <time>2017-02-14T10:04:07.000Z</time>
      </trkpt>
      <trkpt lat="47.27047" lon="-1.53647">
        <ele>7.4485626220703</ele>
        <time>2017-02-14T10:04:10.000Z</time>
      </trkpt>
      <trkpt lat="47.2705" lon="-1.53645">
        <ele>7.6161255836487</ele>
        <time>2017-02-14T10:04:12.000Z</time>
      </trkpt>
      <trkpt lat="47.27053" lon="-1.53644">
        <ele>7.7862424850464</ele>
        <time>2017-02-14T10:04:14.000Z</time>
      </trkpt>
      <trkpt lat="47.27057" lon="-1.53642">
        <ele>7.9793367385864</ele>
        <time>2017-02-14T10:04:17.000Z</time>
      </trkpt>
      <trkpt lat="47.27062" lon="-1.53641">
        <ele>8.1902236938477</ele>
        <time>2017-02-14T10:04:20.000Z</time>
      </trkpt>
      <trkpt lat="47.27067" lon="-1.53641">
        <ele>8.4183959960938</ele>
        <time>2017-02-14T10:04:23.000Z</time>
      </trkpt>
      <trkpt lat="47.27071" lon="-1.53641">
        <ele>8.675178527832</ele>
        <time>2017-02-14T10:04:26.000Z</time>
      </trkpt>
      <trkpt lat="47.27075" lon="-1.53639">
        <ele>8.9514636993408</ele>
        <time>2017-02-14T10:04:29.000Z</time>
      </trkpt>
      <trkpt lat="47.27078" lon="-1.53639">
        <ele>9.2114639282227</ele>
        <time>2017-02-14T10:04:31.000Z</time>
      </trkpt>
      <trkpt lat="47.27081" lon="-1.53638">
        <ele>9.4515514373779</ele>
        <time>2017-02-14T10:04:33.000Z</time>
      </trkpt>
      <trkpt lat="47.27084" lon="-1.53636">
        <ele>9.6932067871094</ele>
        <time>2017-02-14T10:04:36.000Z</time>
      </trkpt>
      <trkpt lat="47.27086" lon="-1.53634">
        <ele>9.9122381210327</ele>
        <time>2017-02-14T10:04:38.000Z</time>
      </trkpt>
      <trkpt lat="47.27091" lon="-1.53631">
        <ele>10.144762039185</ele>
        <time>2017-02-14T10:04:41.000Z</time>
      </trkpt>
      <trkpt lat="47.27096" lon="-1.53629">
        <ele>10.406778335571</ele>
        <time>2017-02-14T10:04:44.000Z</time>
      </trkpt>
      <trkpt lat="47.27098" lon="-1.53629">
        <ele>10.659477233887</ele>
        <time>2017-02-14T10:04:46.000Z</time>
      </trkpt>
      <trkpt lat="47.27102" lon="-1.53629">
        <ele>10.887403488159</ele>
        <time>2017-02-14T10:04:49.000Z</time>
      </trkpt>
      <trkpt lat="47.27104" lon="-1.5363">
        <ele>11.101026535034</ele>
        <time>2017-02-14T10:04:51.000Z</time>
      </trkpt>
      <trkpt lat="47.27109" lon="-1.53633">
        <ele>11.286012649536</ele>
        <time>2017-02-14T10:04:54.000Z</time>
      </trkpt>
      <trkpt lat="47.27113" lon="-1.53636">
        <ele>11.442965507507</ele>
        <time>2017-02-14T10:04:57.000Z</time>
      </trkpt>
      <trkpt lat="47.27115" lon="-1.53638">
        <ele>11.598101615906</ele>
        <time>2017-02-14T10:04:59.000Z</time>
      </trkpt>
      <trkpt lat="47.27118" lon="-1.53643">
        <ele>11.748400688171</ele>
        <time>2017-02-14T10:05:02.000Z</time>
      </trkpt>
      <trkpt lat="47.27121" lon="-1.53645">
        <ele>11.917673110962</ele>
        <time>2017-02-14T10:05:05.000Z</time>
      </trkpt>
      <trkpt lat="47.27124" lon="-1.53647">
        <ele>12.080801010132</ele>
        <time>2017-02-14T10:05:07.000Z</time>
      </trkpt>
      <trkpt lat="47.27127" lon="-1.53649">
        <ele>12.254919052124</ele>
        <time>2017-02-14T10:05:10.000Z</time>
      </trkpt>
      <trkpt lat="47.2713" lon="-1.53652">
        <ele>12.446741104126</ele>
        <time>2017-02-14T10:05:13.000Z</time>
      </trkpt>
      <trkpt lat="47.27132" lon="-1.53656">
        <ele>12.64907169342</ele>
        <time>2017-02-14T10:05:15.000Z</time>
      </trkpt>
      <trkpt lat="47.27137" lon="-1.53658">
        <ele>12.876344680786</ele>
        <time>2017-02-14T10:05:18.000Z</time>
      </trkpt>
      <trkpt lat="47.2714" lon="-1.53658">
        <ele>13.12823009491</ele>
        <time>2017-02-14T10:05:21.000Z</time>
      </trkpt>
      <trkpt lat="47.27143" lon="-1.53659">
        <ele>13.378648757935</ele>
        <time>2017-02-14T10:05:23.000Z</time>
      </trkpt>
      <trkpt lat="47.27147" lon="-1.53662">
        <ele>13.653619766235</ele>
        <time>2017-02-14T10:05:26.000Z</time>
      </trkpt>
      <trkpt lat="47.2715" lon="-1.53663">
        <ele>13.945935249329</ele>
        <time>2017-02-14T10:05:29.000Z</time>
      </trkpt>
      <trkpt lat="47.27152" lon="-1.53663">
        <ele>14.207662582397</ele>
        <time>2017-02-14T10:05:31.000Z</time>
      </trkpt>
      <trkpt lat="47.27155" lon="-1.53663">
        <ele>14.466937065125</ele>
        <time>2017-02-14T10:05:33.000Z</time>
      </trkpt>
      <trkpt lat="47.2716" lon="-1.53664">
        <ele>14.748765945435</ele>
        <time>2017-02-14T10:05:36.000Z</time>
      </trkpt>
      <trkpt lat="47.27163" lon="-1.53665">
        <ele>15.02161693573</ele>
        <time>2017-02-14T10:05:38.000Z</time>
      </trkpt>
      <trkpt lat="47.27165" lon="-1.53666">
        <ele>15.283838272095</ele>
        <time>2017-02-14T10:05:40.000Z</time>
      </trkpt>
      <trkpt lat="47.27169" lon="-1.53667">
        <ele>15.582333564758</ele>
        <time>2017-02-14T10:05:43.000Z</time>
      </trkpt>
      <trkpt lat="47.27172" lon="-1.53668">
        <ele>15.85639667511</ele>
        <time>2017-02-14T10:05:45.000Z</time>
      </trkpt>
      <trkpt lat="47.27176" lon="-1.5367">
        <ele>16.121799468994</ele>
        <time>2017-02-14T10:05:48.000Z</time>
      </trkpt>
      <trkpt lat="47.27179" lon="-1.53672">
        <ele>16.365169525146</ele>
        <time>2017-02-14T10:05:50.000Z</time>
      </trkpt>
      <trkpt lat="47.27181" lon="-1.53673">
        <ele>16.600961685181</ele>
        <time>2017-02-14T10:05:52.000Z</time>
      </trkpt>
      <trkpt lat="47.27185" lon="-1.53675">
        <ele>16.81591796875</ele>
        <time>2017-02-14T10:05:55.000Z</time>
      </trkpt>
      <trkpt lat="47.27187" lon="-1.53676">
        <ele>17.032684326172</ele>
        <time>2017-02-14T10:05:57.000Z</time>
      </trkpt>
      <trkpt lat="47.27192" lon="-1.53678">
        <ele>17.239255905151</ele>
        <time>2017-02-14T10:06:00.000Z</time>
      </trkpt>
      <trkpt lat="47.27195" lon="-1.53679">
        <ele>17.456014633179</ele>
        <time>2017-02-14T10:06:03.000Z</time>
      </trkpt>
      <trkpt lat="47.27199" lon="-1.5368">
        <ele>17.683462142944</ele>
        <time>2017-02-14T10:06:06.000Z</time>
      </trkpt>
      <trkpt lat="47.27203" lon="-1.53681">
        <ele>17.900835037231</ele>
        <time>2017-02-14T10:06:09.000Z</time>
      </trkpt>
      <trkpt lat="47.27205" lon="-1.53682">
        <ele>18.116912841797</ele>
        <time>2017-02-14T10:06:11.000Z</time>
      </trkpt>
      <trkpt lat="47.27206" lon="-1.53683">
        <ele>18.297901153564</ele>
        <time>2017-02-14T10:06:13.000Z</time>
      </trkpt>
      <trkpt lat="47.27209" lon="-1.53685">
        <ele>18.46368598938</ele>
        <time>2017-02-14T10:06:16.000Z</time>
      </trkpt>
      <trkpt lat="47.2721" lon="-1.53685">
        <ele>18.597946166992</ele>
        <time>2017-02-14T10:06:19.000Z</time>
      </trkpt>
      <trkpt lat="47.27211" lon="-1.53686">
        <ele>18.708700180054</ele>
        <time>2017-02-14T10:06:22.000Z</time>
      </trkpt>
      <trkpt lat="47.27214" lon="-1.53684">
        <ele>18.812997817993</ele>
        <time>2017-02-14T10:06:24.000Z</time>
      </trkpt>
      <trkpt lat="47.27217" lon="-1.53681">
        <ele>18.934459686279</ele>
        <time>2017-02-14T10:06:27.000Z</time>
      </trkpt>
      <trkpt lat="47.2722" lon="-1.5368">
        <ele>19.046026229858</ele>
        <time>2017-02-14T10:06:29.000Z</time>
      </trkpt>
      <trkpt lat="47.27222" lon="-1.53679">
        <ele>19.166362762451</ele>
        <time>2017-02-14T10:06:31.000Z</time>
      </trkpt>
      <trkpt lat="47.27226" lon="-1.5368">
        <ele>19.318185806274</ele>
        <time>2017-02-14T10:06:34.000Z</time>
      </trkpt>
      <trkpt lat="47.27229" lon="-1.53682">
        <ele>19.481170654297</ele>
        <time>2017-02-14T10:06:36.000Z</time>
      </trkpt>
      <trkpt lat="47.27233" lon="-1.53685">
        <ele>19.658178329468</ele>
        <time>2017-02-14T10:06:39.000Z</time>
      </trkpt>
      <trkpt lat="47.27235" lon="-1.53687">
        <ele>19.842620849609</ele>
        <time>2017-02-14T10:06:41.000Z</time>
      </trkpt>
      <trkpt lat="47.27237" lon="-1.53689">
        <ele>20.019781112671</ele>
        <time>2017-02-14T10:06:43.000Z</time>
      </trkpt>
      <trkpt lat="47.2724" lon="-1.53694">
        <ele>20.182987213135</ele>
        <time>2017-02-14T10:06:46.000Z</time>
      </trkpt>
      <trkpt lat="47.27243" lon="-1.53699">
        <ele>20.343450546265</ele>
        <time>2017-02-14T10:06:49.000Z</time>
      </trkpt>
      <trkpt lat="47.27245" lon="-1.53703">
        <ele>20.473447799683</ele>
        <time>2017-02-14T10:06:51.000Z</time>
      </trkpt>
      <trkpt lat="47.27248" lon="-1.53707">
        <ele>20.608310699463</ele>
        <time>2017-02-14T10:06:54.000Z</time>
      </trkpt>
      <trkpt lat="47.2725" lon="-1.5371">
        <ele>20.739765167236</ele>
        <time>2017-02-14T10:06:56.000Z</time>
      </trkpt>
      <trkpt lat="47.27252" lon="-1.53716">
        <ele>20.857702255249</ele>
        <time>2017-02-14T10:06:59.000Z</time>
      </trkpt>
      <trkpt lat="47.27254" lon="-1.5372">
        <ele>20.956565856934</ele>
        <time>2017-02-14T10:07:01.000Z</time>
      </trkpt>
      <trkpt lat="47.27256" lon="-1.53726">
        <ele>21.057483673096</ele>
        <time>2017-02-14T10:07:04.000Z</time>
      </trkpt>
      <trkpt lat="47.27258" lon="-1.53732">
        <ele>21.153844833374</ele>
        <time>2017-02-14T10:07:07.000Z</time>
      </trkpt>
      <trkpt lat="47.2726" lon="-1.53736">
        <ele>21.255252838135</ele>
        <time>2017-02-14T10:07:09.000Z</time>
      </trkpt>
      <trkpt lat="47.27263" lon="-1.53742">
        <ele>21.381294250488</ele>
        <time>2017-02-14T10:07:12.000Z</time>
      </trkpt>
      <trkpt lat="47.27266" lon="-1.53747">
        <ele>21.534484863281</ele>
        <time>2017-02-14T10:07:15.000Z</time>
      </trkpt>
      <trkpt lat="47.27267" lon="-1.5375">
        <ele>21.695241928101</ele>
        <time>2017-02-14T10:07:17.000Z</time>
      </trkpt>
      <trkpt lat="47.27269" lon="-1.53754">
        <ele>21.830837249756</ele>
        <time>2017-02-14T10:07:20.000Z</time>
      </trkpt>
      <trkpt lat="47.27271" lon="-1.53758">
        <ele>21.953197479248</ele>
        <time>2017-02-14T10:07:22.000Z</time>
      </trkpt>
      <trkpt lat="47.27275" lon="-1.53763">
        <ele>22.044200897217</ele>
        <time>2017-02-14T10:07:25.000Z</time>
      </trkpt>
      <trkpt lat="47.27278" lon="-1.53767">
        <ele>22.120697021484</ele>
        <time>2017-02-14T10:07:28.000Z</time>
      </trkpt>
      <trkpt lat="47.2728" lon="-1.5377">
        <ele>22.177429199219</ele>
        <time>2017-02-14T10:07:30.000Z</time>
      </trkpt>
      <trkpt lat="47.27283" lon="-1.53773">
        <ele>22.252624511719</ele>
        <time>2017-02-14T10:07:33.000Z</time>
      </trkpt>
      <trkpt lat="47.27285" lon="-1.53775">
        <ele>22.336120605469</ele>
        <time>2017-02-14T10:07:35.000Z</time>
      </trkpt>
      <trkpt lat="47.27288" lon="-1.53779">
        <ele>22.422790527344</ele>
        <time>2017-02-14T10:07:38.000Z</time>
      </trkpt>
      <trkpt lat="47.27291" lon="-1.53786">
        <ele>22.492370605469</ele>
        <time>2017-02-14T10:07:41.000Z</time>
      </trkpt>
      <trkpt lat="47.27293" lon="-1.53791">
        <ele>22.550659179688</ele>
        <time>2017-02-14T10:07:43.000Z</time>
      </trkpt>
      <trkpt lat="47.27295" lon="-1.53797">
        <ele>22.580200195312</ele>
        <time>2017-02-14T10:07:45.000Z</time>
      </trkpt>
      <trkpt lat="47.27297" lon="-1.53804">
        <ele>22.58837890625</ele>
        <time>2017-02-14T10:07:48.000Z</time>
      </trkpt>
      <trkpt lat="47.27299" lon="-1.5381">
        <ele>22.578186035156</ele>
        <time>2017-02-14T10:07:51.000Z</time>
      </trkpt>
      <trkpt lat="47.27302" lon="-1.53814">
        <ele>22.566284179688</ele>
        <time>2017-02-14T10:07:54.000Z</time>
      </trkpt>
      <trkpt lat="47.27303" lon="-1.53818">
        <ele>22.559448242188</ele>
        <time>2017-02-14T10:07:56.000Z</time>
      </trkpt>
      <trkpt lat="47.27306" lon="-1.53824">
        <ele>22.55419921875</ele>
        <time>2017-02-14T10:07:59.000Z</time>
      </trkpt>
      <trkpt lat="47.27306" lon="-1.53827">
        <ele>22.550231933594</ele>
        <time>2017-02-14T10:08:01.000Z</time>
      </trkpt>
      <trkpt lat="47.27308" lon="-1.53832">
        <ele>22.545959472656</ele>
        <time>2017-02-14T10:08:04.000Z</time>
      </trkpt>
      <trkpt lat="47.2731" lon="-1.53834">
        <ele>22.552488327026</ele>
        <time>2017-02-14T10:08:06.000Z</time>
      </trkpt>
      <trkpt lat="47.27312" lon="-1.53839">
        <ele>22.561084747314</ele>
        <time>2017-02-14T10:08:09.000Z</time>
      </trkpt>
      <trkpt lat="47.27315" lon="-1.53843">
        <ele>22.587884902954</ele>
        <time>2017-02-14T10:08:12.000Z</time>
      </trkpt>
      <trkpt lat="47.27317" lon="-1.53846">
        <ele>22.617349624634</ele>
        <time>2017-02-14T10:08:14.000Z</time>
      </trkpt>
      <trkpt lat="47.27318" lon="-1.5385">
        <ele>22.64080619812</ele>
        <time>2017-02-14T10:08:16.000Z</time>
      </trkpt>
      <trkpt lat="47.2732" lon="-1.53856">
        <ele>22.639925003052</ele>
        <time>2017-02-14T10:08:19.000Z</time>
      </trkpt>
      <trkpt lat="47.27322" lon="-1.5386">
        <ele>22.622121810913</ele>
        <time>2017-02-14T10:08:21.000Z</time>
      </trkpt>
      <trkpt lat="47.27324" lon="-1.53866">
        <ele>22.572986602783</ele>
        <time>2017-02-14T10:08:24.000Z</time>
      </trkpt>
      <trkpt lat="47.27325" lon="-1.5387">
        <ele>22.50707244873</ele>
        <time>2017-02-14T10:08:26.000Z</time>
      </trkpt>
      <trkpt lat="47.27327" lon="-1.53874">
        <ele>22.440757751465</ele>
        <time>2017-02-14T10:08:28.000Z</time>
      </trkpt>
      <trkpt lat="47.27329" lon="-1.53878">
        <ele>22.368774414062</ele>
        <time>2017-02-14T10:08:31.000Z</time>
      </trkpt>
      <trkpt lat="47.27332" lon="-1.53883">
        <ele>22.296527862549</ele>
        <time>2017-02-14T10:08:34.000Z</time>
      </trkpt>
      <trkpt lat="47.27333" lon="-1.53887">
        <ele>22.221254348755</ele>
        <time>2017-02-14T10:08:36.000Z</time>
      </trkpt>
      <trkpt lat="47.27334" lon="-1.53893">
        <ele>22.120933532715</ele>
        <time>2017-02-14T10:08:39.000Z</time>
      </trkpt>
      <trkpt lat="47.27335" lon="-1.53897">
        <ele>21.998195648193</ele>
        <time>2017-02-14T10:08:41.000Z</time>
      </trkpt>
      <trkpt lat="47.27336" lon="-1.53901">
        <ele>21.859127044678</ele>
        <time>2017-02-14T10:08:43.000Z</time>
      </trkpt>
      <trkpt lat="47.27338" lon="-1.53907">
        <ele>21.68251991272</ele>
        <time>2017-02-14T10:08:46.000Z</time>
      </trkpt>
      <trkpt lat="47.27339" lon="-1.53911">
        <ele>21.499025344849</ele>
        <time>2017-02-14T10:08:48.000Z</time>
      </trkpt>
      <trkpt lat="47.27341" lon="-1.53916">
        <ele>21.314884185791</ele>
        <time>2017-02-14T10:08:51.000Z</time>
      </trkpt>
      <trkpt lat="47.27343" lon="-1.5392">
        <ele>21.170677185059</ele>
        <time>2017-02-14T10:08:53.000Z</time>
      </trkpt>
      <trkpt lat="47.27345" lon="-1.53926">
        <ele>21.079460144043</ele>
        <time>2017-02-14T10:08:56.000Z</time>
      </trkpt>
      <trkpt lat="47.27346" lon="-1.53931">
        <ele>21.058115005493</ele>
        <time>2017-02-14T10:08:59.000Z</time>
      </trkpt>
      <trkpt lat="47.27348" lon="-1.53934">
        <ele>21.080503463745</ele>
        <time>2017-02-14T10:09:01.000Z</time>
      </trkpt>
      <trkpt lat="47.2735" lon="-1.53939">
        <ele>21.163208007812</ele>
        <time>2017-02-14T10:09:04.000Z</time>
      </trkpt>
      <trkpt lat="47.27352" lon="-1.53942">
        <ele>21.247131347656</ele>
        <time>2017-02-14T10:09:06.000Z</time>
      </trkpt>
      <trkpt lat="47.27353" lon="-1.53947">
        <ele>21.33056640625</ele>
        <time>2017-02-14T10:09:09.000Z</time>
      </trkpt>
      <trkpt lat="47.27354" lon="-1.53951">
        <ele>21.408447265625</ele>
        <time>2017-02-14T10:09:11.000Z</time>
      </trkpt>
      <trkpt lat="47.27356" lon="-1.53955">
        <ele>21.4873046875</ele>
        <time>2017-02-14T10:09:14.000Z</time>
      </trkpt>
      <trkpt lat="47.27358" lon="-1.53958">
        <ele>21.559204101562</ele>
        <time>2017-02-14T10:09:16.000Z</time>
      </trkpt>
      <trkpt lat="47.27359" lon="-1.53961">
        <ele>21.633911132812</ele>
        <time>2017-02-14T10:09:18.000Z</time>
      </trkpt>
      <trkpt lat="47.27361" lon="-1.53966">
        <ele>21.703979492188</ele>
        <time>2017-02-14T10:09:21.000Z</time>
      </trkpt>
      <trkpt lat="47.27362" lon="-1.5397">
        <ele>21.774475097656</ele>
        <time>2017-02-14T10:09:23.000Z</time>
      </trkpt>
      <trkpt lat="47.27365" lon="-1.53974">
        <ele>21.843566894531</ele>
        <time>2017-02-14T10:09:26.000Z</time>
      </trkpt>
      <trkpt lat="47.27367" lon="-1.53977">
        <ele>21.915832519531</ele>
        <time>2017-02-14T10:09:28.000Z</time>
      </trkpt>
      <trkpt lat="47.27368" lon="-1.53981">
        <ele>21.990295410156</ele>
        <time>2017-02-14T10:09:30.000Z</time>
      </trkpt>
      <trkpt lat="47.27369" lon="-1.53985">
        <ele>22.061096191406</ele>
        <time>2017-02-14T10:09:32.000Z</time>
      </trkpt>
      <trkpt lat="47.27371" lon="-1.53988">
        <ele>22.130554199219</ele>
        <time>2017-02-14T10:09:34.000Z</time>
      </trkpt>
      <trkpt lat="47.27372" lon="-1.53992">
        <ele>22.19775390625</ele>
        <time>2017-02-14T10:09:36.000Z</time>
      </trkpt>
      <trkpt lat="47.27375" lon="-1.53997">
        <ele>22.27099609375</ele>
        <time>2017-02-14T10:09:39.000Z</time>
      </trkpt>
      <trkpt lat="47.27378" lon="-1.54003">
        <ele>22.342952728271</ele>
        <time>2017-02-14T10:09:42.000Z</time>
      </trkpt>
      <trkpt lat="47.27379" lon="-1.54006">
        <ele>22.402378082275</ele>
        <time>2017-02-14T10:09:44.000Z</time>
      </trkpt>
      <trkpt lat="47.2738" lon="-1.5401">
        <ele>22.452737808228</ele>
        <time>2017-02-14T10:09:46.000Z</time>
      </trkpt>
      <trkpt lat="47.27383" lon="-1.54015">
        <ele>22.496076583862</ele>
        <time>2017-02-14T10:09:49.000Z</time>
      </trkpt>
      <trkpt lat="47.27383" lon="-1.54018">
        <ele>22.525115966797</ele>
        <time>2017-02-14T10:09:51.000Z</time>
      </trkpt>
      <trkpt lat="47.27385" lon="-1.54021">
        <ele>22.546081542969</ele>
        <time>2017-02-14T10:09:53.000Z</time>
      </trkpt>
      <trkpt lat="47.27386" lon="-1.54025">
        <ele>22.571737289429</ele>
        <time>2017-02-14T10:09:56.000Z</time>
      </trkpt>
      <trkpt lat="47.27388" lon="-1.54027">
        <ele>22.599136352539</ele>
        <time>2017-02-14T10:09:59.000Z</time>
      </trkpt>
      <trkpt lat="47.27391" lon="-1.54031">
        <ele>22.63179397583</ele>
        <time>2017-02-14T10:10:02.000Z</time>
      </trkpt>
      <trkpt lat="47.27393" lon="-1.54035">
        <ele>22.670978546143</ele>
        <time>2017-02-14T10:10:05.000Z</time>
      </trkpt>
      <trkpt lat="47.27395" lon="-1.54037">
        <ele>22.713598251343</ele>
        <time>2017-02-14T10:10:07.000Z</time>
      </trkpt>
      <trkpt lat="47.27397" lon="-1.5404">
        <ele>22.760105133057</ele>
        <time>2017-02-14T10:10:10.000Z</time>
      </trkpt>
      <trkpt lat="47.27399" lon="-1.54045">
        <ele>22.819835662842</ele>
        <time>2017-02-14T10:10:13.000Z</time>
      </trkpt>
      <trkpt lat="47.27401" lon="-1.54049">
        <ele>22.88667678833</ele>
        <time>2017-02-14T10:10:16.000Z</time>
      </trkpt>
      <trkpt lat="47.27404" lon="-1.54052">
        <ele>22.955190658569</ele>
        <time>2017-02-14T10:10:19.000Z</time>
      </trkpt>
      <trkpt lat="47.27406" lon="-1.54055">
        <ele>23.033319473267</ele>
        <time>2017-02-14T10:10:22.000Z</time>
      </trkpt>
      <trkpt lat="47.27408" lon="-1.5406">
        <ele>23.123958587646</ele>
        <time>2017-02-14T10:10:25.000Z</time>
      </trkpt>
      <trkpt lat="47.27409" lon="-1.54063">
        <ele>23.213405609131</ele>
        <time>2017-02-14T10:10:27.000Z</time>
      </trkpt>
      <trkpt lat="47.27411" lon="-1.54068">
        <ele>23.312448501587</ele>
        <time>2017-02-14T10:10:30.000Z</time>
      </trkpt>
      <trkpt lat="47.27414" lon="-1.54074">
        <ele>23.433938980103</ele>
        <time>2017-02-14T10:10:33.000Z</time>
      </trkpt>
      <trkpt lat="47.27415" lon="-1.54077">
        <ele>23.560251235962</ele>
        <time>2017-02-14T10:10:35.000Z</time>
      </trkpt>
      <trkpt lat="47.27417" lon="-1.54082">
        <ele>23.692367553711</ele>
        <time>2017-02-14T10:10:38.000Z</time>
      </trkpt>
      <trkpt lat="47.27419" lon="-1.54085">
        <ele>23.82067489624</ele>
        <time>2017-02-14T10:10:40.000Z</time>
      </trkpt>
      <trkpt lat="47.2742" lon="-1.54087">
        <ele>23.929882049561</ele>
        <time>2017-02-14T10:10:42.000Z</time>
      </trkpt>
      <trkpt lat="47.27421" lon="-1.54091">
        <ele>24.014965057373</ele>
        <time>2017-02-14T10:10:45.000Z</time>
      </trkpt>
      <trkpt lat="47.27422" lon="-1.54094">
        <ele>24.086191177368</ele>
        <time>2017-02-14T10:10:47.000Z</time>
      </trkpt>
      <trkpt lat="47.27424" lon="-1.54098">
        <ele>24.140714645386</ele>
        <time>2017-02-14T10:10:50.000Z</time>
      </trkpt>
      <trkpt lat="47.27425" lon="-1.54102">
        <ele>24.191028594971</ele>
        <time>2017-02-14T10:10:53.000Z</time>
      </trkpt>
      <trkpt lat="47.27425" lon="-1.54103">
        <ele>24.237522125244</ele>
        <time>2017-02-14T10:10:55.000Z</time>
      </trkpt>
      <trkpt lat="47.27425" lon="-1.54105">
        <ele>24.277297973633</ele>
        <time>2017-02-14T10:11:00.000Z</time>
      </trkpt>
      <trkpt lat="47.27424" lon="-1.54106">
        <ele>24.308361053467</ele>
        <time>2017-02-14T10:12:01.000Z</time>
      </trkpt>
      <trkpt lat="47.27424" lon="-1.54109">
        <ele>24.333608627319</ele>
        <time>2017-02-14T10:12:04.000Z</time>
      </trkpt>
      <trkpt lat="47.27425" lon="-1.54112">
        <ele>24.355838775635</ele>
        <time>2017-02-14T10:12:06.000Z</time>
      </trkpt>
      <trkpt lat="47.27426" lon="-1.54116">
        <ele>24.383922576904</ele>
        <time>2017-02-14T10:12:09.000Z</time>
      </trkpt>
      <trkpt lat="47.27427" lon="-1.5412">
        <ele>24.4169921875</ele>
        <time>2017-02-14T10:12:12.000Z</time>
      </trkpt>
      <trkpt lat="47.27428" lon="-1.54122">
        <ele>24.457622528076</ele>
        <time>2017-02-14T10:12:15.000Z</time>
      </trkpt>
      <trkpt lat="47.2743" lon="-1.54127">
        <ele>24.502964019775</ele>
        <time>2017-02-14T10:12:18.000Z</time>
      </trkpt>
      <trkpt lat="47.27432" lon="-1.54131">
        <ele>24.552829742432</ele>
        <time>2017-02-14T10:12:21.000Z</time>
      </trkpt>
      <trkpt lat="47.27433" lon="-1.54135">
        <ele>24.600284576416</ele>
        <time>2017-02-14T10:12:23.000Z</time>
      </trkpt>
      <trkpt lat="47.27434" lon="-1.54138">
        <ele>24.645420074463</ele>
        <time>2017-02-14T10:12:26.000Z</time>
      </trkpt>
      <trkpt lat="47.27434" lon="-1.54141">
        <ele>24.688352584839</ele>
        <time>2017-02-14T10:12:29.000Z</time>
      </trkpt>
      <trkpt lat="47.27437" lon="-1.54147">
        <ele>24.731922149658</ele>
        <time>2017-02-14T10:12:32.000Z</time>
      </trkpt>
      <trkpt lat="47.27439" lon="-1.54154">
        <ele>24.77811050415</ele>
        <time>2017-02-14T10:12:35.000Z</time>
      </trkpt>
      <trkpt lat="47.27442" lon="-1.54161">
        <ele>24.829647064209</ele>
        <time>2017-02-14T10:12:38.000Z</time>
      </trkpt>
      <trkpt lat="47.27443" lon="-1.54168">
        <ele>24.894062042236</ele>
        <time>2017-02-14T10:12:41.000Z</time>
      </trkpt>
      <trkpt lat="47.27444" lon="-1.54173">
        <ele>24.975467681885</ele>
        <time>2017-02-14T10:12:43.000Z</time>
      </trkpt>
      <trkpt lat="47.27446" lon="-1.54178">
        <ele>25.07476234436</ele>
        <time>2017-02-14T10:12:46.000Z</time>
      </trkpt>
      <trkpt lat="47.27447" lon="-1.54181">
        <ele>25.179935455322</ele>
        <time>2017-02-14T10:12:48.000Z</time>
      </trkpt>
      <trkpt lat="47.27448" lon="-1.54185">
        <ele>25.294418334961</ele>
        <time>2017-02-14T10:12:50.000Z</time>
      </trkpt>
      <trkpt lat="47.2745" lon="-1.54189">
        <ele>25.414852142334</ele>
        <time>2017-02-14T10:12:53.000Z</time>
      </trkpt>
      <trkpt lat="47.27451" lon="-1.54192">
        <ele>25.53088760376</ele>
        <time>2017-02-14T10:12:55.000Z</time>
      </trkpt>
      <trkpt lat="47.27453" lon="-1.54195">
        <ele>25.635486602783</ele>
        <time>2017-02-14T10:12:57.000Z</time>
      </trkpt>
      <trkpt lat="47.27454" lon="-1.54198">
        <ele>25.73886680603</ele>
        <time>2017-02-14T10:12:59.000Z</time>
      </trkpt>
      <trkpt lat="47.27457" lon="-1.54202">
        <ele>25.845434188843</ele>
        <time>2017-02-14T10:13:02.000Z</time>
      </trkpt>
      <trkpt lat="47.27458" lon="-1.54207">
        <ele>25.953624725342</ele>
        <time>2017-02-14T10:13:05.000Z</time>
      </trkpt>
      <trkpt lat="47.27459" lon="-1.54209">
        <ele>26.061031341553</ele>
        <time>2017-02-14T10:13:07.000Z</time>
      </trkpt>
      <trkpt lat="47.2746" lon="-1.54215">
        <ele>26.187097549438</ele>
        <time>2017-02-14T10:13:10.000Z</time>
      </trkpt>
      <trkpt lat="47.27461" lon="-1.5422">
        <ele>26.32573890686</ele>
        <time>2017-02-14T10:13:13.000Z</time>
      </trkpt>
      <trkpt lat="47.27463" lon="-1.54224">
        <ele>26.467712402344</ele>
        <time>2017-02-14T10:13:16.000Z</time>
      </trkpt>
      <trkpt lat="47.27464" lon="-1.54229">
        <ele>26.611751556396</ele>
        <time>2017-02-14T10:13:19.000Z</time>
      </trkpt>
      <trkpt lat="47.27466" lon="-1.54234">
        <ele>26.771997451782</ele>
        <time>2017-02-14T10:13:22.000Z</time>
      </trkpt>
      <trkpt lat="47.27467" lon="-1.54239">
        <ele>26.930469512939</ele>
        <time>2017-02-14T10:13:25.000Z</time>
      </trkpt>
      <trkpt lat="47.27468" lon="-1.54245">
        <ele>27.09623336792</ele>
        <time>2017-02-14T10:13:28.000Z</time>
      </trkpt>
      <trkpt lat="47.2747" lon="-1.5425">
        <ele>27.267688751221</ele>
        <time>2017-02-14T10:13:31.000Z</time>
      </trkpt>
      <trkpt lat="47.27472" lon="-1.54254">
        <ele>27.426334381104</ele>
        <time>2017-02-14T10:13:34.000Z</time>
      </trkpt>
      <trkpt lat="47.27473" lon="-1.54257">
        <ele>27.561874389648</ele>
        <time>2017-02-14T10:13:36.000Z</time>
      </trkpt>
      <trkpt lat="47.27474" lon="-1.5426">
        <ele>27.671823501587</ele>
        <time>2017-02-14T10:13:38.000Z</time>
      </trkpt>
      <trkpt lat="47.27477" lon="-1.54265">
        <ele>27.760732650757</ele>
        <time>2017-02-14T10:13:41.000Z</time>
      </trkpt>
      <trkpt lat="47.27478" lon="-1.54268">
        <ele>27.826873779297</ele>
        <time>2017-02-14T10:13:43.000Z</time>
      </trkpt>
      <trkpt lat="47.27479" lon="-1.54271">
        <ele>27.885498046875</ele>
        <time>2017-02-14T10:13:45.000Z</time>
      </trkpt>
      <trkpt lat="47.27481" lon="-1.54276">
        <ele>27.949676513672</ele>
        <time>2017-02-14T10:13:48.000Z</time>
      </trkpt>
      <trkpt lat="47.27483" lon="-1.54278">
        <ele>28.014251708984</ele>
        <time>2017-02-14T10:13:50.000Z</time>
      </trkpt>
      <trkpt lat="47.27484" lon="-1.5428">
        <ele>28.070159912109</ele>
        <time>2017-02-14T10:13:52.000Z</time>
      </trkpt>
      <trkpt lat="47.27486" lon="-1.54283">
        <ele>28.123168945312</ele>
        <time>2017-02-14T10:13:54.000Z</time>
      </trkpt>
      <trkpt lat="47.27486" lon="-1.54286">
        <ele>28.177093505859</ele>
        <time>2017-02-14T10:13:57.000Z</time>
      </trkpt>
      <trkpt lat="47.27487" lon="-1.54288">
        <ele>28.219573974609</ele>
        <time>2017-02-14T10:13:59.000Z</time>
      </trkpt>
      <trkpt lat="47.27489" lon="-1.54291">
        <ele>28.265350341797</ele>
        <time>2017-02-14T10:14:02.000Z</time>
      </trkpt>
      <trkpt lat="47.27491" lon="-1.54297">
        <ele>28.320953369141</ele>
        <time>2017-02-14T10:14:05.000Z</time>
      </trkpt>
      <trkpt lat="47.27492" lon="-1.543">
        <ele>28.377685546875</ele>
        <time>2017-02-14T10:14:07.000Z</time>
      </trkpt>
      <trkpt lat="47.27494" lon="-1.54304">
        <ele>28.438354492188</ele>
        <time>2017-02-14T10:14:10.000Z</time>
      </trkpt>
      <trkpt lat="47.27494" lon="-1.54308">
        <ele>28.504028320312</ele>
        <time>2017-02-14T10:14:12.000Z</time>
      </trkpt>
      <trkpt lat="47.27495" lon="-1.54311">
        <ele>28.565612792969</ele>
        <time>2017-02-14T10:14:14.000Z</time>
      </trkpt>
      <trkpt lat="47.27497" lon="-1.54316">
        <ele>28.625701904297</ele>
        <time>2017-02-14T10:14:17.000Z</time>
      </trkpt>
      <trkpt lat="47.27498" lon="-1.54322">
        <ele>28.692413330078</ele>
        <time>2017-02-14T10:14:20.000Z</time>
      </trkpt>
      <trkpt lat="47.27499" lon="-1.54326">
        <ele>28.757293701172</ele>
        <time>2017-02-14T10:14:23.000Z</time>
      </trkpt>
      <trkpt lat="47.275" lon="-1.54329">
        <ele>28.822357177734</ele>
        <time>2017-02-14T10:14:25.000Z</time>
      </trkpt>
      <trkpt lat="47.27502" lon="-1.54335">
        <ele>28.892696380615</ele>
        <time>2017-02-14T10:14:28.000Z</time>
      </trkpt>
      <trkpt lat="47.27504" lon="-1.54338">
        <ele>28.957138061523</ele>
        <time>2017-02-14T10:14:30.000Z</time>
      </trkpt>
      <trkpt lat="47.27505" lon="-1.54342">
        <ele>29.025411605835</ele>
        <time>2017-02-14T10:14:32.000Z</time>
      </trkpt>
      <trkpt lat="47.27507" lon="-1.54348">
        <ele>29.114343643188</ele>
        <time>2017-02-14T10:14:35.000Z</time>
      </trkpt>
      <trkpt lat="47.27509" lon="-1.54352">
        <ele>29.209142684937</ele>
        <time>2017-02-14T10:14:37.000Z</time>
      </trkpt>
      <trkpt lat="47.2751" lon="-1.54356">
        <ele>29.312358856201</ele>
        <time>2017-02-14T10:14:39.000Z</time>
      </trkpt>
      <trkpt lat="47.27511" lon="-1.5436">
        <ele>29.428884506226</ele>
        <time>2017-02-14T10:14:42.000Z</time>
      </trkpt>
      <trkpt lat="47.27512" lon="-1.54365">
        <ele>29.549129486084</ele>
        <time>2017-02-14T10:14:45.000Z</time>
      </trkpt>
      <trkpt lat="47.27515" lon="-1.54371">
        <ele>29.66374206543</ele>
        <time>2017-02-14T10:14:48.000Z</time>
      </trkpt>
      <trkpt lat="47.27517" lon="-1.54376">
        <ele>29.787700653076</ele>
        <time>2017-02-14T10:14:51.000Z</time>
      </trkpt>
      <trkpt lat="47.27518" lon="-1.54382">
        <ele>29.920181274414</ele>
        <time>2017-02-14T10:14:54.000Z</time>
      </trkpt>
      <trkpt lat="47.27518" lon="-1.54386">
        <ele>30.052709579468</ele>
        <time>2017-02-14T10:14:56.000Z</time>
      </trkpt>
      <trkpt lat="47.2752" lon="-1.54391">
        <ele>30.17946434021</ele>
        <time>2017-02-14T10:14:59.000Z</time>
      </trkpt>
      <trkpt lat="47.27523" lon="-1.54395">
        <ele>30.290813446045</ele>
        <time>2017-02-14T10:15:02.000Z</time>
      </trkpt>
      <trkpt lat="47.27525" lon="-1.544">
        <ele>30.395568847656</ele>
        <time>2017-02-14T10:15:05.000Z</time>
      </trkpt>
      <trkpt lat="47.27525" lon="-1.54403">
        <ele>30.485317230225</ele>
        <time>2017-02-14T10:15:07.000Z</time>
      </trkpt>
      <trkpt lat="47.27526" lon="-1.54408">
        <ele>30.581094741821</ele>
        <time>2017-02-14T10:15:10.000Z</time>
      </trkpt>
      <trkpt lat="47.27526" lon="-1.54411">
        <ele>30.672832489014</ele>
        <time>2017-02-14T10:15:12.000Z</time>
      </trkpt>
      <trkpt lat="47.27528" lon="-1.54415">
        <ele>30.767812728882</ele>
        <time>2017-02-14T10:15:14.000Z</time>
      </trkpt>
      <trkpt lat="47.27529" lon="-1.54419">
        <ele>30.854694366455</ele>
        <time>2017-02-14T10:15:16.000Z</time>
      </trkpt>
      <trkpt lat="47.2753" lon="-1.54423">
        <ele>30.936727523804</ele>
        <time>2017-02-14T10:15:18.000Z</time>
      </trkpt>
      <trkpt lat="47.2753" lon="-1.54429">
        <ele>31.011657714844</ele>
        <time>2017-02-14T10:15:21.000Z</time>
      </trkpt>
      <trkpt lat="47.27531" lon="-1.54433">
        <ele>31.084295272827</ele>
        <time>2017-02-14T10:15:23.000Z</time>
      </trkpt>
      <trkpt lat="47.27532" lon="-1.5444">
        <ele>31.164098739624</ele>
        <time>2017-02-14T10:15:26.000Z</time>
      </trkpt>
      <trkpt lat="47.27533" lon="-1.54448">
        <ele>31.257251739502</ele>
        <time>2017-02-14T10:15:29.000Z</time>
      </trkpt>
      <trkpt lat="47.27535" lon="-1.54455">
        <ele>31.360523223877</ele>
        <time>2017-02-14T10:15:32.000Z</time>
      </trkpt>
      <trkpt lat="47.27536" lon="-1.54461">
        <ele>31.464498519897</ele>
        <time>2017-02-14T10:15:35.000Z</time>
      </trkpt>
      <trkpt lat="47.27538" lon="-1.54468">
        <ele>31.583511352539</ele>
        <time>2017-02-14T10:15:38.000Z</time>
      </trkpt>
      <trkpt lat="47.27539" lon="-1.54476">
        <ele>31.706630706787</ele>
        <time>2017-02-14T10:15:41.000Z</time>
      </trkpt>
      <trkpt lat="47.27539" lon="-1.5448">
        <ele>31.824375152588</ele>
        <time>2017-02-14T10:15:43.000Z</time>
      </trkpt>
      <trkpt lat="47.2754" lon="-1.54487">
        <ele>31.953502655029</ele>
        <time>2017-02-14T10:15:46.000Z</time>
      </trkpt>
      <trkpt lat="47.27539" lon="-1.54494">
        <ele>32.093753814697</ele>
        <time>2017-02-14T10:15:49.000Z</time>
      </trkpt>
      <trkpt lat="47.27539" lon="-1.54501">
        <ele>32.23560333252</ele>
        <time>2017-02-14T10:15:52.000Z</time>
      </trkpt>
      <trkpt lat="47.27539" lon="-1.54505">
        <ele>32.365345001221</ele>
        <time>2017-02-14T10:15:54.000Z</time>
      </trkpt>
      <trkpt lat="47.27538" lon="-1.5451">
        <ele>32.500099182129</ele>
        <time>2017-02-14T10:15:57.000Z</time>
      </trkpt>
      <trkpt lat="47.27538" lon="-1.54517">
        <ele>32.623229980469</ele>
        <time>2017-02-14T10:16:00.000Z</time>
      </trkpt>
      <trkpt lat="47.27537" lon="-1.54521">
        <ele>32.727275848389</ele>
        <time>2017-02-14T10:16:02.000Z</time>
      </trkpt>
      <trkpt lat="47.27536" lon="-1.54527">
        <ele>32.825817108154</ele>
        <time>2017-02-14T10:16:05.000Z</time>
      </trkpt>
      <trkpt lat="47.27534" lon="-1.54532">
        <ele>32.930377960205</ele>
        <time>2017-02-14T10:16:08.000Z</time>
      </trkpt>
      <trkpt lat="47.27533" lon="-1.54536">
        <ele>33.024085998535</ele>
        <time>2017-02-14T10:16:10.000Z</time>
      </trkpt>
      <trkpt lat="47.27531" lon="-1.54541">
        <ele>33.115329742432</ele>
        <time>2017-02-14T10:16:13.000Z</time>
      </trkpt>
      <trkpt lat="47.27529" lon="-1.54545">
        <ele>33.209754943848</ele>
        <time>2017-02-14T10:16:16.000Z</time>
      </trkpt>
      <trkpt lat="47.27526" lon="-1.54551">
        <ele>33.301200866699</ele>
        <time>2017-02-14T10:16:19.000Z</time>
      </trkpt>
      <trkpt lat="47.27524" lon="-1.54553">
        <ele>33.382122039795</ele>
        <time>2017-02-14T10:16:21.000Z</time>
      </trkpt>
      <trkpt lat="47.27521" lon="-1.54558">
        <ele>33.464916229248</ele>
        <time>2017-02-14T10:16:24.000Z</time>
      </trkpt>
      <trkpt lat="47.27518" lon="-1.5456">
        <ele>33.538433074951</ele>
        <time>2017-02-14T10:16:27.000Z</time>
      </trkpt>
      <trkpt lat="47.27514" lon="-1.54563">
        <ele>33.603313446045</ele>
        <time>2017-02-14T10:16:30.000Z</time>
      </trkpt>
      <trkpt lat="47.27511" lon="-1.54566">
        <ele>33.657390594482</ele>
        <time>2017-02-14T10:16:33.000Z</time>
      </trkpt>
      <trkpt lat="47.27509" lon="-1.54568">
        <ele>33.708839416504</ele>
        <time>2017-02-14T10:16:35.000Z</time>
      </trkpt>
      <trkpt lat="47.27506" lon="-1.54571">
        <ele>33.75492477417</ele>
        <time>2017-02-14T10:16:38.000Z</time>
      </trkpt>
      <trkpt lat="47.27503" lon="-1.54573">
        <ele>33.79744720459</ele>
        <time>2017-02-14T10:16:41.000Z</time>
      </trkpt>
      <trkpt lat="47.275" lon="-1.54576">
        <ele>33.834453582764</ele>
        <time>2017-02-14T10:16:44.000Z</time>
      </trkpt>
      <trkpt lat="47.27498" lon="-1.54578">
        <ele>33.859092712402</ele>
        <time>2017-02-14T10:16:46.000Z</time>
      </trkpt>
      <trkpt lat="47.27494" lon="-1.5458">
        <ele>33.865768432617</ele>
        <time>2017-02-14T10:16:49.000Z</time>
      </trkpt>
      <trkpt lat="47.27491" lon="-1.54583">
        <ele>33.852088928223</ele>
        <time>2017-02-14T10:16:52.000Z</time>
      </trkpt>
      <trkpt lat="47.27488" lon="-1.54586">
        <ele>33.817413330078</ele>
        <time>2017-02-14T10:16:55.000Z</time>
      </trkpt>
      <trkpt lat="47.27485" lon="-1.54588">
        <ele>33.769645690918</ele>
        <time>2017-02-14T10:16:57.000Z</time>
      </trkpt>
      <trkpt lat="47.27482" lon="-1.54591">
        <ele>33.71085357666</ele>
        <time>2017-02-14T10:17:00.000Z</time>
      </trkpt>
      <trkpt lat="47.2748" lon="-1.54594">
        <ele>33.653923034668</ele>
        <time>2017-02-14T10:17:03.000Z</time>
      </trkpt>
      <trkpt lat="47.27477" lon="-1.54597">
        <ele>33.59700012207</ele>
        <time>2017-02-14T10:17:05.000Z</time>
      </trkpt>
      <trkpt lat="47.27473" lon="-1.546">
        <ele>33.542266845703</ele>
        <time>2017-02-14T10:17:08.000Z</time>
      </trkpt>
      <trkpt lat="47.27471" lon="-1.54602">
        <ele>33.487518310547</ele>
        <time>2017-02-14T10:17:10.000Z</time>
      </trkpt>
      <trkpt lat="47.27469" lon="-1.54605">
        <ele>33.440021514893</ele>
        <time>2017-02-14T10:17:12.000Z</time>
      </trkpt>
      <trkpt lat="47.27466" lon="-1.54608">
        <ele>33.393074035645</ele>
        <time>2017-02-14T10:17:15.000Z</time>
      </trkpt>
      <trkpt lat="47.27463" lon="-1.54612">
        <ele>33.348220825195</ele>
        <time>2017-02-14T10:17:18.000Z</time>
      </trkpt>
      <trkpt lat="47.2746" lon="-1.54616">
        <ele>33.308822631836</ele>
        <time>2017-02-14T10:17:21.000Z</time>
      </trkpt>
      <trkpt lat="47.27458" lon="-1.54621">
        <ele>33.274284362793</ele>
        <time>2017-02-14T10:17:24.000Z</time>
      </trkpt>
      <trkpt lat="47.27456" lon="-1.54624">
        <ele>33.245616912842</ele>
        <time>2017-02-14T10:17:26.000Z</time>
      </trkpt>
      <trkpt lat="47.27454" lon="-1.54627">
        <ele>33.222240447998</ele>
        <time>2017-02-14T10:17:28.000Z</time>
      </trkpt>
      <trkpt lat="47.27452" lon="-1.54632">
        <ele>33.20433807373</ele>
        <time>2017-02-14T10:17:31.000Z</time>
      </trkpt>
      <trkpt lat="47.2745" lon="-1.54635">
        <ele>33.192184448242</ele>
        <time>2017-02-14T10:17:33.000Z</time>
      </trkpt>
      <trkpt lat="47.27447" lon="-1.54639">
        <ele>33.18013381958</ele>
        <time>2017-02-14T10:17:36.000Z</time>
      </trkpt>
      <trkpt lat="47.27445" lon="-1.5464">
        <ele>33.162609100342</ele>
        <time>2017-02-14T10:17:38.000Z</time>
      </trkpt>
      <trkpt lat="47.27441" lon="-1.54641">
        <ele>33.140197753906</ele>
        <time>2017-02-14T10:17:41.000Z</time>
      </trkpt>
      <trkpt lat="47.27439" lon="-1.54645">
        <ele>33.119667053223</ele>
        <time>2017-02-14T10:17:44.000Z</time>
      </trkpt>
      <trkpt lat="47.27436" lon="-1.54649">
        <ele>33.10009765625</ele>
        <time>2017-02-14T10:17:47.000Z</time>
      </trkpt>
      <trkpt lat="47.27434" lon="-1.54654">
        <ele>33.087287902832</ele>
        <time>2017-02-14T10:17:50.000Z</time>
      </trkpt>
      <trkpt lat="47.27433" lon="-1.54657">
        <ele>33.081760406494</ele>
        <time>2017-02-14T10:17:52.000Z</time>
      </trkpt>
      <trkpt lat="47.27431" lon="-1.54661">
        <ele>33.088882446289</ele>
        <time>2017-02-14T10:17:55.000Z</time>
      </trkpt>
      <trkpt lat="47.27428" lon="-1.54665">
        <ele>33.09903717041</ele>
        <time>2017-02-14T10:17:58.000Z</time>
      </trkpt>
      <trkpt lat="47.27425" lon="-1.54669">
        <ele>33.111915588379</ele>
        <time>2017-02-14T10:18:01.000Z</time>
      </trkpt>
      <trkpt lat="47.27422" lon="-1.54672">
        <ele>33.119956970215</ele>
        <time>2017-02-14T10:18:04.000Z</time>
      </trkpt>
      <trkpt lat="47.27419" lon="-1.54674">
        <ele>33.124351501465</ele>
        <time>2017-02-14T10:18:07.000Z</time>
      </trkpt>
      <trkpt lat="47.27415" lon="-1.54676">
        <ele>33.117504119873</ele>
        <time>2017-02-14T10:18:10.000Z</time>
      </trkpt>
      <trkpt lat="47.27413" lon="-1.54677">
        <ele>33.103801727295</ele>
        <time>2017-02-14T10:18:12.000Z</time>
      </trkpt>
      <trkpt lat="47.27412" lon="-1.54679">
        <ele>33.083652496338</ele>
        <time>2017-02-14T10:18:14.000Z</time>
      </trkpt>
      <trkpt lat="47.27409" lon="-1.54682">
        <ele>33.059471130371</ele>
        <time>2017-02-14T10:18:17.000Z</time>
      </trkpt>
      <trkpt lat="47.27406" lon="-1.54684">
        <ele>33.034210205078</ele>
        <time>2017-02-14T10:18:20.000Z</time>
      </trkpt>
      <trkpt lat="47.27404" lon="-1.54687">
        <ele>33.012329101562</ele>
        <time>2017-02-14T10:18:23.000Z</time>
      </trkpt>
      <trkpt lat="47.27401" lon="-1.5469">
        <ele>32.990139007568</ele>
        <time>2017-02-14T10:18:26.000Z</time>
      </trkpt>
      <trkpt lat="47.27398" lon="-1.54691">
        <ele>32.963932037354</ele>
        <time>2017-02-14T10:18:29.000Z</time>
      </trkpt>
      <trkpt lat="47.27396" lon="-1.54692">
        <ele>32.939830780029</ele>
        <time>2017-02-14T10:18:31.000Z</time>
      </trkpt>
      <trkpt lat="47.27394" lon="-1.54695">
        <ele>32.923484802246</ele>
        <time>2017-02-14T10:18:34.000Z</time>
      </trkpt>
      <trkpt lat="47.27393" lon="-1.54699">
        <ele>32.916004180908</ele>
        <time>2017-02-14T10:18:36.000Z</time>
      </trkpt>
      <trkpt lat="47.27392" lon="-1.54703">
        <ele>32.924011230469</ele>
        <time>2017-02-14T10:18:39.000Z</time>
      </trkpt>
      <trkpt lat="47.27391" lon="-1.54707">
        <ele>32.946769714355</ele>
        <time>2017-02-14T10:18:41.000Z</time>
      </trkpt>
      <trkpt lat="47.27391" lon="-1.54711">
        <ele>32.985176086426</ele>
        <time>2017-02-14T10:18:44.000Z</time>
      </trkpt>
      <trkpt lat="47.27391" lon="-1.54716">
        <ele>33.034656524658</ele>
        <time>2017-02-14T10:18:47.000Z</time>
      </trkpt>
      <trkpt lat="47.27392" lon="-1.54718">
        <ele>33.090419769287</ele>
        <time>2017-02-14T10:18:49.000Z</time>
      </trkpt>
      <trkpt lat="47.27395" lon="-1.54722">
        <ele>33.156085968018</ele>
        <time>2017-02-14T10:18:52.000Z</time>
      </trkpt>
      <trkpt lat="47.27397" lon="-1.54726">
        <ele>33.23176574707</ele>
        <time>2017-02-14T10:18:55.000Z</time>
      </trkpt>
      <trkpt lat="47.27397" lon="-1.54729">
        <ele>33.305210113525</ele>
        <time>2017-02-14T10:18:57.000Z</time>
      </trkpt>
      <trkpt lat="47.27398" lon="-1.54733">
        <ele>33.378074645996</ele>
        <time>2017-02-14T10:19:00.000Z</time>
      </trkpt>
      <trkpt lat="47.27399" lon="-1.54736">
        <ele>33.451892852783</ele>
        <time>2017-02-14T10:19:02.000Z</time>
      </trkpt>
      <trkpt lat="47.274" lon="-1.54739">
        <ele>33.516452789307</ele>
        <time>2017-02-14T10:19:04.000Z</time>
      </trkpt>
      <trkpt lat="47.27402" lon="-1.54742">
        <ele>33.580421447754</ele>
        <time>2017-02-14T10:19:07.000Z</time>
      </trkpt>
      <trkpt lat="47.27405" lon="-1.54747">
        <ele>33.655155181885</ele>
        <time>2017-02-14T10:19:10.000Z</time>
      </trkpt>
      <trkpt lat="47.27407" lon="-1.54751">
        <ele>33.725952148438</ele>
        <time>2017-02-14T10:19:13.000Z</time>
      </trkpt>
      <trkpt lat="47.27408" lon="-1.54757">
        <ele>33.776100158691</ele>
        <time>2017-02-14T10:19:16.000Z</time>
      </trkpt>
      <trkpt lat="47.27409" lon="-1.5476">
        <ele>33.810195922852</ele>
        <time>2017-02-14T10:19:18.000Z</time>
      </trkpt>
      <trkpt lat="47.27409" lon="-1.54762">
        <ele>33.823783874512</ele>
        <time>2017-02-14T10:19:21.000Z</time>
      </trkpt>
      <trkpt lat="47.27408" lon="-1.54764">
        <ele>33.812232971191</ele>
        <time>2017-02-14T10:19:23.000Z</time>
      </trkpt>
      <trkpt lat="47.27409" lon="-1.54768">
        <ele>33.782974243164</ele>
        <time>2017-02-14T10:19:26.000Z</time>
      </trkpt>
      <trkpt lat="47.27411" lon="-1.54772">
        <ele>33.756366729736</ele>
        <time>2017-02-14T10:19:29.000Z</time>
      </trkpt>
      <trkpt lat="47.27414" lon="-1.54776">
        <ele>33.730567932129</ele>
        <time>2017-02-14T10:19:32.000Z</time>
      </trkpt>
      <trkpt lat="47.27415" lon="-1.54779">
        <ele>33.70227432251</ele>
        <time>2017-02-14T10:19:34.000Z</time>
      </trkpt>
      <trkpt lat="47.27415" lon="-1.54785">
        <ele>33.665557861328</ele>
        <time>2017-02-14T10:19:37.000Z</time>
      </trkpt>
      <trkpt lat="47.27413" lon="-1.5479">
        <ele>33.623680114746</ele>
        <time>2017-02-14T10:19:40.000Z</time>
      </trkpt>
      <trkpt lat="47.27411" lon="-1.54794">
        <ele>33.578231811523</ele>
        <time>2017-02-14T10:19:43.000Z</time>
      </trkpt>
      <trkpt lat="47.2741" lon="-1.54797">
        <ele>33.531406402588</ele>
        <time>2017-02-14T10:19:45.000Z</time>
      </trkpt>
      <trkpt lat="47.27408" lon="-1.54801">
        <ele>33.484832763672</ele>
        <time>2017-02-14T10:19:47.000Z</time>
      </trkpt>
      <trkpt lat="47.27407" lon="-1.54805">
        <ele>33.443775177002</ele>
        <time>2017-02-14T10:19:50.000Z</time>
      </trkpt>
      <trkpt lat="47.27405" lon="-1.5481">
        <ele>33.408954620361</ele>
        <time>2017-02-14T10:19:53.000Z</time>
      </trkpt>
      <trkpt lat="47.27405" lon="-1.54815">
        <ele>33.373874664307</ele>
        <time>2017-02-14T10:19:56.000Z</time>
      </trkpt>
      <trkpt lat="47.27406" lon="-1.54818">
        <ele>33.337459564209</ele>
        <time>2017-02-14T10:19:58.000Z</time>
      </trkpt>
      <trkpt lat="47.27407" lon="-1.5482">
        <ele>33.301300048828</ele>
        <time>2017-02-14T10:20:00.000Z</time>
      </trkpt>
      <trkpt lat="47.27409" lon="-1.54823">
        <ele>33.266258239746</ele>
        <time>2017-02-14T10:20:02.000Z</time>
      </trkpt>
      <trkpt lat="47.2741" lon="-1.54826">
        <ele>33.229206085205</ele>
        <time>2017-02-14T10:20:04.000Z</time>
      </trkpt>
      <trkpt lat="47.27411" lon="-1.5483">
        <ele>33.192291259766</ele>
        <time>2017-02-14T10:20:06.000Z</time>
      </trkpt>
      <trkpt lat="47.27411" lon="-1.54835">
        <ele>33.162170410156</ele>
        <time>2017-02-14T10:20:09.000Z</time>
      </trkpt>
      <trkpt lat="47.27411" lon="-1.54838">
        <ele>33.150959014893</ele>
        <time>2017-02-14T10:20:11.000Z</time>
      </trkpt>
      <trkpt lat="47.27412" lon="-1.54841">
        <ele>33.160957336426</ele>
        <time>2017-02-14T10:20:13.000Z</time>
      </trkpt>
      <trkpt lat="47.27412" lon="-1.54845">
        <ele>33.196556091309</ele>
        <time>2017-02-14T10:20:15.000Z</time>
      </trkpt>
      <trkpt lat="47.27413" lon="-1.54851">
        <ele>33.263919830322</ele>
        <time>2017-02-14T10:20:18.000Z</time>
      </trkpt>
      <trkpt lat="47.27414" lon="-1.54854">
        <ele>33.347454071045</ele>
        <time>2017-02-14T10:20:20.000Z</time>
      </trkpt>
      <trkpt lat="47.27414" lon="-1.5486">
        <ele>33.443675994873</ele>
        <time>2017-02-14T10:20:23.000Z</time>
      </trkpt>
      <trkpt lat="47.27415" lon="-1.54864">
        <ele>33.543804168701</ele>
        <time>2017-02-14T10:20:25.000Z</time>
      </trkpt>
      <trkpt lat="47.27415" lon="-1.54867">
        <ele>33.642711639404</ele>
        <time>2017-02-14T10:20:27.000Z</time>
      </trkpt>
      <trkpt lat="47.27415" lon="-1.54872">
        <ele>33.738285064697</ele>
        <time>2017-02-14T10:20:29.000Z</time>
      </trkpt>
      <trkpt lat="47.27415" lon="-1.54875">
        <ele>33.835399627686</ele>
        <time>2017-02-14T10:20:31.000Z</time>
      </trkpt>
      <trkpt lat="47.27417" lon="-1.54881">
        <ele>33.933158874512</ele>
        <time>2017-02-14T10:20:34.000Z</time>
      </trkpt>
      <trkpt lat="47.27417" lon="-1.54887">
        <ele>34.040508270264</ele>
        <time>2017-02-14T10:20:37.000Z</time>
      </trkpt>
      <trkpt lat="47.27417" lon="-1.54891">
        <ele>34.149791717529</ele>
        <time>2017-02-14T10:20:39.000Z</time>
      </trkpt>
      <trkpt lat="47.27418" lon="-1.54895">
        <ele>34.262310028076</ele>
        <time>2017-02-14T10:20:42.000Z</time>
      </trkpt>
      <trkpt lat="47.27418" lon="-1.54899">
        <ele>34.37427520752</ele>
        <time>2017-02-14T10:20:44.000Z</time>
      </trkpt>
      <trkpt lat="47.27419" lon="-1.54904">
        <ele>34.48335647583</ele>
        <time>2017-02-14T10:20:47.000Z</time>
      </trkpt>
      <trkpt lat="47.27419" lon="-1.54907">
        <ele>34.577747344971</ele>
        <time>2017-02-14T10:20:49.000Z</time>
      </trkpt>
      <trkpt lat="47.27421" lon="-1.54911">
        <ele>34.667778015137</ele>
        <time>2017-02-14T10:20:52.000Z</time>
      </trkpt>
      <trkpt lat="47.27422" lon="-1.54914">
        <ele>34.748229980469</ele>
        <time>2017-02-14T10:20:54.000Z</time>
      </trkpt>
      <trkpt lat="47.27421" lon="-1.5492">
        <ele>34.838645935059</ele>
        <time>2017-02-14T10:20:57.000Z</time>
      </trkpt>
      <trkpt lat="47.27421" lon="-1.54924">
        <ele>34.923034667969</ele>
        <time>2017-02-14T10:20:59.000Z</time>
      </trkpt>
      <trkpt lat="47.27421" lon="-1.54927">
        <ele>35.011058807373</ele>
        <time>2017-02-14T10:21:01.000Z</time>
      </trkpt>
      <trkpt lat="47.27421" lon="-1.5493">
        <ele>35.099922180176</ele>
        <time>2017-02-14T10:21:03.000Z</time>
      </trkpt>
      <trkpt lat="47.27422" lon="-1.54936">
        <ele>35.201721191406</ele>
        <time>2017-02-14T10:21:06.000Z</time>
      </trkpt>
      <trkpt lat="47.27422" lon="-1.5494">
        <ele>35.294067382812</ele>
        <time>2017-02-14T10:21:08.000Z</time>
      </trkpt>
      <trkpt lat="47.27422" lon="-1.54944">
        <ele>35.389892578125</ele>
        <time>2017-02-14T10:21:11.000Z</time>
      </trkpt>
      <trkpt lat="47.27422" lon="-1.54949">
        <ele>35.489868164062</ele>
        <time>2017-02-14T10:21:13.000Z</time>
      </trkpt>
      <trkpt lat="47.27422" lon="-1.54953">
        <ele>35.595275878906</ele>
        <time>2017-02-14T10:21:15.000Z</time>
      </trkpt>
      <trkpt lat="47.27423" lon="-1.54957">
        <ele>35.695556640625</ele>
        <time>2017-02-14T10:21:17.000Z</time>
      </trkpt>
      <trkpt lat="47.27423" lon="-1.54962">
        <ele>35.799560546875</ele>
        <time>2017-02-14T10:21:19.000Z</time>
      </trkpt>
      <trkpt lat="47.27424" lon="-1.54966">
        <ele>35.903137207031</ele>
        <time>2017-02-14T10:21:22.000Z</time>
      </trkpt>
      <trkpt lat="47.27424" lon="-1.54971">
        <ele>36.006103515625</ele>
        <time>2017-02-14T10:21:25.000Z</time>
      </trkpt>
      <trkpt lat="47.27425" lon="-1.54976">
        <ele>36.108215332031</ele>
        <time>2017-02-14T10:21:28.000Z</time>
      </trkpt>
      <trkpt lat="47.27426" lon="-1.5498">
        <ele>36.207824707031</ele>
        <time>2017-02-14T10:21:31.000Z</time>
      </trkpt>
      <trkpt lat="47.27427" lon="-1.54986">
        <ele>36.31298828125</ele>
        <time>2017-02-14T10:21:34.000Z</time>
      </trkpt>
      <trkpt lat="47.27428" lon="-1.54992">
        <ele>36.425720214844</ele>
        <time>2017-02-14T10:21:37.000Z</time>
      </trkpt>
      <trkpt lat="47.27428" lon="-1.54997">
        <ele>36.53857421875</ele>
        <time>2017-02-14T10:21:39.000Z</time>
      </trkpt>
      <trkpt lat="47.27429" lon="-1.55">
        <ele>36.647560119629</ele>
        <time>2017-02-14T10:21:41.000Z</time>
      </trkpt>
      <trkpt lat="47.27429" lon="-1.55004">
        <ele>36.749504089355</ele>
        <time>2017-02-14T10:21:43.000Z</time>
      </trkpt>
      <trkpt lat="47.27429" lon="-1.55011">
        <ele>36.844272613525</ele>
        <time>2017-02-14T10:21:46.000Z</time>
      </trkpt>
      <trkpt lat="47.2743" lon="-1.55017">
        <ele>36.925762176514</ele>
        <time>2017-02-14T10:21:49.000Z</time>
      </trkpt>
      <trkpt lat="47.27429" lon="-1.55023">
        <ele>37.004219055176</ele>
        <time>2017-02-14T10:21:52.000Z</time>
      </trkpt>
      <trkpt lat="47.27428" lon="-1.55028">
        <ele>37.083106994629</ele>
        <time>2017-02-14T10:21:55.000Z</time>
      </trkpt>
      <trkpt lat="47.27427" lon="-1.55034">
        <ele>37.168231964111</ele>
        <time>2017-02-14T10:21:58.000Z</time>
      </trkpt>
      <trkpt lat="47.27426" lon="-1.55038">
        <ele>37.245109558105</ele>
        <time>2017-02-14T10:22:00.000Z</time>
      </trkpt>
      <trkpt lat="47.27424" lon="-1.55044">
        <ele>37.326057434082</ele>
        <time>2017-02-14T10:22:03.000Z</time>
      </trkpt>
      <trkpt lat="47.27422" lon="-1.55049">
        <ele>37.40544128418</ele>
        <time>2017-02-14T10:22:06.000Z</time>
      </trkpt>
      <trkpt lat="47.27421" lon="-1.55053">
        <ele>37.479907989502</ele>
        <time>2017-02-14T10:22:08.000Z</time>
      </trkpt>
      <trkpt lat="47.27419" lon="-1.55057">
        <ele>37.546562194824</ele>
        <time>2017-02-14T10:22:10.000Z</time>
      </trkpt>
      <trkpt lat="47.27417" lon="-1.55061">
        <ele>37.614910125732</ele>
        <time>2017-02-14T10:22:13.000Z</time>
      </trkpt>
      <trkpt lat="47.27415" lon="-1.55066">
        <ele>37.683662414551</ele>
        <time>2017-02-14T10:22:16.000Z</time>
      </trkpt>
      <trkpt lat="47.27413" lon="-1.5507">
        <ele>37.7529296875</ele>
        <time>2017-02-14T10:22:18.000Z</time>
      </trkpt>
      <trkpt lat="47.27411" lon="-1.55075">
        <ele>37.834949493408</ele>
        <time>2017-02-14T10:22:21.000Z</time>
      </trkpt>
      <trkpt lat="47.27409" lon="-1.55079">
        <ele>37.924781799316</ele>
        <time>2017-02-14T10:22:23.000Z</time>
      </trkpt>
      <trkpt lat="47.27406" lon="-1.55082">
        <ele>38.027626037598</ele>
        <time>2017-02-14T10:22:26.000Z</time>
      </trkpt>
      <trkpt lat="47.27402" lon="-1.55083">
        <ele>38.132144927979</ele>
        <time>2017-02-14T10:22:28.000Z</time>
      </trkpt>
      <trkpt lat="47.27398" lon="-1.55084">
        <ele>38.237998962402</ele>
        <time>2017-02-14T10:22:31.000Z</time>
      </trkpt>
      <trkpt lat="47.27394" lon="-1.55084">
        <ele>38.338886260986</ele>
        <time>2017-02-14T10:22:34.000Z</time>
      </trkpt>
      <trkpt lat="47.27391" lon="-1.55085">
        <ele>38.435626983643</ele>
        <time>2017-02-14T10:22:37.000Z</time>
      </trkpt>
      <trkpt lat="47.27389" lon="-1.55086">
        <ele>38.511924743652</ele>
        <time>2017-02-14T10:22:39.000Z</time>
      </trkpt>
      <trkpt lat="47.27386" lon="-1.55087">
        <ele>38.579620361328</ele>
        <time>2017-02-14T10:22:42.000Z</time>
      </trkpt>
      <trkpt lat="47.27383" lon="-1.55087">
        <ele>38.643859863281</ele>
        <time>2017-02-14T10:22:45.000Z</time>
      </trkpt>
      <trkpt lat="47.27381" lon="-1.55088">
        <ele>38.697296142578</ele>
        <time>2017-02-14T10:22:47.000Z</time>
      </trkpt>
      <trkpt lat="47.27377" lon="-1.5509">
        <ele>38.750640869141</ele>
        <time>2017-02-14T10:22:50.000Z</time>
      </trkpt>
      <trkpt lat="47.27375" lon="-1.55091">
        <ele>38.803802490234</ele>
        <time>2017-02-14T10:22:52.000Z</time>
      </trkpt>
      <trkpt lat="47.27372" lon="-1.55093">
        <ele>38.857147216797</ele>
        <time>2017-02-14T10:22:55.000Z</time>
      </trkpt>
      <trkpt lat="47.27369" lon="-1.55094">
        <ele>38.908721923828</ele>
        <time>2017-02-14T10:22:58.000Z</time>
      </trkpt>
      <trkpt lat="47.27366" lon="-1.55094">
        <ele>38.966278076172</ele>
        <time>2017-02-14T10:23:01.000Z</time>
      </trkpt>
      <trkpt lat="47.27363" lon="-1.55095">
        <ele>39.020385742188</ele>
        <time>2017-02-14T10:23:03.000Z</time>
      </trkpt>
      <trkpt lat="47.27361" lon="-1.55095">
        <ele>39.082336425781</ele>
        <time>2017-02-14T10:23:05.000Z</time>
      </trkpt>
      <trkpt lat="47.27357" lon="-1.55096">
        <ele>39.147247314453</ele>
        <time>2017-02-14T10:23:08.000Z</time>
      </trkpt>
      <trkpt lat="47.27355" lon="-1.55097">
        <ele>39.208190917969</ele>
        <time>2017-02-14T10:23:10.000Z</time>
      </trkpt>
      <trkpt lat="47.27353" lon="-1.551">
        <ele>39.256988525391</ele>
        <time>2017-02-14T10:23:13.000Z</time>
      </trkpt>
      <trkpt lat="47.27353" lon="-1.55103">
        <ele>39.287689208984</ele>
        <time>2017-02-14T10:23:16.000Z</time>
      </trkpt>
      <trkpt lat="47.27353" lon="-1.55106">
        <ele>39.299835205078</ele>
        <time>2017-02-14T10:23:18.000Z</time>
      </trkpt>
      <trkpt lat="47.27353" lon="-1.55109">
        <ele>39.289886474609</ele>
        <time>2017-02-14T10:23:21.000Z</time>
      </trkpt>
      <trkpt lat="47.27352" lon="-1.5511">
        <ele>39.272766113281</ele>
        <time>2017-02-14T10:23:23.000Z</time>
      </trkpt>
      <trkpt lat="47.27349" lon="-1.55112">
        <ele>39.262786865234</ele>
        <time>2017-02-14T10:23:26.000Z</time>
      </trkpt>
      <trkpt lat="47.27344" lon="-1.55112">
        <ele>39.282440185547</ele>
        <time>2017-02-14T10:23:29.000Z</time>
      </trkpt>
      <trkpt lat="47.27342" lon="-1.55114">
        <ele>39.31591796875</ele>
        <time>2017-02-14T10:23:31.000Z</time>
      </trkpt>
      <trkpt lat="47.2734" lon="-1.55117">
        <ele>39.357177734375</ele>
        <time>2017-02-14T10:23:33.000Z</time>
      </trkpt>
      <trkpt lat="47.27338" lon="-1.55121">
        <ele>39.394287109375</ele>
        <time>2017-02-14T10:23:36.000Z</time>
      </trkpt>
      <trkpt lat="47.27339" lon="-1.55124">
        <ele>39.413116455078</ele>
        <time>2017-02-14T10:23:38.000Z</time>
      </trkpt>
      <trkpt lat="47.2734" lon="-1.55128">
        <ele>39.397064208984</ele>
        <time>2017-02-14T10:23:41.000Z</time>
      </trkpt>
      <trkpt lat="47.2734" lon="-1.55131">
        <ele>39.366973876953</ele>
        <time>2017-02-14T10:23:43.000Z</time>
      </trkpt>
      <trkpt lat="47.2734" lon="-1.55135">
        <ele>39.324005126953</ele>
        <time>2017-02-14T10:23:46.000Z</time>
      </trkpt>
      <trkpt lat="47.2734" lon="-1.55139">
        <ele>39.270538330078</ele>
        <time>2017-02-14T10:23:49.000Z</time>
      </trkpt>
      <trkpt lat="47.27341" lon="-1.55143">
        <ele>39.217742919922</ele>
        <time>2017-02-14T10:23:51.000Z</time>
      </trkpt>
      <trkpt lat="47.27341" lon="-1.55147">
        <ele>39.167205810547</ele>
        <time>2017-02-14T10:23:53.000Z</time>
      </trkpt>
      <trkpt lat="47.27342" lon="-1.55151">
        <ele>39.108184814453</ele>
        <time>2017-02-14T10:23:56.000Z</time>
      </trkpt>
      <trkpt lat="47.27343" lon="-1.55153">
        <ele>39.052642822266</ele>
        <time>2017-02-14T10:23:58.000Z</time>
      </trkpt>
      <trkpt lat="47.27345" lon="-1.55156">
        <ele>38.989929199219</ele>
        <time>2017-02-14T10:24:01.000Z</time>
      </trkpt>
      <trkpt lat="47.27346" lon="-1.55162">
        <ele>38.916168212891</ele>
        <time>2017-02-14T10:24:04.000Z</time>
      </trkpt>
      <trkpt lat="47.27346" lon="-1.55167">
        <ele>38.833778381348</ele>
        <time>2017-02-14T10:24:07.000Z</time>
      </trkpt>
      <trkpt lat="47.27346" lon="-1.5517">
        <ele>38.742588043213</ele>
        <time>2017-02-14T10:24:09.000Z</time>
      </trkpt>
      <trkpt lat="47.27345" lon="-1.55173">
        <ele>38.635005950928</ele>
        <time>2017-02-14T10:24:12.000Z</time>
      </trkpt>
      <trkpt lat="47.27345" lon="-1.55177">
        <ele>38.516284942627</ele>
        <time>2017-02-14T10:24:15.000Z</time>
      </trkpt>
      <trkpt lat="47.27344" lon="-1.55181">
        <ele>38.384387969971</ele>
        <time>2017-02-14T10:24:17.000Z</time>
      </trkpt>
      <trkpt lat="47.27345" lon="-1.55186">
        <ele>38.230918884277</ele>
        <time>2017-02-14T10:24:20.000Z</time>
      </trkpt>
      <trkpt lat="47.27345" lon="-1.55187">
        <ele>38.084259033203</ele>
        <time>2017-02-14T10:24:22.000Z</time>
      </trkpt>
      <trkpt lat="47.27344" lon="-1.55191">
        <ele>37.937393188477</ele>
        <time>2017-02-14T10:24:24.000Z</time>
      </trkpt>
      <trkpt lat="47.27342" lon="-1.55194">
        <ele>37.80184173584</ele>
        <time>2017-02-14T10:24:26.000Z</time>
      </trkpt>
      <trkpt lat="47.27338" lon="-1.55198">
        <ele>37.665985107422</ele>
        <time>2017-02-14T10:24:29.000Z</time>
      </trkpt>
      <trkpt lat="47.27337" lon="-1.55202">
        <ele>37.546863555908</ele>
        <time>2017-02-14T10:24:31.000Z</time>
      </trkpt>
      <trkpt lat="47.27332" lon="-1.55205">
        <ele>37.411773681641</ele>
        <time>2017-02-14T10:24:34.000Z</time>
      </trkpt>
      <trkpt lat="47.2733" lon="-1.55207">
        <ele>37.266448974609</ele>
        <time>2017-02-14T10:24:36.000Z</time>
      </trkpt>
      <trkpt lat="47.27328" lon="-1.55209">
        <ele>37.10631942749</ele>
        <time>2017-02-14T10:24:38.000Z</time>
      </trkpt>
      <trkpt lat="47.27326" lon="-1.55212">
        <ele>36.937450408936</ele>
        <time>2017-02-14T10:24:40.000Z</time>
      </trkpt>
      <trkpt lat="47.27323" lon="-1.55214">
        <ele>36.754703521729</ele>
        <time>2017-02-14T10:24:43.000Z</time>
      </trkpt>
      <trkpt lat="47.27321" lon="-1.55216">
        <ele>36.583702087402</ele>
        <time>2017-02-14T10:24:45.000Z</time>
      </trkpt>
      <trkpt lat="47.27318" lon="-1.55219">
        <ele>36.400615692139</ele>
        <time>2017-02-14T10:24:48.000Z</time>
      </trkpt>
      <trkpt lat="47.27315" lon="-1.55223">
        <ele>36.204307556152</ele>
        <time>2017-02-14T10:24:51.000Z</time>
      </trkpt>
      <trkpt lat="47.27314" lon="-1.55226">
        <ele>36.020973205566</ele>
        <time>2017-02-14T10:24:53.000Z</time>
      </trkpt>
      <trkpt lat="47.27312" lon="-1.55229">
        <ele>35.846576690674</ele>
        <time>2017-02-14T10:24:55.000Z</time>
      </trkpt>
      <trkpt lat="47.27311" lon="-1.55232">
        <ele>35.667839050293</ele>
        <time>2017-02-14T10:24:57.000Z</time>
      </trkpt>
      <trkpt lat="47.27309" lon="-1.55235">
        <ele>35.507820129395</ele>
        <time>2017-02-14T10:25:00.000Z</time>
      </trkpt>
      <trkpt lat="47.27306" lon="-1.55238">
        <ele>35.362422943115</ele>
        <time>2017-02-14T10:25:03.000Z</time>
      </trkpt>
      <trkpt lat="47.27304" lon="-1.5524">
        <ele>35.22322845459</ele>
        <time>2017-02-14T10:25:06.000Z</time>
      </trkpt>
      <trkpt lat="47.273" lon="-1.55244">
        <ele>35.076000213623</ele>
        <time>2017-02-14T10:25:09.000Z</time>
      </trkpt>
      <trkpt lat="47.27298" lon="-1.55248">
        <ele>34.92813873291</ele>
        <time>2017-02-14T10:25:11.000Z</time>
      </trkpt>
      <trkpt lat="47.27295" lon="-1.55252">
        <ele>34.777759552002</ele>
        <time>2017-02-14T10:25:14.000Z</time>
      </trkpt>
      <trkpt lat="47.27291" lon="-1.55256">
        <ele>34.634490966797</ele>
        <time>2017-02-14T10:25:17.000Z</time>
      </trkpt>
      <trkpt lat="47.27288" lon="-1.55261">
        <ele>34.484619140625</ele>
        <time>2017-02-14T10:25:20.000Z</time>
      </trkpt>
      <trkpt lat="47.27286" lon="-1.55264">
        <ele>34.357849121094</ele>
        <time>2017-02-14T10:25:22.000Z</time>
      </trkpt>
      <trkpt lat="47.27283" lon="-1.55267">
        <ele>34.237648010254</ele>
        <time>2017-02-14T10:25:25.000Z</time>
      </trkpt>
      <trkpt lat="47.27281" lon="-1.55268">
        <ele>34.13988494873</ele>
        <time>2017-02-14T10:25:27.000Z</time>
      </trkpt>
      <trkpt lat="47.27277" lon="-1.55271">
        <ele>34.052711486816</ele>
        <time>2017-02-14T10:25:30.000Z</time>
      </trkpt>
      <trkpt lat="47.27275" lon="-1.55274">
        <ele>33.97989654541</ele>
        <time>2017-02-14T10:25:33.000Z</time>
      </trkpt>
      <trkpt lat="47.27273" lon="-1.55277">
        <ele>33.907524108887</ele>
        <time>2017-02-14T10:25:35.000Z</time>
      </trkpt>
      <trkpt lat="47.27271" lon="-1.55282">
        <ele>33.834846496582</ele>
        <time>2017-02-14T10:25:38.000Z</time>
      </trkpt>
      <trkpt lat="47.27267" lon="-1.55286">
        <ele>33.756465911865</ele>
        <time>2017-02-14T10:25:41.000Z</time>
      </trkpt>
      <trkpt lat="47.27265" lon="-1.55286">
        <ele>33.691303253174</ele>
        <time>2017-02-14T10:25:43.000Z</time>
      </trkpt>
      <trkpt lat="47.27261" lon="-1.55289">
        <ele>33.633247375488</ele>
        <time>2017-02-14T10:25:46.000Z</time>
      </trkpt>
      <trkpt lat="47.27259" lon="-1.55292">
        <ele>33.579734802246</ele>
        <time>2017-02-14T10:25:48.000Z</time>
      </trkpt>
      <trkpt lat="47.27258" lon="-1.55296">
        <ele>33.534748077393</ele>
        <time>2017-02-14T10:25:50.000Z</time>
      </trkpt>
      <trkpt lat="47.27257" lon="-1.55299">
        <ele>33.495948791504</ele>
        <time>2017-02-14T10:25:52.000Z</time>
      </trkpt>
      <trkpt lat="47.27256" lon="-1.553">
        <ele>33.455738067627</ele>
        <time>2017-02-14T10:25:54.000Z</time>
      </trkpt>
      <trkpt lat="47.27253" lon="-1.55302">
        <ele>33.418403625488</ele>
        <time>2017-02-14T10:25:56.000Z</time>
      </trkpt>
      <trkpt lat="47.2725" lon="-1.55307">
        <ele>33.375339508057</ele>
        <time>2017-02-14T10:25:59.000Z</time>
      </trkpt>
      <trkpt lat="47.27248" lon="-1.5531">
        <ele>33.321826934814</ele>
        <time>2017-02-14T10:26:01.000Z</time>
      </trkpt>
      <trkpt lat="47.27246" lon="-1.55314">
        <ele>33.249946594238</ele>
        <time>2017-02-14T10:26:03.000Z</time>
      </trkpt>
      <trkpt lat="47.27244" lon="-1.55318">
        <ele>33.139270782471</ele>
        <time>2017-02-14T10:26:05.000Z</time>
      </trkpt>
      <trkpt lat="47.2724" lon="-1.55323">
        <ele>32.982112884521</ele>
        <time>2017-02-14T10:26:08.000Z</time>
      </trkpt>
      <trkpt lat="47.27239" lon="-1.55327">
        <ele>32.811431884766</ele>
        <time>2017-02-14T10:26:10.000Z</time>
      </trkpt>
      <trkpt lat="47.27237" lon="-1.5533">
        <ele>32.626880645752</ele>
        <time>2017-02-14T10:26:13.000Z</time>
      </trkpt>
      <trkpt lat="47.27234" lon="-1.55336">
        <ele>32.418678283691</ele>
        <time>2017-02-14T10:26:16.000Z</time>
      </trkpt>
      <trkpt lat="47.27231" lon="-1.5534">
        <ele>32.19868850708</ele>
        <time>2017-02-14T10:26:19.000Z</time>
      </trkpt>
      <trkpt lat="47.27229" lon="-1.55343">
        <ele>31.99404335022</ele>
        <time>2017-02-14T10:26:22.000Z</time>
      </trkpt>
      <trkpt lat="47.27227" lon="-1.55344">
        <ele>31.798990249634</ele>
        <time>2017-02-14T10:26:24.000Z</time>
      </trkpt>
      <trkpt lat="47.27226" lon="-1.55347">
        <ele>31.61626625061</ele>
        <time>2017-02-14T10:26:26.000Z</time>
      </trkpt>
      <trkpt lat="47.27224" lon="-1.55351">
        <ele>31.451526641846</ele>
        <time>2017-02-14T10:26:29.000Z</time>
      </trkpt>
      <trkpt lat="47.27224" lon="-1.55353">
        <ele>31.3244972229</ele>
        <time>2017-02-14T10:26:31.000Z</time>
      </trkpt>
      <trkpt lat="47.27221" lon="-1.55356">
        <ele>31.198184967041</ele>
        <time>2017-02-14T10:26:34.000Z</time>
      </trkpt>
      <trkpt lat="47.27219" lon="-1.55361">
        <ele>31.046337127686</ele>
        <time>2017-02-14T10:26:37.000Z</time>
      </trkpt>
      <trkpt lat="47.27216" lon="-1.55363">
        <ele>30.889354705811</ele>
        <time>2017-02-14T10:26:39.000Z</time>
      </trkpt>
      <trkpt lat="47.27213" lon="-1.55367">
        <ele>30.720331192017</ele>
        <time>2017-02-14T10:26:42.000Z</time>
      </trkpt>
      <trkpt lat="47.27211" lon="-1.5537">
        <ele>30.539831161499</ele>
        <time>2017-02-14T10:26:44.000Z</time>
      </trkpt>
      <trkpt lat="47.27208" lon="-1.55374">
        <ele>30.348651885986</ele>
        <time>2017-02-14T10:26:47.000Z</time>
      </trkpt>
      <trkpt lat="47.27204" lon="-1.55378">
        <ele>30.162418365479</ele>
        <time>2017-02-14T10:26:50.000Z</time>
      </trkpt>
      <trkpt lat="47.27202" lon="-1.55382">
        <ele>29.978321075439</ele>
        <time>2017-02-14T10:26:52.000Z</time>
      </trkpt>
      <trkpt lat="47.272" lon="-1.55387">
        <ele>29.809606552124</ele>
        <time>2017-02-14T10:26:55.000Z</time>
      </trkpt>
      <trkpt lat="47.27198" lon="-1.55392">
        <ele>29.644458770752</ele>
        <time>2017-02-14T10:26:58.000Z</time>
      </trkpt>
      <trkpt lat="47.27195" lon="-1.55398">
        <ele>29.488872528076</ele>
        <time>2017-02-14T10:27:01.000Z</time>
      </trkpt>
      <trkpt lat="47.27193" lon="-1.55402">
        <ele>29.346462249756</ele>
        <time>2017-02-14T10:27:04.000Z</time>
      </trkpt>
      <trkpt lat="47.2719" lon="-1.55407">
        <ele>29.202709197998</ele>
        <time>2017-02-14T10:27:07.000Z</time>
      </trkpt>
      <trkpt lat="47.27189" lon="-1.5541">
        <ele>29.074615478516</ele>
        <time>2017-02-14T10:27:09.000Z</time>
      </trkpt>
      <trkpt lat="47.27188" lon="-1.55414">
        <ele>28.96054649353</ele>
        <time>2017-02-14T10:27:12.000Z</time>
      </trkpt>
      <trkpt lat="47.27187" lon="-1.55416">
        <ele>28.871612548828</ele>
        <time>2017-02-14T10:27:14.000Z</time>
      </trkpt>
      <trkpt lat="47.27185" lon="-1.55418">
        <ele>28.790319442749</ele>
        <time>2017-02-14T10:27:17.000Z</time>
      </trkpt>
      <trkpt lat="47.27183" lon="-1.5542">
        <ele>28.724964141846</ele>
        <time>2017-02-14T10:27:19.000Z</time>
      </trkpt>
      <trkpt lat="47.2718" lon="-1.55422">
        <ele>28.657190322876</ele>
        <time>2017-02-14T10:27:22.000Z</time>
      </trkpt>
      <trkpt lat="47.27178" lon="-1.55425">
        <ele>28.586437225342</ele>
        <time>2017-02-14T10:27:24.000Z</time>
      </trkpt>
      <trkpt lat="47.27176" lon="-1.55428">
        <ele>28.517944335938</ele>
        <time>2017-02-14T10:27:26.000Z</time>
      </trkpt>
      <trkpt lat="47.27173" lon="-1.55432">
        <ele>28.456731796265</ele>
        <time>2017-02-14T10:27:29.000Z</time>
      </trkpt>
      <trkpt lat="47.27169" lon="-1.55436">
        <ele>28.397705078125</ele>
        <time>2017-02-14T10:27:32.000Z</time>
      </trkpt>
      <trkpt lat="47.27169" lon="-1.5544">
        <ele>28.360382080078</ele>
        <time>2017-02-14T10:27:35.000Z</time>
      </trkpt>
      <trkpt lat="47.27167" lon="-1.55443">
        <ele>28.334880828857</ele>
        <time>2017-02-14T10:27:38.000Z</time>
      </trkpt>
      <trkpt lat="47.27165" lon="-1.55446">
        <ele>28.322256088257</ele>
        <time>2017-02-14T10:27:40.000Z</time>
      </trkpt>
      <trkpt lat="47.27163" lon="-1.5545">
        <ele>28.326080322266</ele>
        <time>2017-02-14T10:27:43.000Z</time>
      </trkpt>
      <trkpt lat="47.27161" lon="-1.55452">
        <ele>28.339147567749</ele>
        <time>2017-02-14T10:27:45.000Z</time>
      </trkpt>
      <trkpt lat="47.27159" lon="-1.55454">
        <ele>28.345296859741</ele>
        <time>2017-02-14T10:27:47.000Z</time>
      </trkpt>
      <trkpt lat="47.27158" lon="-1.55455">
        <ele>28.352478027344</ele>
        <time>2017-02-14T10:27:49.000Z</time>
      </trkpt>
      <trkpt lat="47.27154" lon="-1.55458">
        <ele>28.354064941406</ele>
        <time>2017-02-14T10:27:52.000Z</time>
      </trkpt>
      <trkpt lat="47.27152" lon="-1.5546">
        <ele>28.350433349609</ele>
        <time>2017-02-14T10:27:54.000Z</time>
      </trkpt>
      <trkpt lat="47.2715" lon="-1.55462">
        <ele>28.346374511719</ele>
        <time>2017-02-14T10:27:57.000Z</time>
      </trkpt>
      <trkpt lat="47.27147" lon="-1.55465">
        <ele>28.342498779297</ele>
        <time>2017-02-14T10:28:00.000Z</time>
      </trkpt>
      <trkpt lat="47.27143" lon="-1.5547">
        <ele>28.344055175781</ele>
        <time>2017-02-14T10:28:03.000Z</time>
      </trkpt>
      <trkpt lat="47.27141" lon="-1.55474">
        <ele>28.352783203125</ele>
        <time>2017-02-14T10:28:06.000Z</time>
      </trkpt>
      <trkpt lat="47.2714" lon="-1.55476">
        <ele>28.363616943359</ele>
        <time>2017-02-14T10:28:08.000Z</time>
      </trkpt>
      <trkpt lat="47.27138" lon="-1.5548">
        <ele>28.378631591797</ele>
        <time>2017-02-14T10:28:11.000Z</time>
      </trkpt>
      <trkpt lat="47.27136" lon="-1.55483">
        <ele>28.396514892578</ele>
        <time>2017-02-14T10:28:14.000Z</time>
      </trkpt>
      <trkpt lat="47.27135" lon="-1.55485">
        <ele>28.413604736328</ele>
        <time>2017-02-14T10:28:17.000Z</time>
      </trkpt>
      <trkpt lat="47.27135" lon="-1.55488">
        <ele>28.431549072266</ele>
        <time>2017-02-14T10:28:19.000Z</time>
      </trkpt>
      <trkpt lat="47.27134" lon="-1.55493">
        <ele>28.457336425781</ele>
        <time>2017-02-14T10:28:22.000Z</time>
      </trkpt>
      <trkpt lat="47.27133" lon="-1.55497">
        <ele>28.48681640625</ele>
        <time>2017-02-14T10:28:25.000Z</time>
      </trkpt>
      <trkpt lat="47.27131" lon="-1.55501">
        <ele>28.509786605835</ele>
        <time>2017-02-14T10:28:28.000Z</time>
      </trkpt>
      <trkpt lat="47.27129" lon="-1.55502">
        <ele>28.506078720093</ele>
        <time>2017-02-14T10:28:30.000Z</time>
      </trkpt>
      <trkpt lat="47.27126" lon="-1.55504">
        <ele>28.470111846924</ele>
        <time>2017-02-14T10:28:33.000Z</time>
      </trkpt>
      <trkpt lat="47.27123" lon="-1.55507">
        <ele>28.382699966431</ele>
        <time>2017-02-14T10:28:36.000Z</time>
      </trkpt>
      <trkpt lat="47.27121" lon="-1.55511">
        <ele>28.244869232178</ele>
        <time>2017-02-14T10:28:39.000Z</time>
      </trkpt>
      <trkpt lat="47.27119" lon="-1.55516">
        <ele>28.061895370483</ele>
        <time>2017-02-14T10:28:42.000Z</time>
      </trkpt>
      <trkpt lat="47.27119" lon="-1.55519">
        <ele>27.869924545288</ele>
        <time>2017-02-14T10:28:44.000Z</time>
      </trkpt>
      <trkpt lat="47.27117" lon="-1.55523">
        <ele>27.660705566406</ele>
        <time>2017-02-14T10:28:47.000Z</time>
      </trkpt>
      <trkpt lat="47.27117" lon="-1.55525">
        <ele>27.472072601318</ele>
        <time>2017-02-14T10:28:49.000Z</time>
      </trkpt>
      <trkpt lat="47.27116" lon="-1.55528">
        <ele>27.296649932861</ele>
        <time>2017-02-14T10:28:52.000Z</time>
      </trkpt>
      <trkpt lat="47.27114" lon="-1.55531">
        <ele>27.136337280273</ele>
        <time>2017-02-14T10:28:55.000Z</time>
      </trkpt>
      <trkpt lat="47.27111" lon="-1.55533">
        <ele>26.990985870361</ele>
        <time>2017-02-14T10:28:57.000Z</time>
      </trkpt>
      <trkpt lat="47.27107" lon="-1.55538">
        <ele>26.847881317139</ele>
        <time>2017-02-14T10:29:00.000Z</time>
      </trkpt>
      <trkpt lat="47.27103" lon="-1.55541">
        <ele>26.700031280518</ele>
        <time>2017-02-14T10:29:03.000Z</time>
      </trkpt>
      <trkpt lat="47.27099" lon="-1.55543">
        <ele>26.568176269531</ele>
        <time>2017-02-14T10:29:06.000Z</time>
      </trkpt>
      <trkpt lat="47.27097" lon="-1.55544">
        <ele>26.468036651611</ele>
        <time>2017-02-14T10:29:08.000Z</time>
      </trkpt>
      <trkpt lat="47.27094" lon="-1.55544">
        <ele>26.385410308838</ele>
        <time>2017-02-14T10:29:11.000Z</time>
      </trkpt>
      <trkpt lat="47.27092" lon="-1.55545">
        <ele>26.341054916382</ele>
        <time>2017-02-14T10:29:13.000Z</time>
      </trkpt>
      <trkpt lat="47.27091" lon="-1.55545">
        <ele>26.324131011963</ele>
        <time>2017-02-14T10:29:15.000Z</time>
      </trkpt>
      <trkpt lat="47.27089" lon="-1.55546">
        <ele>26.319509506226</ele>
        <time>2017-02-14T10:29:17.000Z</time>
      </trkpt>
      <trkpt lat="47.27085" lon="-1.55545">
        <ele>26.326171875</ele>
        <time>2017-02-14T10:29:20.000Z</time>
      </trkpt>
      <trkpt lat="47.2708" lon="-1.55545">
        <ele>26.282985687256</ele>
        <time>2017-02-14T10:29:23.000Z</time>
      </trkpt>
      <trkpt lat="47.27077" lon="-1.55544">
        <ele>26.207717895508</ele>
        <time>2017-02-14T10:29:25.000Z</time>
      </trkpt>
      <trkpt lat="47.27074" lon="-1.55543">
        <ele>26.080211639404</ele>
        <time>2017-02-14T10:29:28.000Z</time>
      </trkpt>
      <trkpt lat="47.27071" lon="-1.55541">
        <ele>25.921676635742</ele>
        <time>2017-02-14T10:29:30.000Z</time>
      </trkpt>
      <trkpt lat="47.27067" lon="-1.5554">
        <ele>25.690420150757</ele>
        <time>2017-02-14T10:29:33.000Z</time>
      </trkpt>
      <trkpt lat="47.27065" lon="-1.55538">
        <ele>25.478887557983</ele>
        <time>2017-02-14T10:29:35.000Z</time>
      </trkpt>
      <trkpt lat="47.27061" lon="-1.55535">
        <ele>25.25207901001</ele>
        <time>2017-02-14T10:29:38.000Z</time>
      </trkpt>
      <trkpt lat="47.27058" lon="-1.55533">
        <ele>25.047159194946</ele>
        <time>2017-02-14T10:29:41.000Z</time>
      </trkpt>
      <trkpt lat="47.27057" lon="-1.55532">
        <ele>24.861385345459</ele>
        <time>2017-02-14T10:29:43.000Z</time>
      </trkpt>
      <trkpt lat="47.27055" lon="-1.55527">
        <ele>24.714700698853</ele>
        <time>2017-02-14T10:29:46.000Z</time>
      </trkpt>
      <trkpt lat="47.27053" lon="-1.55523">
        <ele>24.591167449951</ele>
        <time>2017-02-14T10:29:49.000Z</time>
      </trkpt>
      <trkpt lat="47.27052" lon="-1.55521">
        <ele>24.50922203064</ele>
        <time>2017-02-14T10:29:52.000Z</time>
      </trkpt>
      <trkpt lat="47.2705" lon="-1.5552">
        <ele>24.440019607544</ele>
        <time>2017-02-14T10:29:54.000Z</time>
      </trkpt>
      <trkpt lat="47.27049" lon="-1.55518">
        <ele>24.372013092041</ele>
        <time>2017-02-14T10:29:56.000Z</time>
      </trkpt>
      <trkpt lat="47.27048" lon="-1.55515">
        <ele>24.322397232056</ele>
        <time>2017-02-14T10:29:59.000Z</time>
      </trkpt>
      <trkpt lat="47.27047" lon="-1.55511">
        <ele>24.289018630981</ele>
        <time>2017-02-14T10:30:01.000Z</time>
      </trkpt>
      <trkpt lat="47.27045" lon="-1.55505">
        <ele>24.249410629272</ele>
        <time>2017-02-14T10:30:04.000Z</time>
      </trkpt>
      <trkpt lat="47.27043" lon="-1.55501">
        <ele>24.20945930481</ele>
        <time>2017-02-14T10:30:07.000Z</time>
      </trkpt>
      <trkpt lat="47.2704" lon="-1.55495">
        <ele>24.144786834717</ele>
        <time>2017-02-14T10:30:10.000Z</time>
      </trkpt>
      <trkpt lat="47.27039" lon="-1.55493">
        <ele>24.059324264526</ele>
        <time>2017-02-14T10:30:12.000Z</time>
      </trkpt>
      <trkpt lat="47.27037" lon="-1.55488">
        <ele>23.926769256592</ele>
        <time>2017-02-14T10:30:15.000Z</time>
      </trkpt>
      <trkpt lat="47.27033" lon="-1.5548">
        <ele>23.765180587769</ele>
        <time>2017-02-14T10:30:18.000Z</time>
      </trkpt>
      <trkpt lat="47.27029" lon="-1.55471">
        <ele>23.577041625977</ele>
        <time>2017-02-14T10:30:21.000Z</time>
      </trkpt>
      <trkpt lat="47.27027" lon="-1.55461">
        <ele>23.409103393555</ele>
        <time>2017-02-14T10:30:24.000Z</time>
      </trkpt>
      <trkpt lat="47.27026" lon="-1.55453">
        <ele>23.270076751709</ele>
        <time>2017-02-14T10:30:27.000Z</time>
      </trkpt>
      <trkpt lat="47.27025" lon="-1.55447">
        <ele>23.171100616455</ele>
        <time>2017-02-14T10:30:30.000Z</time>
      </trkpt>
      <trkpt lat="47.27024" lon="-1.55444">
        <ele>23.11244392395</ele>
        <time>2017-02-14T10:30:32.000Z</time>
      </trkpt>
      <trkpt lat="47.27024" lon="-1.55439">
        <ele>23.099435806274</ele>
        <time>2017-02-14T10:30:35.000Z</time>
      </trkpt>
      <trkpt lat="47.27024" lon="-1.55436">
        <ele>23.111499786377</ele>
        <time>2017-02-14T10:30:37.000Z</time>
      </trkpt>
      <trkpt lat="47.27023" lon="-1.55431">
        <ele>23.129611968994</ele>
        <time>2017-02-14T10:30:40.000Z</time>
      </trkpt>
      <trkpt lat="47.27022" lon="-1.55425">
        <ele>23.150503158569</ele>
        <time>2017-02-14T10:30:43.000Z</time>
      </trkpt>
      <trkpt lat="47.27022" lon="-1.55421">
        <ele>23.180395126343</ele>
        <time>2017-02-14T10:30:45.000Z</time>
      </trkpt>
      <trkpt lat="47.27021" lon="-1.55417">
        <ele>23.209745407104</ele>
        <time>2017-02-14T10:30:47.000Z</time>
      </trkpt>
      <trkpt lat="47.2702" lon="-1.55414">
        <ele>23.240077972412</ele>
        <time>2017-02-14T10:30:49.000Z</time>
      </trkpt>
      <trkpt lat="47.2702" lon="-1.55408">
        <ele>23.286809921265</ele>
        <time>2017-02-14T10:30:52.000Z</time>
      </trkpt>
      <trkpt lat="47.27019" lon="-1.55403">
        <ele>23.35294342041</ele>
        <time>2017-02-14T10:30:55.000Z</time>
      </trkpt>
      <trkpt lat="47.27018" lon="-1.554">
        <ele>23.422412872314</ele>
        <time>2017-02-14T10:30:57.000Z</time>
      </trkpt>
      <trkpt lat="47.27018" lon="-1.55396">
        <ele>23.514766693115</ele>
        <time>2017-02-14T10:31:00.000Z</time>
      </trkpt>
      <trkpt lat="47.27018" lon="-1.55393">
        <ele>23.617757797241</ele>
        <time>2017-02-14T10:31:02.000Z</time>
      </trkpt>
      <trkpt lat="47.27018" lon="-1.55388">
        <ele>23.722097396851</ele>
        <time>2017-02-14T10:31:05.000Z</time>
      </trkpt>
      <trkpt lat="47.27018" lon="-1.55385">
        <ele>23.816959381104</ele>
        <time>2017-02-14T10:31:07.000Z</time>
      </trkpt>
      <trkpt lat="47.27017" lon="-1.55381">
        <ele>23.927171707153</ele>
        <time>2017-02-14T10:31:09.000Z</time>
      </trkpt>
      <trkpt lat="47.27017" lon="-1.55378">
        <ele>24.031873703003</ele>
        <time>2017-02-14T10:31:11.000Z</time>
      </trkpt>
      <trkpt lat="47.27016" lon="-1.55372">
        <ele>24.144271850586</ele>
        <time>2017-02-14T10:31:14.000Z</time>
      </trkpt>
      <trkpt lat="47.27016" lon="-1.55368">
        <ele>24.252109527588</ele>
        <time>2017-02-14T10:31:17.000Z</time>
      </trkpt>
      <trkpt lat="47.27016" lon="-1.55363">
        <ele>24.375709533691</ele>
        <time>2017-02-14T10:31:20.000Z</time>
      </trkpt>
      <trkpt lat="47.27016" lon="-1.5536">
        <ele>24.499345779419</ele>
        <time>2017-02-14T10:31:22.000Z</time>
      </trkpt>
      <trkpt lat="47.27016" lon="-1.55356">
        <ele>24.626411437988</ele>
        <time>2017-02-14T10:31:24.000Z</time>
      </trkpt>
      <trkpt lat="47.27016" lon="-1.55352">
        <ele>24.745183944702</ele>
        <time>2017-02-14T10:31:26.000Z</time>
      </trkpt>
      <trkpt lat="47.27015" lon="-1.55347">
        <ele>24.872800827026</ele>
        <time>2017-02-14T10:31:29.000Z</time>
      </trkpt>
      <trkpt lat="47.27015" lon="-1.55341">
        <ele>25.001306533813</ele>
        <time>2017-02-14T10:31:32.000Z</time>
      </trkpt>
      <trkpt lat="47.27014" lon="-1.55338">
        <ele>25.117572784424</ele>
        <time>2017-02-14T10:31:34.000Z</time>
      </trkpt>
      <trkpt lat="47.27013" lon="-1.55335">
        <ele>25.224983215332</ele>
        <time>2017-02-14T10:31:37.000Z</time>
      </trkpt>
      <trkpt lat="47.27012" lon="-1.55332">
        <ele>25.327255249023</ele>
        <time>2017-02-14T10:31:39.000Z</time>
      </trkpt>
      <trkpt lat="47.27011" lon="-1.55329">
        <ele>25.428783416748</ele>
        <time>2017-02-14T10:31:41.000Z</time>
      </trkpt>
      <trkpt lat="47.27011" lon="-1.55326">
        <ele>25.532358169556</ele>
        <time>2017-02-14T10:31:43.000Z</time>
      </trkpt>
      <trkpt lat="47.2701" lon="-1.55321">
        <ele>25.671493530273</ele>
        <time>2017-02-14T10:31:46.000Z</time>
      </trkpt>
      <trkpt lat="47.27008" lon="-1.55314">
        <ele>25.865924835205</ele>
        <time>2017-02-14T10:31:49.000Z</time>
      </trkpt>
      <trkpt lat="47.27008" lon="-1.55309">
        <ele>26.10306930542</ele>
        <time>2017-02-14T10:31:51.000Z</time>
      </trkpt>
      <trkpt lat="47.27007" lon="-1.55305">
        <ele>26.352436065674</ele>
        <time>2017-02-14T10:31:53.000Z</time>
      </trkpt>
      <trkpt lat="47.27007" lon="-1.55298">
        <ele>26.63942527771</ele>
        <time>2017-02-14T10:31:56.000Z</time>
      </trkpt>
      <trkpt lat="47.27005" lon="-1.55293">
        <ele>26.936101913452</ele>
        <time>2017-02-14T10:31:59.000Z</time>
      </trkpt>
      <trkpt lat="47.27003" lon="-1.55289">
        <ele>27.203258514404</ele>
        <time>2017-02-14T10:32:02.000Z</time>
      </trkpt>
      <trkpt lat="47.27002" lon="-1.55288">
        <ele>27.421813964844</ele>
        <time>2017-02-14T10:32:04.000Z</time>
      </trkpt>
      <trkpt lat="47.27" lon="-1.55287">
        <ele>27.606359481812</ele>
        <time>2017-02-14T10:32:07.000Z</time>
      </trkpt>
      <trkpt lat="47.26998" lon="-1.55284">
        <ele>27.743963241577</ele>
        <time>2017-02-14T10:32:10.000Z</time>
      </trkpt>
      <trkpt lat="47.26997" lon="-1.55283">
        <ele>27.836004257202</ele>
        <time>2017-02-14T10:32:12.000Z</time>
      </trkpt>
      <trkpt lat="47.26996" lon="-1.55281">
        <ele>27.901559829712</ele>
        <time>2017-02-14T10:32:14.000Z</time>
      </trkpt>
      <trkpt lat="47.26995" lon="-1.55278">
        <ele>27.993320465088</ele>
        <time>2017-02-14T10:32:17.000Z</time>
      </trkpt>
      <trkpt lat="47.26993" lon="-1.55274">
        <ele>28.108312606812</ele>
        <time>2017-02-14T10:32:19.000Z</time>
      </trkpt>
      <trkpt lat="47.26991" lon="-1.55269">
        <ele>28.244546890259</ele>
        <time>2017-02-14T10:32:22.000Z</time>
      </trkpt>
      <trkpt lat="47.26988" lon="-1.55262">
        <ele>28.428268432617</ele>
        <time>2017-02-14T10:32:25.000Z</time>
      </trkpt>
      <trkpt lat="47.26986" lon="-1.55257">
        <ele>28.641277313232</ele>
        <time>2017-02-14T10:32:28.000Z</time>
      </trkpt>
      <trkpt lat="47.26985" lon="-1.55251">
        <ele>28.875904083252</ele>
        <time>2017-02-14T10:32:31.000Z</time>
      </trkpt>
      <trkpt lat="47.26984" lon="-1.55245">
        <ele>29.078317642212</ele>
        <time>2017-02-14T10:32:34.000Z</time>
      </trkpt>
      <trkpt lat="47.26985" lon="-1.55241">
        <ele>29.227794647217</ele>
        <time>2017-02-14T10:32:36.000Z</time>
      </trkpt>
      <trkpt lat="47.26986" lon="-1.55237">
        <ele>29.316534042358</ele>
        <time>2017-02-14T10:32:39.000Z</time>
      </trkpt>
      <trkpt lat="47.26987" lon="-1.55233">
        <ele>29.359720230103</ele>
        <time>2017-02-14T10:32:42.000Z</time>
      </trkpt>
      <trkpt lat="47.2699" lon="-1.55231">
        <ele>29.365478515625</ele>
        <time>2017-02-14T10:32:45.000Z</time>
      </trkpt>
      <trkpt lat="47.2699" lon="-1.55231">
        <ele>29.365478515625</ele>
        <time>2017-02-14T10:32:47.000Z</time>
      </trkpt>
    </trkseg>
  </trk>
</gpx>